# Wetter Temperatur Luftdruck Luftfeuchtigkeit Sichtweite Windgeschwindigkeit Windrichtung Zeit
1 Clouds 20 1023 52 10000 5.66 120 11:31 14.08.2022
2 Clouds 19 1024 56 10000 5.66 120 10:26 14.08.2022
3 Clouds 15 1024 67 10000 3.09 150 08:20 14.08.2022
4 Drizzle 10 1024 93 10000 2.06 150 06:20 14.08.2022
5 Clouds 9 1023 93 10000 2.57 150 02:35 14.08.2022
6 Clouds 10 1025 100 10000 3.09 90 23:23 13.08.2022
7 Clouds 9 1025 100 10000 2.57 90 22:28 13.08.2022
8 Clouds 10 1025 93 10000 3.09 100 20:58 13.08.2022
9 Clouds 10 1025 93 10000 2.57 90 19:50 13.08.2022
10 Clouds 11 1025 87 10000 2.57 100 19:20 13.08.2022
11 Clouds 14 1023 72 10000 5.66 100 17:35 13.08.2022
12 Clouds 18 1023 52 10000 8.23 110 15:18 13.08.2022
13 Clouds 18 1023 55 10000 7.72 110 14:24 13.08.2022
14 Clouds 20 1023 52 10000 6.17 80 13:37 13.08.2022
15 Clouds 19 1024 56 10000 5.66 100 11:49 13.08.2022
16 Clouds 15 1025 72 10000 3.6 140 09:43 13.08.2022
17 Clouds 12 1025 82 10000 2.06 130 07:50 13.08.2022
18 Clouds 8 1024 93 10000 3.09 150 02:33 13.08.2022
19 Clouds 10 1025 100 10000 3.09 120 23:45 12.08.2022
20 Clouds 12 1025 94 10000 3.6 130 21:40 12.08.2022
21 Clouds 11 1025 100 10000 3.09 110 19:51 12.08.2022
22 Drizzle 12 1025 100 8000 3.6 140 19:24 12.08.2022
23 Clouds 12 1025 88 10000 4.63 110 18:31 12.08.2022
24 Clouds 15 1024 72 10000 4.63 90 16:27 12.08.2022
25 Clouds 17 1024 59 10000 5.14 150 15:23 12.08.2022
26 Clouds 18 1023 55 10000 6.17 100 13:56 12.08.2022
27 Clouds 19 1024 52 10000 5.66 110 12:50 12.08.2022
28 Clouds 15 1026 72 10000 5.66 140 09:28 12.08.2022
29 Clouds 13 1025 82 10000 4.63 160 07:47 12.08.2022
30 Drizzle 11 1025 94 8000 3.6 160 06:25 12.08.2022
31 Clouds 11 1025 82 10000 3.6 150 01:22 12.08.2022
32 Clouds 12 1026 82 10000 4.63 150 00:18 12.08.2022
33 Clouds 11 1026 82 10000 3.6 160 23:27 11.08.2022
34 Clouds 12 1027 76 10000 4.12 170 21:57 11.08.2022
35 Clouds 12 1026 76 10000 4.63 170 21:34 11.08.2022
36 Clouds 12 1026 76 10000 4.63 160 20:31 11.08.2022
37 Clouds 12 1026 76 10000 3.6 150 19:41 11.08.2022
38 Clouds 12 1026 76 10000 3.6 150 19:21 11.08.2022
39 Clouds 13 1025 67 10000 4.63 120 17:23 11.08.2022
40 Clouds 15 1025 55 10000 6.69 140 15:51 11.08.2022
41 Clouds 15 1024 59 10000 6.17 130 14:46 11.08.2022
42 Clouds 18 1025 52 10000 8.75 120 12:35 11.08.2022
43 Clouds 14 1027 63 10000 6.17 160 09:24 11.08.2022
44 Clouds 11 1026 76 10000 4.63 140 06:58 11.08.2022
45 Clouds 9 1025 81 10000 3.6 150 03:23 11.08.2022
46 Clouds 11 1026 76 10000 4.63 160 00:19 11.08.2022
47 Clouds 12 1027 76 10000 4.12 140 21:56 10.08.2022
48 Clouds 11 1027 82 10000 3.6 130 21:19 10.08.2022
49 Clouds 11 1027 82 10000 4.12 140 20:42 10.08.2022
50 Clouds 12 1026 76 10000 3.6 150 18:53 10.08.2022
51 Clouds 13 1025 72 10000 5.14 130 17:28 10.08.2022
52 Clouds 17 1024 55 10000 7.2 120 15:26 10.08.2022
53 Clouds 17 1024 63 10000 7.72 120 13:34 10.08.2022
54 Clouds 18 1025 63 10000 5.66 140 11:47 10.08.2022
55 Clouds 14 1026 77 10000 4.12 150 08:44 10.08.2022
56 Clouds 12 1025 76 10000 3.09 120 07:36 10.08.2022
57 Clouds 8 1025 93 10000 2.06 120 05:46 10.08.2022
58 Clouds 10 1025 87 10000 3.6 130 02:22 10.08.2022
59 Clouds 12 1026 82 10000 4.12 150 23:33 09.08.2022
60 Clouds 12 1026 82 10000 3.6 140 22:48 09.08.2022
61 Clouds 12 1027 82 10000 4.63 140 21:33 09.08.2022
62 Clouds 13 1026 77 10000 4.63 150 19:33 09.08.2022
63 Clouds 13 1026 77 10000 3.6 150 17:59 09.08.2022
64 Clouds 13 1025 82 10000 3.09 140 17:26 09.08.2022
65 Clouds 14 1025 77 10000 5.66 120 16:33 09.08.2022
66 Clouds 16 1025 63 10000 6.17 120 15:26 09.08.2022
67 Clouds 19 1025 49 10000 6.17 120 12:20 09.08.2022
68 Clouds 16 1027 55 10000 6.17 170 08:54 09.08.2022
69 Clouds 12 1027 76 10000 4.12 160 07:59 09.08.2022
70 Drizzle 9 1026 100 10000 1.54 0 06:55 09.08.2022
71 Clouds 7 1025 100 10000 1.54 100 01:57 09.08.2022
72 Clouds 7 1026 100 10000 2.06 80 23:26 08.08.2022
73 Clouds 8 1026 100 10000 1.54 60 22:52 08.08.2022
74 Clouds 9 1026 93 10000 3.09 90 21:47 08.08.2022
75 Clouds 9 1026 93 10000 2.57 70 20:43 08.08.2022
76 Clouds 12 1026 82 10000 4.63 120 19:41 08.08.2022
77 Clouds 14 1025 67 10000 5.66 110 18:19 08.08.2022
78 Clouds 16 1024 51 10000 5.14 140 15:55 08.08.2022
79 Clouds 18 1023 48 10000 5.66 120 15:37 08.08.2022
80 Clouds 20 1024 40 10000 5.66 130 12:35 08.08.2022
81 Clouds 19 1024 37 10000 6.69 120 10:50 08.08.2022
82 Clouds 13 1025 77 10000 3.6 160 08:20 08.08.2022
83 Fog 8 1023 100 200 1.54 160 04:45 08.08.2022
84 Clouds 7 1023 100 10000 1.03 60 01:29 08.08.2022
85 Clouds 11 1024 87 10000 3.09 140 21:42 07.08.2022
86 Clouds 11 1024 87 10000 3.09 130 21:24 07.08.2022
87 Clouds 11 1024 87 10000 4.12 110 20:24 07.08.2022
88 Clouds 11 1024 82 10000 4.12 100 19:52 07.08.2022
89 Clouds 12 1023 71 10000 4.63 90 19:22 07.08.2022
90 Clouds 14 1023 63 10000 4.63 110 17:45 07.08.2022
91 Clouds 16 1022 51 10000 6.17 110 16:52 07.08.2022
92 Clouds 20 1021 37 10000 6.17 110 15:40 07.08.2022
93 Clouds 21 1021 35 10000 6.17 120 14:27 07.08.2022
94 Clouds 21 1021 35 10000 3.6 150 12:41 07.08.2022
95 Clouds 20 1023 43 10000 3.09 0 10:51 07.08.2022
96 Clouds 19 1023 49 10000 3.09 180 10:21 07.08.2022
97 Clouds 7 1022 100 10000 0 0 04:38 07.08.2022
98 Clouds 9 1022 100 10000 1.03 0 02:25 07.08.2022
99 Clouds 12 1023 88 10000 2.06 50 22:39 06.08.2022
100 Clouds 12 1023 88 10000 2.06 50 22:18 06.08.2022
101 Clouds 14 1022 72 10000 4.12 100 19:46 06.08.2022
102 Clouds 14 1022 72 10000 3.09 100 18:50 06.08.2022
103 Clouds 15 1021 67 10000 3.6 90 17:45 06.08.2022
104 Clouds 18 1021 48 10000 4.12 100 16:24 06.08.2022
105 Clouds 23 1020 33 10000 2.57 0 13:51 06.08.2022
106 Clouds 23 1021 35 10000 2.06 0 12:27 06.08.2022
107 Clouds 21 1022 43 10000 2.57 180 11:21 06.08.2022
108 Clouds 18 1024 52 10000 1.54 0 09:41 06.08.2022
109 Fog 8 1022 100 400 0.51 0 04:43 06.08.2022
110 Clouds 9 1023 100 10000 0.51 70 00:49 06.08.2022
111 Clouds 10 1024 100 10000 1.54 160 22:35 05.08.2022
112 Clouds 11 1024 94 10000 2.06 130 20:50 05.08.2022
113 Clouds 12 1024 88 10000 4.12 110 18:56 05.08.2022
114 Clouds 13 1023 82 10000 4.12 80 18:38 05.08.2022
115 Clouds 16 1023 59 10000 4.12 100 16:52 05.08.2022
116 Clouds 20 1023 46 10000 4.12 80 15:24 05.08.2022
117 Clouds 20 1023 43 10000 3.6 120 14:35 05.08.2022
118 Clouds 21 1023 43 10000 3.6 100 13:36 05.08.2022
119 Clouds 21 1023 43 10000 3.6 100 13:18 05.08.2022
120 Clouds 19 1024 45 10000 4.12 150 11:29 05.08.2022
121 Clouds 15 1026 63 10000 3.09 140 08:57 05.08.2022
122 Clouds 13 1026 77 10000 2.57 150 07:53 05.08.2022
123 Clouds 7 1024 100 10000 0 0 04:19 05.08.2022
124 Clouds 10 1025 93 10000 2.06 170 23:18 04.08.2022
125 Clouds 10 1026 93 10000 2.06 150 21:28 04.08.2022
126 Clouds 11 1026 87 10000 1.54 0 20:57 04.08.2022
127 Clouds 10 1025 93 10000 2.06 100 20:37 04.08.2022
128 Clouds 12 1025 82 10000 4.12 100 18:59 04.08.2022
129 Clouds 12 1025 82 10000 5.14 90 18:34 04.08.2022
130 Clouds 17 1024 55 10000 6.17 120 15:53 04.08.2022
131 Clouds 18 1024 55 10000 5.66 180 13:26 04.08.2022
132 Clouds 18 1024 55 10000 5.66 180 13:26 04.08.2022
133 Clouds 19 1025 49 10000 4.12 160 11:39 04.08.2022
134 Clouds 18 1026 55 10000 3.6 140 10:22 04.08.2022
135 Rain 13 1026 77 10000 3.09 150 07:47 04.08.2022
136 Clouds 12 1024 88 10000 2.57 100 02:50 04.08.2022
137 Clouds 12 1025 88 10000 3.6 110 00:43 04.08.2022
138 Clouds 12 1025 94 10000 4.12 100 23:40 03.08.2022
139 Clouds 13 1025 88 10000 4.12 100 21:31 03.08.2022
140 Clouds 13 1025 82 10000 4.12 100 20:21 03.08.2022
141 Clouds 13 1025 82 10000 3.6 100 19:24 03.08.2022
142 Clouds 16 1024 63 10000 4.63 90 16:50 03.08.2022
143 Clouds 17 1024 59 10000 4.12 70 16:22 03.08.2022
144 Clouds 18 1024 59 10000 4.63 110 13:53 03.08.2022
145 Clouds 17 1025 59 10000 5.14 140 10:57 03.08.2022
146 Clouds 12 1025 82 10000 3.6 170 07:32 03.08.2022
147 Clouds 11 1024 82 10000 2.57 170 04:22 03.08.2022
148 Clouds 11 1024 82 10000 2.57 160 03:23 03.08.2022
149 Clouds 12 1025 82 10000 5.14 170 00:49 03.08.2022
150 Clouds 11 1025 94 10000 2.06 150 22:43 02.08.2022
151 Clouds 11 1025 87 10000 2.06 120 21:52 02.08.2022
152 Clouds 12 1026 88 10000 4.63 120 20:32 02.08.2022
153 Clouds 12 1025 82 10000 3.6 110 18:34 02.08.2022
154 Clouds 18 1023 48 10000 5.66 140 15:20 02.08.2022
155 Clouds 19 1025 49 10000 5.66 140 10:51 02.08.2022
156 Clouds 15 1026 63 10000 6.69 150 08:54 02.08.2022
157 Clouds 13 1026 77 10000 5.14 160 07:52 02.08.2022
158 Clouds 11 1025 87 10000 3.09 170 05:40 02.08.2022
159 Clouds 11 1024 94 10000 2.57 140 03:40 02.08.2022
160 Clouds 12 1025 94 10000 2.06 150 23:35 01.08.2022
161 Clouds 12 1025 94 10000 2.06 140 22:21 01.08.2022
162 Clouds 13 1025 88 10000 2.57 150 20:47 01.08.2022
163 Clouds 14 1025 77 10000 3.09 140 19:22 01.08.2022
164 Clouds 15 1024 67 10000 3.6 90 17:27 01.08.2022
165 Clouds 16 1023 63 10000 4.12 90 16:50 01.08.2022
166 Clouds 19 1023 49 10000 5.66 100 15:51 01.08.2022
167 Clouds 20 1023 49 10000 5.14 110 15:28 01.08.2022
168 Clouds 21 1023 46 10000 5.66 120 13:45 01.08.2022
169 Clouds 20 1024 52 10000 3.6 150 11:49 01.08.2022
170 Clouds 17 1026 63 8000 2.06 120 09:38 01.08.2022
171 Mist 12 1026 100 6000 1.54 0 08:21 01.08.2022
172 Fog 8 1024 100 250 1.03 0 04:45 01.08.2022
173 Clouds 9 1024 100 10000 1.54 130 02:31 01.08.2022
174 Clouds 10 1025 100 10000 1.54 60 23:42 31.07.2022
175 Clouds 11 1025 94 10000 3.09 120 22:36 31.07.2022
176 Clouds 11 1024 94 10000 3.09 110 20:49 31.07.2022
177 Clouds 13 1024 82 10000 3.09 130 19:25 31.07.2022
178 Clouds 14 1023 72 10000 3.6 100 17:43 31.07.2022
179 Clouds 20 1022 49 10000 5.14 110 15:30 31.07.2022
180 Clouds 21 1022 43 10000 4.12 110 13:31 31.07.2022
181 Clouds 21 1023 43 10000 4.12 120 11:45 31.07.2022
182 Clouds 18 1024 55 10000 2.57 160 09:27 31.07.2022
183 Clouds 11 1024 94 10000 3.09 80 06:37 31.07.2022
184 Clouds 12 1023 100 10000 2.06 70 02:56 31.07.2022
185 Clouds 13 1024 88 10000 2.57 150 23:29 30.07.2022
186 Clouds 12 1024 100 10000 2.06 140 22:19 30.07.2022
187 Clouds 11 1024 100 10000 1.03 0 21:40 30.07.2022
188 Clouds 11 1024 100 10000 1.54 80 20:51 30.07.2022
189 Clouds 12 1024 94 10000 3.6 100 19:58 30.07.2022
190 Clouds 13 1023 82 10000 4.12 120 18:26 30.07.2022
191 Clouds 16 1023 67 10000 4.63 90 16:54 30.07.2022
192 Clouds 19 1022 56 10000 6.69 110 15:35 30.07.2022
193 Clouds 18 1022 55 10000 5.66 130 14:32 30.07.2022
194 Clouds 19 1023 56 10000 5.14 100 12:43 30.07.2022
195 Clouds 18 1024 59 10000 5.14 100 11:55 30.07.2022
196 Clouds 18 1024 63 10000 4.12 0 10:20 30.07.2022
197 Clouds 16 1025 72 10000 4.12 130 09:42 30.07.2022
198 Clouds 14 1025 82 10000 2.57 140 07:44 30.07.2022
199 Clouds 12 1023 94 10000 3.09 110 02:34 30.07.2022
200 Clouds 12 1024 94 10000 2.57 70 01:21 30.07.2022
201 Clouds 13 1025 88 10000 3.09 70 21:39 29.07.2022
202 Clouds 13 1025 88 10000 2.57 90 20:57 29.07.2022
203 Clouds 14 1024 82 10000 3.6 110 19:48 29.07.2022
204 Clouds 14 1023 82 10000 4.63 120 17:40 29.07.2022
205 Clouds 18 1022 59 10000 6.17 100 14:53 29.07.2022
206 Rain 19 1022 56 10000 2.57 100 12:58 29.07.2022
207 Clouds 14 1025 94 10000 3.09 140 09:35 29.07.2022
208 Drizzle 13 1025 94 6000 3.6 140 08:46 29.07.2022
209 Clouds 13 1024 100 10000 3.09 120 07:30 29.07.2022
210 Clouds 13 1022 88 10000 2.57 170 01:46 29.07.2022
211 Clouds 14 1023 82 10000 2.57 140 21:54 28.07.2022
212 Clouds 14 1023 82 10000 5.66 110 20:54 28.07.2022
213 Clouds 14 1023 82 10000 4.12 120 20:21 28.07.2022
214 Clouds 14 1023 88 10000 3.09 140 19:40 28.07.2022
215 Clouds 14 1022 82 10000 3.6 100 18:25 28.07.2022
216 Clouds 15 1022 72 10000 4.12 100 17:42 28.07.2022
217 Clouds 17 1021 63 10000 4.63 100 16:41 28.07.2022
218 Clouds 21 1020 43 10000 4.12 130 14:30 28.07.2022
219 Clouds 23 1021 38 10000 3.6 160 12:41 28.07.2022
220 Clouds 18 1023 59 10000 1.54 0 09:34 28.07.2022
221 Clouds 6 1021 100 10000 0 0 05:45 28.07.2022
222 Fog 6 1021 100 10000 0 0 05:24 28.07.2022
223 Clouds 10 1021 93 10000 0.51 200 00:29 28.07.2022
224 Clouds 11 1022 87 10000 1.54 90 22:25 27.07.2022
225 Clouds 11 1022 82 10000 3.09 100 20:20 27.07.2022
226 Clouds 11 1021 76 10000 2.06 100 19:32 27.07.2022
227 Clouds 18 1019 48 10000 4.63 100 16:34 27.07.2022
228 Clouds 19 1019 45 10000 4.12 110 15:51 27.07.2022
229 Clouds 20 1018 40 10000 3.6 110 14:42 27.07.2022
230 Clouds 21 1019 37 10000 4.12 110 13:58 27.07.2022
231 Clouds 20 1020 46 10000 3.6 150 11:49 27.07.2022
232 Clouds 14 1022 67 10000 4.12 130 07:53 27.07.2022
233 Clouds 11 1020 100 10000 1.54 140 05:23 27.07.2022
234 Clouds 10 1022 100 10000 2.06 50 23:41 26.07.2022
235 Clouds 11 1022 100 10000 1.54 140 22:20 26.07.2022
236 Clouds 12 1023 94 10000 2.06 140 21:19 26.07.2022
237 Clouds 12 1022 88 10000 3.09 100 19:39 26.07.2022
238 Clouds 13 1022 82 10000 3.6 100 18:41 26.07.2022
239 Clouds 14 1021 77 10000 4.63 100 17:55 26.07.2022
240 Clouds 20 1020 52 10000 5.14 100 15:47 26.07.2022
241 Clouds 22 1020 40 10000 2.06 0 14:43 26.07.2022
242 Clouds 22 1021 43 10000 3.09 100 12:41 26.07.2022
243 Clouds 19 1023 56 10000 2.06 180 10:35 26.07.2022
244 Mist 15 1024 77 7000 2.06 180 08:29 26.07.2022
245 Clouds 11 1022 94 10000 1.54 50 03:58 26.07.2022
246 Clouds 8 1023 100 10000 0.51 0 00:22 26.07.2022
247 Clouds 10 1024 100 10000 1.54 40 22:41 25.07.2022
248 Clouds 10 1024 100 10000 2.06 60 22:21 25.07.2022
249 Clouds 11 1024 94 10000 2.06 130 21:31 25.07.2022
250 Clouds 10 1024 100 10000 2.57 110 20:39 25.07.2022
251 Clouds 11 1024 94 10000 1.54 60 19:25 25.07.2022
252 Clouds 13 1023 82 10000 2.57 80 18:18 25.07.2022
253 Clouds 14 1023 72 10000 3.6 100 17:23 25.07.2022
254 Clouds 19 1022 52 10000 4.63 110 14:19 25.07.2022
255 Clouds 19 1024 49 10000 4.63 130 10:56 25.07.2022
256 Clouds 14 1024 77 10000 2.57 120 08:22 25.07.2022
257 Clouds 9 1023 100 10000 1.54 80 01:44 25.07.2022
258 Clouds 9 1023 100 10000 1.03 40 23:46 24.07.2022
259 Clouds 10 1024 100 10000 2.06 70 22:49 24.07.2022
260 Clouds 10 1024 100 10000 0.51 40 21:48 24.07.2022
261 Clouds 10 1024 100 10000 0.51 40 21:18 24.07.2022
262 Clouds 10 1024 100 10000 2.06 60 20:45 24.07.2022
263 Clouds 11 1024 87 10000 2.57 110 19:37 24.07.2022
264 Clouds 12 1023 76 10000 2.06 90 18:26 24.07.2022
265 Clouds 18 1022 52 10000 5.14 110 15:55 24.07.2022
266 Clouds 19 1021 49 10000 5.66 120 14:57 24.07.2022
267 Clouds 20 1022 46 10000 4.63 110 13:50 24.07.2022
268 Clouds 19 1023 52 10000 4.63 120 12:28 24.07.2022
269 Clouds 16 1024 67 10000 2.57 140 11:31 24.07.2022
270 Clouds 16 1024 67 10000 3.6 150 10:26 24.07.2022
271 Clouds 13 1025 82 10000 3.09 140 08:29 24.07.2022
272 Clouds 13 1025 82 10000 3.09 180 07:44 24.07.2022
273 Clouds 11 1023 100 10000 2.06 110 03:35 24.07.2022
274 Clouds 11 1025 94 10000 3.09 110 23:36 23.07.2022
275 Clouds 12 1026 94 10000 3.6 120 20:49 23.07.2022
276 Clouds 11 1025 100 10000 1.54 0 19:30 23.07.2022
277 Clouds 12 1025 94 10000 3.6 90 18:49 23.07.2022
278 Clouds 13 1024 82 10000 3.09 100 17:28 23.07.2022
279 Clouds 15 1024 77 10000 3.09 120 16:29 23.07.2022
280 Clouds 16 1024 72 10000 3.6 120 15:22 23.07.2022
281 Drizzle 17 1023 63 10000 3.6 130 14:55 23.07.2022
282 Clouds 17 1023 63 10000 3.09 140 14:24 23.07.2022
283 Clouds 17 1024 63 10000 2.57 140 12:22 23.07.2022
284 Clouds 16 1025 67 10000 4.12 150 10:44 23.07.2022
285 Clouds 15 1026 72 10000 4.12 130 09:53 23.07.2022
286 Drizzle 12 1026 88 8000 3.6 150 08:24 23.07.2022
287 Clouds 9 1024 100 10000 1.03 0 03:38 23.07.2022
288 Clouds 10 1025 100 10000 2.06 100 00:39 23.07.2022
289 Clouds 8 1026 93 10000 2.57 110 21:41 22.07.2022
290 Clouds 10 1026 87 10000 3.6 140 20:33 22.07.2022
291 Clouds 12 1026 82 10000 4.12 140 18:57 22.07.2022
292 Clouds 12 1025 88 10000 2.57 160 17:52 22.07.2022
293 Clouds 13 1025 82 10000 3.6 130 16:31 22.07.2022
294 Drizzle 14 1024 88 8000 3.6 140 13:50 22.07.2022
295 Clouds 14 1026 82 10000 4.12 130 10:40 22.07.2022
296 Clouds 14 1027 77 10000 4.63 170 09:25 22.07.2022
297 Clouds 12 1027 88 10000 4.63 160 08:26 22.07.2022
298 Clouds 9 1025 100 10000 2.06 150 04:24 22.07.2022
299 Clouds 10 1027 93 10000 1.54 0 23:44 21.07.2022
300 Clouds 10 1028 93 10000 3.09 120 21:55 21.07.2022
301 Clouds 9 1027 100 10000 2.57 90 20:36 21.07.2022
302 Clouds 11 1027 87 10000 4.63 100 18:52 21.07.2022
303 Clouds 12 1026 82 10000 3.6 90 17:22 21.07.2022
304 Clouds 13 1026 77 10000 5.66 90 16:43 21.07.2022
305 Clouds 17 1025 52 10000 5.66 100 14:49 21.07.2022
306 Clouds 18 1025 52 10000 4.12 160 13:58 21.07.2022
307 Clouds 18 1025 52 10000 4.12 160 13:58 21.07.2022
308 Clouds 15 1026 67 10000 5.14 130 12:18 21.07.2022
309 Rain 14 1027 72 10000 6.17 170 10:37 21.07.2022
310 Clouds 13 1027 72 10000 5.66 140 08:53 21.07.2022
311 Clouds 13 1028 77 10000 5.66 120 08:35 21.07.2022
312 Clouds 11 1027 87 10000 4.12 150 07:22 21.07.2022
313 Clouds 10 1025 100 10000 3.6 110 03:25 21.07.2022
314 Drizzle 11 1027 100 10000 3.6 170 22:51 20.07.2022
315 Drizzle 11 1027 100 10000 3.6 170 22:20 20.07.2022
316 Clouds 11 1027 94 10000 3.6 140 20:46 20.07.2022
317 Clouds 11 1027 94 10000 3.6 140 19:47 20.07.2022
318 Clouds 11 1027 94 10000 3.6 140 19:47 20.07.2022
319 Clouds 12 1027 94 10000 4.12 140 18:56 20.07.2022
320 Clouds 12 1027 100 10000 3.09 110 18:31 20.07.2022
321 Clouds 13 1026 88 10000 3.09 140 17:33 20.07.2022
322 Clouds 15 1026 77 10000 4.63 140 15:38 20.07.2022
323 Clouds 15 1026 77 10000 3.6 160 14:54 20.07.2022
324 Clouds 17 1026 63 10000 7.2 100 13:44 20.07.2022
325 Clouds 17 1027 59 10000 5.66 130 11:29 20.07.2022
326 Clouds 12 1028 82 10000 4.12 140 06:49 20.07.2022
327 Drizzle 10 1027 100 10000 3.6 160 01:57 20.07.2022
328 Drizzle 10 1027 100 10000 4.63 170 00:42 20.07.2022
329 Clouds 10 1028 87 10000 3.6 170 22:38 19.07.2022
330 Clouds 10 1028 87 10000 3.6 170 22:20 19.07.2022
331 Clouds 10 1029 82 10000 5.14 140 20:50 19.07.2022
332 Clouds 10 1029 87 10000 4.12 150 19:37 19.07.2022
333 Clouds 11 1029 82 10000 4.12 140 18:42 19.07.2022
334 Clouds 11 1028 87 10000 7.2 110 17:55 19.07.2022
335 Clouds 14 1027 67 10000 6.17 150 15:49 19.07.2022
336 Clouds 18 1026 39 10000 8.23 130 13:46 19.07.2022
337 Clouds 16 1028 59 10000 7.2 160 11:34 19.07.2022
338 Rain 16 1028 63 10000 11.32 120 09:54 19.07.2022
339 Rain 14 1028 82 10000 8.75 120 08:48 19.07.2022
340 Clouds 13 1028 94 10000 9.77 110 08:21 19.07.2022
341 Drizzle 13 1027 100 6000 4.12 130 07:18 19.07.2022
342 Rain 11 1026 100 10000 2.57 160 05:20 19.07.2022
343 Drizzle 11 1026 100 10000 2.57 140 04:40 19.07.2022
344 Drizzle 11 1027 87 10000 3.6 140 00:18 19.07.2022
345 Clouds 11 1028 82 10000 3.09 160 23:20 18.07.2022
346 Clouds 11 1028 82 10000 4.12 170 22:42 18.07.2022
347 Clouds 11 1028 82 10000 4.12 140 21:27 18.07.2022
348 Clouds 11 1028 82 10000 4.63 160 20:49 18.07.2022
349 Clouds 11 1028 82 10000 4.63 150 19:21 18.07.2022
350 Clouds 13 1027 82 10000 5.66 140 16:45 18.07.2022
351 Clouds 13 1026 88 10000 6.17 140 15:40 18.07.2022
352 Clouds 15 1026 72 10000 7.2 160 13:41 18.07.2022
353 Clouds 17 1026 68 10000 6.17 140 12:29 18.07.2022
354 Rain 18 1027 59 10000 7.2 130 10:24 18.07.2022
355 Clouds 13 1027 82 10000 4.63 170 08:20 18.07.2022
356 Clouds 11 1027 87 10000 4.63 150 06:39 18.07.2022
357 Clouds 10 1028 82 10000 4.12 180 23:19 17.07.2022
358 Clouds 10 1028 82 10000 5.66 180 22:32 17.07.2022
359 Clouds 11 1028 76 10000 5.14 180 21:43 17.07.2022
360 Clouds 11 1028 76 10000 4.63 180 20:46 17.07.2022
361 Clouds 12 1028 71 10000 4.63 170 20:18 17.07.2022
362 Clouds 12 1028 76 10000 4.63 170 19:26 17.07.2022
363 Clouds 13 1027 72 10000 4.12 150 18:22 17.07.2022
364 Clouds 13 1027 72 10000 8.23 170 17:37 17.07.2022
365 Clouds 15 1026 59 10000 4.63 150 16:49 17.07.2022
366 Clouds 15 1026 59 10000 4.63 150 16:24 17.07.2022
367 Clouds 18 1025 45 10000 7.2 150 13:58 17.07.2022
368 Clouds 17 1025 48 10000 7.2 150 13:24 17.07.2022
369 Clouds 15 1027 59 10000 8.75 160 10:23 17.07.2022
370 Clouds 13 1027 72 10000 6.69 140 07:55 17.07.2022
371 Clouds 12 1024 94 10000 3.6 160 02:36 17.07.2022
372 Clouds 11 1025 100 10000 4.12 160 00:33 17.07.2022
373 Clouds 12 1026 82 10000 5.14 170 23:18 16.07.2022
374 Clouds 12 1026 88 10000 4.12 160 20:53 16.07.2022
375 Drizzle 13 1025 88 10000 4.63 160 18:59 16.07.2022
376 Clouds 14 1025 77 10000 4.63 170 17:48 16.07.2022
377 Clouds 15 1024 72 10000 4.63 150 16:23 16.07.2022
378 Clouds 17 1023 63 10000 5.66 140 13:36 16.07.2022
379 Clouds 18 1025 55 10000 4.12 150 10:34 16.07.2022
380 Clouds 16 1025 63 10000 3.09 130 09:28 16.07.2022
381 Clouds 13 1025 82 10000 3.6 160 08:41 16.07.2022
382 Clouds 12 1025 88 10000 3.6 170 07:40 16.07.2022
383 Clouds 10 1023 100 10000 2.57 220 03:38 16.07.2022
384 Clouds 10 1024 100 10000 1.03 0 00:48 16.07.2022
385 Clouds 10 1024 100 10000 1.54 150 23:21 15.07.2022
386 Clouds 10 1024 100 10000 1.54 0 22:37 15.07.2022
387 Clouds 10 1024 93 10000 1.54 80 20:44 15.07.2022
388 Clouds 11 1024 87 10000 3.6 110 19:49 15.07.2022
389 Clouds 12 1023 76 10000 3.6 100 18:30 15.07.2022
390 Clouds 14 1022 63 10000 4.63 100 17:19 15.07.2022
391 Clouds 20 1021 43 10000 5.66 100 14:24 15.07.2022
392 Clouds 20 1022 43 10000 4.63 130 12:38 15.07.2022
393 Clouds 19 1023 45 10000 3.6 150 10:52 15.07.2022
394 Clouds 13 1024 82 10000 3.09 160 07:55 15.07.2022
395 Clouds 8 1023 100 10000 1.03 0 04:54 15.07.2022
396 Clouds 11 1023 94 10000 3.6 100 00:43 15.07.2022
397 Clouds 12 1024 88 10000 2.06 160 23:24 14.07.2022
398 Clouds 11 1024 94 10000 2.57 140 22:24 14.07.2022
399 Clouds 10 1024 100 10000 3.09 120 21:40 14.07.2022
400 Clouds 11 1024 94 10000 2.06 130 21:21 14.07.2022
401 Clouds 11 1024 94 10000 2.57 140 20:43 14.07.2022
402 Clouds 11 1024 94 10000 3.09 110 20:18 14.07.2022
403 Clouds 13 1023 77 10000 4.12 110 18:24 14.07.2022
404 Clouds 17 1021 59 10000 4.63 140 16:19 14.07.2022
405 Clouds 20 1021 46 10000 3.09 110 14:56 14.07.2022
406 Clouds 20 1021 49 10000 2.06 0 13:51 14.07.2022
407 Clouds 19 1022 52 10000 3.6 130 12:34 14.07.2022
408 Clouds 19 1023 52 10000 3.6 110 11:26 14.07.2022
409 Clouds 18 1023 55 10000 3.09 130 10:51 14.07.2022
410 Clouds 14 1025 72 10000 3.09 150 08:52 14.07.2022
411 Clouds 12 1023 82 10000 2.57 150 04:44 14.07.2022
412 Clouds 12 1024 82 10000 3.6 120 01:19 14.07.2022
413 Clouds 12 1025 88 10000 3.6 110 00:50 14.07.2022
414 Clouds 13 1026 77 10000 5.14 100 22:30 13.07.2022
415 Clouds 13 1026 82 10000 4.12 140 21:38 13.07.2022
416 Clouds 13 1026 82 10000 4.63 130 20:38 13.07.2022
417 Clouds 14 1026 77 10000 5.14 120 18:26 13.07.2022
418 Clouds 13 1025 82 10000 5.66 110 17:22 13.07.2022
419 Clouds 16 1024 72 10000 6.69 110 16:18 13.07.2022
420 Clear 20 1024 49 10000 5.14 110 13:57 13.07.2022
421 Clouds 19 1027 56 10000 7.2 110 11:33 13.07.2022
422 Clouds 18 1027 59 10000 5.14 130 10:44 13.07.2022
423 Clouds 15 1028 72 10000 5.14 160 09:30 13.07.2022
424 Clouds 14 1028 77 10000 4.12 160 08:24 13.07.2022
425 Clouds 12 1026 94 10000 3.09 160 04:50 13.07.2022
426 Clouds 13 1028 82 10000 2.57 150 00:47 13.07.2022
427 Clouds 13 1029 82 10000 3.6 140 22:48 12.07.2022
428 Clouds 13 1029 88 10000 5.14 110 21:49 12.07.2022
429 Clouds 14 1029 82 10000 4.63 120 20:54 12.07.2022
430 Clouds 14 1029 82 10000 3.6 150 20:21 12.07.2022
431 Clouds 14 1029 82 10000 2.57 90 18:51 12.07.2022
432 Clouds 13 1028 82 10000 3.09 100 17:23 12.07.2022
433 Clouds 19 1027 56 10000 5.66 110 15:32 12.07.2022
434 Clouds 20 1027 52 10000 3.6 110 13:43 12.07.2022
435 Clouds 17 1028 63 10000 4.63 150 11:55 12.07.2022
436 Clouds 16 1029 72 10000 5.14 160 10:45 12.07.2022
437 Clouds 14 1029 82 10000 5.14 150 08:59 12.07.2022
438 Clouds 12 1029 100 9000 4.12 180 07:48 12.07.2022
439 Drizzle 10 1028 100 3500 2.06 190 05:47 12.07.2022
440 Drizzle 10 1028 100 3500 2.06 180 05:29 12.07.2022
441 Clouds 9 1028 100 10000 2.57 140 01:32 12.07.2022
442 Clouds 11 1028 100 7000 4.63 100 22:48 11.07.2022
443 Rain 12 1028 94 10000 2.57 160 21:34 11.07.2022
444 Clouds 12 1028 94 10000 3.09 150 20:32 11.07.2022
445 Clouds 13 1028 82 10000 3.6 140 19:27 11.07.2022
446 Clouds 13 1027 82 10000 3.09 150 18:30 11.07.2022
447 Clouds 15 1026 59 10000 5.66 120 16:31 11.07.2022
448 Clouds 16 1027 67 10000 7.2 100 15:28 11.07.2022
449 Clouds 17 1026 59 10000 6.17 130 13:19 11.07.2022
450 Clouds 16 1027 67 10000 6.17 140 11:24 11.07.2022
451 Clouds 16 1027 67 10000 6.17 140 11:24 11.07.2022
452 Clouds 16 1027 67 10000 6.17 140 11:24 11.07.2022
453 Clouds 14 1027 72 10000 6.69 140 09:58 11.07.2022
454 Clouds 14 1028 72 10000 5.14 150 09:35 11.07.2022
455 Clouds 12 1028 82 10000 5.66 160 08:32 11.07.2022
456 Clouds 9 1026 93 10000 3.09 140 01:54 11.07.2022
457 Clouds 11 1027 82 10000 6.17 120 23:55 10.07.2022
458 Clouds 11 1028 94 10000 4.63 100 22:48 10.07.2022
459 Clouds 11 1028 94 10000 3.6 150 20:56 10.07.2022
460 Clouds 12 1028 88 10000 4.12 150 20:36 10.07.2022
461 Clouds 12 1027 94 10000 2.06 140 19:38 10.07.2022
462 Clouds 11 1027 87 10000 3.09 120 18:35 10.07.2022
463 Clouds 13 1027 77 10000 5.14 140 17:35 10.07.2022
464 Clouds 14 1026 72 10000 5.14 150 16:24 10.07.2022
465 Clouds 17 1026 63 10000 6.17 140 14:47 10.07.2022
466 Clouds 17 1026 59 10000 6.17 150 13:31 10.07.2022
467 Clouds 17 1027 68 10000 6.17 140 11:57 10.07.2022
468 Clouds 17 1028 55 10000 8.23 130 09:46 10.07.2022
469 Drizzle 13 1028 82 10000 6.69 140 08:44 10.07.2022
470 Clouds 12 1027 88 10000 5.14 160 07:24 10.07.2022
471 Drizzle 11 1027 94 10000 3.09 160 23:58 09.07.2022
472 Clouds 11 1028 94 10000 4.12 150 22:27 09.07.2022
473 Drizzle 11 1028 94 10000 3.09 150 21:49 09.07.2022
474 Clouds 11 1028 82 10000 3.6 170 19:57 09.07.2022
475 Clouds 11 1028 82 10000 3.6 140 18:32 09.07.2022
476 Clouds 12 1028 76 10000 4.12 130 17:32 09.07.2022
477 Clouds 14 1027 67 10000 6.69 130 16:39 09.07.2022
478 Clouds 14 1027 72 10000 6.17 130 15:39 09.07.2022
479 Clouds 17 1026 52 10000 6.17 140 14:24 09.07.2022
480 Clouds 17 1027 55 10000 6.69 150 13:48 09.07.2022
481 Clouds 16 1028 63 10000 6.69 140 12:29 09.07.2022
482 Clouds 15 1028 67 10000 6.69 150 10:42 09.07.2022
483 Clouds 16 1029 67 10000 7.2 130 10:21 09.07.2022
484 Clouds 13 1028 88 10000 4.63 160 07:44 09.07.2022
485 Clouds 12 1027 76 10000 4.63 180 04:53 09.07.2022
486 Clouds 10 1028 87 10000 2.57 150 00:43 09.07.2022
487 Clouds 11 1029 87 10000 4.63 150 22:42 08.07.2022
488 Clouds 11 1029 87 10000 6.69 140 21:31 08.07.2022
489 Clouds 12 1029 82 10000 5.66 150 20:40 08.07.2022
490 Clouds 13 1029 88 10000 6.17 160 19:48 08.07.2022
491 Clouds 14 1028 82 10000 4.12 150 17:57 08.07.2022
492 Clouds 16 1027 67 10000 5.14 150 16:38 08.07.2022
493 Clouds 18 1027 55 10000 6.69 140 14:51 08.07.2022
494 Clouds 19 1027 49 10000 6.69 150 13:24 08.07.2022
495 Clouds 19 1027 49 10000 6.69 150 13:24 08.07.2022
496 Clouds 19 1028 52 10000 6.69 140 11:25 08.07.2022
497 Clouds 17 1029 55 10000 7.2 160 10:26 08.07.2022
498 Clouds 14 1029 67 10000 6.17 140 08:24 08.07.2022
499 Clouds 11 1028 87 10000 5.66 150 06:47 08.07.2022
500 Clouds 12 1027 82 10000 3.6 150 01:19 08.07.2022
501 Clouds 11 1028 87 10000 3.09 150 22:57 07.07.2022
502 Clouds 12 1028 88 10000 3.6 150 21:57 07.07.2022
503 Clouds 13 1028 77 10000 4.63 140 19:47 07.07.2022
504 Clouds 14 1027 72 10000 2.57 140 17:56 07.07.2022
505 Clouds 16 1026 59 10000 5.66 120 16:32 07.07.2022
506 Clouds 20 1025 49 10000 4.63 120 14:21 07.07.2022
507 Clouds 19 1025 52 10000 5.14 170 12:46 07.07.2022
508 Clouds 20 1026 46 10000 5.66 120 12:23 07.07.2022
509 Clouds 19 1026 52 10000 4.63 150 11:34 07.07.2022
510 Clouds 19 1026 49 10000 3.6 150 10:46 07.07.2022
511 Clouds 17 1027 55 10000 4.63 140 10:27 07.07.2022
512 Clouds 17 1027 55 10000 4.12 120 09:32 07.07.2022
513 Clouds 8 1027 100 10000 2.57 200 06:26 07.07.2022
514 Clouds 11 1026 85 10000 3.02 131 00:28 07.07.2022
515 Clouds 11 1026 85 10000 3.02 131 23:36 06.07.2022
516 Clouds 10 1027 93 10000 2.57 150 23:18 06.07.2022
517 Clouds 10 1027 93 10000 2.57 150 22:51 06.07.2022
518 Clouds 9 1027 100 10000 2.06 110 22:33 06.07.2022
519 Clouds 10 1026 93 10000 1.03 0 20:23 06.07.2022
520 Clouds 12 1026 76 10000 3.09 130 19:18 06.07.2022
521 Clouds 13 1025 77 10000 2.57 80 17:21 06.07.2022
522 Clear 19 1024 49 10000 5.66 100 15:50 06.07.2022
523 Clear 22 1024 33 10000 2.06 0 12:44 06.07.2022
524 Clear 21 1025 37 10000 4.12 0 11:52 06.07.2022
525 Clear 18 1026 52 10000 1.54 0 10:49 06.07.2022
526 Clear 15 1027 63 10000 2.06 150 09:21 06.07.2022
527 Clouds 10 1027 93 10000 2.57 120 07:43 06.07.2022
528 Fog 9 1026 100 1200 1.03 0 06:43 06.07.2022
529 Clouds 8 1026 100 10000 1.54 80 22:52 05.07.2022
530 Clouds 8 1026 100 10000 2.06 60 22:34 05.07.2022
531 Clouds 9 1026 100 10000 2.57 100 20:45 05.07.2022
532 Clouds 10 1026 93 10000 2.06 60 19:54 05.07.2022
533 Clouds 10 1026 93 10000 1.03 0 19:36 05.07.2022
534 Clouds 12 1025 88 10000 3.09 100 17:49 05.07.2022
535 Clouds 13 1025 77 10000 3.09 100 17:18 05.07.2022
536 Clouds 18 1024 55 10000 5.14 110 15:48 05.07.2022
537 Clouds 19 1024 49 10000 6.69 100 14:44 05.07.2022
538 Clouds 19 1024 56 10000 5.14 160 12:53 05.07.2022
539 Clouds 19 1024 52 10000 6.69 140 12:21 05.07.2022
540 Clouds 18 1025 68 10000 5.66 130 10:45 05.07.2022
541 Drizzle 15 1025 94 8000 4.63 140 09:32 05.07.2022
542 Clouds 15 1025 88 10000 3.6 140 08:20 05.07.2022
543 Drizzle 13 1025 100 6000 3.09 150 06:47 05.07.2022
544 Rain 13 1024 94 10000 2.57 170 04:28 05.07.2022
545 Clouds 13 1025 94 10000 3.6 170 00:43 05.07.2022
546 Clouds 13 1025 88 10000 1.54 170 23:36 04.07.2022
547 Clouds 13 1025 88 10000 2.57 170 22:54 04.07.2022
548 Clouds 13 1026 88 10000 2.57 160 21:53 04.07.2022
549 Clouds 13 1026 94 10000 2.06 150 20:54 04.07.2022
550 Clouds 13 1026 88 10000 3.09 170 20:35 04.07.2022
551 Clouds 14 1026 82 10000 3.6 150 19:55 04.07.2022
552 Clouds 14 1026 82 10000 3.6 170 19:36 04.07.2022
553 Clouds 14 1026 82 10000 1.54 160 18:26 04.07.2022
554 Clouds 16 1026 67 10000 4.12 110 16:34 04.07.2022
555 Clouds 16 1025 67 10000 5.14 140 15:34 04.07.2022
556 Clouds 18 1026 55 10000 6.69 130 13:33 04.07.2022
557 Clouds 18 1026 55 10000 6.69 140 12:33 04.07.2022
558 Clouds 17 1027 52 10000 5.66 130 10:34 04.07.2022
559 Clouds 17 1028 55 10000 6.69 130 09:53 04.07.2022
560 Clouds 13 1028 77 10000 5.14 150 08:24 04.07.2022
561 Clouds 10 1026 82 10000 3.6 170 04:57 04.07.2022
562 Clouds 6 1027 100 10000 0 0 00:42 04.07.2022
563 Clouds 10 1028 87 10000 2.06 160 22:59 03.07.2022
564 Clouds 11 1029 82 10000 3.09 150 20:58 03.07.2022
565 Clouds 12 1029 76 10000 3.09 160 20:31 03.07.2022
566 Clouds 12 1028 82 10000 4.12 140 19:28 03.07.2022
567 Clouds 12 1028 82 10000 3.6 110 18:43 03.07.2022
568 Clouds 13 1028 72 10000 4.12 160 17:44 03.07.2022
569 Clouds 14 1027 72 10000 5.14 150 15:54 03.07.2022
570 Clouds 15 1027 67 10000 5.66 160 14:59 03.07.2022
571 Clouds 15 1027 67 10000 5.14 160 14:20 03.07.2022
572 Clouds 15 1027 72 10000 5.66 160 13:48 03.07.2022
573 Clouds 15 1027 67 10000 6.17 160 12:33 03.07.2022
574 Clouds 16 1028 63 10000 5.66 140 11:29 03.07.2022
575 Clouds 14 1029 72 10000 4.63 160 10:39 03.07.2022
576 Clouds 13 1029 77 10000 5.14 150 09:42 03.07.2022
577 Clouds 11 1028 82 10000 5.14 160 07:35 03.07.2022
578 Clouds 11 1027 76 10000 4.63 170 03:46 03.07.2022
579 Clouds 11 1028 82 10000 5.14 170 00:21 03.07.2022
580 Clouds 11 1028 71 10000 3.6 160 22:33 02.07.2022
581 Clouds 11 1028 71 10000 6.69 180 20:58 02.07.2022
582 Clouds 11 1029 76 10000 5.14 160 19:52 02.07.2022
583 Clouds 12 1029 71 10000 5.66 160 19:20 02.07.2022
584 Clouds 12 1028 71 10000 5.66 160 17:41 02.07.2022
585 Clouds 13 1027 72 10000 5.66 160 16:53 02.07.2022
586 Clouds 16 1027 55 10000 7.2 130 14:40 02.07.2022
587 Clouds 16 1026 63 10000 7.2 150 12:21 02.07.2022
588 Clouds 16 1026 67 10000 7.72 160 11:26 02.07.2022
589 Clouds 14 1027 72 10000 7.2 160 10:39 02.07.2022
590 Clouds 14 1027 72 10000 8.23 150 09:18 02.07.2022
591 Clouds 14 1028 63 10000 6.17 160 08:20 02.07.2022
592 Clouds 11 1028 71 10000 3.09 150 07:27 02.07.2022
593 Clouds 9 1027 81 10000 3.09 150 01:53 02.07.2022
594 Clouds 9 1028 81 10000 3.09 150 23:56 01.07.2022
595 Clouds 9 1028 81 10000 3.6 160 22:41 01.07.2022
596 Clouds 10 1028 82 10000 5.14 150 21:47 01.07.2022
597 Clouds 10 1028 82 10000 4.63 140 21:27 01.07.2022
598 Clouds 11 1028 76 10000 4.63 140 20:38 01.07.2022
599 Clouds 12 1028 71 10000 5.66 160 19:42 01.07.2022
600 Clouds 13 1027 72 10000 4.63 150 17:53 01.07.2022
601 Clouds 15 1026 59 10000 5.14 150 15:54 01.07.2022
602 Clouds 16 1026 59 10000 8.23 150 13:54 01.07.2022
603 Clouds 17 1026 42 10000 7.72 140 11:56 01.07.2022
604 Clouds 16 1027 45 10000 7.2 150 10:20 01.07.2022
605 Clouds 16 1027 45 10000 7.2 150 10:20 01.07.2022
606 Clouds 15 1028 51 10000 7.2 140 09:31 01.07.2022
607 Clouds 9 1026 87 10000 2.57 140 03:42 01.07.2022
608 Clouds 11 1027 82 10000 4.12 170 00:26 01.07.2022
609 Clouds 11 1027 87 10000 3.09 160 22:58 30.06.2022
610 Clouds 12 1027 82 10000 3.6 170 22:33 30.06.2022
611 Clouds 12 1027 82 10000 3.09 160 21:59 30.06.2022
612 Clouds 12 1027 82 10000 3.09 160 21:41 30.06.2022
613 Clouds 12 1027 82 10000 2.57 140 20:29 30.06.2022
614 Clouds 12 1027 82 10000 3.6 150 19:54 30.06.2022
615 Clouds 12 1027 82 10000 3.6 140 19:19 30.06.2022
616 Clouds 13 1027 77 10000 3.6 160 18:42 30.06.2022
617 Clouds 14 1026 72 10000 3.6 150 17:43 30.06.2022
618 Clouds 14 1026 72 10000 3.6 140 16:48 30.06.2022
619 Clouds 17 1025 55 10000 5.14 140 15:38 30.06.2022
620 Clear 18 1022 52 10000 5.14 113 13:34 30.06.2022
621 Clouds 16 1026 59 10000 5.66 140 12:35 30.06.2022
622 Clouds 16 1027 59 10000 5.14 160 11:37 30.06.2022
623 Clouds 15 1028 63 10000 5.66 130 09:54 30.06.2022
624 Clouds 14 1028 67 10000 5.14 140 09:34 30.06.2022
625 Clouds 13 1028 72 10000 6.17 150 07:51 30.06.2022
626 Clouds 11 1027 87 10000 3.09 150 06:21 30.06.2022
627 Clouds 11 1026 94 10000 2.57 170 01:29 30.06.2022
628 Clouds 11 1026 87 10000 3.6 150 23:34 29.06.2022
629 Clouds 11 1026 87 10000 4.12 150 22:39 29.06.2022
630 Clouds 11 1027 87 10000 2.57 150 21:37 29.06.2022
631 Clouds 12 1027 82 10000 2.57 150 20:33 29.06.2022
632 Clouds 11 1027 87 10000 3.09 150 19:37 29.06.2022
633 Clouds 12 1026 82 10000 3.6 140 17:45 29.06.2022
634 Clouds 14 1026 67 10000 6.17 160 16:38 29.06.2022
635 Clouds 16 1025 59 10000 6.17 150 15:19 29.06.2022
636 Clouds 17 1026 52 10000 8.23 130 12:40 29.06.2022
637 Clouds 16 1027 55 10000 6.69 170 11:19 29.06.2022
638 Clouds 13 1028 67 10000 8.23 170 09:33 29.06.2022
639 Clouds 11 1027 76 10000 5.66 170 07:44 29.06.2022
640 Clouds 10 1025 82 10000 5.66 160 04:55 29.06.2022
641 Clouds 9 1027 81 10000 5.14 150 00:58 29.06.2022
642 Clouds 9 1027 76 10000 5.66 150 00:36 29.06.2022
643 Clouds 9 1028 71 10000 6.69 160 22:54 28.06.2022
644 Clouds 10 1028 66 10000 7.72 160 22:30 28.06.2022
645 Clouds 10 1028 66 10000 7.2 150 21:54 28.06.2022
646 Clouds 10 1028 66 10000 7.72 160 21:32 28.06.2022
647 Clouds 10 1028 66 10000 8.23 140 20:35 28.06.2022
648 Clouds 10 1028 71 10000 5.66 150 19:34 28.06.2022
649 Clouds 10 1028 71 10000 7.72 140 18:46 28.06.2022
650 Clouds 11 1027 66 10000 7.72 160 17:40 28.06.2022
651 Clouds 12 1026 67 10000 7.72 150 15:57 28.06.2022
652 Clouds 12 1026 71 10000 8.23 160 15:36 28.06.2022
653 Clouds 14 1026 63 10000 8.75 160 14:20 28.06.2022
654 Clouds 14 1026 58 10000 9.26 140 13:51 28.06.2022
655 Clouds 14 1026 67 10000 8.75 160 12:57 28.06.2022
656 Clouds 15 1028 59 10000 10.8 140 11:18 28.06.2022
657 Clouds 12 1028 71 10000 8.23 150 09:29 28.06.2022
658 Clouds 12 1029 71 10000 8.23 150 08:43 28.06.2022
659 Clouds 11 1029 76 10000 6.69 160 07:42 28.06.2022
660 Clouds 10 1028 76 10000 6.69 160 06:20 28.06.2022
661 Clouds 12 1028 76 10000 6.69 160 00:56 28.06.2022
662 Clouds 12 1028 82 10000 5.66 160 23:37 27.06.2022
663 Clouds 12 1028 88 10000 5.66 160 22:52 27.06.2022
664 Clouds 14 1028 77 10000 5.14 150 21:37 27.06.2022
665 Clouds 14 1028 77 10000 5.14 150 20:52 27.06.2022
666 Clouds 13 1028 88 10000 5.14 160 19:31 27.06.2022
667 Clouds 13 1028 88 10000 3.6 150 18:25 27.06.2022
668 Clouds 15 1027 77 10000 4.12 150 16:19 27.06.2022
669 Clouds 17 1026 63 10000 5.66 150 14:45 27.06.2022
670 Clouds 17 1026 59 10000 6.69 140 13:35 27.06.2022
671 Clouds 18 1026 59 10000 5.66 130 12:52 27.06.2022
672 Clouds 16 1028 67 10000 6.17 160 10:23 27.06.2022
673 Clouds 12 1028 88 10000 4.63 160 08:48 27.06.2022
674 Drizzle 12 1028 88 8000 5.66 170 08:19 27.06.2022
675 Clouds 10 1026 87 10000 2.06 160 06:38 27.06.2022
676 Clouds 9 1025 93 10000 3.09 130 02:28 27.06.2022
677 Clouds 11 1026 82 10000 2.57 140 23:55 26.06.2022
678 Clouds 11 1026 82 10000 2.06 130 21:58 26.06.2022
679 Clouds 12 1026 82 10000 3.6 130 20:43 26.06.2022
680 Clouds 14 1026 72 10000 4.63 140 19:27 26.06.2022
681 Clouds 14 1025 72 10000 3.6 140 18:28 26.06.2022
682 Clouds 16 1024 59 10000 5.66 110 16:21 26.06.2022
683 Clouds 18 1024 55 10000 5.66 150 14:34 26.06.2022
684 Clouds 20 1024 46 10000 5.14 120 13:30 26.06.2022
685 Clouds 20 1024 46 10000 5.14 120 13:30 26.06.2022
686 Clouds 18 1024 55 10000 6.17 120 12:52 26.06.2022
687 Clouds 20 1025 46 10000 5.66 130 11:21 26.06.2022
688 Clouds 18 1025 52 10000 4.63 130 10:23 26.06.2022
689 Clouds 13 1026 77 10000 2.06 160 08:46 26.06.2022
690 Clouds 10 1026 93 10000 2.06 140 07:23 26.06.2022
691 Clouds 10 1025 100 10000 2.06 160 00:48 26.06.2022
692 Clouds 9 1025 100 10000 2.06 120 00:20 26.06.2022
693 Clouds 8 1025 100 10000 1.03 0 23:33 25.06.2022
694 Clouds 9 1025 100 10000 1.03 0 22:51 25.06.2022
695 Clouds 9 1025 100 10000 2.06 60 22:26 25.06.2022
696 Clouds 9 1026 100 10000 2.06 60 21:23 25.06.2022
697 Clouds 9 1026 100 10000 2.06 80 20:59 25.06.2022
698 Clouds 9 1026 100 10000 2.06 80 20:25 25.06.2022
699 Clouds 10 1025 93 10000 2.06 60 18:42 25.06.2022
700 Clouds 12 1024 82 10000 0.51 60 17:28 25.06.2022
701 Clouds 15 1024 67 10000 3.6 80 16:31 25.06.2022
702 Clouds 16 1024 63 10000 4.63 120 14:47 25.06.2022
703 Clouds 16 1024 63 10000 4.63 140 12:51 25.06.2022
704 Clouds 16 1024 63 10000 5.14 120 12:32 25.06.2022
705 Drizzle 14 1026 77 7000 3.09 160 09:40 25.06.2022
706 Clouds 13 1026 77 10000 3.09 180 08:56 25.06.2022
707 Clouds 12 1026 76 10000 3.09 170 08:25 25.06.2022
708 Clouds 10 1025 93 10000 3.09 160 06:46 25.06.2022
709 Clouds 7 1025 100 10000 0.51 0 01:53 25.06.2022
710 Clouds 6 1026 93 10000 0.51 0 00:20 25.06.2022
711 Clouds 9 1027 87 10000 2.06 150 22:29 24.06.2022
712 Clouds 9 1027 87 10000 2.57 140 21:28 24.06.2022
713 Clouds 10 1027 82 10000 3.09 140 20:24 24.06.2022
714 Clouds 11 1027 82 10000 3.6 140 19:39 24.06.2022
715 Clouds 11 1027 82 10000 3.6 140 19:18 24.06.2022
716 Clouds 12 1026 76 10000 3.6 140 18:44 24.06.2022
717 Clouds 12 1026 71 10000 3.6 150 18:24 24.06.2022
718 Clouds 14 1026 67 10000 5.14 130 16:47 24.06.2022
719 Clouds 16 1025 55 10000 7.2 170 14:50 24.06.2022
720 Clouds 17 1025 48 10000 5.66 120 14:23 24.06.2022
721 Clouds 16 1025 55 10000 5.66 160 13:41 24.06.2022
722 Clouds 17 1026 48 10000 8.23 100 11:41 24.06.2022
723 Clouds 15 1027 63 10000 6.17 140 10:36 24.06.2022
724 Clouds 14 1027 67 10000 4.63 140 09:42 24.06.2022
725 Clouds 14 1027 67 10000 4.63 140 09:42 24.06.2022
726 Drizzle 12 1027 82 9000 5.14 140 08:54 24.06.2022
727 Drizzle 11 1027 87 9000 4.63 160 07:57 24.06.2022
728 Drizzle 11 1026 94 8000 3.6 140 06:44 24.06.2022
729 Drizzle 10 1026 100 10000 4.12 140 06:22 24.06.2022
730 Drizzle 11 1025 100 10000 3.6 160 04:46 24.06.2022
731 Drizzle 12 1025 94 10000 3.6 150 23:24 23.06.2022
732 Clouds 12 1025 94 10000 3.6 150 22:42 23.06.2022
733 Rain 12 1026 100 10000 3.6 160 20:59 23.06.2022
734 Drizzle 12 1026 100 10000 3.6 160 20:36 23.06.2022
735 Clouds 13 1026 88 10000 4.12 160 19:48 23.06.2022
736 Drizzle 13 1025 94 10000 3.6 160 18:26 23.06.2022
737 Clouds 14 1024 88 10000 3.6 150 17:33 23.06.2022
738 Rain 15 1024 77 10000 5.14 160 16:23 23.06.2022
739 Clouds 16 1023 72 10000 5.14 150 15:25 23.06.2022
740 Rain 16 1023 72 10000 7.2 150 14:18 23.06.2022
741 Clouds 16 1024 67 10000 6.69 170 11:33 23.06.2022
742 Clouds 16 1024 67 10000 7.72 160 10:40 23.06.2022
743 Clouds 15 1025 67 10000 6.17 150 09:19 23.06.2022
744 Clouds 6 1023 100 10000 1.54 0 03:51 23.06.2022
745 Clouds 7 1024 93 10000 1.54 0 00:27 23.06.2022
746 Clouds 8 1024 87 10000 1.54 140 23:43 22.06.2022
747 Clouds 8 1024 93 10000 2.57 140 22:50 22.06.2022
748 Clouds 9 1024 87 10000 3.09 150 21:27 22.06.2022
749 Clouds 10 1024 82 10000 3.09 140 20:48 22.06.2022
750 Clouds 9 1024 81 10000 2.06 110 19:58 22.06.2022
751 Clouds 9 1024 81 10000 2.57 90 18:50 22.06.2022
752 Clouds 12 1023 67 10000 5.14 100 17:29 22.06.2022
753 Clouds 14 1022 58 10000 5.66 110 16:37 22.06.2022
754 Clouds 16 1022 48 10000 4.63 140 15:27 22.06.2022
755 Clouds 16 1021 55 10000 5.66 170 14:31 22.06.2022
756 Clouds 17 1021 52 10000 4.63 140 13:44 22.06.2022
757 Clouds 17 1021 45 10000 6.17 160 13:23 22.06.2022
758 Clouds 16 1022 51 10000 6.17 150 11:50 22.06.2022
759 Clouds 17 1023 48 10000 5.14 120 10:58 22.06.2022
760 Clouds 17 1023 48 10000 6.17 110 10:20 22.06.2022
761 Clouds 14 1024 58 10000 5.66 130 08:48 22.06.2022
762 Clouds 11 1022 87 10000 3.09 170 05:59 22.06.2022
763 Clouds 12 1021 76 10000 2.57 180 01:49 22.06.2022
764 Clouds 12 1022 76 10000 2.57 130 00:39 22.06.2022
765 Clouds 13 1022 67 10000 3.09 140 22:37 21.06.2022
766 Clouds 11 1022 76 10000 2.57 150 20:39 21.06.2022
767 Clouds 11 1022 71 10000 2.57 90 18:51 21.06.2022
768 Clouds 13 1022 67 10000 5.66 120 17:40 21.06.2022
769 Clouds 18 1021 48 10000 4.63 120 14:42 21.06.2022
770 Clouds 17 1022 52 10000 5.14 150 11:52 21.06.2022
771 Clouds 17 1024 63 10000 4.12 140 10:19 21.06.2022
772 Clouds 12 1024 88 10000 2.06 170 08:48 21.06.2022
773 Clouds 11 1024 94 10000 2.06 140 07:35 21.06.2022
774 Clouds 11 1023 82 10000 2.57 130 02:27 21.06.2022
775 Clouds 12 1025 82 10000 3.6 150 23:26 20.06.2022
776 Clouds 12 1025 82 10000 3.09 130 21:58 20.06.2022
777 Clouds 12 1025 88 10000 3.09 140 21:30 20.06.2022
778 Clouds 12 1025 88 10000 2.06 140 19:49 20.06.2022
779 Clouds 12 1025 88 10000 4.12 100 18:53 20.06.2022
780 Clouds 13 1025 82 10000 4.63 110 18:23 20.06.2022
781 Clouds 14 1025 77 10000 5.14 110 17:36 20.06.2022
782 Clouds 19 1024 56 10000 5.66 120 15:58 20.06.2022
783 Clouds 21 1024 46 10000 4.63 140 13:34 20.06.2022
784 Clouds 21 1025 49 10000 4.12 150 11:30 20.06.2022
785 Clouds 17 1026 63 10000 4.63 130 09:48 20.06.2022
786 Clouds 16 1027 67 10000 5.14 140 08:45 20.06.2022
787 Drizzle 13 1026 88 10000 4.12 170 06:49 20.06.2022
788 Clouds 12 1024 94 10000 3.09 170 03:20 20.06.2022
789 Clouds 13 1025 100 10000 3.6 170 00:37 20.06.2022
790 Clouds 14 1025 88 10000 2.57 140 23:25 19.06.2022
791 Clouds 14 1025 88 10000 4.63 110 22:18 19.06.2022
792 Clouds 14 1025 88 10000 3.09 140 21:41 19.06.2022
793 Clouds 14 1025 82 10000 4.12 160 20:46 19.06.2022
794 Clouds 14 1025 82 10000 4.12 110 19:48 19.06.2022
795 Clouds 14 1024 82 10000 4.63 120 19:23 19.06.2022
796 Clouds 14 1024 82 10000 5.14 110 18:31 19.06.2022
797 Clouds 15 1023 77 10000 6.17 100 17:39 19.06.2022
798 Clouds 17 1023 68 10000 5.14 130 16:38 19.06.2022
799 Clouds 17 1023 68 10000 6.17 120 15:44 19.06.2022
800 Clouds 19 1022 64 10000 6.17 120 15:26 19.06.2022
801 Clouds 19 1022 64 10000 5.66 100 14:30 19.06.2022
802 Clouds 19 1022 64 10000 3.6 80 13:43 19.06.2022
803 Clouds 22 1022 49 10000 3.09 120 11:53 19.06.2022
804 Clouds 21 1023 53 10000 2.57 130 10:51 19.06.2022
805 Clouds 17 1024 68 10000 3.09 200 08:55 19.06.2022
806 Clouds 16 1024 72 10000 3.09 160 08:30 19.06.2022
807 Clouds 14 1023 82 10000 1.54 0 06:41 19.06.2022
808 Clouds 13 1021 94 10000 2.06 100 03:19 19.06.2022
809 Clouds 13 1022 94 10000 2.06 90 00:27 19.06.2022
810 Clouds 14 1022 88 10000 3.09 90 23:37 18.06.2022
811 Clouds 14 1022 88 10000 3.09 90 23:19 18.06.2022
812 Clouds 14 1022 88 10000 4.63 110 21:54 18.06.2022
813 Clouds 14 1022 88 10000 3.6 100 20:50 18.06.2022
814 Rain 15 1022 82 10000 3.09 140 19:50 18.06.2022
815 Clouds 14 1021 88 10000 4.12 90 18:54 18.06.2022
816 Clouds 14 1021 88 10000 4.12 90 18:30 18.06.2022
817 Clouds 15 1020 82 10000 5.14 100 17:28 18.06.2022
818 Clouds 21 1019 49 10000 1.54 180 15:39 18.06.2022
819 Clouds 22 1019 49 10000 2.57 210 14:50 18.06.2022
820 Clouds 23 1019 46 10000 3.09 210 13:54 18.06.2022
821 Clouds 22 1020 53 10000 3.09 190 12:25 18.06.2022
822 Clouds 20 1021 56 10000 2.06 0 10:59 18.06.2022
823 Clouds 18 1022 68 10000 3.09 170 09:31 18.06.2022
824 Clouds 18 1022 68 10000 2.57 160 08:37 18.06.2022
825 Clouds 15 1021 82 10000 2.57 180 07:33 18.06.2022
826 Clouds 13 1020 94 10000 2.06 140 04:43 18.06.2022
827 Clouds 14 1020 88 10000 2.57 110 01:27 18.06.2022
828 Clouds 14 1020 88 10000 2.57 120 00:55 18.06.2022
829 Clouds 14 1021 88 10000 3.09 120 00:23 18.06.2022
830 Clouds 14 1021 88 10000 2.57 120 23:33 17.06.2022
831 Clouds 14 1021 88 10000 2.06 150 21:57 17.06.2022
832 Clouds 13 1021 88 10000 2.57 120 20:29 17.06.2022
833 Clouds 14 1020 88 10000 3.6 130 19:20 17.06.2022
834 Clouds 16 1019 77 10000 4.63 90 17:47 17.06.2022
835 Rain 17 1019 72 10000 5.14 110 16:44 17.06.2022
836 Rain 18 1019 68 10000 4.12 110 16:21 17.06.2022
837 Rain 19 1018 64 10000 4.63 100 15:37 17.06.2022
838 Rain 19 1018 60 10000 5.14 80 14:23 17.06.2022
839 Rain 20 1018 60 10000 5.14 80 13:58 17.06.2022
840 Clouds 20 1018 56 10000 2.57 70 13:38 17.06.2022
841 Clouds 20 1019 56 10000 3.09 90 12:24 17.06.2022
842 Clouds 22 1019 49 10000 3.6 100 11:50 17.06.2022
843 Clouds 21 1020 53 10000 4.12 160 11:32 17.06.2022
844 Clouds 18 1021 68 10000 2.06 0 08:45 17.06.2022
845 Clouds 17 1021 77 10000 2.06 200 08:24 17.06.2022
846 Clouds 9 1020 100 6000 1.03 0 06:35 17.06.2022
847 Clouds 10 1019 100 10000 0.51 0 03:42 17.06.2022
848 Clouds 10 1020 100 10000 0.51 0 01:55 17.06.2022
849 Clouds 12 1021 100 10000 3.09 310 23:35 16.06.2022
850 Clouds 13 1021 94 10000 3.09 300 22:40 16.06.2022
851 Clouds 14 1021 88 10000 2.57 320 21:21 16.06.2022
852 Clouds 15 1021 88 10000 2.57 330 20:50 16.06.2022
853 Clouds 16 1021 82 10000 2.57 280 20:27 16.06.2022
854 Clouds 15 1020 94 10000 1.03 0 19:31 16.06.2022
855 Drizzle 15 1019 94 10000 0 0 17:54 16.06.2022
856 Drizzle 16 1019 94 9000 3.09 360 17:27 16.06.2022
857 Clouds 18 1019 68 10000 1.03 340 16:20 16.06.2022
858 Clouds 19 1019 64 10000 2.06 350 15:21 16.06.2022
859 Clouds 20 1019 60 10000 4.12 40 14:27 16.06.2022
860 Drizzle 20 1019 60 10000 3.09 10 12:53 16.06.2022
861 Clouds 20 1019 56 10000 2.57 40 12:34 16.06.2022
862 Clouds 21 1019 56 10000 1.54 0 11:48 16.06.2022
863 Clouds 21 1020 60 10000 3.09 0 10:41 16.06.2022
864 Clouds 22 1021 56 10000 3.09 50 09:43 16.06.2022
865 Clouds 20 1022 68 10000 3.09 30 08:59 16.06.2022
866 Clouds 16 1022 88 10000 2.06 30 07:42 16.06.2022
867 Clouds 14 1021 100 10000 2.57 20 06:36 16.06.2022
868 Clouds 13 1020 100 10000 1.03 0 04:24 16.06.2022
869 Clouds 13 1020 100 10000 0.51 0 01:52 16.06.2022
870 Clouds 13 1020 100 10000 1.54 0 01:29 16.06.2022
871 Clouds 13 1021 100 10000 2.06 60 00:29 16.06.2022
872 Clouds 13 1022 100 10000 1.54 80 22:54 15.06.2022
873 Rain 13 1022 100 10000 2.06 80 21:48 15.06.2022
874 Clouds 13 1022 100 10000 2.06 80 21:19 15.06.2022
875 Clouds 15 1022 94 10000 1.54 80 20:37 15.06.2022
876 Clouds 15 1022 94 10000 1.54 80 20:18 15.06.2022
877 Rain 15 1021 88 10000 3.09 100 18:41 15.06.2022
878 Rain 15 1021 82 10000 2.57 110 17:53 15.06.2022
879 Rain 18 1020 72 10000 4.12 100 16:27 15.06.2022
880 Clouds 20 1020 60 10000 4.12 100 15:19 15.06.2022
881 Clouds 20 1021 64 10000 5.14 90 13:29 15.06.2022
882 Clouds 20 1021 64 10000 3.6 130 12:47 15.06.2022
883 Clouds 19 1023 68 10000 3.6 90 11:25 15.06.2022
884 Clouds 19 1023 68 10000 2.57 120 10:22 15.06.2022
885 Clouds 18 1023 72 10000 2.57 150 09:34 15.06.2022
886 Clouds 15 1023 88 10000 3.6 110 07:43 15.06.2022
887 Clouds 14 1023 100 10000 2.06 170 05:57 15.06.2022
888 Drizzle 14 1022 100 10000 1.54 140 02:54 15.06.2022
889 Drizzle 14 1022 100 10000 1.54 150 01:36 15.06.2022
890 Clouds 14 1023 94 10000 1.54 80 00:36 15.06.2022
891 Clouds 15 1023 88 10000 2.06 90 23:38 14.06.2022
892 Clouds 15 1023 82 10000 2.06 100 22:47 14.06.2022
893 Clouds 15 1023 88 10000 2.57 110 21:43 14.06.2022
894 Clouds 15 1023 88 10000 2.06 90 21:20 14.06.2022
895 Clouds 14 1023 88 10000 2.57 90 20:40 14.06.2022
896 Clouds 14 1023 94 10000 3.09 100 19:47 14.06.2022
897 Clouds 15 1022 82 10000 5.66 110 18:39 14.06.2022
898 Clouds 16 1022 82 10000 5.14 110 16:53 14.06.2022
899 Clouds 18 1022 72 10000 5.66 120 16:34 14.06.2022
900 Rain 19 1021 68 10000 4.63 120 15:41 14.06.2022
901 Rain 21 1021 56 10000 4.63 140 14:53 14.06.2022
902 Clouds 21 1021 56 10000 3.6 130 13:59 14.06.2022
903 Clouds 20 1021 60 10000 3.6 140 12:59 14.06.2022
904 Clouds 21 1022 56 10000 4.63 170 11:56 14.06.2022
905 Clouds 20 1023 64 10000 4.63 160 10:51 14.06.2022
906 Clouds 20 1023 60 10000 4.63 140 10:28 14.06.2022
907 Clouds 17 1024 72 10000 5.14 170 09:18 14.06.2022
908 Clouds 16 1024 77 10000 3.6 170 08:24 14.06.2022
909 Clouds 13 1023 88 10000 2.06 150 06:20 14.06.2022
910 Clouds 12 1022 94 10000 2.06 160 03:45 14.06.2022
911 Clouds 13 1023 88 10000 2.06 170 01:37 14.06.2022
912 Clouds 13 1023 88 10000 2.57 140 00:21 14.06.2022
913 Clouds 12 1024 94 10000 2.57 120 22:39 13.06.2022
914 Clouds 12 1024 94 10000 2.57 120 22:19 13.06.2022
915 Drizzle 14 1025 82 10000 2.57 160 21:24 13.06.2022
916 Clouds 14 1024 82 10000 3.6 160 19:59 13.06.2022
917 Clouds 15 1024 77 10000 3.09 140 18:54 13.06.2022
918 Clouds 15 1023 77 10000 3.6 130 17:55 13.06.2022
919 Clouds 15 1023 77 10000 3.6 150 17:23 13.06.2022
920 Clouds 16 1022 72 10000 5.14 120 16:30 13.06.2022
921 Clouds 18 1022 68 10000 4.63 140 14:48 13.06.2022
922 Clouds 18 1022 68 10000 5.14 140 14:23 13.06.2022
923 Clouds 19 1022 60 10000 5.66 130 13:28 13.06.2022
924 Clouds 20 1022 60 10000 6.69 120 11:50 13.06.2022
925 Clouds 19 1024 60 10000 5.66 100 10:36 13.06.2022
926 Clouds 18 1024 63 10000 3.6 150 09:42 13.06.2022
927 Clouds 13 1025 82 10000 2.06 160 08:34 13.06.2022
928 Clouds 10 1024 93 10000 1.54 150 06:35 13.06.2022
929 Clouds 9 1023 93 10000 3.6 170 04:35 13.06.2022
930 Clouds 10 1024 82 10000 3.09 140 01:44 13.06.2022
931 Clouds 11 1024 76 10000 3.6 150 01:18 13.06.2022
932 Clouds 10 1025 76 10000 3.6 170 23:41 12.06.2022
933 Clouds 10 1025 93 10000 1.54 130 22:34 12.06.2022
934 Clouds 10 1026 87 10000 1.54 0 21:45 12.06.2022
935 Clouds 10 1026 87 10000 1.54 170 20:49 12.06.2022
936 Clouds 11 1025 82 10000 2.06 160 19:43 12.06.2022
937 Clouds 13 1025 77 10000 5.14 160 18:46 12.06.2022
938 Clouds 14 1024 72 10000 4.12 160 16:57 12.06.2022
939 Drizzle 17 1023 68 8000 6.17 130 15:33 12.06.2022
940 Clouds 16 1023 67 10000 7.2 120 14:41 12.06.2022
941 Clouds 18 1022 59 10000 5.14 130 14:18 12.06.2022
942 Clouds 18 1022 63 10000 4.63 150 13:43 12.06.2022
943 Clouds 17 1023 68 10000 5.66 120 11:58 12.06.2022
944 Clouds 18 1024 63 10000 5.66 130 10:46 12.06.2022
945 Clouds 18 1025 59 10000 4.63 130 09:36 12.06.2022
946 Clouds 17 1025 59 10000 4.63 140 08:49 12.06.2022
947 Clouds 15 1025 67 10000 4.12 130 07:49 12.06.2022
948 Clouds 13 1024 82 10000 2.57 170 05:51 12.06.2022
949 Clouds 13 1024 82 10000 3.6 140 03:38 12.06.2022
950 Clouds 13 1024 82 10000 3.6 140 03:38 12.06.2022
951 Clouds 13 1024 88 10000 2.57 160 01:44 12.06.2022
952 Clouds 13 1024 88 10000 3.6 170 00:59 12.06.2022
953 Clouds 13 1025 88 10000 2.57 170 00:36 12.06.2022
954 Clouds 13 1025 88 10000 2.57 170 00:18 12.06.2022
955 Clouds 13 1025 82 10000 3.09 140 22:53 11.06.2022
956 Clouds 13 1025 82 10000 3.6 140 22:29 11.06.2022
957 Clouds 14 1025 82 10000 3.6 120 20:55 11.06.2022
958 Clouds 14 1025 82 10000 3.6 140 20:26 11.06.2022
959 Clouds 14 1025 82 10000 3.09 130 19:32 11.06.2022
960 Clouds 15 1024 77 10000 4.12 100 18:36 11.06.2022
961 Clouds 14 1024 82 10000 4.63 110 17:52 11.06.2022
962 Clouds 16 1023 67 10000 5.66 130 17:29 11.06.2022
963 Clouds 16 1023 67 10000 5.66 130 16:59 11.06.2022
964 Clouds 17 1023 63 10000 4.63 120 16:38 11.06.2022
965 Clouds 18 1023 59 10000 5.66 140 15:45 11.06.2022
966 Clouds 19 1023 56 10000 5.66 130 13:54 11.06.2022
967 Clouds 20 1023 52 10000 6.17 120 13:25 11.06.2022
968 Clouds 20 1024 52 10000 5.14 130 11:18 11.06.2022
969 Clouds 19 1025 56 10000 5.66 110 10:22 11.06.2022
970 Clouds 17 1025 68 10000 4.63 160 09:38 11.06.2022
971 Clouds 14 1025 82 10000 2.57 110 07:52 11.06.2022
972 Clouds 10 1024 100 10000 1.03 0 06:31 11.06.2022
973 Clouds 8 1024 100 10000 1.54 90 05:21 11.06.2022
974 Clouds 10 1024 100 10000 1.03 0 01:53 11.06.2022
975 Clouds 9 1024 100 10000 1.54 60 01:33 11.06.2022
976 Clouds 10 1024 100 10000 2.06 120 00:22 11.06.2022
977 Clouds 11 1025 100 10000 2.06 70 22:33 10.06.2022
978 Clouds 11 1025 100 10000 2.57 60 21:54 10.06.2022
979 Clouds 12 1025 94 10000 2.57 80 20:43 10.06.2022
980 Clouds 12 1025 94 10000 3.09 120 20:23 10.06.2022
981 Clouds 13 1024 88 10000 3.09 140 19:48 10.06.2022
982 Clouds 13 1024 88 10000 3.09 130 19:18 10.06.2022
983 Clouds 14 1024 77 10000 4.63 100 18:19 10.06.2022
984 Clouds 15 1023 72 10000 4.63 90 17:36 10.06.2022
985 Clouds 16 1022 67 10000 5.14 90 16:56 10.06.2022
986 Clouds 19 1022 56 10000 4.63 90 15:48 10.06.2022
987 Clouds 21 1022 46 10000 3.09 120 15:19 10.06.2022
988 Clouds 22 1022 46 10000 3.09 130 13:44 10.06.2022
989 Clouds 21 1022 43 10000 3.09 0 12:28 10.06.2022
990 Clouds 20 1023 49 10000 1.54 0 11:40 10.06.2022
991 Clouds 19 1024 49 10000 3.09 130 10:37 10.06.2022
992 Clouds 18 1024 52 10000 3.09 0 09:40 10.06.2022
993 Clouds 16 1025 63 10000 3.6 120 08:23 10.06.2022
994 Clouds 13 1024 77 10000 3.09 110 06:51 10.06.2022
995 Clouds 11 1024 87 10000 2.57 140 06:32 10.06.2022
996 Clouds 11 1024 87 10000 2.57 140 05:35 10.06.2022
997 Clouds 13 1023 94 10000 2.06 170 02:55 10.06.2022
998 Clouds 13 1023 94 10000 3.6 140 01:37 10.06.2022
999 Clouds 13 1023 100 10000 2.57 150 23:58 09.06.2022
1000 Clouds 13 1024 94 10000 2.57 150 22:56 09.06.2022
1001 Clouds 13 1024 100 10000 2.06 110 21:46 09.06.2022
1002 Clouds 13 1024 94 10000 2.57 110 21:28 09.06.2022
1003 Clouds 13 1024 94 10000 2.57 140 20:40 09.06.2022
1004 Rain 12 1024 94 10000 3.09 120 19:54 09.06.2022
1005 Rain 13 1023 88 10000 3.6 120 18:43 09.06.2022
1006 Clouds 14 1023 82 10000 4.12 110 17:56 09.06.2022
1007 Clouds 16 1022 67 10000 5.14 110 16:38 09.06.2022
1008 Clouds 17 1022 63 10000 4.63 150 15:42 09.06.2022
1009 Clouds 17 1021 63 10000 4.63 140 14:34 09.06.2022
1010 Clouds 17 1021 68 10000 6.69 100 13:46 09.06.2022
1011 Clouds 19 1021 60 10000 6.17 120 13:25 09.06.2022
1012 Clouds 19 1022 56 10000 6.17 130 11:53 09.06.2022
1013 Clouds 17 1023 63 10000 5.66 150 10:36 09.06.2022
1014 Clouds 16 1024 72 10000 5.66 120 09:40 09.06.2022
1015 Clouds 16 1024 72 10000 5.66 120 09:21 09.06.2022
1016 Clouds 13 1024 88 10000 4.63 140 07:29 09.06.2022
1017 Clouds 12 1022 100 10000 1.54 0 04:47 09.06.2022
1018 Clouds 11 1022 100 10000 2.06 100 01:42 09.06.2022
1019 Clouds 13 1023 94 10000 3.6 120 23:24 08.06.2022
1020 Clouds 13 1023 94 10000 3.6 120 22:45 08.06.2022
1021 Clouds 13 1023 94 10000 3.6 140 22:25 08.06.2022
1022 Clouds 13 1023 94 10000 3.6 140 21:45 08.06.2022
1023 Clouds 13 1023 94 10000 2.57 150 20:33 08.06.2022
1024 Clouds 13 1023 94 10000 3.09 120 19:46 08.06.2022
1025 Clouds 13 1023 88 10000 3.09 100 18:49 08.06.2022
1026 Clouds 14 1022 88 10000 4.12 100 17:48 08.06.2022
1027 Clouds 18 1022 63 10000 5.66 110 16:18 08.06.2022
1028 Clouds 20 1021 56 10000 5.14 100 14:46 08.06.2022
1029 Clouds 21 1021 53 10000 5.66 120 12:55 08.06.2022
1030 Clouds 21 1021 53 10000 5.66 120 12:55 08.06.2022
1031 Clouds 21 1021 53 10000 5.14 130 11:44 08.06.2022
1032 Clouds 20 1022 56 10000 4.63 130 11:19 08.06.2022
1033 Clouds 19 1023 60 10000 4.12 140 09:45 08.06.2022
1034 Clouds 18 1023 63 10000 4.12 130 09:18 08.06.2022
1035 Clouds 14 1023 82 10000 4.12 170 07:22 08.06.2022
1036 Clouds 12 1022 94 10000 2.57 120 04:51 08.06.2022
1037 Clouds 12 1022 88 10000 2.57 140 02:19 08.06.2022
1038 Clouds 12 1023 94 10000 2.57 130 23:41 07.06.2022
1039 Clouds 12 1023 94 10000 2.57 120 23:22 07.06.2022
1040 Clouds 14 1024 82 10000 3.6 150 22:38 07.06.2022
1041 Clouds 14 1024 82 10000 4.12 140 21:41 07.06.2022
1042 Clouds 14 1024 88 10000 4.12 130 21:23 07.06.2022
1043 Clouds 13 1024 94 10000 3.6 130 20:42 07.06.2022
1044 Clouds 14 1024 88 10000 3.6 130 19:58 07.06.2022
1045 Clouds 14 1023 88 10000 4.12 120 18:38 07.06.2022
1046 Clouds 16 1023 77 10000 4.12 150 17:36 07.06.2022
1047 Clouds 16 1022 72 10000 4.63 100 16:47 07.06.2022
1048 Clouds 17 1022 68 10000 6.17 110 16:28 07.06.2022
1049 Clouds 20 1022 56 10000 5.66 120 15:37 07.06.2022
1050 Clouds 20 1022 56 10000 5.66 120 15:18 07.06.2022
1051 Clouds 20 1022 52 10000 5.66 130 14:43 07.06.2022
1052 Clouds 21 1022 49 10000 5.66 140 13:38 07.06.2022
1053 Clouds 21 1022 49 10000 5.66 140 13:20 07.06.2022
1054 Clouds 21 1023 49 10000 6.17 170 11:56 07.06.2022
1055 Clouds 19 1023 60 10000 6.69 180 10:53 07.06.2022
1056 Clouds 17 1024 72 10000 5.66 140 09:26 07.06.2022
1057 Clouds 15 1024 77 10000 4.63 160 08:22 07.06.2022
1058 Clouds 14 1024 88 10000 3.6 160 06:42 07.06.2022
1059 Clouds 13 1023 88 10000 4.63 140 04:47 07.06.2022
1060 Clouds 13 1023 100 10000 2.57 150 01:28 07.06.2022
1061 Clouds 13 1023 94 10000 2.57 140 23:59 06.06.2022
1062 Clouds 14 1024 94 10000 3.6 150 22:56 06.06.2022
1063 Clouds 14 1024 94 10000 3.09 130 22:30 06.06.2022
1064 Drizzle 14 1024 94 8000 5.66 140 21:18 06.06.2022
1065 Clouds 15 1023 88 10000 3.09 130 19:29 06.06.2022
1066 Clouds 15 1023 82 10000 4.12 120 18:53 06.06.2022
1067 Clouds 15 1023 82 10000 3.6 130 18:26 06.06.2022
1068 Rain 16 1022 77 10000 5.66 110 17:26 06.06.2022
1069 Rain 17 1022 72 10000 5.66 120 16:18 06.06.2022
1070 Rain 19 1021 64 10000 5.14 160 15:33 06.06.2022
1071 Clouds 20 1021 60 10000 5.14 160 14:32 06.06.2022
1072 Clouds 19 1021 64 10000 5.66 160 13:25 06.06.2022
1073 Clouds 21 1021 56 10000 5.66 120 12:36 06.06.2022
1074 Clouds 20 1022 60 10000 5.14 130 11:53 06.06.2022
1075 Clouds 19 1022 64 10000 5.66 170 10:40 06.06.2022
1076 Clouds 18 1023 68 10000 4.63 130 09:39 06.06.2022
1077 Clouds 17 1023 72 10000 3.6 130 08:32 06.06.2022
1078 Clouds 14 1023 94 10000 2.06 150 07:28 06.06.2022
1079 Clouds 11 1022 100 10000 2.57 110 05:27 06.06.2022
1080 Clouds 11 1022 100 10000 1.03 0 02:55 06.06.2022
1081 Clouds 11 1022 100 10000 1.03 0 01:18 06.06.2022
1082 Clouds 12 1023 100 10000 2.57 100 00:38 06.06.2022
1083 Clouds 13 1021 90 10000 1.92 128 23:34 05.06.2022
1084 Clouds 13 1023 94 10000 2.57 80 22:45 05.06.2022
1085 Clouds 13 1023 94 10000 2.57 80 22:45 05.06.2022
1086 Clouds 13 1024 94 10000 1.03 30 20:47 05.06.2022
1087 Clouds 13 1023 94 10000 2.06 60 19:41 05.06.2022
1088 Clouds 14 1022 94 10000 3.6 90 18:29 05.06.2022
1089 Drizzle 15 1022 88 10000 4.63 120 17:51 05.06.2022
1090 Clouds 16 1022 82 10000 5.14 110 17:25 05.06.2022
1091 Clouds 16 1022 82 10000 4.63 110 16:49 05.06.2022
1092 Clouds 17 1021 77 10000 4.12 100 16:30 05.06.2022
1093 Clouds 19 1021 64 10000 4.12 140 14:24 05.06.2022
1094 Clouds 18 1022 68 10000 3.09 150 12:49 05.06.2022
1095 Clouds 17 1022 72 10000 3.6 180 11:43 05.06.2022
1096 Clouds 17 1023 72 10000 3.6 160 10:33 05.06.2022
1097 Clouds 16 1024 77 10000 2.57 160 09:59 05.06.2022
1098 Clouds 15 1024 77 10000 4.12 170 08:28 05.06.2022
1099 Clouds 15 1024 82 10000 3.09 150 07:41 05.06.2022
1100 Clouds 13 1023 94 10000 3.6 170 05:21 05.06.2022
1101 Clouds 13 1022 88 10000 4.12 170 03:43 05.06.2022
1102 Clouds 11 1023 94 10000 2.57 140 01:32 05.06.2022
1103 Clouds 12 1023 88 10000 4.12 140 00:29 05.06.2022
1104 Clouds 12 1024 88 10000 2.57 140 21:58 04.06.2022
1105 Clouds 12 1024 88 10000 3.09 130 20:21 04.06.2022
1106 Clouds 13 1024 88 10000 4.12 130 18:18 04.06.2022
1107 Clouds 14 1024 88 10000 6.17 110 16:43 04.06.2022
1108 Clouds 16 1023 72 10000 7.72 100 16:18 04.06.2022
1109 Clouds 18 1023 63 10000 5.66 150 14:47 04.06.2022
1110 Clouds 20 1023 52 10000 5.66 130 12:27 04.06.2022
1111 Clouds 19 1024 56 10000 6.69 140 10:58 04.06.2022
1112 Clouds 19 1024 56 10000 6.17 130 10:26 04.06.2022
1113 Clouds 18 1025 59 10000 6.69 170 09:42 04.06.2022
1114 Clouds 17 1026 59 10000 5.66 150 08:40 04.06.2022
1115 Clouds 14 1025 72 10000 5.66 160 07:40 04.06.2022
1116 Clouds 13 1025 82 10000 5.66 170 04:38 04.06.2022
1117 Clouds 13 1025 82 10000 3.6 170 01:25 04.06.2022
1118 Clouds 13 1026 82 10000 3.09 170 23:53 03.06.2022
1119 Clouds 13 1026 82 10000 2.57 160 22:30 03.06.2022
1120 Clouds 12 1026 94 10000 2.57 130 21:21 03.06.2022
1121 Clouds 13 1026 82 10000 2.57 140 20:33 03.06.2022
1122 Clouds 15 1025 72 10000 3.6 150 17:58 03.06.2022
1123 Clouds 16 1024 67 10000 4.12 150 16:47 03.06.2022
1124 Clouds 17 1024 68 10000 4.63 160 15:18 03.06.2022
1125 Clouds 17 1024 63 10000 4.12 140 13:20 03.06.2022
1126 Clouds 16 1025 67 10000 6.17 140 11:19 03.06.2022
1127 Clouds 17 1026 63 10000 5.66 150 09:38 03.06.2022
1128 Clouds 15 1026 77 10000 5.14 150 08:45 03.06.2022
1129 Clouds 14 1025 77 10000 5.14 150 07:26 03.06.2022
1130 Clouds 13 1024 82 10000 4.12 170 06:34 03.06.2022
1131 Clouds 13 1024 88 10000 4.63 150 05:35 03.06.2022
1132 Clouds 12 1024 88 10000 2.06 180 00:28 03.06.2022
1133 Clouds 12 1024 88 10000 3.6 170 22:41 02.06.2022
1134 Clouds 11 1024 94 10000 3.6 160 21:40 02.06.2022
1135 Clouds 12 1024 82 10000 3.09 150 20:22 02.06.2022
1136 Clouds 13 1024 77 10000 3.09 140 19:46 02.06.2022
1137 Clouds 13 1024 77 10000 3.09 130 19:28 02.06.2022
1138 Clouds 16 1022 55 10000 4.12 130 17:32 02.06.2022
1139 Clouds 18 1022 52 10000 5.14 140 16:27 02.06.2022
1140 Clouds 21 1021 37 10000 5.14 120 14:19 02.06.2022
1141 Clouds 22 1021 35 10000 4.12 150 13:29 02.06.2022
1142 Clouds 21 1022 40 10000 4.63 110 11:36 02.06.2022
1143 Clouds 19 1022 45 10000 4.12 160 10:20 02.06.2022
1144 Clouds 17 1023 52 10000 4.12 180 09:27 02.06.2022
1145 Clouds 15 1023 67 10000 2.57 170 08:26 02.06.2022
1146 Clouds 10 1023 100 8000 1.54 0 07:21 02.06.2022
1147 Clouds 6 1021 100 10000 0.51 0 04:52 02.06.2022
1148 Clouds 6 1021 100 10000 0.51 0 02:38 02.06.2022
1149 Clouds 7 1022 93 10000 0.51 0 23:47 01.06.2022
1150 Clouds 9 1022 87 10000 2.06 30 22:31 01.06.2022
1151 Clouds 9 1022 76 10000 0 0 21:35 01.06.2022
1152 Clouds 10 1022 71 10000 0 0 20:40 01.06.2022
1153 Clouds 11 1021 66 10000 2.06 300 19:59 01.06.2022
1154 Clouds 12 1021 62 10000 1.54 310 19:25 01.06.2022
1155 Clouds 15 1020 51 10000 2.57 280 17:44 01.06.2022
1156 Clouds 20 1019 35 10000 2.57 260 16:34 01.06.2022
1157 Clouds 22 1019 31 10000 4.12 300 14:54 01.06.2022
1158 Clouds 22 1019 33 10000 2.06 0 13:51 01.06.2022
1159 Clouds 21 1020 37 10000 1.54 220 12:26 01.06.2022
1160 Clouds 17 1022 63 8000 2.06 180 09:41 01.06.2022
1161 Mist 15 1022 67 6000 1.03 0 08:40 01.06.2022
1162 Clouds 11 1022 87 10000 1.54 0 07:22 01.06.2022
1163 Clouds 11 1021 87 10000 1.54 0 05:23 01.06.2022
1164 Clouds 8 1021 100 10000 0.51 0 00:22 01.06.2022
1165 Clouds 10 1022 100 10000 1.54 160 23:28 31.05.2022
1166 Clouds 11 1022 94 10000 2.57 150 22:36 31.05.2022
1167 Clouds 11 1022 94 10000 2.06 150 21:45 31.05.2022
1168 Clouds 11 1022 94 10000 2.57 130 20:45 31.05.2022
1169 Clouds 11 1022 94 10000 3.09 90 20:18 31.05.2022
1170 Clouds 12 1022 88 10000 3.09 90 18:52 31.05.2022
1171 Clouds 13 1021 77 10000 3.09 100 17:50 31.05.2022
1172 Clouds 15 1021 63 10000 3.09 90 16:56 31.05.2022
1173 Clouds 17 1020 52 10000 3.6 110 15:40 31.05.2022
1174 Clouds 18 1020 52 10000 4.12 140 13:52 31.05.2022
1175 Clouds 20 1021 49 10000 5.66 110 12:20 31.05.2022
1176 Clouds 18 1023 59 10000 4.12 160 10:53 31.05.2022
1177 Clouds 16 1024 59 10000 2.57 180 08:49 31.05.2022
1178 Clouds 12 1023 76 10000 2.06 180 07:21 31.05.2022
1179 Clear 6 1022 100 10000 1.03 50 05:19 31.05.2022
1180 Clouds 11 1023 94 10000 2.06 140 00:36 31.05.2022
1181 Clouds 11 1024 94 10000 2.06 160 23:26 30.05.2022
1182 Clouds 10 1024 100 10000 1.54 150 22:53 30.05.2022
1183 Clouds 10 1024 93 10000 1.54 50 21:52 30.05.2022
1184 Clouds 11 1024 94 10000 2.57 110 21:32 30.05.2022
1185 Clouds 12 1025 82 10000 3.09 120 19:57 30.05.2022
1186 Clouds 13 1024 77 10000 3.09 100 18:39 30.05.2022
1187 Clouds 14 1023 67 10000 4.12 100 17:24 30.05.2022
1188 Clouds 16 1023 59 10000 3.6 90 16:40 30.05.2022
1189 Clouds 20 1023 43 10000 5.14 120 14:23 30.05.2022
1190 Clouds 20 1023 46 10000 4.63 120 12:21 30.05.2022
1191 Clouds 19 1025 49 10000 4.63 130 10:40 30.05.2022
1192 Clouds 17 1026 68 10000 4.12 180 09:19 30.05.2022
1193 Clouds 12 1025 88 10000 2.57 170 06:30 30.05.2022
1194 Clouds 12 1025 88 10000 3.09 170 05:48 30.05.2022
1195 Clouds 12 1024 88 10000 2.06 130 01:33 30.05.2022
1196 Clouds 12 1025 88 10000 4.12 110 22:54 29.05.2022
1197 Clouds 12 1025 88 10000 4.12 130 22:36 29.05.2022
1198 Clouds 13 1025 88 10000 4.12 140 20:53 29.05.2022
1199 Clouds 13 1025 82 10000 4.63 110 19:31 29.05.2022
1200 Clouds 14 1024 82 10000 5.14 120 18:37 29.05.2022
1201 Clouds 14 1024 82 10000 4.63 110 17:23 29.05.2022
1202 Clouds 18 1023 59 10000 5.66 120 15:48 29.05.2022
1203 Clouds 20 1023 52 10000 5.66 110 14:57 29.05.2022
1204 Clouds 18 1023 59 10000 5.66 170 13:46 29.05.2022
1205 Clouds 19 1024 60 10000 7.2 110 11:34 29.05.2022
1206 Clouds 19 1025 60 10000 5.66 130 10:38 29.05.2022
1207 Clouds 16 1025 63 10000 6.17 160 08:47 29.05.2022
1208 Clouds 12 1024 88 10000 3.6 140 05:48 29.05.2022
1209 Clouds 13 1023 82 10000 4.12 150 04:43 29.05.2022
1210 Clouds 13 1023 82 10000 4.12 140 02:50 29.05.2022
1211 Clouds 14 1024 82 10000 3.6 140 23:49 28.05.2022
1212 Clouds 14 1024 82 10000 5.14 140 23:26 28.05.2022
1213 Drizzle 14 1024 88 10000 4.12 140 22:25 28.05.2022
1214 Clouds 14 1024 82 10000 4.63 160 21:31 28.05.2022
1215 Clouds 15 1023 82 10000 4.63 160 19:24 28.05.2022
1216 Clouds 15 1023 77 10000 4.63 150 18:46 28.05.2022
1217 Clouds 15 1022 82 10000 5.14 100 17:35 28.05.2022
1218 Clouds 18 1021 68 10000 6.17 110 16:35 28.05.2022
1219 Clouds 20 1021 60 10000 5.14 110 15:38 28.05.2022
1220 Clouds 21 1021 56 10000 3.6 130 13:57 28.05.2022
1221 Clouds 20 1021 60 10000 5.14 130 12:43 28.05.2022
1222 Clouds 21 1022 56 10000 4.63 170 11:54 28.05.2022
1223 Clouds 20 1023 56 10000 5.66 140 10:43 28.05.2022
1224 Clouds 18 1023 68 10000 4.63 140 09:56 28.05.2022
1225 Clouds 18 1023 68 10000 4.12 150 08:43 28.05.2022
1226 Clouds 16 1023 77 10000 3.6 130 07:23 28.05.2022
1227 Clouds 13 1021 94 10000 3.09 100 05:24 28.05.2022
1228 Clouds 15 1021 88 10000 2.06 110 02:33 28.05.2022
1229 Clouds 15 1021 88 10000 2.06 60 00:18 28.05.2022
1230 Clouds 15 1022 88 10000 2.57 130 22:49 27.05.2022
1231 Clouds 15 1022 88 10000 2.57 120 21:35 27.05.2022
1232 Clouds 16 1022 82 10000 2.06 140 20:46 27.05.2022
1233 Clouds 16 1022 82 10000 2.57 140 20:21 27.05.2022
1234 Clouds 16 1021 82 10000 3.09 140 19:38 27.05.2022
1235 Clouds 16 1021 82 10000 3.09 140 19:20 27.05.2022
1236 Clouds 18 1020 72 10000 5.14 110 17:26 27.05.2022
1237 Clouds 22 1019 53 10000 4.63 110 15:57 27.05.2022
1238 Clouds 24 1018 47 10000 4.12 120 14:58 27.05.2022
1239 Clouds 25 1019 47 10000 3.09 80 13:41 27.05.2022
1240 Clouds 25 1019 41 10000 1.54 0 12:20 27.05.2022
1241 Clouds 25 1020 44 10000 2.06 0 11:31 27.05.2022
1242 Clouds 24 1021 50 10000 2.06 170 10:43 27.05.2022
1243 Clouds 22 1022 56 10000 3.09 160 09:59 27.05.2022
1244 Clouds 21 1022 60 10000 3.6 160 09:30 27.05.2022
1245 Clouds 17 1022 82 8000 2.06 130 07:39 27.05.2022
1246 Clouds 15 1021 94 10000 2.06 180 04:58 27.05.2022
1247 Clouds 12 1021 100 10000 2.06 300 01:38 27.05.2022
1248 Clouds 12 1022 88 10000 2.06 320 23:23 26.05.2022
1249 Clouds 13 1022 88 10000 3.09 310 22:22 26.05.2022
1250 Clouds 15 1022 88 10000 1.03 0 21:27 26.05.2022
1251 Clouds 17 1022 72 10000 1.03 80 19:35 26.05.2022
1252 Clouds 18 1021 63 10000 1.03 0 18:51 26.05.2022
1253 Clouds 18 1020 55 10000 1.54 340 17:36 26.05.2022
1254 Clouds 23 1020 41 10000 3.09 290 16:30 26.05.2022
1255 Clouds 26 1020 26 10000 2.57 300 15:28 26.05.2022
1256 Clouds 26 1020 34 10000 2.06 0 14:19 26.05.2022
1257 Clouds 24 1021 47 10000 2.06 170 12:18 26.05.2022
1258 Clouds 24 1022 50 10000 2.06 160 11:20 26.05.2022
1259 Mist 18 1023 82 6000 1.03 0 09:39 26.05.2022
1260 Fog 15 1023 100 1200 0.51 0 08:48 26.05.2022
1261 Fog 13 1022 100 400 0.51 0 05:43 26.05.2022
1262 Fog 13 1022 100 10000 1.54 40 02:24 26.05.2022
1263 Clouds 13 1023 100 10000 2.57 110 23:53 25.05.2022
1264 Clouds 13 1023 100 10000 2.57 100 22:52 25.05.2022
1265 Clouds 13 1023 94 10000 1.03 0 21:42 25.05.2022
1266 Clouds 15 1023 88 10000 1.03 70 20:49 25.05.2022
1267 Clouds 15 1022 94 10000 2.06 60 19:42 25.05.2022
1268 Clouds 16 1022 88 10000 3.09 90 18:47 25.05.2022
1269 Clouds 20 1021 49 10000 2.06 30 16:58 25.05.2022
1270 Clouds 23 1021 41 10000 2.06 10 16:27 25.05.2022
1271 Clouds 25 1020 36 10000 2.06 50 15:36 25.05.2022
1272 Clouds 25 1020 34 10000 2.57 200 14:50 25.05.2022
1273 Clouds 26 1020 32 10000 1.54 0 14:31 25.05.2022
1274 Clouds 26 1020 32 10000 1.54 0 13:23 25.05.2022
1275 Clear 25 1016 39 10000 1.06 11 11:49 25.05.2022
1276 Clouds 23 1023 41 10000 2.57 90 10:24 25.05.2022
1277 Clouds 19 1024 64 10000 1.03 0 09:38 25.05.2022
1278 Clear 19 1020 59 10000 1.16 107 07:36 25.05.2022
1279 Clouds 12 1022 100 10000 1.54 0 05:41 25.05.2022
1280 Clear 12 1019 96 10000 0.99 132 01:51 25.05.2022
1281 Clouds 12 1022 100 10000 1.03 0 23:48 24.05.2022
1282 Clouds 12 1022 100 10000 0.51 0 22:58 24.05.2022
1283 Clouds 13 1022 94 10000 1.54 90 21:47 24.05.2022
1284 Clouds 13 1022 94 10000 2.06 90 21:23 24.05.2022
1285 Clouds 13 1022 94 10000 2.57 80 20:59 24.05.2022
1286 Clouds 14 1022 88 10000 3.09 90 19:20 24.05.2022
1287 Clouds 15 1022 77 10000 3.09 90 18:29 24.05.2022
1288 Clouds 19 1021 60 10000 4.63 90 16:36 24.05.2022
1289 Clouds 21 1020 53 10000 3.09 120 15:31 24.05.2022
1290 Clouds 23 1019 50 10000 4.12 120 14:37 24.05.2022
1291 Clouds 23 1019 50 10000 2.06 140 13:35 24.05.2022
1292 Clouds 22 1020 53 10000 3.09 140 12:19 24.05.2022
1293 Clouds 21 1022 53 10000 3.09 100 09:51 24.05.2022
1294 Clouds 18 1022 59 10000 2.06 0 08:51 24.05.2022
1295 Clouds 16 1022 67 10000 1.54 0 07:44 24.05.2022
1296 Clouds 10 1021 100 10000 0 0 06:34 24.05.2022
1297 Clouds 10 1020 100 10000 2.57 70 03:32 24.05.2022
1298 Clouds 12 1020 100 10000 2.57 100 01:46 24.05.2022
1299 Clouds 12 1021 100 10000 0.51 0 00:21 24.05.2022
1300 Clouds 13 1021 100 10000 1.03 0 22:24 23.05.2022
1301 Clouds 14 1022 94 10000 1.03 0 21:45 23.05.2022
1302 Clouds 15 1022 88 10000 2.57 100 20:46 23.05.2022
1303 Clouds 16 1021 82 10000 3.09 140 19:47 23.05.2022
1304 Clouds 16 1021 82 10000 4.12 120 19:18 23.05.2022
1305 Clouds 16 1021 77 10000 4.12 110 18:40 23.05.2022
1306 Clouds 16 1020 72 10000 3.09 100 17:56 23.05.2022
1307 Clouds 19 1020 64 10000 4.63 100 16:28 23.05.2022
1308 Clouds 20 1019 60 10000 5.14 110 14:18 23.05.2022
1309 Clouds 21 1020 56 10000 3.09 130 11:52 23.05.2022
1310 Clouds 20 1021 60 10000 3.6 150 10:47 23.05.2022
1311 Clouds 21 1022 56 10000 3.6 130 09:47 23.05.2022
1312 Clouds 18 1022 68 10000 3.6 170 08:46 23.05.2022
1313 Clouds 18 1022 68 10000 3.6 170 08:46 23.05.2022
1314 Clouds 16 1022 77 10000 2.57 90 07:24 23.05.2022
1315 Clouds 14 1021 88 10000 1.54 130 06:39 23.05.2022
1316 Clouds 14 1021 94 10000 2.06 140 03:27 23.05.2022
1317 Clouds 13 1021 100 10000 2.06 160 01:52 23.05.2022
1318 Clouds 13 1021 100 10000 3.09 120 01:26 23.05.2022
1319 Clouds 13 1022 100 10000 2.06 100 22:49 22.05.2022
1320 Clouds 13 1022 94 10000 1.54 60 22:22 22.05.2022
1321 Clouds 13 1023 100 10000 1.54 0 21:51 22.05.2022
1322 Clouds 13 1023 100 10000 2.57 80 20:43 22.05.2022
1323 Clouds 14 1023 94 10000 2.57 90 20:20 22.05.2022
1324 Clouds 15 1022 88 10000 3.6 80 19:19 22.05.2022
1325 Clouds 15 1022 88 10000 3.6 70 18:46 22.05.2022
1326 Clouds 17 1022 77 10000 4.63 90 18:21 22.05.2022
1327 Clouds 17 1022 77 10000 4.12 120 16:51 22.05.2022
1328 Clouds 20 1021 68 10000 5.66 110 15:25 22.05.2022
1329 Clouds 20 1021 64 10000 6.17 100 14:44 22.05.2022
1330 Clouds 21 1021 64 10000 4.63 110 12:54 22.05.2022
1331 Clouds 21 1022 60 10000 4.63 120 12:31 22.05.2022
1332 Clouds 23 1022 53 10000 2.57 140 10:45 22.05.2022
1333 Clouds 20 1024 56 10000 2.57 140 09:29 22.05.2022
1334 Clouds 16 1024 77 10000 2.06 100 07:44 22.05.2022
1335 Clouds 13 1024 94 10000 1.54 0 06:41 22.05.2022
1336 Clouds 10 1023 100 10000 1.03 0 04:18 22.05.2022
1337 Clouds 10 1023 100 10000 2.57 60 00:59 22.05.2022
1338 Clouds 11 1024 94 10000 2.57 70 23:57 21.05.2022
1339 Clouds 11 1024 94 10000 2.06 60 23:29 21.05.2022
1340 Clouds 12 1024 94 10000 2.06 90 21:59 21.05.2022
1341 Clouds 12 1024 94 10000 2.57 100 21:37 21.05.2022
1342 Clouds 13 1024 88 10000 2.57 90 20:41 21.05.2022
1343 Clouds 13 1024 88 10000 2.57 90 19:53 21.05.2022
1344 Clouds 13 1024 88 10000 2.57 80 19:20 21.05.2022
1345 Clouds 16 1023 67 10000 4.63 90 17:23 21.05.2022
1346 Clouds 22 1022 43 10000 5.66 130 14:51 21.05.2022
1347 Clouds 23 1022 38 10000 5.14 110 14:19 21.05.2022
1348 Clouds 24 1022 36 10000 3.6 130 13:25 21.05.2022
1349 Clouds 23 1022 41 10000 4.12 100 12:39 21.05.2022
1350 Clouds 23 1023 38 10000 4.63 130 11:38 21.05.2022
1351 Clouds 21 1024 49 10000 3.6 160 10:21 21.05.2022
1352 Clouds 17 1025 68 10000 4.63 170 08:59 21.05.2022
1353 Clouds 16 1025 72 10000 4.63 170 08:38 21.05.2022
1354 Clouds 13 1023 83 10000 3.06 114 06:20 21.05.2022
1355 Clouds 15 1024 88 10000 3.09 140 01:42 21.05.2022
1356 Clouds 15 1025 88 10000 2.57 140 23:35 20.05.2022
1357 Clouds 15 1025 88 10000 3.09 140 22:30 20.05.2022
1358 Clouds 15 1025 88 10000 3.09 110 21:58 20.05.2022
1359 Clouds 14 1025 94 10000 3.09 100 21:19 20.05.2022
1360 Clouds 14 1025 94 10000 3.09 130 20:47 20.05.2022
1361 Clouds 16 1025 82 10000 3.09 110 19:45 20.05.2022
1362 Clouds 16 1025 82 10000 3.09 100 18:53 20.05.2022
1363 Clouds 16 1024 82 10000 3.09 140 17:53 20.05.2022
1364 Clouds 18 1023 72 10000 4.12 140 16:23 20.05.2022
1365 Clouds 18 1023 72 10000 5.14 120 15:54 20.05.2022
1366 Clouds 20 1022 60 10000 5.14 120 14:32 20.05.2022
1367 Clouds 21 1022 56 10000 4.63 130 13:59 20.05.2022
1368 Clouds 22 1023 53 10000 4.63 130 11:52 20.05.2022
1369 Clouds 21 1023 56 10000 6.17 120 10:45 20.05.2022
1370 Clouds 17 1024 59 10000 2.57 150 09:23 20.05.2022
1371 Clouds 15 1024 63 10000 4.12 170 07:43 20.05.2022
1372 Clouds 11 1024 100 10000 2.06 180 06:40 20.05.2022
1373 Clouds 10 1024 93 10000 1.54 0 05:39 20.05.2022
1374 Clouds 13 1024 82 10000 1.54 150 01:29 20.05.2022
1375 Clouds 14 1025 77 10000 3.09 140 23:31 19.05.2022
1376 Clouds 14 1025 77 10000 3.6 140 22:34 19.05.2022
1377 Clouds 14 1025 82 10000 3.6 140 21:49 19.05.2022
1378 Clouds 14 1025 82 10000 3.6 140 21:49 19.05.2022
1379 Clouds 14 1025 82 10000 3.6 140 21:23 19.05.2022
1380 Clouds 15 1025 77 10000 3.6 130 20:43 19.05.2022
1381 Clouds 14 1025 82 10000 4.12 140 19:54 19.05.2022
1382 Clouds 14 1024 82 10000 3.6 140 18:58 19.05.2022
1383 Clouds 16 1023 67 10000 4.63 90 17:35 19.05.2022
1384 Clouds 16 1023 67 10000 4.63 90 17:35 19.05.2022
1385 Clouds 19 1022 52 10000 4.12 140 15:34 19.05.2022
1386 Clouds 20 1022 56 10000 4.12 140 14:35 19.05.2022
1387 Clouds 19 1023 64 10000 5.14 110 13:59 19.05.2022
1388 Clouds 20 1023 60 10000 5.14 120 11:52 19.05.2022
1389 Clouds 19 1024 60 10000 3.09 160 10:25 19.05.2022
1390 Clouds 18 1024 63 10000 3.09 160 08:31 19.05.2022
1391 Clouds 12 1024 94 10000 2.06 90 06:39 19.05.2022
1392 Clouds 13 1024 94 10000 3.09 150 02:59 19.05.2022
1393 Clouds 14 1024 82 10000 4.12 150 00:56 19.05.2022
1394 Clouds 14 1024 88 10000 3.09 140 23:00 18.05.2022
1395 Clouds 14 1024 88 10000 3.09 140 22:40 18.05.2022
1396 Clouds 15 1024 77 10000 4.12 170 21:32 18.05.2022
1397 Clouds 14 1024 82 10000 3.6 160 20:55 18.05.2022
1398 Clouds 14 1024 82 10000 3.6 160 20:55 18.05.2022
1399 Clouds 14 1024 82 10000 3.6 160 20:19 18.05.2022
1400 Clouds 16 1024 72 10000 3.6 140 18:46 18.05.2022
1401 Clouds 15 1023 77 10000 4.12 130 17:41 18.05.2022
1402 Clouds 16 1023 72 10000 4.12 140 17:23 18.05.2022
1403 Clouds 17 1022 63 10000 5.14 120 16:35 18.05.2022
1404 Clouds 18 1022 59 10000 5.14 130 15:42 18.05.2022
1405 Clouds 19 1022 56 10000 5.66 120 15:19 18.05.2022
1406 Clouds 20 1022 49 10000 5.14 140 13:48 18.05.2022
1407 Clouds 21 1022 43 10000 5.66 140 12:53 18.05.2022
1408 Clouds 21 1023 40 10000 5.66 150 11:41 18.05.2022
1409 Clouds 20 1023 40 10000 6.17 160 11:23 18.05.2022
1410 Clouds 19 1024 42 10000 6.17 170 09:57 18.05.2022
1411 Clouds 15 1025 67 10000 3.6 170 07:55 18.05.2022
1412 Clouds 13 1024 77 10000 4.12 160 06:49 18.05.2022
1413 Clouds 12 1024 94 10000 2.57 160 02:23 18.05.2022
1414 Clouds 13 1025 88 10000 4.63 150 00:26 18.05.2022
1415 Clouds 13 1025 94 10000 4.63 170 22:47 17.05.2022
1416 Clouds 14 1025 82 10000 4.63 140 21:20 17.05.2022
1417 Clouds 14 1025 88 10000 4.63 140 20:29 17.05.2022
1418 Clouds 15 1025 82 10000 4.63 150 19:28 17.05.2022
1419 Clouds 15 1024 82 10000 5.14 160 17:52 17.05.2022
1420 Clouds 16 1023 77 10000 5.66 150 17:18 17.05.2022
1421 Clouds 17 1023 68 10000 5.14 150 16:31 17.05.2022
1422 Clouds 18 1023 68 10000 5.14 150 15:32 17.05.2022
1423 Clouds 19 1022 64 10000 6.17 140 14:30 17.05.2022
1424 Clouds 19 1023 60 10000 6.69 140 13:37 17.05.2022
1425 Clouds 18 1023 68 10000 6.69 160 11:58 17.05.2022
1426 Clouds 18 1025 68 10000 6.69 140 09:38 17.05.2022
1427 Clouds 16 1025 77 10000 6.17 150 08:36 17.05.2022
1428 Clouds 15 1024 82 10000 5.66 150 06:50 17.05.2022
1429 Clouds 14 1023 82 10000 3.6 160 03:45 17.05.2022
1430 Clouds 14 1024 82 10000 2.06 160 00:45 17.05.2022
1431 Clouds 14 1025 82 10000 4.12 150 22:44 16.05.2022
1432 Clouds 14 1025 82 10000 2.57 140 21:52 16.05.2022
1433 Clouds 15 1025 82 10000 3.09 130 20:48 16.05.2022
1434 Clouds 15 1025 77 10000 5.14 170 19:49 16.05.2022
1435 Clouds 16 1025 72 10000 3.09 130 18:21 16.05.2022
1436 Clouds 20 1023 49 10000 6.17 110 15:53 16.05.2022
1437 Clouds 22 1023 40 10000 4.12 140 14:38 16.05.2022
1438 Clouds 22 1023 38 10000 3.6 110 13:23 16.05.2022
1439 Clouds 23 1024 35 10000 2.57 120 11:31 16.05.2022
1440 Clouds 21 1025 40 10000 4.12 160 09:47 16.05.2022
1441 Clouds 15 1025 72 10000 2.06 150 06:58 16.05.2022
1442 Clouds 13 1024 82 10000 3.09 130 03:58 16.05.2022
1443 Clouds 15 1026 77 10000 2.06 150 23:38 15.05.2022
1444 Clouds 15 1026 82 10000 3.09 130 22:32 15.05.2022
1445 Clouds 15 1026 82 10000 3.09 130 21:47 15.05.2022
1446 Clouds 15 1026 82 10000 4.12 110 20:57 15.05.2022
1447 Clouds 16 1026 77 10000 5.14 110 19:52 15.05.2022
1448 Clouds 17 1024 63 10000 5.14 120 17:52 15.05.2022
1449 Clouds 18 1023 59 10000 5.14 120 16:29 15.05.2022
1450 Clouds 22 1022 43 10000 3.6 120 13:59 15.05.2022
1451 Clouds 22 1023 43 10000 3.6 110 12:57 15.05.2022
1452 Clouds 22 1024 43 10000 4.12 130 11:40 15.05.2022
1453 Clouds 20 1025 52 10000 5.14 140 10:29 15.05.2022
1454 Clouds 19 1025 56 10000 4.63 110 08:46 15.05.2022
1455 Clouds 14 1025 94 10000 1.54 140 06:58 15.05.2022
1456 Clouds 12 1024 100 10000 1.03 70 05:52 15.05.2022
1457 Clouds 14 1024 94 10000 1.03 0 00:49 15.05.2022
1458 Clouds 14 1024 94 10000 1.03 0 23:39 14.05.2022
1459 Clouds 14 1024 94 10000 1.54 0 22:59 14.05.2022
1460 Clouds 14 1024 94 10000 2.06 140 21:29 14.05.2022
1461 Clouds 13 1024 94 10000 3.09 110 20:53 14.05.2022
1462 Clouds 14 1024 88 10000 2.57 120 19:39 14.05.2022
1463 Clouds 14 1024 88 10000 2.57 120 19:19 14.05.2022
1464 Clouds 15 1023 82 10000 3.6 120 18:44 14.05.2022
1465 Clouds 17 1022 68 10000 4.63 100 16:46 14.05.2022
1466 Clouds 21 1021 49 10000 4.12 100 15:30 14.05.2022
1467 Clouds 22 1021 46 10000 3.6 130 14:34 14.05.2022
1468 Clouds 23 1022 43 10000 3.09 120 12:24 14.05.2022
1469 Clouds 21 1024 49 10000 3.6 140 10:59 14.05.2022
1470 Clouds 20 1024 52 10000 2.57 150 10:21 14.05.2022
1471 Clouds 19 1024 56 10000 3.09 170 09:53 14.05.2022
1472 Clouds 18 1025 59 10000 2.06 0 08:49 14.05.2022
1473 Clouds 14 1024 77 10000 3.09 110 06:41 14.05.2022
1474 Clouds 11 1022 100 10000 1.03 70 02:39 14.05.2022
1475 Clouds 14 1023 88 10000 1.54 160 23:36 13.05.2022
1476 Clouds 13 1024 94 10000 1.54 140 22:58 13.05.2022
1477 Clouds 13 1023 94 10000 2.06 160 22:25 13.05.2022
1478 Clouds 14 1023 88 10000 2.06 140 21:39 13.05.2022
1479 Clouds 14 1024 94 10000 2.57 140 20:45 13.05.2022
1480 Clouds 14 1023 94 10000 2.06 150 20:24 13.05.2022
1481 Clouds 13 1023 94 10000 2.57 70 19:28 13.05.2022
1482 Clouds 15 1022 88 10000 5.66 110 17:50 13.05.2022
1483 Clouds 16 1022 82 10000 2.57 90 17:27 13.05.2022
1484 Clouds 21 1021 56 10000 4.63 90 16:18 13.05.2022
1485 Clouds 21 1021 56 10000 4.63 100 15:20 13.05.2022
1486 Clouds 22 1021 53 10000 3.09 130 13:29 13.05.2022
1487 Clouds 21 1022 56 10000 1.54 0 12:25 13.05.2022
1488 Clouds 21 1023 53 10000 2.57 0 10:53 13.05.2022
1489 Clouds 19 1024 60 10000 1.54 120 09:33 13.05.2022
1490 Clouds 15 1024 77 10000 2.57 140 08:23 13.05.2022
1491 Clouds 14 1024 88 10000 3.6 120 07:42 13.05.2022
1492 Clouds 11 1023 100 10000 3.09 100 05:59 13.05.2022
1493 Clouds 12 1022 100 10000 2.06 110 02:44 13.05.2022
1494 Clouds 14 1023 88 10000 2.06 140 23:46 12.05.2022
1495 Clouds 14 1023 94 10000 2.06 110 22:44 12.05.2022
1496 Clouds 15 1023 88 10000 3.09 80 21:54 12.05.2022
1497 Clouds 15 1023 88 10000 2.06 150 20:25 12.05.2022
1498 Clouds 15 1022 82 10000 3.6 90 18:41 12.05.2022
1499 Clouds 18 1021 63 10000 5.66 100 16:58 12.05.2022
1500 Clouds 21 1020 40 10000 2.57 160 15:50 12.05.2022
1501 Clouds 24 1020 36 10000 2.06 0 14:20 12.05.2022
1502 Clouds 24 1020 38 10000 2.06 0 13:24 12.05.2022
1503 Clouds 22 1022 46 10000 2.06 0 10:41 12.05.2022
1504 Clouds 20 1023 60 10000 2.57 160 09:19 12.05.2022
1505 Clouds 18 1023 68 10000 2.57 110 08:41 12.05.2022
1506 Clouds 16 1023 77 10000 2.06 140 07:37 12.05.2022
1507 Clouds 12 1021 100 10000 2.06 140 05:32 12.05.2022
1508 Clouds 13 1020 88 10000 1.03 0 02:24 12.05.2022
1509 Clouds 14 1021 94 10000 2.57 120 23:56 11.05.2022
1510 Clouds 15 1021 88 10000 3.09 120 22:31 11.05.2022
1511 Clouds 15 1021 88 10000 2.06 140 21:32 11.05.2022
1512 Clouds 14 1021 94 10000 2.57 150 20:53 11.05.2022
1513 Clouds 16 1019 77 10000 5.14 100 18:24 11.05.2022
1514 Clouds 19 1018 56 10000 4.12 90 16:50 11.05.2022
1515 Clouds 25 1016 29 10000 2.06 0 14:50 11.05.2022
1516 Clouds 25 1016 31 10000 2.57 70 14:26 11.05.2022
1517 Clouds 25 1017 29 10000 2.06 40 13:44 11.05.2022
1518 Clouds 24 1018 36 10000 2.57 0 11:51 11.05.2022
1519 Clouds 20 1019 46 10000 2.06 160 09:54 11.05.2022
1520 Clouds 16 1020 72 10000 0.51 0 07:53 11.05.2022
1521 Clouds 7 1018 100 10000 1.54 310 04:44 11.05.2022
1522 Clouds 10 1018 93 10000 1.54 0 00:41 11.05.2022
1523 Clouds 11 1018 82 10000 4.12 310 22:30 10.05.2022
1524 Clouds 12 1019 76 10000 1.54 330 21:45 10.05.2022
1525 Clouds 13 1019 72 10000 2.57 330 20:52 10.05.2022
1526 Clouds 13 1018 67 10000 3.6 310 19:25 10.05.2022
1527 Clouds 16 1017 51 10000 3.09 310 17:47 10.05.2022
1528 Clouds 20 1017 40 10000 3.6 290 16:41 10.05.2022
1529 Clouds 25 1015 24 10000 8.23 290 13:59 10.05.2022
1530 Clouds 25 1016 31 10000 7.2 320 12:36 10.05.2022
1531 Clouds 25 1017 38 10000 6.17 310 11:49 10.05.2022
1532 Clouds 24 1017 38 10000 6.69 310 11:18 10.05.2022
1533 Clouds 22 1019 53 10000 3.6 290 09:57 10.05.2022
1534 Clouds 21 1019 64 10000 4.12 280 09:18 10.05.2022
1535 Clouds 15 1019 100 10000 1.03 330 06:35 10.05.2022
1536 Clouds 13 1017 100 10000 1.54 310 02:48 10.05.2022
1537 Clouds 14 1018 100 10000 2.06 320 00:24 10.05.2022
1538 Clouds 16 1019 88 10000 1.54 330 22:43 09.05.2022
1539 Clouds 17 1019 82 10000 2.57 330 21:48 09.05.2022
1540 Clouds 18 1019 77 10000 1.54 330 20:23 09.05.2022
1541 Clouds 19 1018 73 10000 1.54 360 18:35 09.05.2022
1542 Clouds 20 1018 68 10000 2.06 10 17:39 09.05.2022
1543 Clouds 22 1017 60 10000 4.12 30 16:28 09.05.2022
1544 Clouds 23 1017 57 10000 4.63 10 15:48 09.05.2022
1545 Clouds 26 1017 39 10000 4.63 310 14:46 09.05.2022
1546 Clouds 27 1017 39 10000 4.12 280 13:59 09.05.2022
1547 Clouds 27 1017 42 10000 3.6 240 13:32 09.05.2022
1548 Clouds 26 1018 47 10000 2.57 290 11:54 09.05.2022
1549 Clouds 24 1019 53 10000 2.57 310 10:50 09.05.2022
1550 Clouds 25 1019 57 10000 2.57 310 10:29 09.05.2022
1551 Clouds 20 1020 83 10000 1.03 0 07:57 09.05.2022
1552 Clouds 17 1020 100 10000 1.03 0 06:42 09.05.2022
1553 Clouds 16 1019 100 10000 1.03 100 02:37 09.05.2022
1554 Clouds 16 1019 100 10000 1.03 100 02:37 09.05.2022
1555 Clouds 16 1019 100 10000 1.03 100 02:37 09.05.2022
1556 Clouds 16 1019 100 10000 1.03 100 02:37 09.05.2022
1557 Clouds 16 1021 100 10000 1.03 0 23:29 08.05.2022
1558 Clouds 16 1021 100 10000 1.03 0 22:42 08.05.2022
1559 Clouds 17 1021 100 10000 3.09 110 21:37 08.05.2022
1560 Clouds 17 1021 94 10000 1.03 0 20:25 08.05.2022
1561 Clouds 17 1021 94 10000 2.06 70 19:35 08.05.2022
1562 Clouds 18 1020 82 10000 2.06 90 18:40 08.05.2022
1563 Rain 20 1019 73 10000 3.09 20 17:40 08.05.2022
1564 Rain 23 1019 60 10000 3.09 60 16:23 08.05.2022
1565 Clouds 25 1019 53 10000 4.63 70 15:24 08.05.2022
1566 Clouds 24 1019 57 10000 3.09 60 13:44 08.05.2022
1567 Clouds 26 1020 50 10000 2.57 60 11:50 08.05.2022
1568 Clouds 23 1021 64 10000 1.54 0 10:26 08.05.2022
1569 Clouds 22 1021 64 10000 1.03 0 09:53 08.05.2022
1570 Clouds 19 1022 83 10000 3.09 90 07:57 08.05.2022
1571 Drizzle 17 1021 100 8000 2.06 110 06:18 08.05.2022
1572 Clouds 17 1020 100 10000 1.54 0 03:22 08.05.2022
1573 Clouds 17 1020 100 10000 1.54 0 03:22 08.05.2022
1574 Clouds 17 1020 94 10000 2.06 50 00:48 08.05.2022
1575 Clouds 17 1021 100 10000 1.03 60 23:56 07.05.2022
1576 Clouds 17 1021 100 10000 2.06 110 23:28 07.05.2022
1577 Clouds 16 1021 100 10000 1.03 140 22:35 07.05.2022
1578 Clouds 17 1021 94 10000 3.09 90 21:55 07.05.2022
1579 Clouds 17 1021 94 10000 3.6 90 21:20 07.05.2022
1580 Clouds 18 1021 88 10000 2.57 90 20:23 07.05.2022
1581 Clouds 18 1021 88 10000 2.57 80 18:41 07.05.2022
1582 Clouds 20 1020 73 10000 2.06 170 16:24 07.05.2022
1583 Clouds 21 1019 73 10000 2.57 160 14:51 07.05.2022
1584 Drizzle 20 1021 78 10000 2.06 140 11:21 07.05.2022
1585 Drizzle 19 1022 88 9000 3.09 120 09:39 07.05.2022
1586 Drizzle 18 1022 88 9000 3.6 100 08:30 07.05.2022
1587 Mist 16 1022 100 3000 2.06 170 06:44 07.05.2022
1588 Drizzle 16 1022 100 1800 1.54 180 06:24 07.05.2022
1589 Clouds 16 1020 100 10000 2.06 100 03:54 07.05.2022
1590 Drizzle 16 1022 100 6000 1.54 140 23:41 06.05.2022
1591 Drizzle 16 1022 100 10000 2.06 140 22:34 06.05.2022
1592 Clouds 17 1022 94 10000 2.06 140 21:47 06.05.2022
1593 Drizzle 17 1022 94 10000 1.54 90 20:39 06.05.2022
1594 Drizzle 17 1022 94 9000 3.09 120 19:43 06.05.2022
1595 Clouds 18 1022 82 10000 4.12 110 19:19 06.05.2022
1596 Clouds 18 1022 82 10000 3.6 110 18:25 06.05.2022
1597 Clouds 18 1021 77 10000 4.12 120 17:27 06.05.2022
1598 Clouds 20 1021 73 10000 4.63 110 15:49 06.05.2022
1599 Clouds 20 1020 73 10000 4.63 150 14:58 06.05.2022
1600 Clouds 22 1020 64 10000 4.63 100 13:38 06.05.2022
1601 Clouds 21 1020 68 10000 5.14 100 12:42 06.05.2022
1602 Clouds 22 1021 64 10000 5.14 110 11:58 06.05.2022
1603 Clouds 20 1022 73 10000 6.17 110 10:36 06.05.2022
1604 Clouds 20 1023 73 10000 5.66 110 09:46 06.05.2022
1605 Clouds 18 1023 82 10000 2.57 150 08:52 06.05.2022
1606 Clouds 16 1023 88 10000 3.6 170 07:26 06.05.2022
1607 Clouds 14 1022 94 10000 2.06 180 05:48 06.05.2022
1608 Clouds 13 1022 100 10000 1.03 0 02:51 06.05.2022
1609 Clouds 13 1023 100 10000 1.03 0 01:31 06.05.2022
1610 Clouds 13 1024 100 10000 1.03 0 22:45 05.05.2022
1611 Clouds 13 1024 100 10000 1.03 0 22:45 05.05.2022
1612 Clouds 13 1024 94 10000 2.06 70 21:31 05.05.2022
1613 Clouds 14 1024 88 10000 1.54 80 20:26 05.05.2022
1614 Clouds 15 1024 82 10000 3.6 110 18:35 05.05.2022
1615 Clouds 19 1023 60 10000 5.14 130 16:35 05.05.2022
1616 Clouds 22 1022 53 10000 6.17 110 14:53 05.05.2022
1617 Clouds 22 1022 53 10000 5.14 140 13:25 05.05.2022
1618 Clouds 21 1022 53 10000 6.17 120 12:53 05.05.2022
1619 Clouds 22 1024 46 10000 5.66 140 10:52 05.05.2022
1620 Clouds 21 1024 49 10000 6.69 100 09:40 05.05.2022
1621 Clouds 15 1025 67 10000 3.6 160 07:36 05.05.2022
1622 Clouds 12 1024 88 10000 2.57 150 05:19 05.05.2022
1623 Clouds 12 1024 88 10000 2.57 150 05:19 05.05.2022
1624 Clouds 15 1024 88 10000 3.09 150 01:56 05.05.2022
1625 Clouds 15 1024 88 10000 4.12 160 01:29 05.05.2022
1626 Drizzle 15 1025 94 10000 4.12 140 23:52 04.05.2022
1627 Clouds 16 1025 82 10000 4.63 140 22:42 04.05.2022
1628 Clouds 16 1025 82 10000 4.63 140 22:42 04.05.2022
1629 Clouds 16 1025 82 10000 3.6 140 21:50 04.05.2022
1630 Clouds 15 1026 88 10000 3.6 120 21:26 04.05.2022
1631 Clouds 16 1025 82 10000 3.6 130 20:25 04.05.2022
1632 Clouds 16 1025 82 10000 3.6 130 19:53 04.05.2022
1633 Clouds 17 1025 77 10000 3.6 130 18:56 04.05.2022
1634 Clouds 17 1025 77 10000 4.12 140 18:22 04.05.2022
1635 Clouds 17 1024 77 10000 3.6 130 17:38 04.05.2022
1636 Clouds 19 1023 68 10000 6.17 110 15:40 04.05.2022
1637 Clouds 19 1023 68 10000 6.17 110 15:22 04.05.2022
1638 Clouds 20 1023 64 10000 7.2 120 14:21 04.05.2022
1639 Clouds 21 1024 60 10000 5.14 110 13:26 04.05.2022
1640 Clouds 21 1024 60 10000 5.66 120 12:29 04.05.2022
1641 Clouds 19 1025 68 10000 5.66 120 10:40 04.05.2022
1642 Clouds 19 1025 68 10000 5.66 160 09:43 04.05.2022
1643 Clouds 18 1025 72 10000 6.17 140 08:41 04.05.2022
1644 Clouds 16 1025 82 10000 5.14 160 06:41 04.05.2022
1645 Clouds 16 1023 88 10000 2.57 150 02:58 04.05.2022
1646 Clouds 16 1024 88 10000 3.09 150 00:33 04.05.2022
1647 Clouds 16 1024 88 10000 3.09 120 22:34 03.05.2022
1648 Clouds 16 1024 82 10000 5.14 120 21:43 03.05.2022
1649 Clouds 17 1024 82 10000 3.6 150 20:54 03.05.2022
1650 Clouds 16 1024 94 10000 4.12 140 19:57 03.05.2022
1651 Clouds 16 1023 94 10000 4.12 110 18:52 03.05.2022
1652 Clouds 17 1023 82 10000 5.66 100 18:20 03.05.2022
1653 Clouds 21 1021 64 10000 5.66 90 16:38 03.05.2022
1654 Clouds 22 1021 56 10000 4.63 100 15:35 03.05.2022
1655 Clouds 24 1021 57 10000 3.6 110 12:47 03.05.2022
1656 Clouds 24 1021 53 10000 3.6 150 12:27 03.05.2022
1657 Clouds 21 1022 64 10000 3.09 130 10:57 03.05.2022
1658 Clouds 21 1022 64 10000 3.09 130 10:57 03.05.2022
1659 Clouds 19 1023 73 10000 4.12 140 09:29 03.05.2022
1660 Clouds 17 1023 82 10000 3.6 140 06:46 03.05.2022
1661 Clouds 16 1022 88 10000 2.06 140 05:58 03.05.2022
1662 Clouds 15 1022 94 10000 2.06 120 00:32 03.05.2022
1663 Clouds 16 1022 88 10000 2.57 120 22:36 02.05.2022
1664 Clouds 16 1022 88 10000 2.57 150 21:52 02.05.2022
1665 Clouds 16 1022 88 10000 4.63 120 20:51 02.05.2022
1666 Clouds 17 1021 88 10000 4.63 110 18:37 02.05.2022
1667 Clouds 18 1020 77 10000 5.66 120 17:57 02.05.2022
1668 Clouds 19 1020 77 10000 5.14 100 17:34 02.05.2022
1669 Clouds 21 1019 64 10000 5.14 90 16:21 02.05.2022
1670 Clouds 23 1019 57 10000 5.14 100 15:30 02.05.2022
1671 Clouds 23 1019 57 10000 5.14 100 15:30 02.05.2022
1672 Rain 25 1019 50 10000 4.12 120 13:50 02.05.2022
1673 Clouds 25 1020 50 10000 4.12 120 12:19 02.05.2022
1674 Clouds 23 1021 60 10000 3.6 120 10:38 02.05.2022
1675 Clouds 19 1021 73 10000 3.09 160 08:49 02.05.2022
1676 Clouds 19 1021 73 10000 3.09 160 07:40 02.05.2022
1677 Clouds 17 1020 88 10000 3.6 180 03:48 02.05.2022
1678 Clouds 17 1021 100 10000 1.54 180 00:24 02.05.2022
1679 Clouds 16 1021 94 10000 0 0 23:47 01.05.2022
1680 Clouds 17 1021 82 10000 1.54 20 22:20 01.05.2022
1681 Clouds 17 1021 82 10000 1.54 320 21:18 01.05.2022
1682 Clouds 18 1021 72 10000 2.06 280 19:50 01.05.2022
1683 Clouds 19 1020 68 10000 2.57 290 18:55 01.05.2022
1684 Clouds 20 1020 64 10000 2.57 270 18:22 01.05.2022
1685 Clouds 21 1019 56 10000 3.09 280 17:18 01.05.2022
1686 Clouds 24 1019 47 10000 3.6 260 16:23 01.05.2022
1687 Clouds 26 1019 41 10000 4.12 310 15:24 01.05.2022
1688 Clouds 27 1019 39 10000 3.09 320 13:42 01.05.2022
1689 Clouds 22 1021 60 10000 2.57 300 10:53 01.05.2022
1690 Clouds 22 1022 68 10000 2.06 310 08:53 01.05.2022
1691 Clouds 22 1022 68 10000 2.06 310 08:53 01.05.2022
1692 Clouds 21 1022 73 10000 1.03 0 07:53 01.05.2022
1693 Clouds 14 1020 94 10000 2.06 320 03:26 01.05.2022
1694 Clouds 15 1020 88 10000 2.06 330 23:49 30.04.2022
1695 Clouds 16 1021 82 10000 2.06 40 21:44 30.04.2022
1696 Clouds 16 1021 82 10000 2.57 80 20:45 30.04.2022
1697 Clouds 18 1020 72 10000 2.06 310 19:41 30.04.2022
1698 Clouds 18 1020 72 10000 2.06 310 19:41 30.04.2022
1699 Clouds 20 1019 64 10000 2.57 310 17:44 30.04.2022
1700 Clouds 24 1018 47 10000 3.6 30 16:37 30.04.2022
1701 Clouds 24 1018 47 10000 4.63 10 15:24 30.04.2022
1702 Clouds 25 1018 41 10000 2.57 340 14:34 30.04.2022
1703 Clouds 26 1018 36 10000 2.57 360 12:40 30.04.2022
1704 Clouds 25 1019 47 10000 2.57 0 11:33 30.04.2022
1705 Clouds 23 1020 60 10000 1.54 0 10:40 30.04.2022
1706 Clouds 19 1021 73 10000 1.54 0 08:59 30.04.2022
1707 Clouds 14 1020 94 10000 1.03 0 05:51 30.04.2022
1708 Clouds 14 1019 94 10000 2.06 170 01:51 30.04.2022
1709 Clouds 14 1021 94 10000 2.57 120 23:37 29.04.2022
1710 Clouds 13 1021 100 10000 3.6 110 22:31 29.04.2022
1711 Clouds 14 1021 94 10000 2.57 110 21:27 29.04.2022
1712 Clouds 15 1021 82 10000 3.6 100 20:39 29.04.2022
1713 Clouds 15 1021 82 10000 3.09 90 19:43 29.04.2022
1714 Clouds 16 1019 82 10000 5.14 100 17:54 29.04.2022
1715 Clouds 17 1019 77 10000 4.63 100 17:21 29.04.2022
1716 Clouds 21 1018 60 10000 4.63 90 14:57 29.04.2022
1717 Clouds 22 1018 56 10000 4.12 120 14:20 29.04.2022
1718 Clouds 23 1018 53 10000 3.6 100 12:48 29.04.2022
1719 Clouds 22 1020 53 10000 4.63 150 10:59 29.04.2022
1720 Clouds 18 1021 63 10000 4.63 170 08:33 29.04.2022
1721 Clouds 16 1021 72 10000 3.6 180 07:27 29.04.2022
1722 Clouds 14 1020 72 10000 3.09 180 06:37 29.04.2022
1723 Clouds 14 1019 58 10000 3.6 140 03:34 29.04.2022
1724 Clouds 14 1020 82 10000 4.63 140 00:19 29.04.2022
1725 Clouds 14 1020 88 10000 4.12 140 23:27 28.04.2022
1726 Clouds 14 1020 88 10000 4.12 150 22:41 28.04.2022
1727 Clouds 15 1020 88 10000 3.6 150 21:46 28.04.2022
1728 Clouds 15 1020 88 10000 3.6 140 20:55 28.04.2022
1729 Clouds 16 1020 82 10000 4.12 120 20:22 28.04.2022
1730 Clouds 16 1020 82 10000 5.66 120 19:40 28.04.2022
1731 Clouds 16 1019 82 10000 4.63 130 19:21 28.04.2022
1732 Clouds 15 1018 88 10000 5.66 110 18:23 28.04.2022
1733 Clouds 18 1017 77 10000 4.12 80 16:59 28.04.2022
1734 Clouds 20 1016 68 10000 4.12 90 16:22 28.04.2022
1735 Clouds 22 1016 60 10000 3.09 80 15:57 28.04.2022
1736 Clouds 22 1016 60 10000 3.09 80 15:27 28.04.2022
1737 Clouds 23 1016 57 10000 1.54 0 13:44 28.04.2022
1738 Clouds 22 1017 56 10000 1.03 0 12:38 28.04.2022
1739 Clouds 21 1017 60 10000 2.06 130 11:53 28.04.2022
1740 Clouds 20 1019 64 10000 2.57 90 10:37 28.04.2022
1741 Clouds 20 1019 64 10000 2.06 130 09:52 28.04.2022
1742 Clouds 19 1019 73 10000 4.12 150 08:20 28.04.2022
1743 Clouds 16 1018 82 10000 4.63 140 06:56 28.04.2022
1744 Clouds 17 1017 82 10000 4.63 160 05:54 28.04.2022
1745 Clouds 17 1016 82 10000 3.09 160 04:44 28.04.2022
1746 Clouds 17 1016 88 10000 3.09 170 03:40 28.04.2022
1747 Clouds 18 1017 72 10000 3.09 180 23:52 27.04.2022
1748 Clouds 18 1017 88 10000 2.06 80 22:30 27.04.2022
1749 Clouds 19 1017 77 10000 1.54 230 21:51 27.04.2022
1750 Clouds 19 1017 77 10000 1.54 230 20:56 27.04.2022
1751 Clouds 19 1017 77 10000 1.54 260 20:34 27.04.2022
1752 Clouds 19 1017 77 10000 1.54 260 20:34 27.04.2022
1753 Clouds 20 1016 78 10000 3.09 270 19:37 27.04.2022
1754 Clouds 20 1016 78 10000 3.6 280 18:52 27.04.2022
1755 Rain 20 1015 78 10000 4.12 280 18:21 27.04.2022
1756 Clouds 23 1014 60 10000 4.63 260 16:23 27.04.2022
1757 Clouds 25 1014 50 10000 5.66 280 13:51 27.04.2022
1758 Clouds 25 1016 53 10000 5.66 270 11:39 27.04.2022
1759 Clouds 25 1016 53 10000 5.66 270 11:18 27.04.2022
1760 Clouds 22 1017 68 10000 5.14 280 08:53 27.04.2022
1761 Clouds 19 1017 88 10000 3.09 310 06:45 27.04.2022
1762 Clouds 19 1017 88 10000 3.09 310 06:45 27.04.2022
1763 Clouds 16 1016 100 10000 0 0 03:30 27.04.2022
1764 Clouds 16 1016 100 10000 1.54 10 01:27 27.04.2022
1765 Clouds 16 1017 100 10000 1.54 0 00:35 27.04.2022
1766 Clouds 17 1017 94 10000 1.54 0 23:24 26.04.2022
1767 Clouds 16 1018 100 10000 2.06 30 22:52 26.04.2022
1768 Clouds 16 1018 100 10000 1.54 0 22:32 26.04.2022
1769 Clouds 16 1018 100 10000 1.54 70 21:26 26.04.2022
1770 Clouds 16 1018 100 10000 2.06 50 20:40 26.04.2022
1771 Clouds 16 1018 100 10000 2.06 50 20:40 26.04.2022
1772 Clouds 16 1018 100 10000 2.06 60 19:48 26.04.2022
1773 Clouds 17 1018 94 10000 2.06 70 19:26 26.04.2022
1774 Clouds 18 1017 82 10000 2.57 90 18:40 26.04.2022
1775 Clouds 18 1017 82 10000 1.54 60 17:42 26.04.2022
1776 Clouds 21 1016 68 10000 4.12 80 16:19 26.04.2022
1777 Clouds 25 1017 53 10000 3.6 100 13:58 26.04.2022
1778 Clouds 23 1017 64 10000 4.12 80 13:29 26.04.2022
1779 Clouds 24 1018 57 10000 3.6 90 11:29 26.04.2022
1780 Clouds 23 1019 60 10000 4.63 90 10:31 26.04.2022
1781 Clouds 20 1020 68 10000 2.57 100 08:38 26.04.2022
1782 Clouds 12 1019 100 10000 2.06 80 05:29 26.04.2022
1783 Clouds 13 1019 100 10000 1.03 80 04:23 26.04.2022
1784 Clouds 14 1019 100 10000 2.57 100 00:52 26.04.2022
1785 Clouds 15 1020 94 10000 1.03 60 23:51 25.04.2022
1786 Clouds 16 1020 88 10000 3.6 110 22:18 25.04.2022
1787 Clouds 16 1021 94 10000 4.12 110 21:33 25.04.2022
1788 Clouds 16 1020 88 10000 3.09 110 19:58 25.04.2022
1789 Clouds 16 1020 94 10000 4.12 80 18:48 25.04.2022
1790 Clouds 17 1019 88 10000 5.66 110 17:40 25.04.2022
1791 Clouds 19 1019 77 10000 5.14 100 16:44 25.04.2022
1792 Clouds 20 1018 73 10000 4.12 130 15:23 25.04.2022
1793 Clouds 20 1018 78 10000 5.66 110 14:34 25.04.2022
1794 Clouds 21 1019 68 10000 3.6 130 12:49 25.04.2022
1795 Clouds 20 1020 68 10000 4.63 120 10:44 25.04.2022
1796 Clouds 20 1021 68 10000 4.63 130 09:42 25.04.2022
1797 Clouds 17 1021 82 10000 4.12 130 07:49 25.04.2022
1798 Clouds 14 1020 82 10000 3.09 140 05:55 25.04.2022
1799 Clouds 14 1019 94 10000 2.57 140 01:30 25.04.2022
1800 Clouds 15 1020 88 10000 3.09 140 23:56 24.04.2022
1801 Clouds 15 1021 94 10000 2.06 140 23:25 24.04.2022
1802 Clouds 15 1022 94 10000 3.09 120 22:39 24.04.2022
1803 Clouds 16 1022 88 10000 3.6 90 21:56 24.04.2022
1804 Clouds 16 1022 82 10000 4.63 100 21:22 24.04.2022
1805 Clouds 16 1022 82 10000 4.63 120 20:46 24.04.2022
1806 Clouds 16 1022 88 10000 4.12 100 20:20 24.04.2022
1807 Clouds 17 1021 82 10000 5.66 100 18:38 24.04.2022
1808 Clouds 17 1020 82 10000 6.17 100 17:49 24.04.2022
1809 Drizzle 18 1020 82 10000 6.17 100 17:21 24.04.2022
1810 Drizzle 18 1020 82 10000 5.14 120 16:51 24.04.2022
1811 Clouds 19 1019 77 10000 5.66 120 16:25 24.04.2022
1812 Clouds 21 1019 68 10000 6.69 90 15:39 24.04.2022
1813 Drizzle 18 1019 100 10000 3.6 140 14:33 24.04.2022
1814 Drizzle 18 1019 100 10000 3.6 140 14:33 24.04.2022
1815 Drizzle 20 1019 83 9000 5.14 120 13:27 24.04.2022
1816 Drizzle 20 1019 78 10000 6.17 140 12:55 24.04.2022
1817 Rain 23 1019 64 10000 7.72 100 11:49 24.04.2022
1818 Rain 22 1021 73 10000 6.69 120 10:37 24.04.2022
1819 Drizzle 19 1021 88 8000 3.09 120 09:43 24.04.2022
1820 Clouds 19 1021 83 10000 2.57 150 07:42 24.04.2022
1821 Clouds 17 1020 88 10000 2.57 160 05:38 24.04.2022
1822 Clouds 17 1019 88 10000 2.57 140 01:58 24.04.2022
1823 Clouds 15 1017 95 10000 1.93 108 00:45 24.04.2022
1824 Clouds 17 1021 88 10000 3.6 120 23:46 23.04.2022
1825 Clouds 17 1021 88 10000 3.6 120 23:25 23.04.2022
1826 Clouds 17 1021 82 10000 5.14 100 21:58 23.04.2022
1827 Clouds 17 1021 88 10000 4.12 130 21:36 23.04.2022
1828 Rain 18 1022 88 10000 3.6 150 20:59 23.04.2022
1829 Clouds 17 1019 91 10000 3.49 106 19:55 23.04.2022
1830 Clouds 17 1018 92 10000 3.68 101 19:20 23.04.2022
1831 Clouds 17 1018 92 10000 3.68 101 18:53 23.04.2022
1832 Clouds 17 1018 92 10000 3.68 101 18:31 23.04.2022
1833 Clouds 18 1021 77 10000 5.14 120 17:44 23.04.2022
1834 Clouds 17 1017 92 10000 3.6 101 16:44 23.04.2022
1835 Clouds 18 1016 87 10000 3.8 101 15:35 23.04.2022
1836 Clouds 19 1016 84 10000 3.43 100 12:54 23.04.2022
1837 Rain 18 1017 94 9766 3.4 123 10:53 23.04.2022
1838 Rain 21 1021 73 10000 6.69 100 09:38 23.04.2022
1839 Clouds 18 1021 94 10000 3.09 140 07:52 23.04.2022
1840 Clouds 17 1020 94 10000 2.06 120 03:56 23.04.2022
1841 Clouds 17 1019 100 10000 3.09 90 01:55 23.04.2022
1842 Clouds 18 1021 100 10000 2.06 160 23:33 22.04.2022
1843 Clouds 18 1021 94 10000 2.57 140 22:28 22.04.2022
1844 Clouds 18 1021 94 10000 2.57 140 21:44 22.04.2022
1845 Clouds 18 1021 94 10000 4.12 120 20:55 22.04.2022
1846 Clouds 18 1021 94 10000 4.12 120 20:28 22.04.2022
1847 Clouds 19 1021 88 10000 4.63 100 19:22 22.04.2022
1848 Clouds 18 1021 94 10000 3.6 80 18:46 22.04.2022
1849 Clouds 19 1020 88 10000 4.12 110 17:50 22.04.2022
1850 Rain 20 1019 83 10000 5.66 130 16:46 22.04.2022
1851 Rain 21 1019 78 10000 4.12 120 15:45 22.04.2022
1852 Clouds 22 1018 68 10000 5.14 110 15:18 22.04.2022
1853 Clouds 23 1019 69 10000 4.63 120 13:54 22.04.2022
1854 Clouds 24 1019 65 10000 4.63 110 12:59 22.04.2022
1855 Clouds 22 1019 68 10000 6.17 130 11:52 22.04.2022
1856 Clouds 22 1020 68 10000 5.66 140 11:22 22.04.2022
1857 Clouds 24 1020 65 10000 6.69 120 10:50 22.04.2022
1858 Clouds 23 1020 69 10000 6.69 110 10:30 22.04.2022
1859 Clouds 23 1021 69 10000 5.66 120 09:50 22.04.2022
1860 Clouds 20 1021 83 10000 3.09 120 08:50 22.04.2022
1861 Clouds 18 1020 88 10000 1.54 0 07:33 22.04.2022
1862 Clouds 17 1020 100 10000 2.06 130 03:47 22.04.2022
1863 Drizzle 16 1020 100 6000 1.54 0 00:52 22.04.2022
1864 Drizzle 17 1021 100 8000 2.57 90 23:25 21.04.2022
1865 Drizzle 18 1021 100 8000 2.06 120 22:29 21.04.2022
1866 Rain 18 1021 94 10000 3.6 140 20:37 21.04.2022
1867 Clouds 18 1021 94 10000 3.6 140 20:18 21.04.2022
1868 Clouds 18 1020 94 10000 3.6 140 18:42 21.04.2022
1869 Clouds 18 1020 94 10000 3.6 140 18:18 21.04.2022
1870 Drizzle 20 1019 83 6000 5.14 140 16:44 21.04.2022
1871 Rain 22 1018 73 10000 6.69 120 15:22 21.04.2022
1872 Rain 22 1018 73 10000 5.14 140 14:49 21.04.2022
1873 Clouds 24 1018 65 10000 6.17 130 13:23 21.04.2022
1874 Clouds 24 1018 65 10000 6.17 130 12:57 21.04.2022
1875 Clouds 24 1020 65 10000 7.2 120 10:49 21.04.2022
1876 Clouds 21 1020 73 10000 4.63 150 08:56 21.04.2022
1877 Clouds 19 1020 83 10000 3.6 150 07:24 21.04.2022
1878 Clouds 18 1019 88 10000 2.06 140 05:42 21.04.2022
1879 Clouds 18 1018 82 10000 4.12 150 03:30 21.04.2022
1880 Clouds 18 1018 88 10000 2.57 150 02:47 21.04.2022
1881 Clouds 18 1019 88 10000 3.6 160 00:45 21.04.2022
1882 Clouds 18 1020 88 10000 3.6 160 23:50 20.04.2022
1883 Clouds 17 1020 94 10000 2.57 160 23:22 20.04.2022
1884 Clouds 17 1020 94 10000 2.57 130 22:49 20.04.2022
1885 Clouds 17 1020 94 10000 3.6 130 22:30 20.04.2022
1886 Clouds 18 1020 88 10000 3.6 140 21:27 20.04.2022
1887 Clouds 18 1021 88 10000 3.09 150 20:24 20.04.2022
1888 Clouds 18 1021 88 10000 4.12 130 19:52 20.04.2022
1889 Clouds 19 1020 83 10000 4.63 150 19:20 20.04.2022
1890 Clouds 20 1019 78 10000 4.63 130 17:56 20.04.2022
1891 Clouds 21 1018 68 10000 5.14 140 16:48 20.04.2022
1892 Clouds 23 1018 60 10000 4.63 160 16:30 20.04.2022
1893 Clouds 25 1018 57 10000 5.14 120 13:51 20.04.2022
1894 Clouds 24 1019 61 10000 5.66 150 11:50 20.04.2022
1895 Clouds 25 1019 57 10000 4.63 150 11:21 20.04.2022
1896 Clouds 23 1020 64 10000 4.63 160 10:19 20.04.2022
1897 Clouds 22 1021 68 10000 3.6 160 09:25 20.04.2022
1898 Clouds 19 1021 83 10000 3.09 150 08:22 20.04.2022
1899 Clouds 19 1021 83 10000 3.09 150 08:22 20.04.2022
1900 Clouds 18 1020 82 10000 3.6 110 07:36 20.04.2022
1901 Clouds 16 1019 100 10000 3.09 160 03:38 20.04.2022
1902 Clouds 16 1021 100 10000 1.54 0 00:23 20.04.2022
1903 Clouds 16 1021 100 10000 2.06 150 23:41 19.04.2022
1904 Clouds 15 1019 92 10000 1.44 127 22:26 19.04.2022
1905 Clouds 15 1019 92 10000 1.44 127 21:56 19.04.2022
1906 Clouds 15 1019 91 10000 1.56 131 21:23 19.04.2022
1907 Clouds 15 1019 91 10000 1.56 131 20:45 19.04.2022
1908 Clouds 18 1022 88 10000 4.12 100 19:56 19.04.2022
1909 Clouds 19 1021 77 10000 4.12 90 18:49 19.04.2022
1910 Clouds 19 1020 77 10000 4.12 100 17:40 19.04.2022
1911 Clouds 21 1019 68 10000 4.12 90 16:43 19.04.2022
1912 Clouds 22 1019 64 10000 4.63 90 16:23 19.04.2022
1913 Clouds 25 1019 53 10000 3.6 110 14:50 19.04.2022
1914 Clouds 26 1019 47 10000 4.63 90 13:49 19.04.2022
1915 Clouds 26 1019 44 10000 5.14 120 12:50 19.04.2022
1916 Clouds 26 1019 44 10000 5.14 110 11:55 19.04.2022
1917 Clouds 25 1020 47 10000 4.63 100 10:25 19.04.2022
1918 Clouds 22 1021 60 10000 3.09 120 09:18 19.04.2022
1919 Clouds 16 1020 88 10000 2.57 90 04:56 19.04.2022
1920 Clouds 15 1019 94 10000 2.57 90 03:25 19.04.2022
1921 Clouds 16 1020 100 10000 2.06 80 00:54 19.04.2022
1922 Clouds 16 1020 94 10000 2.06 50 23:30 18.04.2022
1923 Clouds 17 1021 94 10000 2.06 140 21:30 18.04.2022
1924 Clouds 17 1021 94 10000 2.06 140 21:30 18.04.2022
1925 Clouds 17 1020 94 10000 4.12 110 20:55 18.04.2022
1926 Clouds 17 1020 94 10000 3.09 130 20:32 18.04.2022
1927 Clouds 18 1020 88 10000 4.12 120 19:49 18.04.2022
1928 Clouds 18 1019 82 10000 3.6 110 18:56 18.04.2022
1929 Clouds 19 1019 73 10000 3.09 90 17:57 18.04.2022
1930 Clouds 20 1018 68 10000 3.6 90 17:33 18.04.2022
1931 Clouds 21 1018 64 10000 4.12 90 16:55 18.04.2022
1932 Clouds 22 1018 60 10000 4.63 80 16:31 18.04.2022
1933 Clouds 24 1017 57 10000 5.66 100 14:45 18.04.2022
1934 Clouds 26 1017 50 10000 3.09 90 13:36 18.04.2022
1935 Clouds 25 1018 53 10000 3.6 110 12:30 18.04.2022
1936 Clouds 25 1018 53 10000 2.57 160 11:34 18.04.2022
1937 Clouds 24 1019 61 10000 1.54 0 10:31 18.04.2022
1938 Clear 22 1020 64 10000 2.57 160 09:31 18.04.2022
1939 Clouds 19 1020 77 10000 3.09 150 07:42 18.04.2022
1940 Clouds 14 1019 100 10000 1.03 170 05:37 18.04.2022
1941 Clouds 16 1020 94 10000 1.54 160 00:27 18.04.2022
1942 Clouds 16 1021 94 10000 2.06 140 22:41 17.04.2022
1943 Clouds 17 1021 88 10000 2.06 160 21:42 17.04.2022
1944 Clouds 17 1021 88 10000 2.06 160 21:22 17.04.2022
1945 Clouds 17 1021 88 10000 2.57 150 20:35 17.04.2022
1946 Clouds 17 1020 88 10000 4.12 100 19:28 17.04.2022
1947 Clouds 19 1019 73 10000 5.14 110 17:45 17.04.2022
1948 Clouds 24 1018 53 10000 4.63 130 15:39 17.04.2022
1949 Clouds 25 1018 44 10000 4.63 110 14:54 17.04.2022
1950 Clouds 25 1018 47 10000 3.6 150 13:48 17.04.2022
1951 Clouds 25 1019 50 10000 3.09 0 12:58 17.04.2022
1952 Clouds 25 1019 50 10000 3.09 0 12:27 17.04.2022
1953 Clouds 24 1020 57 10000 4.12 150 10:46 17.04.2022
1954 Clouds 22 1020 60 10000 3.09 150 10:28 17.04.2022
1955 Clouds 22 1020 60 10000 3.09 150 10:28 17.04.2022
1956 Clouds 22 1020 60 10000 3.09 150 10:28 17.04.2022
1957 Clouds 21 1021 60 10000 4.63 170 09:29 17.04.2022
1958 Clouds 20 1021 64 10000 4.63 170 08:42 17.04.2022
1959 Clouds 18 1021 72 10000 5.14 160 07:30 17.04.2022
1960 Clouds 16 1019 82 10000 4.12 160 04:29 17.04.2022
1961 Clouds 17 1020 94 10000 3.09 150 00:55 17.04.2022
1962 Clouds 16 1021 100 10000 2.06 150 23:50 16.04.2022
1963 Clouds 17 1022 100 10000 3.6 140 22:29 16.04.2022
1964 Clouds 17 1022 100 10000 3.09 150 21:31 16.04.2022
1965 Clouds 16 1019 95 10000 2.26 127 20:18 16.04.2022
1966 Clouds 19 1021 83 10000 4.12 140 18:59 16.04.2022
1967 Clouds 19 1021 88 10000 5.14 120 17:46 16.04.2022
1968 Clouds 20 1020 83 10000 4.63 130 16:38 16.04.2022
1969 Rain 21 1019 78 10000 6.17 110 15:45 16.04.2022
1970 Rain 23 1019 73 10000 4.63 110 14:56 16.04.2022
1971 Clouds 23 1014 61 10000 3.13 118 13:58 16.04.2022
1972 Clouds 23 1014 61 10000 3.13 118 13:32 16.04.2022
1973 Clouds 23 1015 62 10000 3.73 113 12:22 16.04.2022
1974 Clouds 23 1021 64 10000 3.6 170 10:49 16.04.2022
1975 Clouds 21 1022 78 10000 4.63 130 09:56 16.04.2022
1976 Clouds 20 1022 78 10000 3.6 160 08:57 16.04.2022
1977 Clouds 18 1022 88 10000 3.09 180 07:35 16.04.2022
1978 Clouds 18 1021 88 10000 3.6 180 06:58 16.04.2022
1979 Clouds 18 1021 82 10000 4.12 120 02:34 16.04.2022
1980 Clouds 18 1021 82 10000 3.09 160 00:30 16.04.2022
1981 Clouds 18 1023 88 10000 3.6 140 22:58 15.04.2022
1982 Clouds 18 1023 88 10000 3.6 140 22:32 15.04.2022
1983 Clouds 17 1023 94 10000 3.6 130 21:50 15.04.2022
1984 Clouds 17 1023 94 10000 2.06 170 20:56 15.04.2022
1985 Clouds 16 1020 95 10000 2.49 133 19:59 15.04.2022
1986 Clouds 16 1020 96 10000 2.5 126 19:39 15.04.2022
1987 Clouds 16 1020 96 10000 2.43 126 18:53 15.04.2022
1988 Clouds 17 1019 93 10000 2.79 123 18:24 15.04.2022
1989 Clouds 17 1019 93 10000 2.79 123 17:32 15.04.2022
1990 Clouds 20 1021 73 10000 5.66 120 16:37 15.04.2022
1991 Clouds 20 1021 73 10000 5.66 120 16:18 15.04.2022
1992 Clouds 22 1016 68 10000 4.91 107 14:44 15.04.2022
1993 Clouds 23 1016 64 10000 5.39 105 13:34 15.04.2022
1994 Clouds 24 1016 59 10000 5.45 101 12:40 15.04.2022
1995 Clouds 24 1022 61 10000 7.72 110 11:55 15.04.2022
1996 Clouds 22 1022 68 10000 5.14 140 10:58 15.04.2022
1997 Clouds 22 1023 68 10000 4.63 140 10:40 15.04.2022
1998 Clouds 21 1023 73 10000 6.17 130 09:41 15.04.2022
1999 Clouds 20 1023 78 10000 4.63 140 09:19 15.04.2022
2000 Clouds 19 1023 83 10000 3.6 150 07:24 15.04.2022
2001 Clouds 17 1022 94 10000 4.12 160 05:58 15.04.2022
2002 Clouds 17 1021 94 10000 2.57 160 02:34 15.04.2022
2003 Clouds 16 1022 94 10000 3.09 150 23:30 14.04.2022
2004 Clouds 16 1022 94 10000 3.09 150 22:48 14.04.2022
2005 Clouds 16 1022 94 10000 3.09 150 22:29 14.04.2022
2006 Clouds 17 1023 94 10000 3.09 150 21:57 14.04.2022
2007 Clouds 17 1023 94 10000 3.09 140 20:35 14.04.2022
2008 Clouds 16 1019 95 10000 2.99 123 19:23 14.04.2022
2009 Clouds 17 1018 95 10000 2.89 116 18:19 14.04.2022
2010 Clouds 18 1017 88 10000 3.12 106 17:28 14.04.2022
2011 Clouds 19 1020 88 10000 4.12 150 16:33 14.04.2022
2012 Drizzle 20 1019 83 7000 5.14 140 14:58 14.04.2022
2013 Clouds 22 1019 68 10000 5.66 110 13:45 14.04.2022
2014 Clouds 22 1019 73 10000 5.14 120 12:51 14.04.2022
2015 Clouds 22 1019 68 10000 5.14 120 12:31 14.04.2022
2016 Clouds 23 1020 64 10000 6.69 120 11:24 14.04.2022
2017 Clouds 21 1021 78 10000 4.63 140 10:41 14.04.2022
2018 Clouds 20 1021 73 10000 7.72 120 09:57 14.04.2022
2019 Clouds 20 1021 73 10000 7.2 130 08:44 14.04.2022
2020 Drizzle 17 1020 100 9000 3.6 140 06:51 14.04.2022
2021 Drizzle 16 1018 100 10000 2.57 170 03:28 14.04.2022
2022 Clouds 17 1020 94 10000 3.09 160 23:25 13.04.2022
2023 Clouds 17 1021 88 10000 3.6 160 22:19 13.04.2022
2024 Clouds 17 1021 94 10000 2.57 150 21:34 13.04.2022
2025 Clouds 17 1021 94 10000 3.09 160 20:22 13.04.2022
2026 Clouds 16 1018 95 10000 2.98 125 19:32 13.04.2022
2027 Clouds 18 1020 88 10000 3.6 120 18:20 13.04.2022
2028 Clouds 19 1019 83 10000 4.63 120 17:24 13.04.2022
2029 Clouds 21 1019 68 10000 4.12 120 16:34 13.04.2022
2030 Rain 21 1019 73 10000 5.66 130 15:38 13.04.2022
2031 Clouds 22 1018 73 10000 5.14 120 14:50 13.04.2022
2032 Clouds 22 1018 73 10000 4.63 80 14:19 13.04.2022
2033 Drizzle 20 1018 78 10000 6.17 170 13:19 13.04.2022
2034 Drizzle 20 1019 83 10000 4.63 110 12:25 13.04.2022
2035 Clouds 22 1020 64 10000 6.17 120 10:49 13.04.2022
2036 Clouds 21 1020 68 10000 5.14 130 09:41 13.04.2022
2037 Clouds 19 1021 77 10000 4.63 140 08:41 13.04.2022
2038 Drizzle 16 1020 94 10000 3.6 150 06:51 13.04.2022
2039 Drizzle 16 1020 94 10000 3.6 170 06:25 13.04.2022
2040 Clouds 15 1019 94 10000 4.12 160 05:20 13.04.2022
2041 Clouds 15 1021 88 10000 3.6 150 00:21 13.04.2022
2042 Clouds 15 1018 90 10000 2.94 138 23:29 12.04.2022
2043 Clouds 16 1022 82 10000 4.63 140 21:58 12.04.2022
2044 Clouds 14 1019 93 10000 2.36 127 20:57 12.04.2022
2045 Clouds 14 1019 93 10000 2.36 127 20:38 12.04.2022
2046 Clouds 17 1022 72 10000 4.63 130 19:48 12.04.2022
2047 Clouds 17 1021 72 10000 5.14 140 19:29 12.04.2022
2048 Clouds 17 1021 72 10000 5.14 140 19:29 12.04.2022
2049 Clouds 18 1020 72 10000 5.14 130 17:59 12.04.2022
2050 Clouds 19 1020 68 10000 4.63 140 16:58 12.04.2022
2051 Clouds 19 1020 68 10000 5.14 150 16:19 12.04.2022
2052 Clouds 21 1019 64 10000 4.63 130 15:26 12.04.2022
2053 Clouds 21 1019 64 10000 5.66 120 14:21 12.04.2022
2054 Clouds 23 1019 57 10000 5.14 130 13:28 12.04.2022
2055 Clouds 23 1019 57 10000 6.17 120 12:45 12.04.2022
2056 Clouds 22 1020 56 10000 6.17 140 11:42 12.04.2022
2057 Clouds 21 1021 56 10000 6.69 130 10:30 12.04.2022
2058 Clouds 19 1022 68 10000 5.14 150 08:57 12.04.2022
2059 Clouds 17 1022 77 10000 5.66 140 07:51 12.04.2022
2060 Drizzle 15 1021 94 10000 5.66 170 05:49 12.04.2022
2061 Clouds 15 1020 94 10000 3.09 170 04:46 12.04.2022
2062 Clouds 13 1022 88 10000 3.09 160 23:49 11.04.2022
2063 Clouds 14 1023 82 10000 3.09 150 22:44 11.04.2022
2064 Clouds 14 1023 82 10000 2.06 140 21:36 11.04.2022
2065 Clouds 14 1024 82 10000 3.09 160 20:54 11.04.2022
2066 Clouds 14 1024 82 10000 3.6 160 20:28 11.04.2022
2067 Clouds 15 1023 77 10000 4.63 140 19:36 11.04.2022
2068 Clouds 15 1023 77 10000 4.63 140 19:18 11.04.2022
2069 Clouds 16 1023 77 10000 4.63 160 18:37 11.04.2022
2070 Clouds 16 1023 77 10000 5.14 150 17:44 11.04.2022
2071 Clouds 18 1021 68 10000 5.66 150 16:38 11.04.2022
2072 Clouds 19 1021 83 10000 6.17 130 15:24 11.04.2022
2073 Clouds 23 1020 60 10000 5.66 140 13:51 11.04.2022
2074 Clouds 23 1020 64 10000 5.66 130 12:43 11.04.2022
2075 Clouds 23 1021 60 10000 5.66 150 12:22 11.04.2022
2076 Clouds 22 1021 60 10000 6.69 140 10:56 11.04.2022
2077 Clouds 21 1022 68 10000 6.17 140 09:58 11.04.2022
2078 Clouds 19 1023 68 10000 5.66 160 08:23 11.04.2022
2079 Clouds 16 1022 82 10000 3.09 140 05:26 11.04.2022
2080 Clouds 16 1022 82 10000 2.57 130 00:49 11.04.2022
2081 Clouds 15 1020 87 10000 3.45 145 22:27 10.04.2022
2082 Clouds 16 1023 82 10000 3.09 160 21:54 10.04.2022
2083 Clouds 16 1023 82 10000 3.09 160 21:23 10.04.2022
2084 Clouds 15 1020 90 10000 3.41 134 20:21 10.04.2022
2085 Clouds 17 1023 82 10000 4.12 150 19:37 10.04.2022
2086 Clouds 18 1022 77 10000 4.12 140 18:50 10.04.2022
2087 Clouds 18 1022 77 10000 4.12 140 18:26 10.04.2022
2088 Clear 16 1019 91 10000 3.56 129 17:44 10.04.2022
2089 Clear 17 1018 87 10000 3.98 121 16:57 10.04.2022
2090 Clear 19 1017 76 10000 4.46 114 15:40 10.04.2022
2091 Clouds 23 1019 57 10000 6.17 120 14:42 10.04.2022
2092 Clouds 24 1019 53 10000 6.69 120 13:28 10.04.2022
2093 Clouds 23 1020 57 10000 6.17 120 12:32 10.04.2022
2094 Clouds 24 1020 57 10000 5.66 130 11:38 10.04.2022
2095 Clouds 21 1021 64 10000 5.14 150 10:59 10.04.2022
2096 Clouds 21 1021 64 10000 5.14 150 10:30 10.04.2022
2097 Clouds 20 1022 73 10000 4.63 150 09:41 10.04.2022
2098 Clouds 18 1022 82 10000 3.6 170 08:28 10.04.2022
2099 Clouds 17 1022 82 10000 3.6 160 07:56 10.04.2022
2100 Clouds 17 1021 82 10000 3.6 170 06:59 10.04.2022
2101 Clouds 16 1019 82 10000 4.63 170 03:36 10.04.2022
2102 Clouds 16 1019 82 10000 4.63 170 03:36 10.04.2022
2103 Clouds 16 1020 82 10000 3.6 160 01:30 10.04.2022
2104 Clouds 16 1021 82 10000 4.12 160 23:53 09.04.2022
2105 Clouds 16 1021 82 10000 4.12 140 22:52 09.04.2022
2106 Clouds 14 1019 95 10000 2.3 136 22:24 09.04.2022
2107 Clouds 14 1019 95 10000 2.4 131 21:18 09.04.2022
2108 Clear 15 1019 94 10000 2.6 123 20:27 09.04.2022
2109 Clear 15 1018 93 10000 2.74 126 19:49 09.04.2022
2110 Clear 15 1018 93 10000 2.74 126 19:30 09.04.2022
2111 Clear 16 1017 82 10000 3.42 116 18:22 09.04.2022
2112 Clear 16 1017 82 10000 3.42 116 17:42 09.04.2022
2113 Clear 17 1016 78 10000 3.77 108 16:55 09.04.2022
2114 Clear 19 1015 72 10000 4.17 99 16:28 09.04.2022
2115 Clear 19 1015 72 10000 4.17 99 15:48 09.04.2022
2116 Clouds 24 1018 57 10000 5.14 120 14:45 09.04.2022
2117 Clouds 24 1018 57 10000 5.14 120 14:24 09.04.2022
2118 Clouds 25 1019 53 10000 6.17 120 13:21 09.04.2022
2119 Clouds 25 1019 57 10000 5.66 110 12:52 09.04.2022
2120 Clouds 25 1019 53 10000 6.17 110 11:41 09.04.2022
2121 Clouds 24 1020 57 10000 5.14 120 10:21 09.04.2022
2122 Clouds 23 1020 57 10000 4.63 130 09:53 09.04.2022
2123 Clouds 21 1021 68 10000 4.12 150 08:59 09.04.2022
2124 Clouds 19 1021 77 10000 3.6 130 07:44 09.04.2022
2125 Clouds 17 1019 94 10000 2.57 170 03:21 09.04.2022
2126 Clouds 18 1020 88 10000 3.6 130 00:30 09.04.2022
2127 Clouds 19 1021 88 10000 1.54 0 22:58 08.04.2022
2128 Rain 19 1021 88 10000 2.57 80 21:34 08.04.2022
2129 Clouds 18 1021 94 10000 3.6 90 20:41 08.04.2022
2130 Clouds 19 1021 88 10000 3.6 180 19:41 08.04.2022
2131 Rain 20 1019 78 10000 2.06 160 18:34 08.04.2022
2132 Thunderstorm 21 1019 73 10000 3.09 140 17:55 08.04.2022
2133 Rain 21 1019 73 10000 3.6 140 17:27 08.04.2022
2134 Rain 23 1019 69 10000 6.69 100 16:51 08.04.2022
2135 Rain 24 1019 61 10000 5.14 100 16:20 08.04.2022
2136 Rain 26 1018 54 10000 4.63 90 15:27 08.04.2022
2137 Rain 26 1018 54 10000 5.66 110 14:40 08.04.2022
2138 Rain 27 1018 51 10000 2.57 110 13:55 08.04.2022
2139 Rain 27 1019 47 10000 2.06 0 13:30 08.04.2022
2140 Rain 26 1019 54 10000 2.57 0 12:42 08.04.2022
2141 Clouds 26 1021 61 10000 4.63 110 10:55 08.04.2022
2142 Clouds 23 1022 64 10000 3.6 150 09:41 08.04.2022
2143 Clouds 21 1022 78 10000 3.09 160 08:58 08.04.2022
2144 Clouds 20 1022 83 10000 3.09 190 07:38 08.04.2022
2145 Clouds 19 1021 88 10000 0.51 0 06:38 08.04.2022
2146 Clouds 18 1020 94 10000 1.54 0 01:45 08.04.2022
2147 Clouds 17 1020 100 10000 1.03 70 00:26 08.04.2022
2148 Clouds 16 1018 98 10000 1.46 133 23:00 07.04.2022
2149 Clouds 19 1021 88 10000 2.57 150 22:40 07.04.2022
2150 Rain 19 1021 88 10000 2.57 150 22:22 07.04.2022
2151 Rain 19 1021 88 10000 2.06 130 21:56 07.04.2022
2152 Rain 19 1021 94 10000 3.09 140 21:19 07.04.2022
2153 Rain 19 1021 88 10000 2.57 140 20:38 07.04.2022
2154 Rain 20 1020 83 10000 5.14 110 18:48 07.04.2022
2155 Rain 22 1019 64 10000 3.6 80 17:27 07.04.2022
2156 Rain 23 1019 57 10000 3.09 90 16:45 07.04.2022
2157 Rain 25 1019 50 10000 2.57 80 16:23 07.04.2022
2158 Rain 26 1019 50 10000 3.6 60 15:19 07.04.2022
2159 Rain 26 1019 50 10000 3.09 80 13:45 07.04.2022
2160 Clouds 26 1019 54 10000 3.09 110 12:58 07.04.2022
2161 Clouds 24 1019 57 10000 2.06 80 11:40 07.04.2022
2162 Clouds 25 1020 57 10000 3.09 130 10:27 07.04.2022
2163 Clouds 21 1021 68 10000 2.06 120 08:39 07.04.2022
2164 Clouds 18 1021 82 10000 3.09 140 06:57 07.04.2022
2165 Clouds 18 1019 88 10000 1.03 190 02:58 07.04.2022
2166 Clouds 18 1019 88 10000 1.54 180 02:27 07.04.2022
2167 Clouds 17 1020 94 10000 2.57 150 00:28 07.04.2022
2168 Clouds 17 1020 94 10000 0 0 22:52 06.04.2022
2169 Clouds 18 1020 88 10000 2.57 100 22:27 06.04.2022
2170 Clouds 18 1020 88 10000 3.09 110 21:45 06.04.2022
2171 Clouds 17 1017 88 10000 1.61 118 20:40 06.04.2022
2172 Clouds 19 1021 88 10000 3.6 90 19:54 06.04.2022
2173 Rain 20 1020 83 10000 4.12 100 18:52 06.04.2022
2174 Rain 20 1019 83 10000 5.66 110 18:32 06.04.2022
2175 Rain 19 1016 80 10000 2.22 77 17:35 06.04.2022
2176 Rain 19 1016 80 10000 2.22 77 17:35 06.04.2022
2177 Rain 20 1015 74 10000 1.99 63 16:38 06.04.2022
2178 Clouds 21 1014 68 10000 2.41 57 15:48 06.04.2022
2179 Clouds 24 1013 57 10000 3.44 55 15:21 06.04.2022
2180 Clouds 24 1013 57 10000 3.44 55 15:21 06.04.2022
2181 Clouds 27 1018 44 10000 2.06 70 13:28 06.04.2022
2182 Clouds 26 1018 54 10000 1.54 0 12:27 06.04.2022
2183 Clouds 26 1020 54 10000 1.03 0 10:52 06.04.2022
2184 Clouds 25 1020 53 10000 2.06 0 10:30 06.04.2022
2185 Clouds 24 1021 57 10000 1.54 0 09:41 06.04.2022
2186 Clouds 22 1021 68 10000 1.54 0 08:34 06.04.2022
2187 Clouds 20 1021 78 10000 1.54 110 07:53 06.04.2022
2188 Clouds 17 1019 94 10000 2.06 80 04:30 06.04.2022
2189 Clouds 17 1020 100 10000 0 0 23:54 05.04.2022
2190 Clouds 17 1021 100 10000 2.06 290 23:21 05.04.2022
2191 Clouds 17 1021 94 10000 3.09 150 21:29 05.04.2022
2192 Rain 17 1021 100 10000 2.57 200 20:26 05.04.2022
2193 Rain 17 1021 94 4500 7.72 210 19:52 05.04.2022
2194 Rain 20 1019 68 10000 3.6 210 18:18 05.04.2022
2195 Rain 22 1017 53 10000 4.63 50 16:55 05.04.2022
2196 Rain 24 1017 53 10000 3.6 60 16:35 05.04.2022
2197 Rain 22 1017 64 10000 5.66 80 15:35 05.04.2022
2198 Rain 28 1017 34 10000 4.12 30 14:37 05.04.2022
2199 Rain 26 1017 39 10000 2.57 360 13:37 05.04.2022
2200 Clouds 26 1018 44 10000 1.54 0 11:51 05.04.2022
2201 Clouds 26 1018 44 10000 1.54 0 11:51 05.04.2022
2202 Clouds 27 1018 44 10000 3.09 50 11:33 05.04.2022
2203 Clouds 26 1019 47 10000 2.06 0 10:52 05.04.2022
2204 Clouds 23 1020 60 10000 2.57 150 08:55 05.04.2022
2205 Clouds 20 1020 78 10000 2.57 140 07:24 05.04.2022
2206 Clouds 16 1018 94 10000 1.03 0 02:39 05.04.2022
2207 Clouds 17 1019 88 10000 1.54 0 22:48 04.04.2022
2208 Clouds 17 1020 88 10000 2.57 150 22:29 04.04.2022
2209 Rain 17 1019 88 10000 2.57 120 21:22 04.04.2022
2210 Rain 18 1019 82 10000 4.12 170 20:50 04.04.2022
2211 Rain 18 1019 82 10000 4.12 170 20:50 04.04.2022
2212 Rain 18 1019 77 10000 2.57 150 20:22 04.04.2022
2213 Rain 18 1018 77 10000 3.6 90 19:26 04.04.2022
2214 Rain 18 1018 82 10000 2.57 70 18:37 04.04.2022
2215 Rain 22 1016 64 10000 3.6 80 16:37 04.04.2022
2216 Rain 23 1016 60 10000 4.63 90 15:58 04.04.2022
2217 Rain 26 1016 41 10000 0 0 15:33 04.04.2022
2218 Rain 26 1016 41 10000 1.54 0 14:46 04.04.2022
2219 Clouds 27 1016 36 10000 2.06 0 13:40 04.04.2022
2220 Clouds 26 1017 41 10000 2.06 210 12:26 04.04.2022
2221 Clouds 26 1018 44 10000 2.06 0 11:29 04.04.2022
2222 Clouds 23 1019 57 10000 1.54 110 09:51 04.04.2022
2223 Fog 13 1017 100 10000 1.03 110 05:27 04.04.2022
2224 Clouds 15 1017 100 10000 1.03 180 02:41 04.04.2022
2225 Clouds 16 1019 100 10000 1.54 60 22:47 03.04.2022
2226 Clouds 16 1019 94 10000 2.57 120 21:48 03.04.2022
2227 Clouds 17 1019 88 10000 2.06 150 21:19 03.04.2022
2228 Rain 17 1019 94 10000 2.06 150 19:52 03.04.2022
2229 Rain 17 1018 100 10000 3.09 140 18:34 03.04.2022
2230 Rain 18 1018 94 10000 3.6 110 17:49 03.04.2022
2231 Rain 20 1016 78 10000 6.17 140 17:21 03.04.2022
2232 Clouds 22 1016 64 10000 5.66 120 16:42 03.04.2022
2233 Clouds 27 1016 34 10000 1.54 0 15:18 03.04.2022
2234 Clouds 28 1017 30 10000 1.54 0 13:57 03.04.2022
2235 Clouds 27 1017 32 10000 2.57 210 12:48 03.04.2022
2236 Clouds 25 1018 38 10000 2.57 0 11:33 03.04.2022
2237 Clear 23 1019 46 10000 2.57 170 09:40 03.04.2022
2238 Clear 22 1019 49 10000 2.57 190 08:50 03.04.2022
2239 Clouds 12 1018 100 10000 0 0 05:42 03.04.2022
2240 Clouds 12 1018 100 10000 1.03 0 02:54 03.04.2022
2241 Clouds 14 1020 94 10000 1.03 0 23:22 02.04.2022
2242 Clouds 14 1020 94 10000 1.03 0 23:22 02.04.2022
2243 Clouds 15 1020 88 10000 1.03 0 22:40 02.04.2022
2244 Clouds 16 1020 82 10000 2.06 140 21:54 02.04.2022
2245 Clouds 16 1020 82 10000 1.54 0 21:19 02.04.2022
2246 Clouds 16 1021 77 10000 2.57 110 20:35 02.04.2022
2247 Clouds 17 1019 72 10000 4.63 110 18:45 02.04.2022
2248 Clouds 19 1019 64 10000 5.66 120 18:18 02.04.2022
2249 Clouds 21 1018 53 10000 5.14 90 16:39 02.04.2022
2250 Clouds 24 1018 44 10000 5.14 110 15:23 02.04.2022
2251 Clouds 24 1018 44 10000 3.6 110 14:51 02.04.2022
2252 Clouds 25 1018 41 10000 3.6 130 13:57 02.04.2022
2253 Clouds 25 1018 44 10000 3.09 160 13:22 02.04.2022
2254 Clouds 25 1019 47 10000 4.12 160 11:54 02.04.2022
2255 Clouds 22 1021 56 10000 2.06 0 09:48 02.04.2022
2256 Clouds 16 1021 82 10000 3.09 190 06:58 02.04.2022
2257 Clouds 13 1020 94 10000 2.57 140 03:59 02.04.2022
2258 Clouds 14 1021 88 10000 3.09 130 00:27 02.04.2022
2259 Clouds 14 1021 88 10000 3.09 120 23:53 01.04.2022
2260 Clouds 14 1022 88 10000 4.12 120 22:24 01.04.2022
2261 Clouds 16 1022 82 10000 3.6 140 20:54 01.04.2022
2262 Clouds 16 1022 82 10000 3.09 120 20:31 01.04.2022
2263 Clouds 16 1022 82 10000 6.17 110 19:39 01.04.2022
2264 Clouds 17 1021 82 10000 6.69 100 18:54 01.04.2022
2265 Clouds 17 1021 82 10000 5.66 120 18:23 01.04.2022
2266 Clouds 18 1020 77 10000 5.66 130 17:35 01.04.2022
2267 Clouds 22 1019 60 10000 5.14 140 15:44 01.04.2022
2268 Clouds 23 1019 57 10000 5.14 120 14:39 01.04.2022
2269 Clouds 22 1019 60 10000 5.14 110 13:36 01.04.2022
2270 Clouds 22 1020 60 10000 5.66 140 12:33 01.04.2022
2271 Clouds 23 1020 57 10000 5.14 120 11:45 01.04.2022
2272 Clouds 22 1021 53 10000 5.66 120 10:34 01.04.2022
2273 Clouds 20 1022 60 10000 4.12 140 09:30 01.04.2022
2274 Clouds 16 1022 72 10000 3.6 150 06:55 01.04.2022
2275 Clouds 13 1021 88 10000 2.57 160 04:54 01.04.2022
2276 Clouds 14 1020 82 10000 4.12 150 04:36 01.04.2022
2277 Clouds 14 1021 88 10000 4.12 180 01:59 01.04.2022
2278 Clouds 14 1021 82 10000 4.12 180 00:46 01.04.2022
2279 Clouds 14 1023 88 10000 3.6 140 22:20 31.03.2022
2280 Clouds 15 1023 82 10000 4.12 140 21:37 31.03.2022
2281 Clouds 16 1023 77 10000 5.66 160 20:30 31.03.2022
2282 Clouds 16 1023 77 10000 5.14 160 19:50 31.03.2022
2283 Clouds 16 1022 82 10000 4.12 160 18:52 31.03.2022
2284 Clouds 17 1020 82 10000 4.63 150 17:54 31.03.2022
2285 Clouds 19 1020 73 10000 5.66 140 16:40 31.03.2022
2286 Clouds 19 1020 73 10000 6.17 150 15:48 31.03.2022
2287 Clouds 20 1020 68 10000 6.17 150 15:20 31.03.2022
2288 Clouds 20 1019 68 10000 7.2 150 14:40 31.03.2022
2289 Clouds 21 1020 64 10000 6.69 160 12:48 31.03.2022
2290 Clouds 22 1021 64 10000 6.69 140 11:28 31.03.2022
2291 Clouds 21 1022 68 10000 6.69 140 09:50 31.03.2022
2292 Clouds 19 1022 73 10000 6.69 140 08:29 31.03.2022
2293 Clouds 17 1020 88 10000 5.66 160 06:21 31.03.2022
2294 Clouds 15 1020 88 10000 4.12 130 00:46 31.03.2022
2295 Clouds 16 1022 82 10000 4.63 130 23:23 30.03.2022
2296 Clouds 15 1022 88 10000 3.09 140 21:41 30.03.2022
2297 Clouds 16 1022 94 10000 5.14 120 20:55 30.03.2022
2298 Clouds 16 1022 88 10000 4.63 150 20:20 30.03.2022
2299 Clouds 17 1021 82 10000 5.66 140 19:35 30.03.2022
2300 Clouds 18 1021 77 10000 5.66 150 18:29 30.03.2022
2301 Clouds 18 1020 77 10000 4.63 140 17:48 30.03.2022
2302 Clouds 19 1020 73 10000 5.14 140 16:57 30.03.2022
2303 Clouds 19 1020 73 10000 6.69 150 16:38 30.03.2022
2304 Clouds 20 1019 73 10000 6.17 140 15:24 30.03.2022
2305 Clouds 24 1019 53 10000 5.66 140 13:44 30.03.2022
2306 Clouds 22 1019 64 10000 5.66 150 12:57 30.03.2022
2307 Clouds 23 1020 60 10000 6.69 140 11:27 30.03.2022
2308 Clouds 23 1020 60 10000 6.69 140 11:27 30.03.2022
2309 Clouds 22 1021 60 10000 6.17 140 10:23 30.03.2022
2310 Clouds 20 1021 68 10000 6.17 140 09:23 30.03.2022
2311 Clouds 18 1020 82 10000 4.63 150 07:32 30.03.2022
2312 Clouds 17 1020 82 10000 3.6 150 05:40 30.03.2022
2313 Clouds 17 1019 82 10000 4.63 130 03:52 30.03.2022
2314 Clouds 17 1019 88 10000 4.63 160 00:41 30.03.2022
2315 Rain 17 1020 82 10000 4.63 130 22:25 29.03.2022
2316 Rain 18 1020 77 10000 4.63 140 21:44 29.03.2022
2317 Rain 18 1021 82 10000 4.12 140 20:52 29.03.2022
2318 Rain 19 1020 77 10000 4.12 130 19:53 29.03.2022
2319 Rain 18 1019 82 10000 3.6 130 18:55 29.03.2022
2320 Rain 19 1019 77 10000 4.63 130 18:19 29.03.2022
2321 Rain 20 1018 73 10000 6.17 120 17:21 29.03.2022
2322 Rain 20 1018 73 10000 6.17 120 17:21 29.03.2022
2323 Rain 21 1018 68 10000 5.66 110 16:56 29.03.2022
2324 Rain 23 1017 64 10000 6.17 110 15:57 29.03.2022
2325 Rain 23 1017 60 10000 4.12 160 14:48 29.03.2022
2326 Rain 25 1017 53 10000 3.6 140 13:53 29.03.2022
2327 Rain 25 1018 53 10000 3.6 150 12:47 29.03.2022
2328 Clouds 23 1019 57 10000 5.14 140 11:31 29.03.2022
2329 Clouds 23 1019 64 10000 4.12 140 10:27 29.03.2022
2330 Clouds 21 1020 68 10000 4.12 150 09:23 29.03.2022
2331 Clouds 17 1020 88 10000 3.09 140 06:55 29.03.2022
2332 Rain 17 1018 88 10000 3.6 140 03:47 29.03.2022
2333 Rain 18 1019 88 10000 4.12 160 23:49 28.03.2022
2334 Rain 18 1019 94 10000 1.54 180 22:59 28.03.2022
2335 Rain 18 1019 94 10000 1.54 180 22:39 28.03.2022
2336 Rain 18 1019 94 10000 1.54 180 22:19 28.03.2022
2337 Rain 17 1019 94 10000 1.54 0 20:47 28.03.2022
2338 Rain 18 1019 88 10000 3.09 120 19:59 28.03.2022
2339 Rain 18 1019 88 10000 3.09 120 19:40 28.03.2022
2340 Rain 17 1018 100 10000 0.51 0 18:51 28.03.2022
2341 Thunderstorm 17 1018 100 10000 1.54 0 18:18 28.03.2022
2342 Rain 17 1018 100 6000 1.54 150 17:28 28.03.2022
2343 Rain 26 1016 61 10000 1.54 0 15:38 28.03.2022
2344 Rain 26 1015 61 10000 2.57 30 14:24 28.03.2022
2345 Rain 28 1016 51 10000 3.09 30 13:26 28.03.2022
2346 Rain 27 1018 54 10000 2.06 0 11:53 28.03.2022
2347 Rain 25 1019 61 10000 3.09 150 10:39 28.03.2022
2348 Clouds 23 1020 69 10000 2.06 100 09:21 28.03.2022
2349 Clouds 23 1020 73 10000 2.06 90 08:45 28.03.2022
2350 Clouds 22 1020 78 10000 2.06 70 08:21 28.03.2022
2351 Clouds 22 1019 78 10000 1.54 90 07:23 28.03.2022
2352 Clouds 16 1014 96 10000 0.75 107 02:44 28.03.2022
2353 Clouds 19 1020 94 10000 3.09 320 22:38 27.03.2022
2354 Clouds 19 1019 94 10000 3.09 310 21:48 27.03.2022
2355 Clouds 20 1019 88 10000 3.6 310 21:28 27.03.2022
2356 Clouds 20 1019 88 10000 3.09 300 20:41 27.03.2022
2357 Clouds 20 1019 88 10000 1.54 0 19:43 27.03.2022
2358 Rain 20 1018 88 10000 3.6 290 18:45 27.03.2022
2359 Rain 21 1018 83 10000 3.6 300 18:23 27.03.2022
2360 Rain 23 1017 73 10000 4.63 310 17:36 27.03.2022
2361 Rain 26 1016 54 10000 1.54 0 15:51 27.03.2022
2362 Rain 28 1016 51 10000 2.06 90 13:59 27.03.2022
2363 Rain 28 1017 51 10000 1.03 0 13:25 27.03.2022
2364 Clouds 26 1018 61 10000 2.06 40 11:41 27.03.2022
2365 Clouds 25 1020 65 10000 2.57 70 09:49 27.03.2022
2366 Clouds 20 1020 94 10000 2.06 100 07:39 27.03.2022
2367 Clouds 19 1018 100 10000 1.03 0 04:24 27.03.2022
2368 Rain 18 1018 100 4500 1.03 0 00:26 27.03.2022
2369 Rain 18 1018 100 10000 2.06 80 22:52 26.03.2022
2370 Thunderstorm 18 1018 100 8000 1.54 60 21:57 26.03.2022
2371 Thunderstorm 19 1018 100 8000 1.03 0 21:30 26.03.2022
2372 Thunderstorm 20 1018 83 10000 2.06 260 19:32 26.03.2022
2373 Thunderstorm 20 1018 83 10000 2.06 260 19:32 26.03.2022
2374 Rain 22 1017 83 10000 4.63 100 18:40 26.03.2022
2375 Rain 22 1017 78 10000 2.06 60 17:36 26.03.2022
2376 Rain 24 1016 69 10000 2.06 50 16:34 26.03.2022
2377 Rain 27 1015 57 10000 2.57 30 15:39 26.03.2022
2378 Rain 28 1015 51 10000 1.54 0 13:56 26.03.2022
2379 Rain 28 1015 51 10000 1.54 0 13:20 26.03.2022
2380 Rain 27 1016 57 10000 2.57 110 11:48 26.03.2022
2381 Rain 26 1017 61 10000 2.06 0 10:48 26.03.2022
2382 Clouds 22 1019 78 10000 3.6 90 08:48 26.03.2022
2383 Clouds 19 1018 94 10000 2.57 70 06:38 26.03.2022
2384 Clouds 17 1018 100 10000 2.57 80 05:29 26.03.2022
2385 Clouds 17 1016 100 10000 0 0 01:46 26.03.2022
2386 Clouds 18 1018 100 10000 0 0 22:21 25.03.2022
2387 Clouds 18 1018 100 10000 1.03 0 20:57 25.03.2022
2388 Clouds 18 1018 100 10000 0.51 0 20:26 25.03.2022
2389 Thunderstorm 19 1018 100 10000 1.54 0 19:18 25.03.2022
2390 Thunderstorm 19 1018 94 8000 2.57 80 18:22 25.03.2022
2391 Thunderstorm 20 1017 88 8000 4.12 30 17:28 25.03.2022
2392 Thunderstorm 23 1016 69 10000 5.14 30 16:27 25.03.2022
2393 Rain 26 1015 54 10000 2.57 300 15:26 25.03.2022
2394 Rain 27 1015 47 10000 2.57 320 13:28 25.03.2022
2395 Rain 27 1017 54 10000 2.06 320 10:49 25.03.2022
2396 Clouds 26 1018 57 10000 1.54 0 09:28 25.03.2022
2397 Clouds 25 1018 65 10000 1.03 0 08:43 25.03.2022
2398 Clouds 21 1019 83 10000 2.57 80 07:32 25.03.2022
2399 Clouds 18 1019 100 10000 1.03 0 06:29 25.03.2022
2400 Clouds 17 1017 100 10000 1.03 0 01:57 25.03.2022
2401 Rain 17 1018 100 10000 1.03 170 22:56 24.03.2022
2402 Rain 17 1019 100 10000 0 0 21:56 24.03.2022
2403 Drizzle 17 1020 100 8000 3.09 80 20:45 24.03.2022
2404 Thunderstorm 17 1019 100 4500 3.6 80 19:49 24.03.2022
2405 Thunderstorm 17 1019 100 4500 3.6 80 19:48 24.03.2022
2406 Rain 19 1019 100 10000 1.03 0 18:22 24.03.2022
2407 Thunderstorm 19 1018 100 10000 1.54 0 17:29 24.03.2022
2408 Thunderstorm 22 1017 73 10000 2.06 60 15:52 24.03.2022
2409 Rain 24 1016 65 10000 4.63 80 14:51 24.03.2022
2410 Rain 24 1016 69 10000 3.6 80 14:21 24.03.2022
2411 Rain 24 1017 65 10000 6.17 50 13:26 24.03.2022
2412 Clouds 27 1017 54 10000 4.12 40 11:59 24.03.2022
2413 Clouds 27 1019 54 10000 2.57 50 10:28 24.03.2022
2414 Clouds 24 1020 61 10000 2.06 110 09:22 24.03.2022
2415 Clouds 22 1021 68 10000 2.57 110 06:55 24.03.2022
2416 Clouds 16 1020 100 10000 2.06 100 03:59 24.03.2022
2417 Clouds 17 1021 100 10000 1.54 0 23:20 23.03.2022
2418 Clouds 17 1022 100 10000 2.57 100 21:45 23.03.2022
2419 Clouds 17 1022 100 10000 2.06 80 21:20 23.03.2022
2420 Clouds 18 1022 94 10000 3.6 130 19:46 23.03.2022
2421 Clouds 19 1021 88 10000 2.57 130 18:55 23.03.2022
2422 Clouds 20 1021 78 10000 4.63 110 17:37 23.03.2022
2423 Rain 20 1020 78 10000 2.57 90 16:50 23.03.2022
2424 Rain 24 1019 61 10000 5.14 90 14:51 23.03.2022
2425 Rain 24 1019 61 10000 6.17 100 14:26 23.03.2022
2426 Rain 26 1019 57 10000 5.66 100 12:55 23.03.2022
2427 Clouds 24 1021 61 10000 3.09 130 09:45 23.03.2022
2428 Clouds 19 1022 77 10000 2.06 170 06:48 23.03.2022
2429 Clouds 17 1021 88 10000 3.09 140 05:23 23.03.2022
2430 Clouds 17 1021 94 10000 1.54 150 00:35 23.03.2022
2431 Clouds 17 1022 94 10000 0 0 23:39 22.03.2022
2432 Clouds 17 1022 94 10000 2.57 70 21:30 22.03.2022
2433 Clouds 17 1022 88 10000 4.12 110 20:45 22.03.2022
2434 Clouds 18 1022 82 10000 2.57 140 19:51 22.03.2022
2435 Clouds 18 1022 82 10000 4.12 130 19:23 22.03.2022
2436 Clouds 19 1021 83 10000 3.6 120 18:38 22.03.2022
2437 Clouds 19 1020 83 10000 4.12 100 17:37 22.03.2022
2438 Clouds 20 1019 73 10000 7.2 110 16:27 22.03.2022
2439 Clouds 23 1018 60 10000 5.66 90 15:23 22.03.2022
2440 Clouds 24 1018 57 10000 5.66 110 14:47 22.03.2022
2441 Clouds 24 1018 61 10000 5.66 110 14:27 22.03.2022
2442 Clouds 25 1018 57 10000 4.12 110 13:35 22.03.2022
2443 Clouds 25 1019 53 10000 2.57 140 11:52 22.03.2022
2444 Clouds 25 1020 53 10000 3.09 90 10:40 22.03.2022
2445 Clouds 22 1021 60 10000 3.09 130 08:29 22.03.2022
2446 Clouds 19 1022 68 10000 3.6 130 06:53 22.03.2022
2447 Clouds 14 1021 88 10000 4.12 120 03:47 22.03.2022
2448 Clouds 15 1020 94 10000 5.14 100 00:28 22.03.2022
2449 Clouds 17 1021 88 10000 4.12 100 22:42 21.03.2022
2450 Clouds 17 1021 88 10000 3.6 110 20:57 21.03.2022
2451 Clouds 17 1021 88 10000 4.63 110 20:38 21.03.2022
2452 Clouds 17 1021 94 10000 3.09 120 19:58 21.03.2022
2453 Clouds 17 1021 94 10000 2.57 130 19:33 21.03.2022
2454 Clouds 18 1020 82 10000 4.12 110 18:22 21.03.2022
2455 Clouds 18 1019 82 10000 4.63 90 17:19 21.03.2022
2456 Clouds 18 1019 82 10000 4.63 90 16:44 21.03.2022
2457 Clouds 19 1018 77 10000 4.12 80 15:52 21.03.2022
2458 Clouds 20 1018 73 10000 5.14 100 15:19 21.03.2022
2459 Clouds 22 1018 64 10000 4.63 70 13:58 21.03.2022
2460 Clouds 20 1018 73 10000 4.63 100 12:35 21.03.2022
2461 Clouds 20 1019 73 10000 4.63 90 11:52 21.03.2022
2462 Clouds 20 1019 73 10000 4.12 120 10:40 21.03.2022
2463 Clouds 18 1020 77 10000 3.6 150 08:30 21.03.2022
2464 Clouds 17 1020 82 10000 3.6 150 06:48 21.03.2022
2465 Clouds 16 1018 88 10000 4.12 120 02:51 21.03.2022
2466 Clouds 16 1019 94 10000 3.09 140 23:43 20.03.2022
2467 Clouds 16 1019 94 10000 3.09 150 22:44 20.03.2022
2468 Clouds 16 1020 94 10000 5.14 110 21:52 20.03.2022
2469 Clouds 16 1020 94 10000 5.14 110 21:52 20.03.2022
2470 Clouds 16 1020 94 10000 4.63 110 21:25 20.03.2022
2471 Drizzle 16 1020 94 10000 4.12 100 20:43 20.03.2022
2472 Drizzle 17 1020 88 10000 3.6 160 19:59 20.03.2022
2473 Clouds 18 1020 82 10000 5.66 120 19:28 20.03.2022
2474 Clouds 18 1019 82 10000 4.12 130 18:19 20.03.2022
2475 Clouds 18 1018 82 10000 6.69 110 17:33 20.03.2022
2476 Clouds 18 1018 82 10000 6.69 110 17:33 20.03.2022
2477 Clouds 18 1018 82 10000 5.66 120 16:57 20.03.2022
2478 Clouds 20 1017 73 10000 5.66 120 15:34 20.03.2022
2479 Clouds 22 1016 68 10000 7.2 110 14:34 20.03.2022
2480 Clouds 21 1017 73 10000 4.63 140 12:30 20.03.2022
2481 Clouds 21 1018 68 10000 5.66 110 11:22 20.03.2022
2482 Clouds 20 1019 73 10000 5.66 160 08:59 20.03.2022
2483 Clouds 18 1019 82 10000 5.66 140 07:26 20.03.2022
2484 Clouds 17 1018 88 10000 4.12 140 04:23 20.03.2022
2485 Clouds 17 1017 88 10000 3.09 130 01:50 20.03.2022
2486 Clouds 17 1017 88 10000 3.6 150 00:39 20.03.2022
2487 Rain 18 1017 88 10000 3.6 140 23:19 19.03.2022
2488 Rain 18 1018 88 10000 3.6 150 21:27 19.03.2022
2489 Rain 18 1018 88 10000 4.12 130 20:49 19.03.2022
2490 Rain 19 1017 94 10000 5.14 120 18:58 19.03.2022
2491 Rain 19 1017 94 10000 3.09 150 18:23 19.03.2022
2492 Thunderstorm 19 1017 94 10000 4.12 150 17:35 19.03.2022
2493 Thunderstorm 19 1017 94 10000 4.12 150 17:35 19.03.2022
2494 Thunderstorm 21 1016 83 10000 2.57 150 15:44 19.03.2022
2495 Thunderstorm 22 1015 78 10000 3.09 170 14:44 19.03.2022
2496 Rain 24 1015 69 10000 4.63 40 12:59 19.03.2022
2497 Rain 27 1015 57 10000 3.09 0 12:39 19.03.2022
2498 Rain 28 1015 51 10000 1.03 0 11:52 19.03.2022
2499 Rain 26 1016 57 10000 1.03 0 10:47 19.03.2022
2500 Clouds 19 1019 94 10000 0.51 0 06:51 19.03.2022
2501 Rain 17 1017 100 10000 1.54 360 03:24 19.03.2022
2502 Rain 17 1017 100 10000 1.03 40 02:29 19.03.2022
2503 Rain 17 1017 100 10000 1.03 0 23:44 18.03.2022
2504 Rain 17 1018 100 10000 2.57 310 22:27 18.03.2022
2505 Rain 17 1019 100 10000 3.09 300 21:37 18.03.2022
2506 Thunderstorm 18 1019 100 10000 3.09 280 19:51 18.03.2022
2507 Thunderstorm 18 1019 100 10000 3.6 280 19:21 18.03.2022
2508 Rain 19 1017 100 10000 4.12 260 17:50 18.03.2022
2509 Rain 19 1017 100 10000 2.06 240 16:48 18.03.2022
2510 Rain 19 1016 100 10000 2.06 310 15:26 18.03.2022
2511 Thunderstorm 18 1016 100 10000 2.06 300 14:22 18.03.2022
2512 Rain 27 1015 57 10000 2.57 200 12:27 18.03.2022
2513 Rain 27 1016 57 10000 1.54 0 10:52 18.03.2022
2514 Clouds 23 1018 69 10000 1.03 0 09:29 18.03.2022
2515 Clouds 23 1018 69 10000 1.03 0 08:30 18.03.2022
2516 Clouds 21 1019 78 10000 3.09 100 06:34 18.03.2022
2517 Clouds 19 1017 94 10000 2.57 70 02:51 18.03.2022
2518 Rain 19 1017 94 10000 3.6 80 00:22 18.03.2022
2519 Rain 19 1017 94 10000 3.6 80 00:22 18.03.2022
2520 Rain 20 1017 88 10000 3.6 160 23:22 17.03.2022
2521 Rain 20 1019 83 10000 2.06 130 22:24 17.03.2022
2522 Rain 20 1019 88 10000 2.57 130 21:48 17.03.2022
2523 Rain 20 1019 88 10000 1.54 90 21:21 17.03.2022
2524 Rain 20 1019 88 10000 1.54 0 20:42 17.03.2022
2525 Rain 20 1019 88 10000 3.09 90 19:47 17.03.2022
2526 Clouds 20 1019 88 10000 3.09 100 18:57 17.03.2022
2527 Thunderstorm 20 1018 88 10000 3.6 90 18:37 17.03.2022
2528 Thunderstorm 21 1017 83 10000 4.63 100 16:48 17.03.2022
2529 Thunderstorm 23 1016 73 10000 6.69 90 15:44 17.03.2022
2530 Thunderstorm 24 1015 69 10000 6.17 90 15:23 17.03.2022
2531 Rain 26 1015 57 10000 4.12 110 13:50 17.03.2022
2532 Rain 26 1015 57 10000 2.06 60 12:49 17.03.2022
2533 Clouds 28 1016 54 10000 2.06 0 12:21 17.03.2022
2534 Clouds 25 1017 61 10000 5.14 90 11:25 17.03.2022
2535 Clouds 24 1018 69 10000 4.63 120 09:57 17.03.2022
2536 Clouds 24 1018 65 10000 5.66 110 08:34 17.03.2022
2537 Clouds 24 1018 65 10000 5.66 110 08:34 17.03.2022
2538 Drizzle 22 1018 78 10000 5.14 100 07:32 17.03.2022
2539 Clouds 20 1017 88 10000 2.57 80 05:47 17.03.2022
2540 Rain 19 1015 94 10000 3.09 140 00:46 17.03.2022
2541 Clouds 20 1016 88 10000 3.09 110 23:39 16.03.2022
2542 Clouds 20 1016 88 10000 3.09 100 22:44 16.03.2022
2543 Clouds 20 1017 88 10000 2.57 110 22:21 16.03.2022
2544 Clouds 20 1017 88 10000 2.57 100 21:34 16.03.2022
2545 Rain 20 1017 88 10000 1.03 0 19:27 16.03.2022
2546 Rain 20 1016 88 10000 0 0 18:58 16.03.2022
2547 Rain 21 1016 83 10000 2.57 50 18:24 16.03.2022
2548 Rain 21 1015 83 10000 2.57 60 17:37 16.03.2022
2549 Rain 22 1014 78 10000 3.09 40 16:50 16.03.2022
2550 Rain 24 1014 65 10000 2.06 70 15:41 16.03.2022
2551 Rain 26 1013 57 10000 2.06 0 13:44 16.03.2022
2552 Rain 27 1014 54 10000 3.09 100 12:59 16.03.2022
2553 Rain 26 1014 61 10000 2.57 80 11:44 16.03.2022
2554 Rain 26 1015 61 10000 2.57 60 11:18 16.03.2022
2555 Clouds 25 1016 65 10000 3.6 70 09:59 16.03.2022
2556 Clouds 23 1017 69 10000 2.57 70 08:37 16.03.2022
2557 Clouds 18 1015 94 10000 2.06 160 03:33 16.03.2022
2558 Clouds 18 1016 100 10000 2.57 90 23:39 15.03.2022
2559 Clouds 17 1013 96 10000 1.39 136 22:37 15.03.2022
2560 Clouds 18 1017 100 10000 2.06 170 21:33 15.03.2022
2561 Thunderstorm 19 1017 94 10000 2.06 130 19:47 15.03.2022
2562 Thunderstorm 19 1017 94 10000 2.57 70 18:38 15.03.2022
2563 Rain 20 1015 94 10000 4.63 130 16:45 15.03.2022
2564 Rain 21 1015 83 10000 5.14 120 15:44 15.03.2022
2565 Rain 24 1014 65 10000 2.57 70 14:55 15.03.2022
2566 Rain 26 1013 54 10000 2.57 110 14:30 15.03.2022
2567 Clouds 27 1014 54 10000 1.54 0 13:24 15.03.2022
2568 Rain 27 1015 54 10000 2.06 70 11:48 15.03.2022
2569 Clouds 25 1016 57 10000 1.54 0 10:56 15.03.2022
2570 Clouds 24 1017 65 10000 2.06 160 09:30 15.03.2022
2571 Clouds 22 1018 68 10000 2.06 0 08:32 15.03.2022
2572 Clouds 21 1018 78 10000 3.09 110 07:39 15.03.2022
2573 Clouds 19 1018 83 10000 2.06 150 06:32 15.03.2022
2574 Clouds 16 1016 100 10000 1.03 0 01:57 15.03.2022
2575 Clouds 16 1014 91 10000 1.84 99 23:31 14.03.2022
2576 Clouds 17 1018 88 10000 1.54 0 22:52 14.03.2022
2577 Clouds 18 1019 82 10000 4.12 120 21:55 14.03.2022
2578 Clouds 19 1019 83 10000 4.63 100 20:59 14.03.2022
2579 Clouds 19 1019 88 10000 4.63 120 20:28 14.03.2022
2580 Thunderstorm 19 1019 83 10000 3.09 140 19:32 14.03.2022
2581 Thunderstorm 20 1018 83 10000 4.12 130 17:59 14.03.2022
2582 Thunderstorm 20 1018 83 10000 4.12 130 17:41 14.03.2022
2583 Rain 22 1016 73 10000 5.14 160 16:33 14.03.2022
2584 Rain 25 1015 61 10000 5.66 180 14:52 14.03.2022
2585 Rain 26 1015 54 10000 3.09 180 13:57 14.03.2022
2586 Clouds 27 1016 54 10000 2.57 140 11:26 14.03.2022
2587 Clouds 26 1018 57 10000 4.63 60 09:57 14.03.2022
2588 Clouds 25 1018 61 10000 2.57 110 09:35 14.03.2022
2589 Clouds 24 1018 61 10000 2.57 120 08:58 14.03.2022
2590 Clouds 24 1019 61 10000 3.6 130 08:28 14.03.2022
2591 Clouds 20 1018 78 10000 3.6 150 06:47 14.03.2022
2592 Clouds 16 1017 94 10000 2.57 160 03:27 14.03.2022
2593 Clouds 15 1017 94 10000 1.54 110 01:39 14.03.2022
2594 Clouds 16 1017 88 10000 3.6 150 00:29 14.03.2022
2595 Clouds 17 1018 88 10000 3.09 130 21:49 13.03.2022
2596 Clouds 17 1018 88 10000 3.6 150 21:21 13.03.2022
2597 Clouds 17 1018 88 10000 5.14 140 20:46 13.03.2022
2598 Clouds 17 1019 88 10000 4.63 130 20:22 13.03.2022
2599 Clouds 17 1019 88 10000 3.6 120 19:42 13.03.2022
2600 Clouds 17 1018 88 10000 3.09 100 19:22 13.03.2022
2601 Clouds 17 1018 88 10000 3.09 100 19:22 13.03.2022
2602 Clouds 18 1018 82 10000 3.09 100 18:45 13.03.2022
2603 Clouds 19 1018 77 10000 4.12 130 18:25 13.03.2022
2604 Clouds 19 1017 77 10000 5.66 110 17:36 13.03.2022
2605 Clouds 20 1017 68 10000 5.66 110 16:45 13.03.2022
2606 Rain 21 1016 64 10000 5.66 110 16:21 13.03.2022
2607 Rain 23 1015 57 10000 5.14 150 15:39 13.03.2022
2608 Rain 25 1015 50 10000 4.12 160 14:37 13.03.2022
2609 Rain 26 1015 47 10000 2.57 120 13:28 13.03.2022
2610 Clouds 24 1016 53 10000 5.14 140 12:22 13.03.2022
2611 Clouds 24 1016 53 10000 5.14 150 11:38 13.03.2022
2612 Clouds 24 1016 53 10000 5.14 140 10:49 13.03.2022
2613 Clouds 24 1017 53 10000 5.14 140 10:25 13.03.2022
2614 Clouds 24 1017 57 10000 6.17 110 09:42 13.03.2022
2615 Clouds 22 1018 64 10000 5.14 180 08:49 13.03.2022
2616 Clouds 21 1018 64 10000 4.63 140 08:23 13.03.2022
2617 Clouds 19 1018 73 10000 5.14 150 06:40 13.03.2022
2618 Clouds 16 1016 88 10000 3.6 150 03:56 13.03.2022
2619 Drizzle 16 1016 100 8000 3.6 150 00:48 13.03.2022
2620 Clouds 16 1017 94 10000 3.6 100 22:48 12.03.2022
2621 Clouds 17 1017 88 10000 5.14 110 21:29 12.03.2022
2622 Clouds 18 1018 82 10000 3.6 140 20:18 12.03.2022
2623 Clouds 18 1018 88 10000 5.66 110 19:43 12.03.2022
2624 Clouds 19 1017 77 10000 5.14 150 18:34 12.03.2022
2625 Clouds 19 1016 77 10000 5.66 120 17:46 12.03.2022
2626 Clouds 21 1016 68 10000 5.14 160 16:25 12.03.2022
2627 Clouds 23 1015 57 10000 6.17 130 15:25 12.03.2022
2628 Clouds 25 1014 47 10000 6.17 130 14:52 12.03.2022
2629 Clouds 23 1014 53 10000 5.66 140 13:53 12.03.2022
2630 Clouds 23 1014 53 10000 5.66 140 13:53 12.03.2022
2631 Clouds 25 1015 50 10000 4.63 150 12:25 12.03.2022
2632 Clouds 24 1016 57 10000 4.12 170 11:51 12.03.2022
2633 Clouds 24 1016 57 10000 4.12 170 11:19 12.03.2022
2634 Clouds 22 1017 64 10000 4.63 140 09:58 12.03.2022
2635 Clouds 22 1018 64 10000 5.14 170 09:39 12.03.2022
2636 Clouds 23 1018 60 10000 7.2 120 07:51 12.03.2022
2637 Clouds 18 1017 94 10000 2.57 140 05:20 12.03.2022
2638 Clouds 18 1017 94 10000 3.09 140 00:24 12.03.2022
2639 Clouds 19 1017 88 10000 3.6 120 23:28 11.03.2022
2640 Clouds 19 1018 88 10000 3.09 130 21:47 11.03.2022
2641 Clouds 19 1018 88 10000 2.57 130 20:57 11.03.2022
2642 Clouds 19 1018 88 10000 3.09 110 20:37 11.03.2022
2643 Clouds 19 1018 88 10000 5.66 110 19:53 11.03.2022
2644 Clouds 20 1018 83 10000 5.66 100 19:26 11.03.2022
2645 Clouds 21 1017 78 10000 5.14 110 17:34 11.03.2022
2646 Rain 21 1016 78 10000 6.69 100 16:42 11.03.2022
2647 Rain 25 1015 57 10000 4.12 90 15:57 11.03.2022
2648 Rain 26 1015 57 10000 3.6 80 14:22 11.03.2022
2649 Rain 27 1016 54 10000 4.12 70 12:53 11.03.2022
2650 Rain 25 1016 57 10000 4.63 110 12:21 11.03.2022
2651 Rain 26 1016 57 10000 4.63 100 11:55 11.03.2022
2652 Clouds 25 1017 65 10000 4.63 120 10:18 11.03.2022
2653 Clouds 23 1018 69 10000 3.6 140 08:57 11.03.2022
2654 Clouds 22 1018 73 10000 3.09 150 08:24 11.03.2022
2655 Clouds 21 1013 83 10000 2.57 120 07:45 11.03.2022
2656 Clouds 19 1018 94 10000 3.09 120 05:49 11.03.2022
2657 Drizzle 18 1017 100 10000 2.57 80 03:49 11.03.2022
2658 Rain 19 1018 94 10000 2.06 70 23:46 10.03.2022
2659 Clouds 19 1018 94 10000 0.51 0 22:31 10.03.2022
2660 Rain 19 1018 94 10000 3.6 80 21:47 10.03.2022
2661 Rain 19 1018 94 10000 3.6 80 21:19 10.03.2022
2662 Thunderstorm 20 1018 94 10000 2.57 90 19:45 10.03.2022
2663 Thunderstorm 20 1018 88 10000 4.12 120 18:53 10.03.2022
2664 Thunderstorm 21 1017 83 10000 3.09 80 17:28 10.03.2022
2665 Thunderstorm 25 1016 65 10000 6.17 90 15:55 10.03.2022
2666 Rain 26 1015 57 10000 3.09 130 14:44 10.03.2022
2667 Rain 28 1015 51 10000 3.09 150 13:19 10.03.2022
2668 Rain 26 1016 57 10000 4.63 130 11:57 10.03.2022
2669 Rain 26 1016 61 10000 4.63 140 10:53 10.03.2022
2670 Clouds 25 1017 65 10000 4.12 140 09:18 10.03.2022
2671 Clouds 23 1018 69 10000 4.12 130 07:33 10.03.2022
2672 Clouds 19 1016 88 10000 2.57 140 04:19 10.03.2022
2673 Clouds 19 1016 88 10000 2.06 140 01:40 10.03.2022
2674 Clouds 19 1016 88 10000 3.09 90 23:18 09.03.2022
2675 Clouds 19 1017 94 10000 3.09 90 21:49 09.03.2022
2676 Clouds 19 1017 88 10000 3.09 100 21:27 09.03.2022
2677 Clouds 20 1017 83 10000 4.12 90 19:43 09.03.2022
2678 Clouds 20 1017 88 10000 2.57 60 18:29 09.03.2022
2679 Clouds 21 1015 83 10000 3.09 80 17:26 09.03.2022
2680 Clouds 21 1015 83 10000 3.09 80 17:26 09.03.2022
2681 Clouds 21 1015 83 10000 3.09 80 17:26 09.03.2022
2682 Clouds 22 1014 73 10000 4.63 70 16:30 09.03.2022
2683 Clouds 25 1014 65 10000 6.17 110 14:56 09.03.2022
2684 Rain 27 1014 54 10000 5.14 110 13:52 09.03.2022
2685 Rain 27 1014 54 10000 6.69 90 12:39 09.03.2022
2686 Rain 26 1015 57 10000 5.66 110 11:52 09.03.2022
2687 Rain 26 1015 61 10000 6.17 140 11:32 09.03.2022
2688 Clouds 24 1015 65 10000 4.63 130 09:45 09.03.2022
2689 Clouds 24 1016 69 10000 5.14 120 08:47 09.03.2022
2690 Clouds 21 1016 78 10000 4.12 150 07:27 09.03.2022
2691 Clouds 18 1014 100 10000 2.06 170 01:54 09.03.2022
2692 Clouds 19 1014 94 10000 3.09 150 00:27 09.03.2022
2693 Clouds 19 1015 94 10000 3.6 130 22:47 08.03.2022
2694 Clouds 18 1015 100 10000 3.6 170 21:52 08.03.2022
2695 Drizzle 19 1015 94 10000 2.57 150 21:22 08.03.2022
2696 Clouds 20 1016 83 10000 4.63 170 20:24 08.03.2022
2697 Clouds 19 1015 88 10000 4.12 150 19:24 08.03.2022
2698 Clouds 20 1015 83 10000 4.12 160 18:23 08.03.2022
2699 Clouds 20 1014 83 10000 4.12 160 16:56 08.03.2022
2700 Clouds 24 1014 69 10000 5.14 140 14:58 08.03.2022
2701 Rain 23 1014 69 10000 6.69 170 13:48 08.03.2022
2702 Clouds 23 1014 64 10000 6.69 170 12:23 08.03.2022
2703 Clouds 23 1014 69 10000 6.17 170 11:42 08.03.2022
2704 Clouds 23 1015 64 10000 6.17 140 10:28 08.03.2022
2705 Clouds 23 1016 69 10000 5.66 150 08:57 08.03.2022
2706 Clouds 23 1016 69 10000 5.66 150 08:57 08.03.2022
2707 Clouds 20 1015 73 10000 6.17 160 06:30 08.03.2022
2708 Clouds 17 1014 88 10000 5.14 180 02:50 08.03.2022
2709 Clouds 18 1017 82 10000 3.09 150 22:48 07.03.2022
2710 Clouds 18 1017 82 10000 3.6 170 21:45 07.03.2022
2711 Clouds 19 1017 77 10000 4.12 160 21:23 07.03.2022
2712 Clouds 19 1017 83 10000 3.6 160 20:34 07.03.2022
2713 Clouds 19 1017 83 10000 4.12 140 19:50 07.03.2022
2714 Clouds 19 1017 77 10000 5.14 160 19:20 07.03.2022
2715 Clouds 19 1016 83 10000 4.63 150 18:29 07.03.2022
2716 Clouds 19 1016 83 10000 3.6 130 17:31 07.03.2022
2717 Clouds 20 1015 73 10000 5.66 130 16:54 07.03.2022
2718 Clouds 23 1015 64 10000 5.66 110 14:51 07.03.2022
2719 Clouds 26 1015 47 10000 5.66 160 12:34 07.03.2022
2720 Clouds 25 1016 50 10000 5.66 160 11:34 07.03.2022
2721 Clouds 25 1016 53 10000 6.69 120 10:31 07.03.2022
2722 Clouds 23 1017 60 10000 5.66 150 08:34 07.03.2022
2723 Clouds 23 1017 60 10000 5.66 150 08:34 07.03.2022
2724 Clouds 16 1016 94 10000 2.57 160 02:50 07.03.2022
2725 Clouds 17 1016 82 10000 2.57 160 00:20 07.03.2022
2726 Clouds 17 1017 88 10000 4.12 140 23:23 06.03.2022
2727 Clouds 18 1017 77 10000 5.14 150 22:27 06.03.2022
2728 Clouds 18 1017 82 10000 5.14 150 21:37 06.03.2022
2729 Clouds 18 1017 82 10000 5.14 150 20:29 06.03.2022
2730 Clouds 19 1017 77 10000 5.14 150 19:39 06.03.2022
2731 Clouds 19 1017 77 10000 3.6 140 18:50 06.03.2022
2732 Clouds 19 1017 77 10000 5.66 140 17:46 06.03.2022
2733 Rain 20 1016 73 10000 6.69 160 17:19 06.03.2022
2734 Rain 21 1016 68 10000 7.2 130 16:28 06.03.2022
2735 Rain 23 1015 64 10000 6.69 120 15:26 06.03.2022
2736 Rain 23 1015 64 10000 5.14 130 14:42 06.03.2022
2737 Rain 26 1015 54 10000 7.2 130 13:49 06.03.2022
2738 Clouds 25 1016 57 10000 6.17 130 12:40 06.03.2022
2739 Clouds 25 1016 61 10000 6.17 150 11:45 06.03.2022
2740 Clouds 26 1017 57 10000 4.12 160 10:39 06.03.2022
2741 Clouds 25 1017 61 10000 5.14 110 09:18 06.03.2022
2742 Clouds 22 1018 68 10000 5.14 160 08:27 06.03.2022
2743 Clouds 22 1017 68 10000 5.66 140 07:23 06.03.2022
2744 Clouds 17 1015 88 10000 4.12 180 02:22 06.03.2022
2745 Clouds 18 1016 88 10000 4.12 180 00:34 06.03.2022
2746 Clouds 18 1017 94 10000 3.09 150 23:59 05.03.2022
2747 Clouds 18 1017 100 10000 1.03 0 23:19 05.03.2022
2748 Drizzle 18 1017 100 8000 2.57 60 22:32 05.03.2022
2749 Clouds 19 1018 88 10000 2.06 80 21:29 05.03.2022
2750 Clouds 19 1018 88 10000 3.09 110 20:27 05.03.2022
2751 Clouds 20 1018 78 10000 3.6 140 19:18 05.03.2022
2752 Clouds 20 1017 78 10000 3.09 140 18:37 05.03.2022
2753 Clouds 22 1016 68 10000 3.6 140 17:31 05.03.2022
2754 Clouds 23 1016 60 10000 3.6 140 16:18 05.03.2022
2755 Clouds 26 1015 47 10000 4.63 140 14:53 05.03.2022
2756 Clouds 25 1015 57 10000 5.14 150 14:35 05.03.2022
2757 Clouds 25 1015 57 10000 5.14 150 14:35 05.03.2022
2758 Clouds 26 1016 50 10000 6.17 130 13:37 05.03.2022
2759 Clouds 26 1016 50 10000 6.17 140 12:33 05.03.2022
2760 Clouds 26 1016 54 10000 6.69 110 11:20 05.03.2022
2761 Clouds 26 1017 54 10000 7.2 100 10:48 05.03.2022
2762 Clouds 25 1017 53 10000 3.09 130 09:30 05.03.2022
2763 Clouds 24 1017 57 10000 4.12 140 08:24 05.03.2022
2764 Clouds 19 1018 77 10000 4.63 150 06:29 05.03.2022
2765 Clouds 17 1017 88 10000 2.06 160 04:54 05.03.2022
2766 Clouds 18 1017 94 10000 3.09 140 23:59 04.03.2022
2767 Clouds 19 1018 88 10000 2.57 160 22:45 04.03.2022
2768 Clouds 19 1018 88 10000 3.6 170 22:23 04.03.2022
2769 Clouds 19 1018 88 10000 2.06 170 21:39 04.03.2022
2770 Clouds 20 1018 83 10000 3.6 160 20:32 04.03.2022
2771 Clouds 20 1018 83 10000 2.57 130 19:36 04.03.2022
2772 Clouds 20 1017 83 10000 4.63 110 18:47 04.03.2022
2773 Clouds 21 1016 78 10000 3.6 130 18:22 04.03.2022
2774 Clouds 21 1016 73 10000 4.63 110 17:29 04.03.2022
2775 Rain 23 1015 64 10000 3.6 110 15:48 04.03.2022
2776 Rain 25 1014 57 10000 5.14 120 14:40 04.03.2022
2777 Rain 24 1015 61 10000 4.63 110 13:27 04.03.2022
2778 Rain 26 1015 54 10000 4.63 110 11:57 04.03.2022
2779 Clouds 26 1016 54 10000 3.6 80 10:58 04.03.2022
2780 Clouds 25 1016 57 10000 3.6 120 10:21 04.03.2022
2781 Clouds 24 1017 61 10000 3.09 140 08:48 04.03.2022
2782 Clouds 23 1017 64 10000 3.09 110 07:47 04.03.2022
2783 Clouds 18 1016 88 10000 3.09 150 05:26 04.03.2022
2784 Clouds 18 1016 100 10000 1.03 0 00:41 04.03.2022
2785 Rain 18 1017 94 10000 2.06 180 22:54 03.03.2022
2786 Rain 18 1017 94 10000 3.6 80 21:58 03.03.2022
2787 Rain 18 1016 100 10000 1.54 0 21:34 03.03.2022
2788 Thunderstorm 19 1016 100 10000 1.54 350 20:27 03.03.2022
2789 Rain 18 1016 100 8000 0.51 0 18:58 03.03.2022
2790 Thunderstorm 18 1016 94 8000 1.03 0 18:25 03.03.2022
2791 Thunderstorm 20 1015 94 10000 2.57 60 17:31 03.03.2022
2792 Rain 19 1014 94 10000 2.06 40 16:28 03.03.2022
2793 Thunderstorm 19 1014 94 10000 1.54 0 15:41 03.03.2022
2794 Thunderstorm 19 1014 88 7000 4.12 90 14:44 03.03.2022
2795 Thunderstorm 22 1013 83 6000 4.12 40 14:25 03.03.2022
2796 Clouds 29 1013 48 10000 1.54 0 12:28 03.03.2022
2797 Clouds 26 1015 61 10000 3.09 80 10:56 03.03.2022
2798 Clouds 26 1015 61 10000 2.06 0 09:58 03.03.2022
2799 Clouds 25 1016 69 10000 2.06 90 08:42 03.03.2022
2800 Clouds 21 1015 83 10000 0.51 0 06:54 03.03.2022
2801 Clouds 18 1014 100 10000 1.54 30 05:20 03.03.2022
2802 Rain 18 1015 100 10000 2.57 110 23:45 02.03.2022
2803 Rain 18 1015 100 10000 3.09 80 22:54 02.03.2022
2804 Rain 18 1015 100 10000 2.57 60 22:31 02.03.2022
2805 Rain 18 1016 100 10000 3.6 80 20:59 02.03.2022
2806 Rain 18 1016 100 10000 3.09 50 20:25 02.03.2022
2807 Thunderstorm 19 1015 100 10000 3.09 60 19:37 02.03.2022
2808 Thunderstorm 20 1014 94 10000 3.6 140 18:58 02.03.2022
2809 Thunderstorm 20 1014 94 10000 3.6 140 18:31 02.03.2022
2810 Thunderstorm 20 1014 94 10000 3.6 180 17:41 02.03.2022
2811 Thunderstorm 22 1013 78 10000 1.03 0 16:52 02.03.2022
2812 Thunderstorm 23 1012 78 10000 2.57 350 15:46 02.03.2022
2813 Rain 26 1012 61 10000 3.6 40 13:52 02.03.2022
2814 Rain 27 1012 57 10000 2.57 340 12:46 02.03.2022
2815 Rain 28 1012 48 10000 3.6 300 12:24 02.03.2022
2816 Rain 26 1013 57 10000 2.57 310 11:26 02.03.2022
2817 Rain 26 1014 57 10000 3.09 330 10:31 02.03.2022
2818 Clouds 25 1015 65 10000 2.06 350 09:35 02.03.2022
2819 Clouds 24 1015 69 10000 1.03 0 08:28 02.03.2022
2820 Clouds 22 1015 68 10000 1.54 0 07:23 02.03.2022
2821 Clouds 16 1014 100 10000 0.51 0 04:46 02.03.2022
2822 Clouds 17 1014 100 10000 1.54 100 00:40 02.03.2022
2823 Clouds 17 1014 100 10000 1.54 100 00:40 02.03.2022
2824 Clouds 17 1015 100 10000 1.03 0 23:24 01.03.2022
2825 Rain 18 1016 100 10000 1.03 40 22:37 01.03.2022
2826 Rain 18 1016 100 10000 2.06 50 21:37 01.03.2022
2827 Thunderstorm 17 1016 100 8000 0 0 20:38 01.03.2022
2828 Thunderstorm 17 1016 100 8000 0 0 20:19 01.03.2022
2829 Thunderstorm 17 1016 100 8000 1.03 0 18:52 01.03.2022
2830 Thunderstorm 17 1016 100 8000 3.09 90 18:22 01.03.2022
2831 Thunderstorm 17 1015 100 5000 3.6 50 17:39 01.03.2022
2832 Thunderstorm 18 1014 94 4000 1.54 0 16:36 01.03.2022
2833 Thunderstorm 18 1013 94 4500 7.72 170 15:47 01.03.2022
2834 Thunderstorm 22 1012 73 10000 4.12 310 14:53 01.03.2022
2835 Thunderstorm 22 1012 73 10000 6.17 320 14:31 01.03.2022
2836 Rain 27 1012 51 10000 3.6 20 13:26 01.03.2022
2837 Rain 28 1012 51 10000 3.09 20 12:36 01.03.2022
2838 Rain 27 1013 51 10000 2.57 0 11:35 01.03.2022
2839 Rain 26 1015 61 10000 2.06 0 09:43 01.03.2022
2840 Clouds 23 1016 73 10000 2.57 340 08:25 01.03.2022
2841 Clouds 21 1016 78 10000 1.03 0 06:47 01.03.2022
2842 Clouds 17 1015 100 10000 2.06 300 03:26 01.03.2022
2843 Clouds 17 1015 100 10000 1.54 0 00:48 01.03.2022
2844 Rain 17 1015 100 10000 1.03 0 23:39 28.02.2022
2845 Rain 17 1016 100 10000 1.03 0 22:38 28.02.2022
2846 Thunderstorm 17 1017 100 10000 1.54 0 21:47 28.02.2022
2847 Thunderstorm 18 1017 100 9000 2.06 290 20:46 28.02.2022
2848 Thunderstorm 18 1017 100 8000 2.06 60 19:51 28.02.2022
2849 Thunderstorm 19 1016 94 10000 2.57 360 18:50 28.02.2022
2850 Thunderstorm 18 1015 100 10000 4.12 90 17:43 28.02.2022
2851 Thunderstorm 18 1014 100 9000 4.12 40 17:21 28.02.2022
2852 Thunderstorm 18 1014 100 9000 3.6 300 16:21 28.02.2022
2853 Rain 25 1012 57 10000 1.03 0 14:33 28.02.2022
2854 Rain 26 1012 57 10000 1.54 0 13:53 28.02.2022
2855 Rain 28 1013 51 10000 1.54 0 13:24 28.02.2022
2856 Rain 27 1014 54 10000 2.06 150 12:25 28.02.2022
2857 Rain 26 1015 54 10000 1.54 0 11:19 28.02.2022
2858 Rain 25 1016 57 10000 2.06 0 10:23 28.02.2022
2859 Rain 23 1017 69 10000 1.54 0 09:44 28.02.2022
2860 Rain 23 1017 69 10000 1.54 0 09:23 28.02.2022
2861 Rain 22 1017 68 10000 2.06 140 08:21 28.02.2022
2862 Rain 20 1017 78 10000 2.06 120 06:31 28.02.2022
2863 Clouds 18 1016 94 10000 3.09 70 04:31 28.02.2022
2864 Rain 17 1016 100 10000 4.12 90 00:53 28.02.2022
2865 Rain 18 1016 100 10000 1.54 90 22:55 27.02.2022
2866 Rain 18 1016 100 10000 1.54 90 22:32 27.02.2022
2867 Rain 18 1017 100 10000 2.06 90 21:42 27.02.2022
2868 Rain 18 1017 100 7000 3.6 90 20:50 27.02.2022
2869 Drizzle 18 1017 100 6000 4.12 80 20:18 27.02.2022
2870 Drizzle 18 1017 94 10000 4.63 100 19:49 27.02.2022
2871 Drizzle 19 1017 83 10000 4.12 110 19:22 27.02.2022
2872 Rain 20 1016 78 10000 4.12 120 18:37 27.02.2022
2873 Rain 20 1016 83 10000 4.12 130 17:52 27.02.2022
2874 Rain 22 1014 73 10000 5.66 110 16:30 27.02.2022
2875 Rain 24 1013 61 10000 3.6 50 15:24 27.02.2022
2876 Rain 26 1014 61 10000 3.09 20 12:37 27.02.2022
2877 Rain 26 1014 61 10000 2.06 60 11:54 27.02.2022
2878 Rain 24 1015 69 10000 1.54 0 10:37 27.02.2022
2879 Rain 25 1016 65 10000 1.54 180 09:58 27.02.2022
2880 Clouds 23 1016 73 10000 2.06 130 09:24 27.02.2022
2881 Clouds 23 1016 73 10000 3.09 180 08:48 27.02.2022
2882 Drizzle 19 1017 94 10000 3.09 90 06:30 27.02.2022
2883 Rain 18 1016 100 10000 2.06 50 03:44 27.02.2022
2884 Rain 19 1016 100 10000 2.57 90 23:57 26.02.2022
2885 Rain 18 1016 100 10000 1.54 40 22:48 26.02.2022
2886 Rain 18 1017 100 10000 3.6 350 21:29 26.02.2022
2887 Rain 18 1017 94 10000 2.06 240 20:43 26.02.2022
2888 Rain 19 1017 100 10000 1.54 300 19:57 26.02.2022
2889 Rain 19 1017 94 10000 1.03 0 19:33 26.02.2022
2890 Rain 20 1016 88 10000 3.6 320 18:34 26.02.2022
2891 Thunderstorm 21 1016 83 10000 4.63 320 17:37 26.02.2022
2892 Rain 23 1015 73 10000 3.6 120 16:39 26.02.2022
2893 Rain 24 1014 69 10000 2.06 60 15:38 26.02.2022
2894 Rain 24 1014 69 10000 2.06 60 15:19 26.02.2022
2895 Rain 25 1014 65 10000 2.06 50 14:42 26.02.2022
2896 Rain 25 1014 69 10000 2.57 60 14:19 26.02.2022
2897 Rain 25 1014 65 10000 2.57 80 12:53 26.02.2022
2898 Rain 25 1015 65 10000 2.57 70 11:53 26.02.2022
2899 Rain 25 1015 65 10000 2.06 110 11:26 26.02.2022
2900 Rain 24 1016 69 10000 2.06 150 10:19 26.02.2022
2901 Rain 22 1017 78 10000 3.09 170 08:35 26.02.2022
2902 Rain 19 1017 100 10000 1.54 0 06:31 26.02.2022
2903 Thunderstorm 18 1016 100 10000 2.57 290 00:25 26.02.2022
2904 Thunderstorm 19 1017 100 8000 3.6 300 22:43 25.02.2022
2905 Rain 19 1017 100 10000 4.12 310 21:33 25.02.2022
2906 Rain 19 1017 100 10000 4.12 300 20:56 25.02.2022
2907 Rain 19 1017 100 10000 3.09 300 20:27 25.02.2022
2908 Thunderstorm 20 1017 94 10000 2.57 320 17:57 25.02.2022
2909 Rain 23 1015 78 8000 2.57 270 16:59 25.02.2022
2910 Rain 24 1015 69 10000 3.09 290 15:56 25.02.2022
2911 Rain 26 1015 61 10000 3.6 300 15:24 25.02.2022
2912 Rain 26 1015 61 10000 3.6 300 15:24 25.02.2022
2913 Rain 27 1015 54 10000 3.09 320 14:56 25.02.2022
2914 Rain 27 1015 54 10000 3.09 320 14:27 25.02.2022
2915 Rain 22 1011 76 10000 3.51 290 13:30 25.02.2022
2916 Rain 25 1011 61 10000 4.17 298 12:21 25.02.2022
2917 Rain 25 1011 58 10000 4.28 296 11:22 25.02.2022
2918 Rain 23 1017 78 10000 4.63 300 10:23 25.02.2022
2919 Rain 23 1017 78 10000 4.63 300 10:23 25.02.2022
2920 Rain 22 1018 78 10000 2.06 270 09:51 25.02.2022
2921 Clouds 22 1018 78 10000 3.09 310 08:41 25.02.2022
2922 Clouds 20 1019 83 10000 4.12 310 07:35 25.02.2022
2923 Clouds 19 1018 94 10000 1.54 300 05:43 25.02.2022
2924 Clouds 17 1016 100 10000 2.06 300 02:48 25.02.2022
2925 Clouds 17 1015 98 10000 1.83 306 22:48 24.02.2022
2926 Clouds 17 1015 97 10000 1.72 314 21:51 24.02.2022
2927 Clouds 17 1015 97 10000 1.72 314 21:31 24.02.2022
2928 Clouds 17 1015 96 10000 1.68 313 20:47 24.02.2022
2929 Clouds 17 1015 96 10000 1.44 296 19:38 24.02.2022
2930 Clouds 17 1015 96 10000 0.6 302 18:36 24.02.2022
2931 Clouds 17 1015 96 10000 0.64 282 18:18 24.02.2022
2932 Clouds 17 1015 96 10000 0.64 282 17:33 24.02.2022
2933 Clouds 19 1013 91 10000 1.28 303 16:28 24.02.2022
2934 Clouds 19 1013 91 10000 1.28 303 15:44 24.02.2022
2935 Rain 19 1013 87 10000 1.93 313 14:51 24.02.2022
2936 Rain 19 1013 87 10000 1.9 324 14:20 24.02.2022
2937 Rain 19 1013 87 10000 1.9 324 13:39 24.02.2022
2938 Rain 21 1012 80 10000 3.77 326 12:27 24.02.2022
2939 Rain 21 1012 77 10000 3.56 327 10:39 24.02.2022
2940 Drizzle 18 1019 100 7000 5.14 320 08:56 24.02.2022
2941 Drizzle 19 1019 100 5000 4.63 320 08:38 24.02.2022
2942 Clouds 19 1017 94 9000 2.57 360 05:52 24.02.2022
2943 Clouds 18 1015 94 10000 1.54 330 00:32 24.02.2022
2944 Clouds 18 1016 94 10000 2.57 330 22:38 23.02.2022
2945 Clouds 18 1017 94 10000 3.6 330 21:34 23.02.2022
2946 Clouds 18 1017 100 10000 3.09 330 20:30 23.02.2022
2947 Clouds 18 1017 94 10000 4.12 340 19:44 23.02.2022
2948 Clouds 19 1016 94 10000 3.09 340 18:32 23.02.2022
2949 Drizzle 18 1015 100 10000 2.57 320 17:21 23.02.2022
2950 Rain 22 1012 83 10000 5.14 330 14:34 23.02.2022
2951 Rain 23 1011 73 10000 8.23 330 12:37 23.02.2022
2952 Rain 25 1011 65 10000 7.72 330 11:23 23.02.2022
2953 Rain 25 1011 65 10000 5.66 320 10:31 23.02.2022
2954 Clouds 23 1012 69 10000 6.17 320 08:58 23.02.2022
2955 Clouds 21 1011 78 10000 6.17 310 07:57 23.02.2022
2956 Clouds 17 1008 100 10000 4.12 320 03:48 23.02.2022
2957 Clouds 18 1007 94 10000 4.12 310 00:26 23.02.2022
2958 Drizzle 18 1008 94 10000 6.69 310 23:35 22.02.2022
2959 Clouds 18 1008 100 10000 5.66 310 22:31 22.02.2022
2960 Clouds 18 1008 100 10000 7.2 310 21:49 22.02.2022
2961 Drizzle 18 1008 100 10000 5.14 310 21:28 22.02.2022
2962 Drizzle 18 1008 100 10000 4.12 290 20:51 22.02.2022
2963 Drizzle 18 1008 100 10000 5.14 300 20:29 22.02.2022
2964 Clouds 19 1008 88 10000 5.66 320 19:36 22.02.2022
2965 Clouds 19 1008 88 10000 5.66 320 19:18 22.02.2022
2966 Clouds 19 1006 94 10000 4.63 290 17:40 22.02.2022
2967 Clouds 19 1006 94 10000 4.63 290 17:19 22.02.2022
2968 Clouds 20 1005 88 10000 5.66 300 16:36 22.02.2022
2969 Clouds 20 1004 88 10000 7.72 300 15:38 22.02.2022
2970 Clouds 20 1004 88 10000 8.23 300 14:43 22.02.2022
2971 Drizzle 20 1005 88 6000 5.66 290 11:54 22.02.2022
2972 Rain 20 1005 83 10000 6.17 280 10:28 22.02.2022
2973 Rain 20 1006 73 10000 7.72 280 07:48 22.02.2022
2974 Rain 20 1006 73 10000 7.72 280 07:25 22.02.2022
2975 Rain 17 1006 82 10000 4.63 280 02:52 22.02.2022
2976 Rain 19 1008 68 10000 6.17 210 00:48 22.02.2022
2977 Clouds 19 1010 73 10000 5.14 200 22:38 21.02.2022
2978 Clouds 19 1011 73 10000 6.17 190 21:30 21.02.2022
2979 Clouds 19 1011 77 10000 6.17 200 20:29 21.02.2022
2980 Clouds 19 1010 83 10000 5.14 190 18:41 21.02.2022
2981 Drizzle 19 1010 88 10000 7.2 170 16:48 21.02.2022
2982 Rain 24 1009 61 10000 6.69 200 14:24 21.02.2022
2983 Rain 25 1009 57 10000 7.2 180 13:59 21.02.2022
2984 Thunderstorm 25 1010 61 10000 7.2 200 12:58 21.02.2022
2985 Thunderstorm 25 1010 61 10000 6.69 170 12:22 21.02.2022
2986 Clouds 25 1011 61 10000 5.66 180 10:45 21.02.2022
2987 Rain 23 1013 64 10000 7.2 200 08:44 21.02.2022
2988 Clouds 16 1014 82 10000 1.54 130 02:31 21.02.2022
2989 Clouds 16 1015 82 10000 2.57 180 22:45 20.02.2022
2990 Clouds 17 1015 77 10000 4.12 180 22:18 20.02.2022
2991 Clouds 17 1016 82 10000 3.6 170 21:41 20.02.2022
2992 Clouds 18 1016 77 10000 3.6 170 20:51 20.02.2022
2993 Clouds 18 1016 82 10000 2.57 150 20:21 20.02.2022
2994 Clouds 19 1016 77 10000 3.6 140 19:21 20.02.2022
2995 Clouds 19 1016 77 10000 3.6 150 18:42 20.02.2022
2996 Clouds 19 1015 77 10000 4.12 120 18:23 20.02.2022
2997 Clouds 21 1014 68 10000 6.69 120 17:30 20.02.2022
2998 Clouds 27 1012 36 10000 2.57 150 15:30 20.02.2022
2999 Clouds 28 1013 30 10000 2.57 190 14:33 20.02.2022
3000 Clouds 28 1013 26 10000 3.6 200 13:22 20.02.2022
3001 Clouds 28 1013 26 10000 3.6 200 13:22 20.02.2022
3002 Clouds 28 1014 26 10000 4.63 160 11:56 20.02.2022
3003 Clouds 26 1015 36 10000 4.12 190 10:21 20.02.2022
3004 Clouds 25 1016 38 10000 4.63 190 09:52 20.02.2022
3005 Clouds 19 1017 64 10000 5.14 180 06:44 20.02.2022
3006 Clouds 16 1015 88 10000 2.06 140 00:33 20.02.2022
3007 Clouds 16 1016 94 10000 3.09 120 23:39 19.02.2022
3008 Clouds 16 1017 88 10000 2.57 130 22:25 19.02.2022
3009 Clouds 16 1017 88 10000 2.57 140 21:52 19.02.2022
3010 Clouds 17 1018 88 10000 2.57 140 20:45 19.02.2022
3011 Clouds 18 1017 82 10000 2.06 150 19:36 19.02.2022
3012 Clouds 18 1016 82 10000 2.57 150 18:41 19.02.2022
3013 Clouds 19 1016 77 10000 4.12 120 17:59 19.02.2022
3014 Clouds 19 1016 77 10000 4.12 100 17:32 19.02.2022
3015 Clouds 23 1014 57 10000 5.14 130 15:59 19.02.2022
3016 Clouds 25 1014 47 10000 5.14 120 14:55 19.02.2022
3017 Clouds 26 1014 44 10000 5.66 130 13:58 19.02.2022
3018 Clouds 26 1015 47 10000 4.63 140 11:58 19.02.2022
3019 Clouds 25 1015 50 10000 5.14 170 11:29 19.02.2022
3020 Clouds 22 1017 64 10000 3.6 140 09:21 19.02.2022
3021 Clouds 19 1017 73 10000 5.14 160 06:49 19.02.2022
3022 Clouds 14 1016 94 10000 2.06 110 00:50 19.02.2022
3023 Clouds 16 1017 88 10000 3.6 140 22:41 18.02.2022
3024 Clouds 17 1018 82 10000 3.6 130 21:27 18.02.2022
3025 Clouds 18 1018 82 10000 3.09 140 20:25 18.02.2022
3026 Clouds 18 1017 82 10000 3.6 150 19:51 18.02.2022
3027 Clouds 18 1015 77 10000 4.12 150 18:38 18.02.2022
3028 Clouds 18 1015 77 10000 4.12 150 18:18 18.02.2022
3029 Clouds 19 1015 73 10000 5.14 140 17:18 18.02.2022
3030 Clouds 25 1013 53 10000 6.17 110 14:31 18.02.2022
3031 Clouds 25 1014 53 10000 6.17 120 13:47 18.02.2022
3032 Clouds 26 1014 54 10000 8.23 120 12:50 18.02.2022
3033 Clouds 25 1014 50 10000 6.69 150 11:57 18.02.2022
3034 Clouds 25 1015 53 10000 7.2 110 10:45 18.02.2022
3035 Clouds 24 1016 53 10000 7.2 110 08:47 18.02.2022
3036 Clouds 21 1016 68 10000 4.63 140 06:48 18.02.2022
3037 Clouds 17 1016 88 10000 2.06 170 05:34 18.02.2022
3038 Clouds 18 1017 82 10000 2.06 130 22:39 17.02.2022
3039 Clouds 18 1018 82 10000 3.09 130 21:41 17.02.2022
3040 Clouds 18 1018 88 10000 5.66 110 20:44 17.02.2022
3041 Clouds 19 1017 88 10000 4.63 110 19:56 17.02.2022
3042 Clouds 19 1016 88 10000 4.12 90 19:26 17.02.2022
3043 Clouds 20 1016 78 10000 5.66 100 18:29 17.02.2022
3044 Clouds 20 1016 78 10000 5.66 110 17:42 17.02.2022
3045 Rain 24 1014 53 10000 4.63 130 15:58 17.02.2022
3046 Rain 25 1014 50 10000 4.12 140 14:30 17.02.2022
3047 Clouds 24 1015 53 10000 4.12 140 13:47 17.02.2022
3048 Clouds 25 1016 57 10000 6.69 120 11:52 17.02.2022
3049 Clouds 24 1017 65 10000 5.66 120 10:20 17.02.2022
3050 Clouds 21 1017 68 10000 6.69 140 07:45 17.02.2022
3051 Clouds 17 1017 88 10000 4.63 140 23:50 16.02.2022
3052 Clouds 17 1018 94 10000 4.12 140 22:36 16.02.2022
3053 Drizzle 17 1019 100 10000 6.17 120 20:22 16.02.2022
3054 Clouds 19 1017 94 10000 5.14 160 18:56 16.02.2022
3055 Clouds 19 1017 94 10000 4.12 150 18:27 16.02.2022
3056 Drizzle 19 1016 94 10000 5.14 150 17:22 16.02.2022
3057 Clouds 22 1015 73 10000 5.14 160 15:22 16.02.2022
3058 Clouds 22 1016 73 10000 5.66 150 13:40 16.02.2022
3059 Clouds 23 1015 69 10000 10.29 110 12:24 16.02.2022
3060 Clouds 24 1016 69 10000 7.72 120 11:45 16.02.2022
3061 Drizzle 20 1018 88 8000 7.2 130 10:34 16.02.2022
3062 Clouds 22 1018 78 10000 8.23 110 09:38 16.02.2022
3063 Clouds 21 1017 78 10000 7.72 120 06:43 16.02.2022
3064 Rain 17 1017 100 8000 3.09 170 00:37 16.02.2022
3065 Rain 18 1017 100 10000 3.09 140 22:34 15.02.2022
3066 Rain 18 1018 100 10000 4.12 150 21:50 15.02.2022
3067 Drizzle 19 1018 88 10000 4.63 160 21:29 15.02.2022
3068 Drizzle 19 1017 88 10000 5.66 150 20:57 15.02.2022
3069 Drizzle 19 1018 88 10000 4.12 160 20:22 15.02.2022
3070 Drizzle 19 1017 88 10000 4.63 150 19:43 15.02.2022
3071 Rain 19 1017 88 10000 3.09 150 18:25 15.02.2022
3072 Rain 19 1017 88 10000 3.09 170 17:53 15.02.2022
3073 Rain 19 1016 88 10000 3.09 170 17:28 15.02.2022
3074 Drizzle 19 1016 94 10000 3.6 150 15:36 15.02.2022
3075 Rain 22 1016 68 8000 9.26 180 13:49 15.02.2022
3076 Rain 23 1016 64 10000 4.63 120 13:25 15.02.2022
3077 Rain 24 1016 61 10000 6.17 150 11:41 15.02.2022
3078 Clouds 26 1017 50 10000 6.69 130 10:19 15.02.2022
3079 Clouds 22 1018 60 10000 5.66 160 07:41 15.02.2022
3080 Clouds 19 1018 77 10000 5.14 130 06:36 15.02.2022
3081 Clouds 18 1017 88 10000 2.06 180 23:35 14.02.2022
3082 Clouds 19 1018 83 10000 3.09 140 21:56 14.02.2022
3083 Clouds 19 1019 83 10000 4.63 150 20:52 14.02.2022
3084 Clouds 20 1017 73 10000 3.09 130 19:46 14.02.2022
3085 Clouds 19 1017 83 10000 2.57 100 19:28 14.02.2022
3086 Rain 20 1016 78 10000 3.09 140 18:23 14.02.2022
3087 Rain 18 1013 93 10000 3.3 102 17:27 14.02.2022
3088 Rain 22 1015 68 10000 4.63 140 16:27 14.02.2022
3089 Rain 23 1014 69 10000 5.14 150 14:43 14.02.2022
3090 Rain 27 1015 51 10000 4.63 120 13:34 14.02.2022
3091 Rain 27 1015 54 10000 5.14 130 12:58 14.02.2022
3092 Rain 26 1015 54 10000 5.66 110 11:56 14.02.2022
3093 Rain 27 1016 51 10000 6.17 110 11:37 14.02.2022
3094 Clouds 24 1017 61 10000 3.6 120 09:25 14.02.2022
3095 Clouds 21 1017 68 10000 4.63 170 07:34 14.02.2022
3096 Clouds 20 1014 72 10000 3.29 114 06:54 14.02.2022
3097 Clouds 18 1016 88 10000 2.57 120 22:44 13.02.2022
3098 Rain 18 1017 94 10000 2.57 140 22:26 13.02.2022
3099 Rain 18 1016 100 10000 1.03 0 21:48 13.02.2022
3100 Rain 18 1017 100 10000 2.06 130 20:42 13.02.2022
3101 Rain 18 1017 100 10000 0.51 0 19:51 13.02.2022
3102 Rain 18 1016 100 10000 2.06 160 18:57 13.02.2022
3103 Rain 18 1016 100 10000 2.06 160 18:38 13.02.2022
3104 Rain 19 1015 94 10000 1.54 60 16:40 13.02.2022
3105 Thunderstorm 19 1014 94 8000 1.03 0 15:50 13.02.2022
3106 Thunderstorm 19 1014 94 7000 3.09 240 14:38 13.02.2022
3107 Rain 27 1013 44 10000 2.06 0 12:52 13.02.2022
3108 Rain 28 1013 42 10000 3.6 100 12:33 13.02.2022
3109 Clouds 27 1009 44 10000 4.12 70 10:38 13.02.2022
3110 Clouds 26 1015 47 10000 3.6 150 09:49 13.02.2022
3111 Clouds 24 1016 53 10000 2.57 200 07:54 13.02.2022
3112 Clouds 14 1016 100 10000 1.03 0 01:24 13.02.2022
3113 Clouds 15 1016 94 10000 1.03 0 00:21 13.02.2022
3114 Clouds 16 1017 94 10000 1.54 50 22:34 12.02.2022
3115 Clouds 17 1017 88 10000 3.6 140 21:40 12.02.2022
3116 Clouds 18 1017 82 10000 3.09 150 20:55 12.02.2022
3117 Clouds 18 1017 82 10000 3.6 140 19:56 12.02.2022
3118 Clouds 19 1017 83 10000 4.12 140 18:54 12.02.2022
3119 Clouds 19 1017 83 10000 4.12 140 18:54 12.02.2022
3120 Clouds 20 1017 78 10000 5.14 100 18:35 12.02.2022
3121 Clouds 21 1016 68 10000 5.14 100 17:38 12.02.2022
3122 Clouds 21 1015 68 10000 5.14 110 16:44 12.02.2022
3123 Clouds 24 1014 47 10000 5.14 140 15:52 12.02.2022
3124 Clouds 25 1014 44 10000 3.6 140 15:20 12.02.2022
3125 Clouds 25 1014 50 10000 6.69 120 14:25 12.02.2022
3126 Clouds 26 1015 50 10000 5.66 120 11:26 12.02.2022
3127 Clouds 26 1016 50 10000 4.63 110 10:29 12.02.2022
3128 Clouds 25 1017 50 10000 3.6 0 09:36 12.02.2022
3129 Clouds 24 1012 43 10000 2.81 147 08:46 12.02.2022
3130 Clouds 21 1018 64 10000 4.12 170 06:52 12.02.2022
3131 Clouds 17 1017 88 10000 2.48 147 04:44 12.02.2022
3132 Clouds 16 1016 94 10000 2.57 140 02:19 12.02.2022
3133 Clouds 18 1017 82 10000 2.57 150 23:20 11.02.2022
3134 Clouds 18 1017 82 10000 2.57 150 22:20 11.02.2022
3135 Clouds 19 1018 83 10000 4.12 130 21:18 11.02.2022
3136 Clouds 19 1018 83 10000 4.12 100 20:26 11.02.2022
3137 Clouds 20 1018 83 10000 4.63 100 19:28 11.02.2022
3138 Rain 21 1016 78 10000 6.17 110 18:29 11.02.2022
3139 Rain 22 1015 64 10000 5.66 110 17:26 11.02.2022
3140 Rain 24 1014 53 10000 5.14 120 16:37 11.02.2022
3141 Clouds 25 1014 50 10000 4.12 140 15:18 11.02.2022
3142 Clouds 27 1014 44 10000 3.6 160 14:37 11.02.2022
3143 Clouds 27 1014 44 10000 3.6 160 14:19 11.02.2022
3144 Clouds 27 1014 44 10000 3.6 110 13:40 11.02.2022
3145 Clouds 27 1015 44 10000 2.57 0 12:45 11.02.2022
3146 Clouds 26 1015 54 10000 3.09 160 10:49 11.02.2022
3147 Clouds 25 1016 53 10000 4.12 140 09:31 11.02.2022
3148 Clouds 24 1016 57 10000 3.6 140 08:31 11.02.2022
3149 Clouds 22 1017 64 10000 4.12 160 07:40 11.02.2022
3150 Clouds 18 1016 88 10000 4.12 110 02:40 11.02.2022
3151 Clouds 19 1015 77 10000 4.63 110 02:20 11.02.2022
3152 Clouds 19 1015 88 10000 2.57 100 23:41 10.02.2022
3153 Clouds 20 1017 83 10000 3.09 100 21:55 10.02.2022
3154 Clouds 20 1016 83 10000 3.09 110 21:35 10.02.2022
3155 Clouds 20 1016 83 10000 4.12 120 20:48 10.02.2022
3156 Clouds 20 1016 83 10000 4.63 120 19:49 10.02.2022
3157 Rain 20 1016 88 10000 5.14 100 19:20 10.02.2022
3158 Rain 22 1015 78 10000 5.66 110 17:43 10.02.2022
3159 Rain 23 1015 69 10000 5.66 100 17:20 10.02.2022
3160 Rain 25 1013 53 10000 4.12 90 16:23 10.02.2022
3161 Rain 27 1013 47 10000 4.12 120 15:34 10.02.2022
3162 Rain 27 1013 47 10000 3.6 160 14:49 10.02.2022
3163 Rain 28 1013 48 10000 3.09 180 14:30 10.02.2022
3164 Clouds 28 1013 48 10000 1.54 0 13:33 10.02.2022
3165 Clouds 27 1014 47 10000 1.54 0 12:51 10.02.2022
3166 Clouds 28 1014 48 10000 1.54 0 11:44 10.02.2022
3167 Clouds 27 1014 47 10000 2.57 50 11:25 10.02.2022
3168 Clouds 26 1015 54 10000 2.57 90 10:19 10.02.2022
3169 Clouds 25 1016 61 10000 3.09 110 09:25 10.02.2022
3170 Clouds 22 1016 73 10000 4.12 120 07:40 10.02.2022
3171 Clouds 19 1016 94 10000 3.6 110 05:52 10.02.2022
3172 Clouds 17 1016 100 10000 1.03 0 01:57 10.02.2022
3173 Clouds 18 1016 94 10000 0 0 00:50 10.02.2022
3174 Clouds 18 1016 94 10000 0 0 00:50 10.02.2022
3175 Clouds 18 1016 94 10000 2.57 50 00:29 10.02.2022
3176 Clouds 18 1017 94 10000 2.06 100 23:26 09.02.2022
3177 Clouds 19 1016 88 10000 3.09 80 22:37 09.02.2022
3178 Rain 19 1017 94 10000 3.09 60 21:52 09.02.2022
3179 Thunderstorm 19 1017 94 10000 3.09 90 21:30 09.02.2022
3180 Thunderstorm 20 1017 88 10000 4.63 90 20:51 09.02.2022
3181 Thunderstorm 20 1017 88 10000 4.63 90 20:31 09.02.2022
3182 Thunderstorm 20 1017 94 10000 4.63 90 19:56 09.02.2022
3183 Thunderstorm 20 1016 94 10000 4.12 100 19:32 09.02.2022
3184 Thunderstorm 19 1015 94 7000 5.66 100 17:38 09.02.2022
3185 Thunderstorm 19 1015 94 7000 2.06 170 16:53 09.02.2022
3186 Thunderstorm 24 1014 69 8000 5.14 70 15:52 09.02.2022
3187 Rain 26 1012 61 10000 2.06 70 14:42 09.02.2022
3188 Thunderstorm 23 1014 69 6000 10.29 100 12:28 09.02.2022
3189 Rain 27 1015 54 10000 2.06 190 10:55 09.02.2022
3190 Rain 27 1015 54 10000 2.06 190 10:55 09.02.2022
3191 Rain 28 1015 51 10000 2.57 190 10:30 09.02.2022
3192 Rain 26 1016 57 10000 2.06 240 09:40 09.02.2022
3193 Rain 26 1016 57 10000 2.06 240 09:19 09.02.2022
3194 Clouds 23 1016 73 10000 0.51 0 07:55 09.02.2022
3195 Clouds 20 1016 88 10000 1.03 0 05:30 09.02.2022
3196 Clouds 19 1015 94 10000 3.09 320 03:50 09.02.2022
3197 Clouds 19 1015 94 10000 2.57 290 00:44 09.02.2022
3198 Clouds 19 1015 94 10000 2.06 350 23:32 08.02.2022
3199 Clouds 19 1015 94 10000 2.06 350 23:32 08.02.2022
3200 Clouds 19 1015 94 10000 2.06 350 23:32 08.02.2022
3201 Clouds 19 1015 94 10000 2.06 350 23:32 08.02.2022
3202 Clouds 19 1016 100 10000 2.06 310 22:46 08.02.2022
3203 Rain 19 1016 94 10000 2.06 300 22:21 08.02.2022
3204 Rain 20 1016 88 10000 2.06 290 21:42 08.02.2022
3205 Rain 20 1017 88 10000 1.54 360 21:21 08.02.2022
3206 Rain 20 1017 88 10000 2.06 340 20:43 08.02.2022
3207 Rain 21 1017 83 10000 2.57 340 19:46 08.02.2022
3208 Clouds 22 1016 73 10000 2.06 330 18:38 08.02.2022
3209 Clouds 23 1015 69 10000 2.06 340 17:40 08.02.2022
3210 Clouds 23 1014 64 10000 3.09 290 16:30 08.02.2022
3211 Rain 25 1014 57 10000 3.6 290 15:30 08.02.2022
3212 Rain 25 1014 57 10000 3.6 290 15:30 08.02.2022
3213 Rain 28 1014 51 10000 3.09 270 14:31 08.02.2022
3214 Clouds 27 1014 51 10000 3.09 280 13:20 08.02.2022
3215 Clouds 26 1015 57 10000 3.09 310 11:33 08.02.2022
3216 Clouds 25 1016 57 10000 3.6 290 10:23 08.02.2022
3217 Clouds 25 1016 57 10000 3.6 290 10:23 08.02.2022
3218 Clouds 26 1016 57 10000 3.6 310 09:44 08.02.2022
3219 Clouds 23 1017 60 10000 2.57 0 07:46 08.02.2022
3220 Clouds 18 1017 88 10000 1.54 320 05:40 08.02.2022
3221 Clouds 17 1016 100 10000 1.54 320 04:39 08.02.2022
3222 Clouds 17 1016 100 10000 1.54 320 04:21 08.02.2022
3223 Clouds 17 1016 100 10000 1.03 340 03:36 08.02.2022
3224 Clouds 17 1016 100 10000 1.03 340 03:18 08.02.2022
3225 Clouds 16 1016 100 10000 1.03 300 02:58 08.02.2022
3226 Clouds 17 1016 94 10000 1.03 340 02:36 08.02.2022
3227 Clouds 17 1016 94 10000 1.03 340 02:18 08.02.2022
3228 Clouds 17 1016 94 10000 1.03 350 01:43 08.02.2022
3229 Clouds 17 1016 100 10000 1.03 0 01:24 08.02.2022
3230 Clouds 17 1016 94 10000 1.03 0 00:49 08.02.2022
3231 Clouds 17 1016 94 10000 1.03 0 23:54 07.02.2022
3232 Clouds 17 1017 94 10000 1.03 330 23:36 07.02.2022
3233 Clouds 17 1017 94 10000 1.03 330 23:18 07.02.2022
3234 Clouds 18 1018 88 10000 2.57 340 22:19 07.02.2022
3235 Clouds 18 1018 88 10000 1.54 340 21:52 07.02.2022
3236 Clouds 18 1018 88 10000 2.06 340 21:29 07.02.2022
3237 Clouds 18 1018 88 10000 2.06 340 21:29 07.02.2022
3238 Clouds 18 1018 88 10000 2.06 330 20:56 07.02.2022
3239 Clouds 18 1018 88 10000 2.06 340 20:38 07.02.2022
3240 Clouds 18 1018 88 10000 2.06 280 19:47 07.02.2022
3241 Clouds 19 1018 83 10000 2.57 310 19:20 07.02.2022
3242 Clouds 21 1016 73 10000 2.57 330 17:39 07.02.2022
3243 Clouds 22 1015 68 10000 3.09 310 16:52 07.02.2022
3244 Clouds 25 1015 53 10000 4.63 340 15:49 07.02.2022
3245 Clouds 26 1014 50 10000 4.63 320 14:41 07.02.2022
3246 Clouds 26 1015 50 10000 5.66 310 13:27 07.02.2022
3247 Clouds 25 1015 53 10000 5.14 300 12:37 07.02.2022
3248 Clouds 25 1015 57 10000 4.63 300 11:52 07.02.2022
3249 Clouds 26 1016 47 10000 5.66 330 11:25 07.02.2022
3250 Clouds 26 1016 47 10000 6.69 310 10:43 07.02.2022
3251 Clouds 25 1016 47 10000 5.66 320 10:24 07.02.2022
3252 Clouds 25 1016 53 10000 5.14 310 09:52 07.02.2022
3253 Clouds 24 1017 57 10000 5.14 320 09:18 07.02.2022
3254 Clouds 21 1017 73 10000 3.09 330 07:58 07.02.2022
3255 Clouds 20 1016 78 10000 4.63 20 06:35 07.02.2022
3256 Drizzle 19 1015 83 10000 2.57 20 05:18 07.02.2022
3257 Clouds 18 1014 88 10000 3.6 330 02:38 07.02.2022
3258 Clouds 18 1014 94 10000 3.6 360 00:24 07.02.2022
3259 Clouds 18 1014 94 10000 3.6 10 23:33 06.02.2022
3260 Clouds 18 1014 94 10000 2.57 20 22:45 06.02.2022
3261 Clouds 19 1014 94 10000 2.57 10 21:47 06.02.2022
3262 Clouds 19 1015 94 10000 2.06 30 21:21 06.02.2022
3263 Clouds 18 1015 100 10000 2.06 20 20:48 06.02.2022
3264 Clouds 19 1015 88 10000 3.6 10 20:24 06.02.2022
3265 Clouds 19 1014 94 10000 2.57 20 19:22 06.02.2022
3266 Clouds 19 1014 88 10000 3.09 30 18:33 06.02.2022
3267 Drizzle 19 1013 88 9000 4.63 340 17:38 06.02.2022
3268 Rain 19 1012 94 9000 2.06 310 16:52 06.02.2022
3269 Drizzle 19 1011 94 9000 1.03 280 16:20 06.02.2022
3270 Drizzle 19 1011 100 9000 1.54 240 15:47 06.02.2022
3271 Thunderstorm 19 1011 94 8000 2.57 270 15:24 06.02.2022
3272 Rain 19 1011 88 4000 8.75 280 14:19 06.02.2022
3273 Rain 25 1010 57 10000 7.72 330 13:21 06.02.2022
3274 Rain 25 1010 57 10000 6.69 340 12:27 06.02.2022
3275 Clouds 25 1010 57 10000 8.75 330 10:33 06.02.2022
3276 Clouds 23 1011 64 10000 8.75 340 09:43 06.02.2022
3277 Clouds 22 1011 68 10000 7.2 340 08:41 06.02.2022
3278 Rain 19 1009 83 10000 7.2 340 06:34 06.02.2022
3279 Clouds 18 1009 88 10000 6.17 340 05:28 06.02.2022
3280 Drizzle 18 1006 88 10000 6.69 340 02:25 06.02.2022
3281 Rain 17 1005 100 8000 8.75 320 00:33 06.02.2022
3282 Drizzle 17 1004 100 10000 9.26 320 23:39 05.02.2022
3283 Clouds 18 1004 88 10000 9.26 310 21:47 05.02.2022
3284 Clouds 18 1005 88 10000 7.72 310 20:41 05.02.2022
3285 Drizzle 18 1004 94 10000 8.23 310 20:20 05.02.2022
3286 Clouds 19 1004 83 10000 9.26 320 19:42 05.02.2022
3287 Clouds 19 1004 83 10000 10.29 310 18:30 05.02.2022
3288 Clouds 19 1004 83 10000 9.26 300 17:35 05.02.2022
3289 Clouds 21 1003 68 10000 5.66 270 15:51 05.02.2022
3290 Drizzle 22 1003 60 10000 7.2 270 15:29 05.02.2022
3291 Rain 22 1004 68 10000 6.69 230 13:25 05.02.2022
3292 Rain 22 1004 68 10000 6.69 230 13:25 05.02.2022
3293 Rain 21 1005 78 10000 6.17 240 12:42 05.02.2022
3294 Rain 21 1006 83 10000 5.66 260 11:29 05.02.2022
3295 Drizzle 21 1006 83 10000 5.66 260 10:43 05.02.2022
3296 Drizzle 21 1007 78 10000 7.72 280 09:49 05.02.2022
3297 Rain 21 1008 78 10000 6.69 270 08:34 05.02.2022
3298 Clouds 20 1008 83 10000 6.17 270 06:58 05.02.2022
3299 Clouds 20 1009 83 10000 6.17 270 06:27 05.02.2022
3300 Drizzle 18 1009 94 10000 4.63 290 02:31 05.02.2022
3301 Drizzle 18 1010 100 10000 4.12 290 01:18 05.02.2022
3302 Clouds 18 1010 100 10000 4.12 300 00:36 05.02.2022
3303 Clouds 19 1011 94 10000 3.6 290 23:33 04.02.2022
3304 Clouds 19 1011 83 10000 2.06 260 22:37 04.02.2022
3305 Rain 20 1012 73 10000 3.09 200 21:36 04.02.2022
3306 Rain 20 1012 73 10000 3.09 200 21:18 04.02.2022
3307 Clouds 20 1012 73 10000 3.09 210 20:29 04.02.2022
3308 Clouds 21 1012 73 10000 4.63 210 18:30 04.02.2022
3309 Rain 24 1011 57 10000 6.69 210 16:20 04.02.2022
3310 Rain 24 1010 57 10000 6.69 180 15:18 04.02.2022
3311 Rain 25 1010 53 10000 4.12 210 14:26 04.02.2022
3312 Rain 26 1011 54 10000 7.72 190 12:43 04.02.2022
3313 Rain 27 1011 51 10000 7.72 180 11:44 04.02.2022
3314 Clouds 27 1012 51 10000 6.17 200 10:51 04.02.2022
3315 Clouds 25 1013 53 10000 4.63 220 09:31 04.02.2022
3316 Clouds 25 1014 57 10000 6.17 200 07:35 04.02.2022
3317 Clouds 18 1013 77 10000 3.6 180 02:54 04.02.2022
3318 Rain 18 1013 77 10000 3.6 200 02:20 04.02.2022
3319 Rain 20 1015 56 10000 2.57 170 23:32 03.02.2022
3320 Rain 20 1015 56 10000 1.03 0 22:48 03.02.2022
3321 Rain 20 1015 56 10000 1.54 160 21:50 03.02.2022
3322 Rain 20 1015 56 10000 1.54 170 20:43 03.02.2022
3323 Rain 20 1015 56 10000 1.03 0 20:20 03.02.2022
3324 Rain 21 1015 53 10000 1.03 0 19:34 03.02.2022
3325 Rain 21 1015 49 10000 1.54 160 18:44 03.02.2022
3326 Rain 22 1015 46 10000 3.09 130 17:42 03.02.2022
3327 Rain 24 1014 33 10000 3.6 150 16:35 03.02.2022
3328 Rain 17 1011 75 10000 3.18 164 14:52 03.02.2022
3329 Clouds 29 1014 28 10000 2.06 0 13:18 03.02.2022
3330 Clouds 28 1015 34 10000 3.09 200 11:42 03.02.2022
3331 Clouds 23 1017 60 10000 2.57 180 08:38 03.02.2022
3332 Clouds 18 1017 72 10000 2.06 170 05:26 03.02.2022
3333 Clouds 17 1016 82 10000 3.09 160 00:32 03.02.2022
3334 Clouds 17 1017 82 10000 3.09 130 23:44 02.02.2022
3335 Clouds 17 1018 82 10000 2.57 140 22:32 02.02.2022
3336 Clouds 18 1018 82 10000 3.09 130 21:34 02.02.2022
3337 Clouds 18 1018 82 10000 3.6 130 20:53 02.02.2022
3338 Clouds 18 1018 82 10000 5.14 120 19:59 02.02.2022
3339 Clouds 19 1018 77 10000 3.6 130 19:32 02.02.2022
3340 Clouds 20 1017 73 10000 5.14 120 18:50 02.02.2022
3341 Clouds 20 1017 73 10000 5.66 130 18:22 02.02.2022
3342 Clouds 22 1016 60 10000 4.12 140 17:19 02.02.2022
3343 Clouds 22 1016 60 10000 5.14 100 16:42 02.02.2022
3344 Clouds 26 1014 44 10000 4.12 110 13:35 02.02.2022
3345 Clouds 26 1015 44 10000 3.6 130 12:25 02.02.2022
3346 Clouds 26 1016 44 10000 4.63 150 11:34 02.02.2022
3347 Clouds 25 1016 47 10000 4.12 140 10:31 02.02.2022
3348 Clouds 21 1018 60 10000 5.14 180 07:37 02.02.2022
3349 Clouds 16 1017 88 10000 3.6 140 22:52 01.02.2022
3350 Clouds 17 1017 82 10000 3.6 140 21:52 01.02.2022
3351 Clouds 18 1018 82 10000 4.12 130 20:36 01.02.2022
3352 Clouds 19 1017 68 10000 4.63 100 17:50 01.02.2022
3353 Clouds 23 1015 50 10000 4.63 140 16:40 01.02.2022
3354 Clouds 24 1015 38 10000 4.12 150 14:47 01.02.2022
3355 Clouds 24 1016 50 10000 4.63 120 12:45 01.02.2022
3356 Clouds 22 1017 64 10000 7.2 110 11:34 01.02.2022
3357 Clouds 18 1017 82 10000 3.6 140 04:53 01.02.2022
3358 Clouds 18 1016 88 10000 3.6 140 23:42 31.01.2022
3359 Clouds 18 1016 88 10000 3.6 140 23:42 31.01.2022
3360 Clouds 19 1017 83 10000 3.6 120 23:21 31.01.2022
3361 Clouds 18 1018 88 10000 2.57 140 21:42 31.01.2022
3362 Clouds 18 1018 82 10000 2.57 130 21:19 31.01.2022
3363 Clouds 18 1019 82 10000 3.6 140 20:32 31.01.2022
3364 Clouds 18 1018 82 10000 4.12 130 19:45 31.01.2022
3365 Clouds 19 1018 77 10000 5.66 110 18:26 31.01.2022
3366 Clouds 20 1018 73 10000 6.17 120 17:41 31.01.2022
3367 Clouds 23 1016 57 10000 5.14 130 16:43 31.01.2022
3368 Clouds 25 1015 44 10000 5.66 120 15:43 31.01.2022
3369 Clouds 27 1015 34 10000 4.63 100 14:22 31.01.2022
3370 Clouds 27 1016 34 10000 3.6 110 12:39 31.01.2022
3371 Clouds 27 1016 32 10000 3.6 0 11:56 31.01.2022
3372 Clouds 25 1017 41 10000 3.09 180 10:50 31.01.2022
3373 Clouds 25 1017 44 10000 2.57 0 10:30 31.01.2022
3374 Clouds 23 1018 50 10000 2.57 0 09:26 31.01.2022
3375 Clouds 22 1018 53 10000 3.6 130 08:50 31.01.2022
3376 Clouds 22 1019 49 10000 3.6 160 08:20 31.01.2022
3377 Clouds 19 1019 64 10000 4.12 180 06:18 31.01.2022
3378 Clouds 16 1017 82 10000 3.6 150 00:55 31.01.2022
3379 Clouds 17 1018 88 10000 4.63 100 22:55 30.01.2022
3380 Clouds 17 1018 77 10000 4.12 100 22:25 30.01.2022
3381 Clouds 18 1019 82 10000 4.12 120 21:40 30.01.2022
3382 Clouds 19 1019 77 10000 4.63 140 21:19 30.01.2022
3383 Clouds 19 1019 83 10000 3.6 160 20:46 30.01.2022
3384 Clouds 19 1019 83 10000 3.09 150 20:27 30.01.2022
3385 Clouds 20 1018 78 10000 5.14 120 19:45 30.01.2022
3386 Clouds 20 1018 78 10000 4.63 100 18:43 30.01.2022
3387 Clouds 21 1017 68 10000 5.66 100 18:18 30.01.2022
3388 Clouds 22 1017 56 10000 5.14 120 17:22 30.01.2022
3389 Clouds 25 1016 47 10000 5.66 100 16:40 30.01.2022
3390 Clouds 25 1016 47 10000 5.66 100 16:21 30.01.2022
3391 Clouds 26 1015 41 10000 1.03 0 15:50 30.01.2022
3392 Clouds 27 1015 39 10000 1.03 0 15:31 30.01.2022
3393 Clouds 29 1015 35 10000 1.03 0 14:46 30.01.2022
3394 Clouds 28 1016 37 10000 2.57 0 12:47 30.01.2022
3395 Clouds 27 1016 39 10000 2.06 0 11:57 30.01.2022
3396 Clouds 26 1017 47 10000 3.09 170 10:32 30.01.2022
3397 Clouds 25 1018 47 10000 2.57 0 09:50 30.01.2022
3398 Clouds 23 1018 57 10000 1.54 0 08:54 30.01.2022
3399 Clouds 21 1019 68 10000 1.54 0 07:28 30.01.2022
3400 Clouds 17 1018 88 10000 4.12 90 01:56 30.01.2022
3401 Clouds 17 1018 88 10000 4.12 90 01:56 30.01.2022
3402 Clouds 17 1018 88 10000 4.12 90 01:56 30.01.2022
3403 Clouds 18 1018 82 10000 3.09 100 00:23 30.01.2022
3404 Clouds 18 1018 88 10000 4.12 80 23:18 29.01.2022
3405 Clouds 19 1019 88 10000 4.12 90 21:49 29.01.2022
3406 Clouds 20 1019 83 10000 4.63 80 21:24 29.01.2022
3407 Clouds 20 1019 83 10000 3.6 90 20:28 29.01.2022
3408 Clouds 20 1018 83 10000 3.6 100 19:34 29.01.2022
3409 Clouds 21 1018 73 10000 4.12 130 18:52 29.01.2022
3410 Clouds 21 1017 73 10000 4.63 110 18:18 29.01.2022
3411 Clouds 23 1016 57 10000 5.66 100 17:29 29.01.2022
3412 Clouds 28 1015 42 10000 1.54 0 15:57 29.01.2022
3413 Clouds 29 1015 39 10000 2.06 0 14:23 29.01.2022
3414 Clouds 28 1016 42 10000 1.54 0 13:42 29.01.2022
3415 Clouds 28 1016 42 10000 1.03 0 13:23 29.01.2022
3416 Clouds 27 1017 47 10000 3.09 220 11:47 29.01.2022
3417 Clouds 26 1018 50 10000 2.06 0 10:54 29.01.2022
3418 Clouds 23 1019 60 10000 1.03 0 08:42 29.01.2022
3419 Clouds 20 1019 73 10000 2.06 0 06:37 29.01.2022
3420 Clouds 15 1017 94 10000 2.57 100 00:34 29.01.2022
3421 Clouds 16 1017 88 10000 4.12 90 23:44 28.01.2022
3422 Clouds 17 1018 88 10000 3.6 100 22:48 28.01.2022
3423 Clouds 16 1018 100 10000 3.09 80 22:20 28.01.2022
3424 Clouds 17 1018 88 10000 5.66 120 20:42 28.01.2022
3425 Clouds 18 1019 82 10000 5.14 100 20:23 28.01.2022
3426 Clouds 18 1018 82 10000 5.66 100 19:28 28.01.2022
3427 Clouds 19 1018 73 10000 5.66 100 18:38 28.01.2022
3428 Clouds 22 1016 56 10000 5.14 110 16:45 28.01.2022
3429 Clouds 27 1014 39 10000 2.57 130 14:59 28.01.2022
3430 Clouds 27 1014 39 10000 1.54 0 13:34 28.01.2022
3431 Clouds 26 1015 39 10000 2.06 0 12:26 28.01.2022
3432 Clouds 25 1016 47 10000 2.06 0 10:41 28.01.2022
3433 Clouds 23 1017 53 10000 2.57 0 09:48 28.01.2022
3434 Clouds 22 1018 56 10000 3.09 120 07:43 28.01.2022
3435 Clouds 19 1018 68 10000 3.09 130 06:32 28.01.2022
3436 Clouds 14 1017 88 10000 3.09 100 03:52 28.01.2022
3437 Clouds 16 1017 88 10000 3.09 130 02:29 28.01.2022
3438 Clouds 16 1017 88 10000 3.6 130 01:57 28.01.2022
3439 Clouds 16 1017 88 10000 3.6 130 01:57 28.01.2022
3440 Clouds 16 1016 88 10000 3.6 110 01:29 28.01.2022
3441 Clouds 17 1017 88 10000 4.63 110 22:39 27.01.2022
3442 Clouds 17 1018 88 10000 4.63 110 21:41 27.01.2022
3443 Clouds 17 1018 88 10000 4.63 120 20:59 27.01.2022
3444 Clouds 17 1018 88 10000 4.63 110 19:47 27.01.2022
3445 Clouds 19 1017 73 10000 5.66 110 18:22 27.01.2022
3446 Rain 21 1016 60 10000 3.6 80 16:59 27.01.2022
3447 Clouds 25 1016 44 10000 3.09 100 14:23 27.01.2022
3448 Clouds 25 1016 44 10000 3.6 100 12:49 27.01.2022
3449 Clouds 24 1016 50 10000 3.09 0 12:18 27.01.2022
3450 Clouds 22 1018 53 10000 3.6 160 09:49 27.01.2022
3451 Clouds 21 1019 60 10000 3.09 140 08:40 27.01.2022
3452 Clouds 20 1019 60 10000 3.09 150 07:53 27.01.2022
3453 Clouds 13 1018 94 10000 2.57 130 03:34 27.01.2022
3454 Clouds 15 1018 82 10000 2.57 140 00:24 27.01.2022
3455 Clouds 16 1019 82 10000 4.63 140 22:28 26.01.2022
3456 Clouds 16 1019 88 10000 4.63 140 21:44 26.01.2022
3457 Clouds 16 1019 88 10000 2.57 160 20:52 26.01.2022
3458 Clouds 16 1019 88 10000 3.09 140 20:32 26.01.2022
3459 Clouds 17 1019 82 10000 3.09 140 19:49 26.01.2022
3460 Clouds 17 1019 82 10000 3.6 130 18:48 26.01.2022
3461 Clouds 17 1019 82 10000 4.12 120 18:24 26.01.2022
3462 Clouds 18 1019 82 10000 5.66 110 17:33 26.01.2022
3463 Clouds 19 1018 77 10000 5.66 110 16:49 26.01.2022
3464 Rain 20 1018 73 10000 4.63 120 16:22 26.01.2022
3465 Clouds 22 1017 68 10000 7.2 100 14:40 26.01.2022
3466 Clouds 24 1018 53 10000 2.57 120 12:20 26.01.2022
3467 Clouds 22 1019 60 10000 3.6 130 10:52 26.01.2022
3468 Clouds 22 1020 64 10000 3.6 140 09:52 26.01.2022
3469 Clouds 19 1020 73 10000 4.63 180 08:49 26.01.2022
3470 Clouds 17 1021 82 10000 3.09 170 06:36 26.01.2022
3471 Clouds 16 1019 88 10000 2.06 130 00:24 26.01.2022
3472 Clouds 16 1019 88 10000 3.09 160 23:41 25.01.2022
3473 Clouds 16 1020 94 10000 3.09 160 22:48 25.01.2022
3474 Clouds 16 1020 94 10000 3.09 160 22:18 25.01.2022
3475 Clouds 16 1020 94 10000 2.57 150 21:27 25.01.2022
3476 Clouds 16 1021 94 10000 2.57 130 20:45 25.01.2022
3477 Clouds 16 1021 94 10000 3.6 130 19:54 25.01.2022
3478 Clouds 16 1020 94 10000 2.57 130 19:23 25.01.2022
3479 Clouds 17 1020 88 10000 3.6 130 17:56 25.01.2022
3480 Clouds 17 1020 94 10000 2.06 150 17:18 25.01.2022
3481 Clouds 18 1019 88 10000 2.57 160 16:34 25.01.2022
3482 Rain 19 1018 77 10000 3.6 140 15:39 25.01.2022
3483 Rain 19 1018 77 10000 3.6 140 15:18 25.01.2022
3484 Rain 19 1018 83 10000 3.09 180 14:43 25.01.2022
3485 Rain 18 1019 94 10000 3.09 200 11:52 25.01.2022
3486 Drizzle 19 1021 94 10000 0.51 0 09:24 25.01.2022
3487 Drizzle 17 1021 100 3000 5.14 90 07:52 25.01.2022
3488 Rain 20 1021 78 10000 2.06 170 06:54 25.01.2022
3489 Clouds 18 1019 88 10000 2.57 130 05:23 25.01.2022
3490 Clouds 18 1018 94 10000 4.12 100 00:28 25.01.2022
3491 Clouds 18 1019 94 10000 2.06 160 23:36 24.01.2022
3492 Clouds 18 1019 94 10000 2.06 160 23:18 24.01.2022
3493 Clouds 18 1019 94 10000 2.06 160 23:18 24.01.2022
3494 Clouds 17 1019 100 10000 2.06 170 22:42 24.01.2022
3495 Clouds 18 1019 94 10000 2.06 150 21:57 24.01.2022
3496 Clouds 18 1019 94 10000 2.06 110 21:32 24.01.2022
3497 Clouds 18 1019 94 10000 1.03 0 20:34 24.01.2022
3498 Clouds 18 1020 94 10000 1.54 110 19:59 24.01.2022
3499 Clouds 18 1019 88 10000 3.6 90 19:37 24.01.2022
3500 Clouds 18 1019 88 10000 4.63 110 18:37 24.01.2022
3501 Clouds 18 1018 82 10000 6.69 110 17:24 24.01.2022
3502 Clouds 18 1018 88 10000 4.63 130 16:56 24.01.2022
3503 Clouds 18 1018 94 10000 2.57 130 16:29 24.01.2022
3504 Rain 18 1016 88 10000 6.17 120 14:49 24.01.2022
3505 Rain 19 1017 88 5000 6.69 100 13:38 24.01.2022
3506 Drizzle 18 1017 100 8000 6.69 130 12:32 24.01.2022
3507 Rain 21 1017 78 10000 7.2 120 11:20 24.01.2022
3508 Clouds 21 1017 83 10000 9.77 110 09:49 24.01.2022
3509 Clouds 22 1017 73 10000 8.23 110 09:20 24.01.2022
3510 Clouds 21 1018 83 10000 8.75 100 07:20 24.01.2022
3511 Clouds 21 1018 83 10000 8.75 100 07:20 24.01.2022
3512 Clouds 21 1018 83 10000 8.75 100 07:20 24.01.2022
3513 Rain 17 1012 94 10000 5.98 102 01:32 24.01.2022
3514 Drizzle 18 1015 88 6000 5.66 120 00:45 24.01.2022
3515 Drizzle 18 1015 100 6000 4.63 120 00:26 24.01.2022
3516 Rain 18 1016 100 10000 5.14 120 22:43 23.01.2022
3517 Rain 18 1016 94 10000 6.17 110 21:50 23.01.2022
3518 Drizzle 18 1016 100 8000 4.63 120 21:26 23.01.2022
3519 Rain 19 1016 94 10000 3.6 120 20:48 23.01.2022
3520 Rain 19 1016 94 10000 6.17 110 19:55 23.01.2022
3521 Clouds 19 1016 88 10000 7.72 100 18:52 23.01.2022
3522 Clouds 19 1015 83 10000 9.26 110 17:52 23.01.2022
3523 Rain 20 1015 78 10000 11.32 110 16:48 23.01.2022
3524 Rain 21 1013 78 10000 8.23 100 15:18 23.01.2022
3525 Rain 21 1013 78 10000 9.77 100 14:32 23.01.2022
3526 Drizzle 21 1013 88 10000 9.26 110 13:27 23.01.2022
3527 Drizzle 22 1014 78 10000 9.77 100 12:36 23.01.2022
3528 Drizzle 22 1014 78 10000 9.77 100 12:18 23.01.2022
3529 Drizzle 20 1014 94 8000 7.72 100 11:24 23.01.2022
3530 Drizzle 21 1014 88 6000 9.26 110 10:43 23.01.2022
3531 Drizzle 20 1014 100 9000 6.69 110 10:19 23.01.2022
3532 Drizzle 23 1014 73 8000 8.75 120 09:19 23.01.2022
3533 Rain 20 1013 88 10000 8.23 120 05:58 23.01.2022
3534 Drizzle 17 1012 100 8000 1.03 0 01:54 23.01.2022
3535 Drizzle 18 1013 100 7000 1.54 0 01:34 23.01.2022
3536 Rain 18 1013 100 9000 3.09 100 00:31 23.01.2022
3537 Drizzle 18 1013 100 6000 3.6 130 23:57 22.01.2022
3538 Drizzle 18 1014 100 10000 2.06 140 22:47 22.01.2022
3539 Rain 18 1014 100 10000 2.06 150 21:38 22.01.2022
3540 Rain 18 1014 100 6000 4.63 150 20:24 22.01.2022
3541 Rain 18 1014 100 8000 2.57 140 19:27 22.01.2022
3542 Drizzle 18 1014 100 10000 3.6 170 18:29 22.01.2022
3543 Drizzle 18 1014 100 10000 4.12 170 17:41 22.01.2022
3544 Drizzle 18 1013 100 10000 3.6 180 16:57 22.01.2022
3545 Drizzle 18 1012 100 10000 5.66 180 15:55 22.01.2022
3546 Drizzle 18 1012 100 8000 4.63 180 15:37 22.01.2022
3547 Rain 19 1012 100 9000 5.14 210 13:59 22.01.2022
3548 Drizzle 19 1012 94 10000 5.66 210 12:55 22.01.2022
3549 Drizzle 19 1013 94 10000 4.12 210 12:30 22.01.2022
3550 Drizzle 19 1013 94 10000 4.12 200 11:49 22.01.2022
3551 Drizzle 19 1014 94 10000 3.6 200 10:31 22.01.2022
3552 Drizzle 19 1014 94 10000 3.6 200 09:59 22.01.2022
3553 Rain 19 1015 94 10000 4.12 170 08:53 22.01.2022
3554 Rain 20 1015 83 10000 3.6 160 07:56 22.01.2022
3555 Clouds 17 1015 94 10000 3.09 180 04:53 22.01.2022
3556 Clouds 17 1015 94 10000 2.57 180 01:58 22.01.2022
3557 Clouds 18 1015 88 10000 2.57 170 23:46 21.01.2022
3558 Clouds 18 1016 88 10000 2.06 160 22:41 21.01.2022
3559 Rain 18 1017 88 10000 3.6 150 20:45 21.01.2022
3560 Rain 18 1016 88 10000 2.06 150 18:41 21.01.2022
3561 Rain 18 1016 88 10000 3.6 170 17:45 21.01.2022
3562 Clouds 20 1015 83 10000 4.63 150 15:47 21.01.2022
3563 Rain 20 1014 88 6000 3.09 80 13:55 21.01.2022
3564 Clouds 23 1014 64 10000 2.57 160 12:40 21.01.2022
3565 Clouds 22 1015 68 10000 3.6 120 11:29 21.01.2022
3566 Clouds 22 1015 64 10000 3.09 130 10:22 21.01.2022
3567 Clouds 23 1015 60 10000 3.6 170 08:25 21.01.2022
3568 Clouds 23 1015 60 10000 3.6 170 08:25 21.01.2022
3569 Clouds 19 1015 68 10000 4.63 160 07:19 21.01.2022
3570 Rain 16 1014 82 10000 4.12 170 23:54 20.01.2022
3571 Rain 17 1014 82 10000 5.14 160 22:45 20.01.2022
3572 Rain 17 1015 88 10000 3.09 160 21:48 20.01.2022
3573 Rain 17 1015 88 10000 4.12 150 20:56 20.01.2022
3574 Rain 17 1014 88 10000 3.6 130 19:21 20.01.2022
3575 Rain 17 1014 88 10000 4.12 160 18:51 20.01.2022
3576 Clouds 18 1013 88 10000 4.12 140 17:31 20.01.2022
3577 Drizzle 19 1012 88 10000 5.14 150 15:45 20.01.2022
3578 Rain 19 1011 83 10000 5.14 150 15:24 20.01.2022
3579 Rain 20 1011 83 10000 5.14 150 13:42 20.01.2022
3580 Rain 20 1012 88 10000 4.12 170 12:38 20.01.2022
3581 Rain 20 1012 88 10000 4.63 160 11:57 20.01.2022
3582 Rain 19 1013 94 10000 3.09 100 10:47 20.01.2022
3583 Rain 19 1014 88 8000 3.09 140 09:42 20.01.2022
3584 Drizzle 19 1015 94 8000 3.6 140 08:34 20.01.2022
3585 Drizzle 17 1014 100 8000 2.57 170 05:34 20.01.2022
3586 Drizzle 17 1014 100 10000 1.54 0 23:42 19.01.2022
3587 Drizzle 18 1015 100 10000 1.03 70 22:37 19.01.2022
3588 Drizzle 18 1015 100 10000 1.54 70 21:24 19.01.2022
3589 Rain 18 1016 100 10000 2.06 80 20:51 19.01.2022
3590 Rain 18 1016 100 10000 1.54 30 19:58 19.01.2022
3591 Rain 18 1015 100 10000 1.03 40 18:43 19.01.2022
3592 Clouds 19 1015 94 10000 2.06 60 17:49 19.01.2022
3593 Rain 19 1014 88 10000 2.06 330 16:57 19.01.2022
3594 Drizzle 20 1013 83 10000 4.63 330 14:42 19.01.2022
3595 Drizzle 20 1014 83 10000 3.09 270 12:43 19.01.2022
3596 Drizzle 20 1015 88 10000 2.06 310 11:42 19.01.2022
3597 Drizzle 19 1016 94 10000 3.6 310 10:37 19.01.2022
3598 Rain 21 1016 83 10000 5.66 320 09:34 19.01.2022
3599 Clouds 19 1016 94 10000 2.57 20 07:18 19.01.2022
3600 Drizzle 17 1017 100 10000 2.57 20 05:18 19.01.2022
3601 Clouds 17 1016 100 10000 1.03 0 23:20 18.01.2022
3602 Clouds 17 1016 100 10000 0.51 0 22:44 18.01.2022
3603 Rain 17 1017 100 10000 1.54 0 21:20 18.01.2022
3604 Rain 17 1017 100 10000 2.06 20 19:55 18.01.2022
3605 Thunderstorm 17 1017 100 10000 0.51 0 19:37 18.01.2022
3606 Thunderstorm 17 1017 100 6000 2.06 310 18:54 18.01.2022
3607 Thunderstorm 17 1016 100 8000 4.63 340 17:58 18.01.2022
3608 Rain 17 1013 98 7306 2.44 317 16:58 18.01.2022
3609 Thunderstorm 17 1014 100 8000 2.57 330 15:48 18.01.2022
3610 Thunderstorm 17 1014 100 8000 2.57 330 15:47 18.01.2022
3611 Thunderstorm 17 1014 100 8000 2.57 330 15:47 18.01.2022
3612 Thunderstorm 17 1014 100 8000 2.57 330 15:22 18.01.2022
3613 Thunderstorm 24 1014 65 10000 5.66 280 12:49 18.01.2022
3614 Rain 22 1015 73 10000 5.14 330 10:47 18.01.2022
3615 Rain 22 1016 73 10000 6.17 310 09:21 18.01.2022
3616 Rain 20 1016 78 10000 4.12 320 07:55 18.01.2022
3617 Rain 16 1016 100 8000 2.06 60 02:35 18.01.2022
3618 Rain 16 1016 100 8000 3.09 70 23:47 17.01.2022
3619 Rain 16 1017 100 6000 2.57 110 22:27 17.01.2022
3620 Thunderstorm 17 1017 94 8000 5.14 80 21:35 17.01.2022
3621 Thunderstorm 17 1017 100 10000 2.06 0 20:24 17.01.2022
3622 Thunderstorm 21 1015 78 10000 4.12 340 18:30 17.01.2022
3623 Thunderstorm 22 1015 73 10000 5.14 340 17:44 17.01.2022
3624 Rain 23 1014 69 10000 3.6 320 16:44 17.01.2022
3625 Rain 24 1013 69 10000 5.14 310 15:22 17.01.2022
3626 Rain 24 1012 69 10000 4.12 300 14:55 17.01.2022
3627 Rain 27 1012 54 10000 5.14 330 13:26 17.01.2022
3628 Rain 28 1013 51 10000 5.14 320 12:55 17.01.2022
3629 Rain 28 1013 54 10000 3.09 330 11:49 17.01.2022
3630 Rain 26 1015 61 10000 4.12 330 10:21 17.01.2022
3631 Rain 26 1015 61 10000 4.12 330 10:21 17.01.2022
3632 Rain 25 1015 65 10000 2.06 320 09:34 17.01.2022
3633 Rain 21 1016 78 10000 3.09 290 07:24 17.01.2022
3634 Rain 18 1014 100 10000 1.54 50 02:59 17.01.2022
3635 Rain 18 1015 94 10000 1.54 30 00:55 17.01.2022
3636 Rain 19 1015 94 10000 2.06 10 22:22 16.01.2022
3637 Rain 19 1016 88 10000 3.6 330 20:35 16.01.2022
3638 Rain 19 1015 94 10000 2.06 30 18:51 16.01.2022
3639 Rain 20 1014 88 10000 2.06 20 17:59 16.01.2022
3640 Rain 21 1013 78 10000 2.57 300 16:59 16.01.2022
3641 Rain 22 1013 73 10000 3.6 340 16:29 16.01.2022
3642 Thunderstorm 22 1012 78 10000 2.57 90 14:31 16.01.2022
3643 Rain 22 1012 78 10000 2.57 90 14:30 16.01.2022
3644 Rain 24 1012 65 10000 3.09 60 13:33 16.01.2022
3645 Thunderstorm 22 1013 78 10000 3.09 100 12:26 16.01.2022
3646 Thunderstorm 21 1014 83 10000 2.06 0 11:38 16.01.2022
3647 Thunderstorm 21 1015 83 4000 5.14 310 10:43 16.01.2022
3648 Rain 24 1015 69 10000 2.06 0 09:58 16.01.2022
3649 Rain 22 1015 78 10000 1.54 0 09:38 16.01.2022
3650 Rain 22 1015 78 10000 1.54 0 09:19 16.01.2022
3651 Clouds 18 1016 94 10000 1.54 0 07:19 16.01.2022
3652 Clouds 16 1014 100 10000 1.03 0 00:35 16.01.2022
3653 Drizzle 16 1014 100 9000 1.54 100 22:53 15.01.2022
3654 Drizzle 17 1016 100 8000 2.57 220 21:22 15.01.2022
3655 Clouds 18 1016 100 10000 1.54 270 20:45 15.01.2022
3656 Clouds 18 1016 100 10000 1.54 230 20:22 15.01.2022
3657 Thunderstorm 18 1014 100 10000 1.03 0 19:27 15.01.2022
3658 Thunderstorm 18 1014 100 10000 2.57 320 18:18 15.01.2022
3659 Rain 18 1014 100 10000 3.09 290 16:49 15.01.2022
3660 Rain 26 1012 57 10000 4.63 290 14:38 15.01.2022
3661 Rain 25 1013 61 10000 3.6 290 12:40 15.01.2022
3662 Rain 25 1014 61 10000 1.54 0 11:21 15.01.2022
3663 Drizzle 21 1015 83 10000 3.6 220 09:46 15.01.2022
3664 Clouds 18 1014 100 10000 0.51 0 01:27 15.01.2022
3665 Clouds 18 1015 94 10000 2.06 350 23:20 14.01.2022
3666 Rain 19 1017 88 10000 2.06 30 20:57 14.01.2022
3667 Rain 19 1017 83 10000 2.57 40 20:24 14.01.2022
3668 Rain 19 1017 88 10000 1.54 30 19:49 14.01.2022
3669 Rain 19 1016 83 10000 0.51 0 18:33 14.01.2022
3670 Rain 19 1016 77 10000 0 0 17:21 14.01.2022
3671 Rain 20 1015 73 10000 2.06 250 16:40 14.01.2022
3672 Rain 21 1015 64 10000 5.14 280 14:50 14.01.2022
3673 Rain 21 1015 64 10000 5.14 280 14:20 14.01.2022
3674 Rain 23 1016 53 10000 6.69 310 12:37 14.01.2022
3675 Rain 26 1016 50 10000 5.66 310 11:34 14.01.2022
3676 Clouds 24 1017 57 10000 6.69 300 10:22 14.01.2022
3677 Clouds 23 1012 68 10000 4.09 303 08:52 14.01.2022
3678 Clouds 23 1017 64 10000 4.12 280 07:27 14.01.2022
3679 Clouds 16 1013 98 10000 1.19 295 01:43 14.01.2022
3680 Clouds 16 1013 98 10000 1.26 286 23:39 13.01.2022
3681 Clouds 17 1015 97 10000 1.37 291 21:45 13.01.2022
3682 Clouds 17 1015 97 10000 0.74 295 21:27 13.01.2022
3683 Clouds 17 1015 97 10000 1.53 285 19:44 13.01.2022
3684 Clouds 17 1015 96 10000 2.27 289 19:22 13.01.2022
3685 Rain 18 1014 94 10000 2.57 285 17:56 13.01.2022
3686 Rain 18 1014 92 10000 3.5 272 16:43 13.01.2022
3687 Rain 19 1012 90 10000 4.79 275 15:38 13.01.2022
3688 Rain 20 1011 88 10000 5.06 280 14:50 13.01.2022
3689 Rain 20 1011 88 10000 5.06 280 14:50 13.01.2022
3690 Rain 22 1011 82 10000 5.89 282 12:54 13.01.2022
3691 Rain 25 1011 60 10000 3.36 295 10:25 13.01.2022
3692 Clouds 25 1012 63 10000 3.34 292 09:22 13.01.2022
3693 Clouds 23 1013 68 10000 3.19 288 08:28 13.01.2022
3694 Clouds 22 1014 76 10000 3.37 293 07:25 13.01.2022
3695 Clouds 21 1013 76 10000 3.85 297 06:41 13.01.2022
3696 Clouds 19 1015 89 10000 1.66 298 05:20 13.01.2022
3697 Rain 17 1014 95 10000 0.76 259 03:24 13.01.2022
3698 Clouds 17 1016 100 10000 3.09 300 00:56 13.01.2022
3699 Clouds 17 1017 100 10000 2.06 310 23:50 12.01.2022
3700 Rain 18 1018 100 10000 1.54 270 23:29 12.01.2022
3701 Drizzle 18 1019 100 10000 1.54 260 21:58 12.01.2022
3702 Drizzle 18 1020 100 10000 1.03 0 21:23 12.01.2022
3703 Drizzle 18 1020 100 10000 1.03 360 20:57 12.01.2022
3704 Rain 17 1020 100 8000 1.54 30 19:57 12.01.2022
3705 Rain 18 1020 100 8000 3.09 290 18:43 12.01.2022
3706 Thunderstorm 18 1019 100 10000 0 0 17:50 12.01.2022
3707 Rain 18 1018 100 8000 1.03 0 16:38 12.01.2022
3708 Thunderstorm 19 1016 100 8000 3.09 210 14:49 12.01.2022
3709 Rain 24 1016 69 10000 3.6 30 13:32 12.01.2022
3710 Thunderstorm 25 1016 57 10000 4.12 300 12:34 12.01.2022
3711 Rain 24 1018 69 10000 3.09 300 08:45 12.01.2022
3712 Clouds 23 1018 69 10000 2.57 330 07:52 12.01.2022
3713 Clouds 22 1018 68 10000 3.09 310 07:32 12.01.2022
3714 Rain 17 1017 100 10000 1.54 270 23:53 11.01.2022
3715 Rain 17 1017 100 10000 2.57 40 23:25 11.01.2022
3716 Rain 17 1018 100 10000 2.06 40 22:24 11.01.2022
3717 Rain 17 1019 100 10000 1.54 0 21:25 11.01.2022
3718 Thunderstorm 17 1019 100 10000 1.54 0 20:33 11.01.2022
3719 Thunderstorm 18 1018 88 10000 4.63 100 18:48 11.01.2022
3720 Thunderstorm 19 1018 83 10000 1.03 0 17:42 11.01.2022
3721 Thunderstorm 23 1015 69 10000 4.12 350 16:38 11.01.2022
3722 Rain 23 1015 69 10000 3.6 40 15:56 11.01.2022
3723 Rain 25 1014 44 10000 2.06 250 14:43 11.01.2022
3724 Rain 25 1014 44 10000 2.06 250 14:43 11.01.2022
3725 Rain 29 1014 35 10000 1.54 0 13:56 11.01.2022
3726 Rain 29 1014 37 10000 1.54 0 13:36 11.01.2022
3727 Rain 28 1015 42 10000 3.09 210 12:51 11.01.2022
3728 Rain 28 1015 42 10000 2.06 0 12:20 11.01.2022
3729 Clouds 26 1017 44 10000 1.54 0 10:24 11.01.2022
3730 Clouds 22 1018 64 10000 1.54 0 07:35 11.01.2022
3731 Clouds 17 1017 100 10000 2.06 100 00:43 11.01.2022
3732 Clouds 17 1017 94 10000 2.06 130 00:21 11.01.2022
3733 Clouds 17 1017 100 10000 0.51 150 23:28 10.01.2022
3734 Clouds 17 1018 100 10000 1.03 0 22:19 10.01.2022
3735 Clouds 17 1018 100 10000 1.03 0 21:54 10.01.2022
3736 Clouds 17 1018 100 10000 1.03 0 21:21 10.01.2022
3737 Clouds 17 1018 100 10000 2.06 180 20:57 10.01.2022
3738 Clouds 17 1018 100 10000 2.06 180 20:28 10.01.2022
3739 Drizzle 17 1018 100 8000 2.06 180 19:44 10.01.2022
3740 Drizzle 17 1018 100 10000 2.06 140 19:21 10.01.2022
3741 Drizzle 17 1018 100 10000 2.06 140 18:49 10.01.2022
3742 Drizzle 17 1018 100 10000 1.54 0 17:42 10.01.2022
3743 Rain 18 1017 94 8000 3.09 310 16:42 10.01.2022
3744 Thunderstorm 18 1017 94 8000 1.54 340 15:49 10.01.2022
3745 Thunderstorm 18 1016 94 5000 4.12 40 14:34 10.01.2022
3746 Rain 27 1015 51 10000 2.06 210 12:18 10.01.2022
3747 Clouds 26 1016 54 10000 3.6 170 11:25 10.01.2022
3748 Clouds 25 1016 57 10000 3.6 160 09:52 10.01.2022
3749 Clouds 21 1018 73 10000 4.12 170 07:31 10.01.2022
3750 Clouds 18 1018 88 10000 4.12 130 05:49 10.01.2022
3751 Clouds 17 1017 94 10000 2.06 140 01:31 10.01.2022
3752 Clouds 16 1017 100 10000 3.09 110 00:25 10.01.2022
3753 Rain 16 1017 94 10000 2.57 140 23:40 09.01.2022
3754 Clouds 17 1018 94 10000 3.09 120 22:40 09.01.2022
3755 Clouds 17 1018 94 10000 3.6 130 21:46 09.01.2022
3756 Clouds 18 1019 82 10000 5.14 140 21:24 09.01.2022
3757 Clouds 18 1019 82 10000 3.6 150 20:52 09.01.2022
3758 Clouds 19 1019 77 10000 4.63 140 20:34 09.01.2022
3759 Clouds 19 1018 77 10000 4.12 130 19:45 09.01.2022
3760 Rain 19 1018 83 10000 4.63 130 19:23 09.01.2022
3761 Rain 19 1018 83 10000 3.6 150 18:56 09.01.2022
3762 Rain 19 1018 83 10000 4.12 140 18:34 09.01.2022
3763 Rain 20 1017 78 10000 4.12 160 17:40 09.01.2022
3764 Rain 20 1017 78 10000 4.12 160 17:20 09.01.2022
3765 Rain 22 1016 64 10000 4.12 150 15:58 09.01.2022
3766 Rain 23 1016 60 10000 5.66 130 15:35 09.01.2022
3767 Thunderstorm 23 1016 64 10000 5.66 90 14:40 09.01.2022
3768 Rain 24 1016 61 10000 4.12 110 13:51 09.01.2022
3769 Clouds 24 1016 57 10000 2.57 120 13:22 09.01.2022
3770 Clouds 24 1017 61 10000 3.09 140 11:54 09.01.2022
3771 Clouds 23 1017 64 10000 3.6 190 10:53 09.01.2022
3772 Clouds 23 1018 64 10000 2.57 180 09:47 09.01.2022
3773 Clouds 22 1019 68 10000 3.09 160 08:51 09.01.2022
3774 Clouds 18 1019 88 10000 2.57 150 05:38 09.01.2022
3775 Clouds 18 1017 88 10000 4.12 110 01:24 09.01.2022
3776 Drizzle 18 1017 88 10000 4.12 110 23:47 08.01.2022
3777 Drizzle 18 1018 88 10000 4.12 130 23:26 08.01.2022
3778 Drizzle 18 1018 88 10000 5.66 120 22:28 08.01.2022
3779 Clouds 19 1019 83 10000 2.57 140 21:25 08.01.2022
3780 Clouds 19 1018 83 10000 5.14 140 20:42 08.01.2022
3781 Clouds 19 1018 83 10000 6.69 120 20:20 08.01.2022
3782 Drizzle 19 1019 88 10000 5.14 120 18:40 08.01.2022
3783 Rain 20 1018 78 10000 4.12 120 17:22 08.01.2022
3784 Rain 22 1017 68 10000 5.66 110 15:56 08.01.2022
3785 Rain 24 1015 61 10000 5.66 100 14:46 08.01.2022
3786 Rain 26 1016 50 10000 4.63 130 13:28 08.01.2022
3787 Clouds 26 1017 54 10000 4.12 100 11:28 08.01.2022
3788 Clouds 26 1018 54 10000 3.6 110 10:28 08.01.2022
3789 Clouds 26 1018 54 10000 3.6 130 09:48 08.01.2022
3790 Clouds 24 1019 61 10000 3.6 110 08:22 08.01.2022
3791 Clouds 17 1018 100 10000 1.54 110 03:31 08.01.2022
3792 Clouds 18 1018 94 10000 2.06 130 00:42 08.01.2022
3793 Clouds 19 1019 88 10000 3.09 90 22:49 07.01.2022
3794 Rain 19 1019 88 10000 5.66 100 21:18 07.01.2022
3795 Rain 19 1020 88 10000 3.6 90 20:19 07.01.2022
3796 Rain 19 1019 83 10000 5.14 110 19:23 07.01.2022
3797 Thunderstorm 19 1019 88 10000 4.63 120 18:44 07.01.2022
3798 Thunderstorm 20 1018 83 10000 5.14 120 17:28 07.01.2022
3799 Thunderstorm 21 1017 83 10000 6.17 90 16:39 07.01.2022
3800 Rain 27 1015 44 10000 2.57 240 13:56 07.01.2022
3801 Rain 27 1016 44 10000 3.09 200 13:38 07.01.2022
3802 Rain 29 1015 42 10000 2.57 0 12:49 07.01.2022
3803 Rain 24 1018 61 10000 1.54 70 09:37 07.01.2022
3804 Clouds 17 1017 94 10000 0.51 0 02:56 07.01.2022
3805 Clouds 17 1017 94 10000 2.06 200 01:54 07.01.2022
3806 Clouds 17 1017 94 10000 0.51 0 01:28 07.01.2022
3807 Clouds 17 1017 94 10000 0.51 0 00:58 07.01.2022
3808 Rain 17 1017 94 10000 2.06 140 23:53 06.01.2022
3809 Rain 17 1018 88 10000 4.12 100 21:28 06.01.2022
3810 Rain 18 1019 77 10000 3.6 150 20:22 06.01.2022
3811 Rain 19 1019 83 10000 4.12 140 19:45 06.01.2022
3812 Thunderstorm 18 1018 94 10000 1.03 0 18:29 06.01.2022
3813 Thunderstorm 18 1018 94 8000 3.6 210 17:40 06.01.2022
3814 Thunderstorm 20 1017 78 10000 3.09 130 16:44 06.01.2022
3815 Rain 21 1016 73 10000 3.09 190 15:47 06.01.2022
3816 Rain 23 1016 69 10000 3.6 290 15:26 06.01.2022
3817 Rain 24 1015 61 10000 4.63 300 14:45 06.01.2022
3818 Rain 25 1015 57 10000 3.09 260 14:18 06.01.2022
3819 Rain 25 1016 57 10000 4.12 290 12:50 06.01.2022
3820 Rain 26 1017 57 10000 4.12 290 11:43 06.01.2022
3821 Rain 24 1017 65 10000 4.63 300 11:22 06.01.2022
3822 Rain 21 1019 78 10000 2.57 250 08:51 06.01.2022
3823 Rain 17 1018 100 10000 0.51 0 00:53 06.01.2022
3824 Drizzle 17 1019 100 10000 1.03 0 23:37 05.01.2022
3825 Drizzle 17 1020 100 10000 1.03 0 22:56 05.01.2022
3826 Drizzle 17 1020 100 10000 1.54 0 22:31 05.01.2022
3827 Drizzle 17 1021 100 10000 1.54 70 21:47 05.01.2022
3828 Rain 17 1021 100 10000 1.03 50 20:50 05.01.2022
3829 Rain 17 1021 100 4000 2.06 60 20:18 05.01.2022
3830 Thunderstorm 18 1020 100 8000 2.06 90 18:42 05.01.2022
3831 Thunderstorm 19 1019 94 8000 0 0 17:23 05.01.2022
3832 Thunderstorm 19 1018 94 8000 1.54 0 16:38 05.01.2022
3833 Thunderstorm 19 1018 94 8000 2.06 140 15:20 05.01.2022
3834 Thunderstorm 20 1017 88 7000 3.09 140 13:51 05.01.2022
3835 Rain 23 1017 78 10000 0.51 0 12:51 05.01.2022
3836 Rain 26 1019 57 10000 2.06 20 09:30 05.01.2022
3837 Rain 23 1021 69 10000 2.06 10 07:42 05.01.2022
3838 Clouds 19 1021 88 10000 1.03 90 04:58 05.01.2022
3839 Clouds 18 1019 94 10000 2.06 100 00:44 05.01.2022
3840 Clouds 18 1019 94 10000 2.06 150 23:27 04.01.2022
3841 Clouds 18 1019 94 10000 2.57 100 22:40 04.01.2022
3842 Clouds 19 1020 94 10000 3.09 90 21:18 04.01.2022
3843 Clouds 19 1019 100 10000 1.54 70 19:20 04.01.2022
3844 Clouds 19 1018 100 10000 1.54 0 17:44 04.01.2022
3845 Rain 19 1018 94 10000 1.54 0 16:42 04.01.2022
3846 Rain 19 1018 94 10000 0 0 16:23 04.01.2022
3847 Thunderstorm 19 1017 100 10000 4.12 320 14:53 04.01.2022
3848 Thunderstorm 18 1017 100 10000 4.12 320 14:34 04.01.2022
3849 Thunderstorm 18 1017 94 10000 5.14 270 13:27 04.01.2022
3850 Rain 26 1018 54 10000 2.06 0 10:41 04.01.2022
3851 Rain 27 1019 57 10000 1.54 0 09:20 04.01.2022
3852 Rain 25 1020 61 10000 1.03 0 08:28 04.01.2022
3853 Clouds 18 1018 88 10000 2.57 110 02:28 04.01.2022
3854 Clouds 18 1018 94 10000 3.6 80 00:40 04.01.2022
3855 Rain 19 1018 88 10000 4.63 110 23:18 03.01.2022
3856 Thunderstorm 19 1019 88 10000 4.12 120 21:50 03.01.2022
3857 Thunderstorm 19 1019 94 10000 4.63 110 21:32 03.01.2022
3858 Rain 19 1019 88 10000 2.57 200 19:47 03.01.2022
3859 Thunderstorm 20 1019 83 10000 5.66 200 18:47 03.01.2022
3860 Thunderstorm 21 1018 83 10000 1.54 0 18:24 03.01.2022
3861 Rain 21 1016 83 10000 3.09 50 16:58 03.01.2022
3862 Thunderstorm 20 1015 78 10000 4.63 60 14:55 03.01.2022
3863 Thunderstorm 20 1015 88 8000 8.23 60 14:30 03.01.2022
3864 Rain 28 1015 48 10000 2.57 80 12:39 03.01.2022
3865 Rain 28 1016 48 10000 2.06 0 11:34 03.01.2022
3866 Rain 27 1017 54 10000 2.06 90 10:25 03.01.2022
3867 Rain 25 1018 57 10000 2.57 60 08:47 03.01.2022
3868 Rain 22 1019 73 10000 1.03 0 07:32 03.01.2022
3869 Clouds 18 1017 100 10000 1.03 0 23:54 02.01.2022
3870 Clouds 18 1017 94 10000 0 0 23:18 02.01.2022
3871 Clouds 17 1017 100 10000 1.03 0 22:43 02.01.2022
3872 Clouds 17 1018 100 10000 0 0 21:38 02.01.2022
3873 Clouds 18 1018 94 10000 3.09 90 20:31 02.01.2022
3874 Drizzle 18 1018 94 10000 4.12 110 19:52 02.01.2022
3875 Drizzle 19 1018 83 10000 5.66 130 19:25 02.01.2022
3876 Thunderstorm 20 1018 78 10000 4.12 110 18:33 02.01.2022
3877 Thunderstorm 20 1017 78 10000 3.09 80 17:43 02.01.2022
3878 Thunderstorm 20 1017 73 10000 3.09 60 17:21 02.01.2022
3879 Rain 22 1016 73 10000 2.06 20 16:33 02.01.2022
3880 Thunderstorm 22 1015 68 10000 3.09 50 15:51 02.01.2022
3881 Rain 26 1014 54 10000 8.75 240 13:58 02.01.2022
3882 Rain 29 1015 45 10000 2.57 0 12:34 02.01.2022
3883 Rain 29 1016 45 10000 2.06 190 11:56 02.01.2022
3884 Rain 28 1017 51 10000 1.54 0 10:59 02.01.2022
3885 Rain 25 1017 57 10000 1.54 20 10:26 02.01.2022
3886 Clouds 26 1019 61 10000 2.57 170 08:22 02.01.2022
3887 Clouds 17 1017 100 10000 0 0 02:58 02.01.2022
3888 Clouds 17 1018 100 10000 2.06 290 23:55 01.01.2022
3889 Clouds 17 1018 100 10000 2.06 300 23:36 01.01.2022
3890 Rain 17 1018 100 10000 1.54 360 22:41 01.01.2022
3891 Rain 17 1018 100 10000 2.57 300 22:18 01.01.2022
3892 Rain 17 1019 100 10000 1.03 280 21:42 01.01.2022
3893 Rain 17 1019 100 10000 2.06 200 20:50 01.01.2022
3894 Thunderstorm 17 1019 100 10000 2.57 310 19:55 01.01.2022
3895 Thunderstorm 18 1019 94 10000 2.06 230 18:53 01.01.2022
3896 Thunderstorm 19 1019 88 10000 8.23 220 17:46 01.01.2022
3897 Thunderstorm 20 1017 94 10000 1.54 30 16:35 01.01.2022
3898 Thunderstorm 20 1017 88 8000 3.09 60 15:50 01.01.2022
3899 Rain 22 1016 73 10000 3.09 310 14:40 01.01.2022
3900 Rain 24 1016 61 10000 3.6 250 13:42 01.01.2022
3901 Rain 28 1016 45 10000 2.06 330 12:26 01.01.2022
3902 Rain 28 1016 48 10000 4.12 300 11:46 01.01.2022
3903 Rain 28 1017 51 10000 3.09 0 11:18 01.01.2022
3904 Rain 27 1018 51 10000 2.57 300 09:48 01.01.2022
3905 Clouds 25 1019 65 10000 1.54 0 08:49 01.01.2022
3906 Clouds 25 1019 57 10000 2.06 0 08:21 01.01.2022
3907 Clouds 22 1020 73 10000 1.54 0 07:40 01.01.2022
3908 Clouds 22 1020 73 10000 2.06 70 06:44 01.01.2022
3909 Clouds 19 1019 94 10000 2.57 60 05:25 01.01.2022
3910 Clouds 17 1019 100 10000 1.54 60 04:36 01.01.2022
3911 Rain 17 1018 100 10000 1.03 0 00:25 01.01.2022
3912 Thunderstorm 17 1020 100 8000 2.06 240 22:34 31.12.2021
3913 Thunderstorm 17 1020 100 8000 2.57 270 21:47 31.12.2021
3914 Thunderstorm 17 1021 100 2500 4.12 100 19:56 31.12.2021
3915 Thunderstorm 19 1020 94 6000 1.54 0 19:28 31.12.2021
3916 Thunderstorm 19 1018 88 10000 4.63 310 18:18 31.12.2021
3917 Rain 20 1018 83 10000 5.14 270 17:37 31.12.2021
3918 Rain 22 1018 73 10000 7.2 300 16:56 31.12.2021
3919 Rain 24 1017 65 10000 2.06 30 16:18 31.12.2021
3920 Rain 25 1016 57 10000 3.09 40 15:50 31.12.2021
3921 Rain 26 1016 54 10000 2.57 50 15:27 31.12.2021
3922 Rain 27 1016 51 10000 4.12 40 14:41 31.12.2021
3923 Rain 29 1016 45 10000 2.06 0 13:56 31.12.2021
3924 Clouds 28 1016 48 10000 2.57 0 12:54 31.12.2021
3925 Clouds 27 1017 51 10000 2.06 80 12:26 31.12.2021
3926 Clouds 27 1017 47 10000 2.06 0 11:42 31.12.2021
3927 Clouds 27 1018 54 10000 3.09 160 10:56 31.12.2021
3928 Clouds 26 1019 50 10000 1.03 0 10:28 31.12.2021
3929 Clouds 24 1019 57 10000 2.06 0 09:35 31.12.2021
3930 Clouds 25 1019 57 10000 1.54 0 08:54 31.12.2021
3931 Clouds 24 1020 61 10000 2.06 50 07:59 31.12.2021
3932 Clouds 18 1019 100 10000 1.54 0 04:55 31.12.2021
3933 Clouds 18 1018 100 10000 1.03 0 23:18 30.12.2021
3934 Clouds 18 1018 100 10000 1.54 50 22:32 30.12.2021
3935 Clouds 18 1019 100 10000 1.03 40 21:39 30.12.2021
3936 Rain 18 1019 100 10000 1.03 40 21:19 30.12.2021
3937 Rain 18 1019 100 10000 1.03 90 20:40 30.12.2021
3938 Thunderstorm 18 1019 100 10000 2.06 120 19:56 30.12.2021
3939 Thunderstorm 18 1019 100 10000 2.06 170 19:34 30.12.2021
3940 Thunderstorm 18 1019 100 8000 1.54 0 18:28 30.12.2021
3941 Thunderstorm 16 1018 100 4500 4.12 240 16:53 30.12.2021
3942 Thunderstorm 19 1017 88 3000 5.66 280 15:54 30.12.2021
3943 Rain 25 1016 53 10000 2.06 20 15:21 30.12.2021
3944 Rain 27 1016 47 10000 2.57 50 14:36 30.12.2021
3945 Rain 28 1016 42 10000 2.57 30 13:26 30.12.2021
3946 Rain 27 1017 47 10000 2.06 50 11:58 30.12.2021
3947 Rain 27 1018 47 10000 1.03 0 10:40 30.12.2021
3948 Clouds 26 1019 50 10000 2.06 60 09:49 30.12.2021
3949 Clouds 23 1020 64 10000 1.54 140 07:25 30.12.2021
3950 Clouds 21 1019 73 10000 2.06 90 06:32 30.12.2021
3951 Clouds 18 1018 88 10000 3.09 110 03:41 30.12.2021
3952 Clouds 17 1017 94 10000 3.09 90 02:32 30.12.2021
3953 Clouds 18 1018 88 10000 1.03 80 23:39 29.12.2021
3954 Clouds 19 1019 88 10000 2.57 90 22:55 29.12.2021
3955 Clouds 19 1019 88 10000 2.57 90 22:18 29.12.2021
3956 Clouds 19 1020 88 10000 1.54 160 20:59 29.12.2021
3957 Clouds 19 1020 88 10000 1.54 160 20:30 29.12.2021
3958 Rain 19 1020 88 10000 1.54 0 19:43 29.12.2021
3959 Rain 19 1019 83 10000 3.09 110 18:44 29.12.2021
3960 Thunderstorm 20 1018 78 10000 3.6 130 17:52 29.12.2021
3961 Thunderstorm 20 1018 83 10000 4.12 90 17:27 29.12.2021
3962 Rain 21 1017 73 10000 6.17 90 16:22 29.12.2021
3963 Rain 24 1016 65 10000 7.72 80 15:26 29.12.2021
3964 Rain 25 1015 65 10000 6.17 110 13:53 29.12.2021
3965 Rain 25 1017 61 10000 5.66 100 12:36 29.12.2021
3966 Rain 24 1017 69 10000 5.14 130 11:26 29.12.2021
3967 Clouds 26 1018 61 10000 5.14 110 09:46 29.12.2021
3968 Clouds 24 1019 69 10000 2.57 120 07:47 29.12.2021
3969 Clouds 20 1019 88 10000 2.06 160 06:37 29.12.2021
3970 Clouds 19 1019 88 10000 2.57 130 05:57 29.12.2021
3971 Clouds 19 1019 94 10000 1.54 0 05:30 29.12.2021
3972 Clouds 18 1018 94 10000 1.54 150 01:45 29.12.2021
3973 Clouds 18 1019 100 10000 2.06 200 00:00 29.12.2021
3974 Rain 18 1019 100 10000 2.57 190 23:18 28.12.2021
3975 Rain 18 1019 100 10000 1.03 180 22:26 28.12.2021
3976 Rain 18 1019 100 10000 0.51 170 21:57 28.12.2021
3977 Rain 18 1020 100 10000 1.54 190 21:35 28.12.2021
3978 Rain 18 1021 100 10000 1.03 210 20:35 28.12.2021
3979 Thunderstorm 18 1020 100 10000 1.03 340 18:59 28.12.2021
3980 Thunderstorm 18 1020 100 10000 0.51 0 18:29 28.12.2021
3981 Thunderstorm 18 1020 100 10000 1.54 0 17:48 28.12.2021
3982 Thunderstorm 18 1018 100 10000 2.57 190 16:29 28.12.2021
3983 Thunderstorm 18 1018 100 10000 1.03 0 15:45 28.12.2021
3984 Thunderstorm 18 1018 100 6000 2.06 230 15:19 28.12.2021
3985 Thunderstorm 18 1018 100 3000 2.06 100 14:45 28.12.2021
3986 Rain 19 1018 88 4500 6.17 80 14:20 28.12.2021
3987 Rain 24 1017 69 8000 6.69 310 13:38 28.12.2021
3988 Rain 24 1017 69 10000 5.66 290 12:57 28.12.2021
3989 Rain 28 1017 48 10000 3.6 230 12:38 28.12.2021
3990 Rain 28 1018 48 10000 2.06 190 11:27 28.12.2021
3991 Clouds 23 1021 73 10000 1.54 0 07:40 28.12.2021
3992 Clouds 21 1021 88 10000 2.06 150 06:40 28.12.2021
3993 Rain 18 1019 100 10000 1.03 190 23:42 27.12.2021
3994 Rain 18 1020 100 10000 1.54 150 22:53 27.12.2021
3995 Thunderstorm 18 1020 100 10000 1.03 0 21:33 27.12.2021
3996 Rain 18 1021 100 8000 1.54 0 20:45 27.12.2021
3997 Rain 18 1021 100 4000 2.06 100 19:56 27.12.2021
3998 Thunderstorm 18 1021 100 4000 1.54 0 19:38 27.12.2021
3999 Thunderstorm 20 1020 94 8000 2.06 10 17:55 27.12.2021
4000 Thunderstorm 20 1020 88 8000 2.06 150 17:29 27.12.2021
4001 Thunderstorm 22 1018 73 10000 3.6 180 16:32 27.12.2021
4002 Rain 23 1018 69 10000 4.12 170 15:50 27.12.2021
4003 Rain 28 1017 48 10000 2.57 90 14:29 27.12.2021
4004 Rain 29 1017 45 10000 1.54 0 13:38 27.12.2021
4005 Rain 28 1018 48 10000 1.54 0 11:41 27.12.2021
4006 Clouds 25 1020 57 10000 2.57 60 10:28 27.12.2021
4007 Clouds 24 1020 65 10000 4.12 60 09:38 27.12.2021
4008 Clouds 23 1021 69 10000 3.09 70 07:35 27.12.2021
4009 Clouds 20 1021 83 10000 3.6 80 06:30 27.12.2021
4010 Clouds 17 1019 100 10000 2.06 140 01:59 27.12.2021
4011 Rain 17 1020 100 10000 1.54 200 23:52 26.12.2021
4012 Rain 17 1020 100 10000 1.54 0 23:34 26.12.2021
4013 Drizzle 17 1022 100 10000 0 0 21:48 26.12.2021
4014 Rain 17 1022 100 10000 1.54 80 20:31 26.12.2021
4015 Thunderstorm 17 1022 100 6000 3.6 60 19:27 26.12.2021
4016 Rain 16 1022 100 4000 3.6 90 18:23 26.12.2021
4017 Thunderstorm 21 1019 78 10000 2.57 20 15:55 26.12.2021
4018 Thunderstorm 23 1018 83 10000 4.12 130 13:52 26.12.2021
4019 Thunderstorm 25 1017 65 10000 4.12 150 13:32 26.12.2021
4020 Clouds 29 1018 39 10000 3.09 350 12:38 26.12.2021
4021 Clouds 30 1018 40 10000 3.6 30 11:58 26.12.2021
4022 Clouds 28 1019 48 10000 2.06 10 09:52 26.12.2021
4023 Clouds 28 1020 45 10000 2.06 140 09:18 26.12.2021
4024 Clouds 28 1021 48 10000 2.06 200 08:39 26.12.2021
4025 Clouds 25 1021 57 10000 2.06 150 06:47 26.12.2021
4026 Clouds 18 1019 88 10000 0 0 00:58 26.12.2021
4027 Clouds 18 1019 88 10000 1.03 90 23:50 25.12.2021
4028 Clouds 19 1019 83 10000 1.03 70 23:26 25.12.2021
4029 Clouds 19 1020 83 10000 0.51 0 22:22 25.12.2021
4030 Thunderstorm 19 1021 83 10000 1.54 70 20:48 25.12.2021
4031 Thunderstorm 20 1021 78 10000 3.09 170 19:21 25.12.2021
4032 Thunderstorm 21 1021 78 10000 4.63 100 18:54 25.12.2021
4033 Thunderstorm 25 1019 57 10000 3.6 40 17:28 25.12.2021
4034 Clouds 29 1018 32 10000 3.09 270 16:18 25.12.2021
4035 Clouds 32 1016 24 10000 5.14 250 14:38 25.12.2021
4036 Clouds 32 1016 33 10000 4.12 310 12:48 25.12.2021
4037 Clouds 30 1018 35 10000 1.54 0 11:37 25.12.2021
4038 Rain 30 1019 40 10000 1.54 0 09:49 25.12.2021
4039 Clouds 26 1021 61 10000 2.06 160 07:54 25.12.2021
4040 Clouds 18 1018 100 10000 0 0 02:18 25.12.2021
4041 Clouds 19 1018 100 10000 2.06 60 00:30 25.12.2021
4042 Rain 19 1019 100 10000 0.51 0 22:40 24.12.2021
4043 Rain 21 1019 83 10000 3.09 320 19:38 24.12.2021
4044 Rain 21 1019 83 10000 3.09 320 19:19 24.12.2021
4045 Rain 21 1018 78 6000 5.66 360 16:50 24.12.2021
4046 Thunderstorm 21 1017 78 8000 3.6 230 15:54 24.12.2021
4047 Thunderstorm 22 1017 73 8000 7.2 260 15:34 24.12.2021
4048 Rain 30 1015 42 10000 5.14 340 14:40 24.12.2021
4049 Rain 30 1015 42 10000 5.14 340 14:19 24.12.2021
4050 Rain 30 1015 45 10000 7.2 360 13:34 24.12.2021
4051 Rain 31 1016 37 10000 4.63 320 12:47 24.12.2021
4052 Clouds 31 1017 40 10000 2.57 310 11:52 24.12.2021
4053 Clouds 31 1017 40 10000 3.09 270 11:26 24.12.2021
4054 Clouds 31 1017 43 10000 2.06 0 10:46 24.12.2021
4055 Clouds 29 1019 48 10000 2.06 0 09:33 24.12.2021
4056 Clouds 27 1019 54 10000 2.06 0 08:23 24.12.2021
4057 Clouds 27 1019 51 10000 1.54 0 07:47 24.12.2021
4058 Clouds 17 1017 94 10000 1.54 60 02:33 24.12.2021
4059 Clouds 18 1017 88 10000 1.54 0 23:56 23.12.2021
4060 Clouds 18 1018 82 10000 2.06 320 22:58 23.12.2021
4061 Clouds 18 1018 82 10000 3.09 310 22:37 23.12.2021
4062 Clouds 18 1018 82 10000 3.09 310 22:18 23.12.2021
4063 Clouds 19 1019 77 10000 2.57 320 20:56 23.12.2021
4064 Clouds 20 1019 73 10000 2.57 310 20:18 23.12.2021
4065 Clouds 20 1019 73 10000 2.57 310 20:18 23.12.2021
4066 Rain 22 1018 64 10000 2.06 320 18:35 23.12.2021
4067 Rain 23 1018 60 10000 2.06 300 17:56 23.12.2021
4068 Clouds 25 1017 50 10000 4.12 300 16:43 23.12.2021
4069 Clouds 27 1017 42 10000 4.63 300 16:23 23.12.2021
4070 Clouds 28 1017 39 10000 6.69 300 15:31 23.12.2021
4071 Clouds 29 1016 37 10000 6.17 290 14:49 23.12.2021
4072 Clouds 29 1016 39 10000 7.2 300 14:30 23.12.2021
4073 Clouds 29 1017 39 10000 7.72 300 12:53 23.12.2021
4074 Clouds 29 1019 39 10000 7.72 300 10:44 23.12.2021
4075 Clouds 28 1019 42 10000 6.69 290 09:35 23.12.2021
4076 Clouds 27 1019 47 10000 6.69 300 08:59 23.12.2021
4077 Clouds 23 1020 73 10000 4.12 290 06:51 23.12.2021
4078 Clouds 18 1018 100 10000 2.57 280 04:30 23.12.2021
4079 Clouds 18 1018 94 10000 0.51 0 22:57 22.12.2021
4080 Clouds 18 1018 94 10000 1.03 0 22:39 22.12.2021
4081 Clouds 19 1019 88 10000 1.54 330 21:54 22.12.2021
4082 Clouds 19 1019 88 10000 1.54 330 21:29 22.12.2021
4083 Clouds 19 1019 88 10000 2.06 310 20:44 22.12.2021
4084 Clouds 20 1019 83 10000 1.54 340 20:25 22.12.2021
4085 Clouds 20 1019 83 10000 1.54 300 19:19 22.12.2021
4086 Clouds 22 1018 68 10000 1.54 330 17:42 22.12.2021
4087 Clouds 25 1017 53 10000 5.14 320 16:38 22.12.2021
4088 Clouds 26 1016 54 10000 4.63 300 15:39 22.12.2021
4089 Clouds 30 1016 42 10000 5.14 350 13:32 22.12.2021
4090 Clouds 28 1016 51 10000 4.12 360 12:31 22.12.2021
4091 Rain 24 1019 69 10000 2.57 340 09:53 22.12.2021
4092 Clouds 25 1019 65 10000 3.09 360 09:33 22.12.2021
4093 Clouds 21 1020 83 10000 4.12 20 07:22 22.12.2021
4094 Clouds 20 1020 88 10000 3.09 60 05:41 22.12.2021
4095 Clouds 19 1020 94 10000 2.06 40 05:22 22.12.2021
4096 Clouds 18 1020 100 10000 2.06 50 04:47 22.12.2021
4097 Clouds 17 1019 100 10000 2.06 20 04:22 22.12.2021
4098 Clouds 17 1019 100 10000 3.09 40 03:32 22.12.2021
4099 Clouds 17 1018 100 10000 1.03 90 00:29 22.12.2021
4100 Rain 17 1019 100 10000 2.06 60 22:51 21.12.2021
4101 Rain 18 1020 94 10000 2.06 60 22:27 21.12.2021
4102 Rain 17 1020 100 10000 3.09 40 21:43 21.12.2021
4103 Rain 17 1021 100 10000 3.6 10 20:53 21.12.2021
4104 Rain 17 1021 100 10000 2.06 20 20:20 21.12.2021
4105 Thunderstorm 18 1021 100 10000 2.57 50 19:41 21.12.2021
4106 Thunderstorm 18 1020 100 10000 5.14 300 18:38 21.12.2021
4107 Thunderstorm 19 1019 94 10000 2.06 160 18:00 21.12.2021
4108 Thunderstorm 19 1019 94 10000 2.06 160 17:40 21.12.2021
4109 Thunderstorm 19 1018 88 10000 5.14 340 15:47 21.12.2021
4110 Thunderstorm 20 1018 83 10000 5.66 320 15:19 21.12.2021
4111 Rain 29 1017 39 10000 3.09 310 13:47 21.12.2021
4112 Rain 30 1017 40 10000 5.14 300 13:29 21.12.2021
4113 Rain 27 1019 51 10000 2.57 0 10:56 21.12.2021
4114 Rain 26 1020 50 10000 1.54 0 09:59 21.12.2021
4115 Rain 24 1020 65 10000 1.54 0 09:18 21.12.2021
4116 Clouds 23 1022 69 10000 1.54 60 07:54 21.12.2021
4117 Rain 23 1022 69 10000 2.06 0 07:25 21.12.2021
4118 Rain 18 1021 100 10000 1.54 60 04:56 21.12.2021
4119 Clouds 17 1019 100 10000 0.51 0 02:39 21.12.2021
4120 Rain 18 1020 100 10000 1.03 0 23:58 20.12.2021
4121 Drizzle 18 1020 100 10000 2.57 150 22:49 20.12.2021
4122 Drizzle 18 1021 100 10000 3.09 110 22:28 20.12.2021
4123 Drizzle 18 1021 100 10000 2.57 70 21:42 20.12.2021
4124 Clouds 18 1022 100 10000 2.57 60 21:22 20.12.2021
4125 Thunderstorm 18 1022 100 10000 2.57 70 20:41 20.12.2021
4126 Thunderstorm 18 1021 100 10000 2.57 90 19:40 20.12.2021
4127 Thunderstorm 18 1020 100 10000 2.57 130 19:20 20.12.2021
4128 Thunderstorm 18 1020 100 3500 3.09 170 18:35 20.12.2021
4129 Thunderstorm 18 1020 100 4500 2.06 170 17:52 20.12.2021
4130 Thunderstorm 20 1018 88 10000 4.12 350 16:53 20.12.2021
4131 Rain 19 1018 94 10000 5.14 10 16:35 20.12.2021
4132 Thunderstorm 19 1018 83 7000 6.69 300 15:43 20.12.2021
4133 Thunderstorm 23 1017 60 10000 7.2 260 14:40 20.12.2021
4134 Rain 25 1017 57 10000 5.14 10 12:41 20.12.2021
4135 Rain 27 1018 47 10000 3.6 320 10:51 20.12.2021
4136 Rain 28 1019 45 10000 1.54 0 09:44 20.12.2021
4137 Rain 26 1020 50 10000 2.57 90 08:56 20.12.2021
4138 Rain 26 1020 57 10000 1.54 0 08:38 20.12.2021
4139 Rain 26 1020 54 10000 2.57 110 07:44 20.12.2021
4140 Clouds 24 1020 61 10000 3.09 100 06:39 20.12.2021
4141 Clouds 19 1018 88 10000 2.57 70 02:32 20.12.2021
4142 Rain 18 1018 94 10000 3.09 120 23:37 19.12.2021
4143 Rain 18 1018 94 10000 3.09 90 22:44 19.12.2021
4144 Rain 19 1019 88 10000 3.6 90 21:44 19.12.2021
4145 Rain 19 1019 88 10000 3.09 120 21:25 19.12.2021
4146 Rain 19 1019 88 10000 4.63 100 20:24 19.12.2021
4147 Rain 20 1019 78 10000 3.6 120 19:43 19.12.2021
4148 Rain 22 1018 60 10000 1.54 240 18:50 19.12.2021
4149 Clouds 23 1018 53 10000 2.57 270 17:54 19.12.2021
4150 Clouds 24 1017 50 10000 3.6 270 17:35 19.12.2021
4151 Clouds 25 1016 50 10000 5.14 270 16:45 19.12.2021
4152 Rain 27 1016 42 10000 6.69 290 15:56 19.12.2021
4153 Clouds 27 1015 42 10000 6.17 290 15:25 19.12.2021
4154 Clouds 27 1015 42 10000 6.17 290 14:48 19.12.2021
4155 Clouds 28 1015 28 10000 6.17 290 13:38 19.12.2021
4156 Clouds 28 1015 39 10000 6.69 280 12:59 19.12.2021
4157 Clouds 31 1015 33 10000 7.72 310 12:32 19.12.2021
4158 Clouds 30 1016 35 10000 5.14 270 11:38 19.12.2021
4159 Clouds 30 1017 35 10000 4.63 270 10:50 19.12.2021
4160 Clouds 29 1017 39 10000 3.6 0 10:22 19.12.2021
4161 Clouds 27 1018 47 10000 2.57 0 08:51 19.12.2021
4162 Clouds 24 1018 65 10000 1.54 0 06:54 19.12.2021
4163 Clouds 17 1017 100 10000 2.57 300 02:30 19.12.2021
4164 Clouds 18 1017 94 10000 3.6 280 00:55 19.12.2021
4165 Clouds 18 1018 88 10000 3.6 280 23:21 18.12.2021
4166 Clouds 19 1019 83 10000 3.6 310 22:28 18.12.2021
4167 Clouds 19 1019 83 10000 4.12 290 21:44 18.12.2021
4168 Clouds 20 1019 78 10000 3.6 310 21:26 18.12.2021
4169 Clouds 20 1019 78 10000 4.63 310 20:43 18.12.2021
4170 Clouds 20 1019 73 10000 4.12 310 19:38 18.12.2021
4171 Clouds 21 1018 73 10000 1.54 20 18:25 18.12.2021
4172 Clouds 21 1018 73 10000 2.57 300 17:49 18.12.2021
4173 Clouds 22 1017 64 10000 3.6 260 16:50 18.12.2021
4174 Clouds 23 1016 64 10000 4.63 260 16:21 18.12.2021
4175 Clouds 24 1015 61 10000 7.72 290 15:24 18.12.2021
4176 Clouds 26 1014 44 10000 6.69 280 13:58 18.12.2021
4177 Clouds 29 1016 39 10000 5.66 290 11:57 18.12.2021
4178 Clouds 28 1017 42 10000 2.57 0 09:59 18.12.2021
4179 Clouds 27 1018 44 10000 2.06 0 09:32 18.12.2021
4180 Clouds 26 1018 50 10000 1.54 0 08:36 18.12.2021
4181 Clouds 23 1019 60 10000 1.03 0 07:24 18.12.2021
4182 Clouds 17 1018 100 10000 2.06 320 01:46 18.12.2021
4183 Clouds 17 1019 100 10000 1.03 0 23:51 17.12.2021
4184 Clouds 17 1019 100 10000 1.54 90 22:39 17.12.2021
4185 Thunderstorm 17 1020 100 10000 3.09 310 21:31 17.12.2021
4186 Thunderstorm 17 1021 100 10000 4.12 330 20:43 17.12.2021
4187 Thunderstorm 20 1020 68 10000 3.09 330 19:56 17.12.2021
4188 Clouds 21 1019 64 10000 1.54 0 18:40 17.12.2021
4189 Clouds 21 1018 60 10000 1.03 0 17:50 17.12.2021
4190 Clouds 21 1018 64 10000 1.03 0 16:53 17.12.2021
4191 Clouds 22 1017 60 10000 3.6 290 16:27 17.12.2021
4192 Clouds 23 1017 53 10000 3.6 250 15:38 17.12.2021
4193 Thunderstorm 23 1016 53 10000 3.09 290 14:42 17.12.2021
4194 Clouds 26 1016 39 10000 2.57 220 13:45 17.12.2021
4195 Clouds 30 1017 30 10000 4.63 210 12:36 17.12.2021
4196 Clouds 29 1018 32 10000 4.12 200 10:42 17.12.2021
4197 Clouds 27 1019 42 10000 2.06 0 09:47 17.12.2021
4198 Clouds 25 1021 47 10000 2.06 0 08:31 17.12.2021
4199 Clouds 23 1021 57 10000 1.54 0 07:30 17.12.2021
4200 Clouds 17 1021 82 10000 0.51 0 04:40 17.12.2021
4201 Clouds 15 1020 88 10000 4.12 80 00:22 17.12.2021
4202 Clouds 16 1018 93 10000 1.65 120 22:24 16.12.2021
4203 Clouds 17 1022 82 10000 3.09 130 21:51 16.12.2021
4204 Clouds 17 1022 82 10000 3.09 130 21:33 16.12.2021
4205 Clouds 17 1022 82 10000 4.12 110 20:31 16.12.2021
4206 Rain 17 1022 82 10000 5.66 110 19:51 16.12.2021
4207 Rain 19 1022 77 10000 5.66 100 18:41 16.12.2021
4208 Rain 19 1021 73 10000 6.17 120 17:57 16.12.2021
4209 Rain 19 1021 73 10000 6.69 110 17:31 16.12.2021
4210 Rain 21 1020 64 10000 7.72 110 16:23 16.12.2021
4211 Rain 23 1019 57 10000 7.72 120 14:54 16.12.2021
4212 Rain 24 1018 53 10000 5.14 120 13:43 16.12.2021
4213 Clouds 27 1020 44 10000 2.57 180 11:46 16.12.2021
4214 Clouds 25 1020 50 10000 3.09 90 11:18 16.12.2021
4215 Clouds 24 1021 57 10000 3.09 120 10:27 16.12.2021
4216 Clouds 22 1022 60 10000 3.09 90 08:37 16.12.2021
4217 Clouds 19 1022 73 10000 3.09 110 06:22 16.12.2021
4218 Clouds 15 1020 94 10000 2.57 120 02:54 16.12.2021
4219 Clouds 16 1021 88 10000 2.57 120 23:35 15.12.2021
4220 Clouds 16 1021 88 10000 2.06 150 22:44 15.12.2021
4221 Clouds 17 1021 82 10000 4.12 110 21:57 15.12.2021
4222 Clouds 17 1021 82 10000 4.63 110 21:27 15.12.2021
4223 Clouds 18 1022 82 10000 3.09 140 20:19 15.12.2021
4224 Clouds 18 1021 82 10000 4.63 110 19:51 15.12.2021
4225 Rain 19 1020 73 10000 5.66 100 18:38 15.12.2021
4226 Rain 20 1020 68 10000 7.2 110 17:55 15.12.2021
4227 Rain 21 1020 56 10000 6.69 110 17:36 15.12.2021
4228 Clouds 23 1019 50 10000 6.69 110 16:28 15.12.2021
4229 Clouds 24 1018 50 10000 6.17 110 15:47 15.12.2021
4230 Clouds 25 1018 47 10000 7.2 120 15:27 15.12.2021
4231 Clouds 26 1017 41 10000 6.17 120 14:29 15.12.2021
4232 Clouds 29 1018 32 10000 5.66 110 12:46 15.12.2021
4233 Clouds 27 1019 32 10000 4.12 140 10:42 15.12.2021
4234 Clouds 23 1020 43 10000 5.66 100 08:55 15.12.2021
4235 Clouds 22 1021 53 10000 6.69 110 07:25 15.12.2021
4236 Clouds 15 1019 82 10000 1.54 0 01:35 15.12.2021
4237 Clouds 16 1020 82 10000 3.09 140 23:42 14.12.2021
4238 Clouds 16 1020 88 10000 2.57 150 22:49 14.12.2021
4239 Clouds 16 1021 88 10000 3.09 90 22:24 14.12.2021
4240 Clouds 17 1022 88 10000 4.63 100 20:55 14.12.2021
4241 Clouds 18 1021 82 10000 4.63 100 19:44 14.12.2021
4242 Clouds 18 1021 82 10000 5.66 110 19:20 14.12.2021
4243 Rain 19 1020 77 10000 4.63 110 18:28 14.12.2021
4244 Rain 21 1019 64 10000 6.69 100 17:33 14.12.2021
4245 Clouds 23 1018 50 10000 5.66 90 16:40 14.12.2021
4246 Clouds 25 1018 44 10000 5.14 110 15:36 14.12.2021
4247 Clouds 26 1018 41 10000 5.66 140 13:31 14.12.2021
4248 Clouds 26 1019 41 10000 4.12 130 12:00 14.12.2021
4249 Clouds 25 1019 44 10000 5.14 120 11:24 14.12.2021
4250 Clouds 26 1020 41 10000 5.14 90 10:23 14.12.2021
4251 Clouds 26 1020 39 10000 4.63 90 09:43 14.12.2021
4252 Clouds 24 1021 38 10000 5.14 130 08:27 14.12.2021
4253 Clouds 24 1021 41 10000 5.66 120 07:43 14.12.2021
4254 Clouds 15 1020 82 10000 3.09 160 02:37 14.12.2021
4255 Clouds 16 1020 77 10000 5.14 120 22:56 13.12.2021
4256 Clouds 18 1022 72 10000 3.09 140 21:53 13.12.2021
4257 Clouds 18 1022 72 10000 4.63 130 21:32 13.12.2021
4258 Clouds 18 1022 77 10000 3.09 130 20:42 13.12.2021
4259 Clouds 18 1022 77 10000 4.12 100 19:52 13.12.2021
4260 Clouds 18 1021 77 10000 6.17 120 18:24 13.12.2021
4261 Clouds 19 1021 73 10000 6.17 100 17:26 13.12.2021
4262 Clouds 21 1019 64 10000 8.23 110 15:54 13.12.2021
4263 Clouds 23 1019 57 10000 9.26 110 15:25 13.12.2021
4264 Clouds 27 1019 44 10000 5.14 90 13:39 13.12.2021
4265 Clouds 26 1019 44 10000 6.17 120 12:46 13.12.2021
4266 Clouds 27 1020 42 10000 4.12 150 11:56 13.12.2021
4267 Clouds 25 1020 44 10000 4.63 110 11:35 13.12.2021
4268 Clouds 26 1020 44 10000 4.63 150 10:44 13.12.2021
4269 Clouds 24 1022 53 10000 4.63 110 09:29 13.12.2021
4270 Clouds 22 1022 60 10000 4.63 150 07:48 13.12.2021
4271 Clouds 17 1023 77 10000 3.6 130 05:35 13.12.2021
4272 Clouds 14 1021 94 10000 1.54 80 03:26 13.12.2021
4273 Clouds 15 1023 88 10000 3.6 110 22:23 12.12.2021
4274 Clouds 16 1024 82 10000 4.12 120 21:38 12.12.2021
4275 Clouds 16 1024 82 10000 4.12 90 19:47 12.12.2021
4276 Clouds 18 1023 72 10000 6.17 110 18:35 12.12.2021
4277 Clouds 19 1022 68 10000 6.69 110 17:26 12.12.2021
4278 Clouds 22 1021 56 10000 6.69 110 16:27 12.12.2021
4279 Clouds 23 1021 53 10000 7.2 100 15:45 12.12.2021
4280 Clouds 24 1020 50 10000 6.17 100 15:25 12.12.2021
4281 Clouds 25 1020 47 10000 7.2 100 14:34 12.12.2021
4282 Clouds 24 1020 47 10000 5.14 90 13:22 12.12.2021
4283 Clouds 25 1021 44 10000 4.12 160 12:27 12.12.2021
4284 Clouds 25 1021 44 10000 6.17 110 11:44 12.12.2021
4285 Clouds 25 1021 44 10000 6.17 110 11:44 12.12.2021
4286 Clouds 26 1021 41 10000 3.6 130 11:20 12.12.2021
4287 Clouds 25 1022 44 10000 6.17 110 10:22 12.12.2021
4288 Clouds 25 1023 41 10000 5.66 140 08:58 12.12.2021
4289 Clouds 23 1023 50 10000 5.14 160 07:32 12.12.2021
4290 Clouds 20 1023 60 10000 4.63 160 05:57 12.12.2021
4291 Clouds 17 1022 77 10000 4.12 140 04:55 12.12.2021
4292 Clouds 15 1022 88 10000 2.57 90 02:58 12.12.2021
4293 Clouds 17 1022 77 10000 2.06 140 23:31 11.12.2021
4294 Clouds 16 1023 82 10000 3.09 140 22:22 11.12.2021
4295 Clouds 17 1023 77 10000 3.09 150 21:51 11.12.2021
4296 Clouds 17 1024 77 10000 4.12 120 20:29 11.12.2021
4297 Clouds 17 1023 77 10000 5.14 110 19:21 11.12.2021
4298 Clouds 18 1023 77 10000 5.14 120 18:51 11.12.2021
4299 Clouds 18 1023 82 10000 5.14 100 18:19 11.12.2021
4300 Clouds 19 1022 77 10000 7.2 110 17:20 11.12.2021
4301 Clouds 22 1021 64 10000 8.23 110 15:52 11.12.2021
4302 Clouds 23 1020 53 10000 5.66 120 15:18 11.12.2021
4303 Clouds 26 1020 41 10000 3.09 130 12:49 11.12.2021
4304 Clouds 24 1021 50 10000 3.6 100 11:24 11.12.2021
4305 Clouds 24 1021 44 10000 6.69 100 09:45 11.12.2021
4306 Clouds 22 1022 49 10000 3.09 120 07:32 11.12.2021
4307 Clouds 14 1020 100 10000 1.03 80 02:20 11.12.2021
4308 Clouds 15 1021 94 10000 2.06 80 23:50 10.12.2021
4309 Clouds 15 1021 94 10000 2.06 80 23:18 10.12.2021
4310 Clouds 17 1022 82 10000 4.12 120 21:52 10.12.2021
4311 Clouds 18 1022 82 10000 5.14 110 20:57 10.12.2021
4312 Clouds 19 1021 77 10000 5.66 120 19:21 10.12.2021
4313 Clouds 21 1020 68 10000 6.17 110 17:54 10.12.2021
4314 Clouds 23 1019 50 10000 5.14 100 16:55 10.12.2021
4315 Clouds 25 1018 41 10000 5.66 80 15:51 10.12.2021
4316 Clouds 27 1018 36 10000 4.63 90 15:29 10.12.2021
4317 Clouds 27 1018 32 10000 4.12 80 14:59 10.12.2021
4318 Clouds 28 1018 28 10000 3.09 140 13:51 10.12.2021
4319 Clouds 28 1018 30 10000 3.6 60 13:25 10.12.2021
4320 Clouds 27 1019 34 10000 3.09 130 12:23 10.12.2021
4321 Clouds 27 1019 34 10000 2.06 0 11:28 10.12.2021
4322 Clouds 27 1020 34 10000 3.09 130 09:54 10.12.2021
4323 Clouds 25 1021 47 10000 2.06 0 08:32 10.12.2021
4324 Clouds 19 1022 68 10000 1.54 0 05:57 10.12.2021
4325 Clouds 14 1020 88 10000 3.09 70 02:48 10.12.2021
4326 Clouds 15 1020 88 10000 2.57 70 23:46 09.12.2021
4327 Clouds 16 1021 88 10000 3.6 100 22:59 09.12.2021
4328 Clouds 17 1022 82 10000 3.09 110 22:24 09.12.2021
4329 Clouds 17 1022 82 10000 4.12 120 21:49 09.12.2021
4330 Clouds 16 1019 81 10000 1.3 71 20:41 09.12.2021
4331 Clouds 18 1022 77 10000 3.09 140 20:20 09.12.2021
4332 Clouds 18 1022 77 10000 3.6 100 19:21 09.12.2021
4333 Clouds 19 1021 73 10000 4.63 90 18:35 09.12.2021
4334 Clouds 20 1021 64 10000 5.14 100 17:51 09.12.2021
4335 Clouds 21 1021 56 10000 5.14 100 17:25 09.12.2021
4336 Clouds 21 1021 56 10000 5.14 100 17:25 09.12.2021
4337 Clouds 21 1020 53 10000 4.63 90 16:53 09.12.2021
4338 Clouds 25 1019 38 10000 5.14 100 15:31 09.12.2021
4339 Clouds 24 1019 41 10000 5.66 90 14:44 09.12.2021
4340 Clouds 26 1019 39 10000 4.12 120 13:18 09.12.2021
4341 Clouds 27 1019 36 10000 4.63 120 12:34 09.12.2021
4342 Clouds 25 1020 44 10000 5.14 120 10:50 09.12.2021
4343 Clouds 24 1022 50 10000 2.57 120 08:38 09.12.2021
4344 Clouds 19 1022 68 10000 2.57 130 05:54 09.12.2021
4345 Clouds 15 1021 88 10000 2.57 140 01:52 09.12.2021
4346 Clouds 16 1022 88 10000 3.6 100 23:40 08.12.2021
4347 Clouds 16 1022 88 10000 3.6 100 23:20 08.12.2021
4348 Clouds 16 1022 82 10000 3.6 110 22:43 08.12.2021
4349 Clouds 16 1023 82 10000 3.6 120 21:39 08.12.2021
4350 Clouds 16 1023 88 10000 4.12 120 20:58 08.12.2021
4351 Clouds 17 1023 82 10000 5.14 120 19:57 08.12.2021
4352 Clouds 17 1022 82 10000 5.14 110 19:29 08.12.2021
4353 Clouds 19 1022 73 10000 5.66 100 18:30 08.12.2021
4354 Clouds 20 1021 68 10000 7.72 100 17:24 08.12.2021
4355 Clouds 24 1020 41 10000 5.66 120 15:45 08.12.2021
4356 Clouds 25 1020 36 10000 4.63 160 15:23 08.12.2021
4357 Clouds 28 1020 36 10000 3.6 150 13:40 08.12.2021
4358 Clouds 25 1021 47 10000 4.63 150 10:45 08.12.2021
4359 Clouds 24 1022 50 10000 5.14 160 10:23 08.12.2021
4360 Clouds 23 1023 50 10000 4.12 120 08:54 08.12.2021
4361 Clouds 21 1023 53 10000 2.06 0 06:52 08.12.2021
4362 Clouds 13 1021 94 10000 2.57 70 01:21 08.12.2021
4363 Clouds 13 1022 100 10000 0.51 0 23:31 07.12.2021
4364 Clouds 15 1023 94 10000 2.57 60 21:26 07.12.2021
4365 Clouds 16 1024 88 10000 4.63 110 20:30 07.12.2021
4366 Clouds 17 1024 82 10000 3.6 120 19:48 07.12.2021
4367 Clouds 19 1023 73 10000 6.17 100 18:37 07.12.2021
4368 Clouds 21 1022 60 10000 6.17 100 17:27 07.12.2021
4369 Clouds 22 1022 53 10000 5.66 110 16:57 07.12.2021
4370 Clouds 23 1022 46 10000 6.17 110 16:27 07.12.2021
4371 Clouds 26 1021 39 10000 5.14 160 14:47 07.12.2021
4372 Clouds 26 1022 44 10000 4.63 150 13:45 07.12.2021
4373 Clouds 25 1022 41 10000 5.66 110 12:27 07.12.2021
4374 Clouds 26 1022 39 10000 5.66 110 11:23 07.12.2021
4375 Clouds 25 1024 44 10000 5.66 120 09:40 07.12.2021
4376 Clouds 22 1024 53 10000 2.57 140 07:50 07.12.2021
4377 Clouds 17 1025 77 10000 3.09 120 05:54 07.12.2021
4378 Clouds 16 1024 82 10000 3.6 170 05:26 07.12.2021
4379 Clouds 16 1024 82 10000 3.6 170 05:26 07.12.2021
4380 Clouds 15 1023 94 10000 2.57 70 23:38 06.12.2021
4381 Clouds 16 1023 88 10000 2.57 80 22:41 06.12.2021
4382 Clouds 16 1024 94 10000 3.6 100 21:59 06.12.2021
4383 Clouds 17 1024 82 10000 3.6 100 21:31 06.12.2021
4384 Clouds 17 1024 88 10000 4.12 100 20:32 06.12.2021
4385 Clouds 18 1024 82 10000 5.14 100 19:25 06.12.2021
4386 Clouds 18 1024 82 10000 5.66 110 18:42 06.12.2021
4387 Clouds 20 1023 73 10000 5.66 110 17:54 06.12.2021
4388 Clouds 21 1023 68 10000 5.66 110 17:33 06.12.2021
4389 Clouds 24 1022 50 10000 7.2 120 15:52 06.12.2021
4390 Clouds 27 1021 32 10000 5.66 150 14:40 06.12.2021
4391 Clouds 28 1021 32 10000 3.6 120 13:28 06.12.2021
4392 Clouds 27 1022 36 10000 3.6 0 12:37 06.12.2021
4393 Clouds 26 1023 41 10000 6.17 100 10:28 06.12.2021
4394 Clouds 23 1024 50 10000 5.66 100 07:41 06.12.2021
4395 Clouds 14 1022 94 10000 2.57 80 02:28 06.12.2021
4396 Clouds 17 1023 88 10000 2.57 140 22:26 05.12.2021
4397 Clouds 18 1024 82 10000 3.6 140 21:25 05.12.2021
4398 Clouds 18 1024 82 10000 2.57 140 20:52 05.12.2021
4399 Clouds 18 1024 88 10000 3.6 150 20:18 05.12.2021
4400 Clouds 18 1024 88 10000 2.57 90 19:24 05.12.2021
4401 Clouds 20 1023 78 10000 5.14 100 18:29 05.12.2021
4402 Clouds 20 1023 73 10000 5.14 90 17:49 05.12.2021
4403 Clouds 21 1022 68 10000 5.14 90 17:20 05.12.2021
4404 Clouds 24 1022 47 10000 6.17 110 16:28 05.12.2021
4405 Clouds 26 1021 36 10000 4.12 140 15:59 05.12.2021
4406 Clouds 28 1021 34 10000 3.6 150 14:48 05.12.2021
4407 Clouds 28 1021 32 10000 6.17 90 14:29 05.12.2021
4408 Clouds 28 1021 34 10000 2.57 120 13:33 05.12.2021
4409 Clouds 28 1022 34 10000 3.6 120 12:43 05.12.2021
4410 Clouds 28 1022 37 10000 4.12 80 12:25 05.12.2021
4411 Clouds 28 1022 37 10000 5.14 100 11:43 05.12.2021
4412 Clouds 27 1023 39 10000 4.12 70 10:25 05.12.2021
4413 Clouds 24 1023 47 10000 2.57 20 09:35 05.12.2021
4414 Clouds 17 1024 82 10000 1.03 0 04:57 05.12.2021
4415 Clouds 15 1023 88 10000 3.6 90 01:24 05.12.2021
4416 Clouds 15 1024 100 10000 1.54 70 22:44 04.12.2021
4417 Clouds 16 1024 94 10000 3.09 100 21:37 04.12.2021
4418 Clouds 17 1025 88 10000 2.06 140 20:46 04.12.2021
4419 Clouds 17 1024 82 10000 3.6 100 19:43 04.12.2021
4420 Clouds 19 1024 73 10000 4.12 140 19:23 04.12.2021
4421 Clouds 20 1023 68 10000 3.6 120 17:52 04.12.2021
4422 Clouds 20 1023 64 10000 4.63 110 17:22 04.12.2021
4423 Clouds 21 1023 64 10000 4.12 90 16:46 04.12.2021
4424 Clouds 23 1022 50 10000 5.66 110 16:27 04.12.2021
4425 Clouds 26 1022 50 10000 5.14 130 12:44 04.12.2021
4426 Clouds 24 1023 61 10000 4.63 90 11:39 04.12.2021
4427 Clouds 24 1023 57 10000 5.14 120 10:57 04.12.2021
4428 Clouds 24 1023 57 10000 5.14 100 09:42 04.12.2021
4429 Clouds 23 1024 60 10000 5.66 70 08:29 04.12.2021
4430 Clouds 18 1024 77 10000 3.09 100 04:43 04.12.2021
4431 Clouds 17 1022 88 10000 2.57 150 00:56 04.12.2021
4432 Clouds 17 1023 88 10000 2.06 140 23:43 03.12.2021
4433 Clouds 16 1023 94 10000 2.06 160 22:53 03.12.2021
4434 Clouds 17 1024 82 10000 2.06 160 21:54 03.12.2021
4435 Clouds 17 1024 82 10000 2.06 150 21:22 03.12.2021
4436 Clouds 17 1025 82 10000 2.57 150 20:42 03.12.2021
4437 Clouds 18 1024 77 10000 4.63 120 19:21 03.12.2021
4438 Clouds 19 1024 68 10000 5.14 110 18:22 03.12.2021
4439 Clouds 20 1023 60 10000 5.66 110 17:30 03.12.2021
4440 Clouds 26 1021 39 10000 4.63 140 13:38 03.12.2021
4441 Clouds 26 1022 44 10000 5.14 110 12:30 03.12.2021
4442 Clouds 25 1022 53 10000 7.2 90 11:19 03.12.2021
4443 Clouds 25 1023 53 10000 6.17 100 09:21 03.12.2021
4444 Clouds 24 1023 50 10000 5.14 100 08:18 03.12.2021
4445 Clouds 20 1024 52 10000 4.12 180 06:41 03.12.2021
4446 Clouds 14 1022 88 10000 3.09 140 00:49 03.12.2021
4447 Clouds 14 1022 88 10000 3.6 140 23:54 02.12.2021
4448 Clouds 14 1023 88 10000 2.57 140 23:34 02.12.2021
4449 Clouds 14 1023 88 10000 1.03 0 21:41 02.12.2021
4450 Clouds 15 1024 88 10000 3.09 140 20:46 02.12.2021
4451 Clouds 16 1024 82 10000 3.6 130 20:23 02.12.2021
4452 Clouds 16 1023 88 10000 5.66 110 19:22 02.12.2021
4453 Clouds 19 1022 68 10000 5.66 110 17:21 02.12.2021
4454 Clouds 22 1021 53 10000 7.2 120 15:41 02.12.2021
4455 Clouds 23 1020 53 10000 7.2 120 14:53 02.12.2021
4456 Clouds 24 1021 53 10000 6.17 160 13:44 02.12.2021
4457 Clouds 23 1021 60 10000 6.17 90 12:46 02.12.2021
4458 Clouds 20 1021 73 10000 7.72 110 11:45 02.12.2021
4459 Clouds 21 1022 64 10000 7.72 180 09:27 02.12.2021
4460 Clouds 23 1023 53 10000 6.17 130 08:19 02.12.2021
4461 Clouds 15 1021 94 10000 2.57 90 01:38 02.12.2021
4462 Clouds 15 1021 94 10000 2.06 130 00:50 02.12.2021
4463 Clouds 16 1023 94 10000 2.57 80 22:33 01.12.2021
4464 Clouds 17 1023 94 10000 2.06 90 21:54 01.12.2021
4465 Clouds 18 1023 88 10000 2.06 90 20:24 01.12.2021
4466 Clouds 18 1022 88 10000 3.6 110 19:46 01.12.2021
4467 Rain 19 1022 77 10000 4.12 110 18:55 01.12.2021
4468 Rain 21 1020 68 10000 4.12 90 17:32 01.12.2021
4469 Rain 22 1019 60 10000 5.66 100 16:36 01.12.2021
4470 Rain 25 1018 47 10000 7.2 100 14:39 01.12.2021
4471 Clouds 27 1018 44 10000 5.66 80 13:37 01.12.2021
4472 Rain 27 1020 44 10000 4.63 90 10:45 01.12.2021
4473 Rain 27 1020 47 10000 3.6 150 10:27 01.12.2021
4474 Clouds 26 1021 50 10000 4.12 120 08:52 01.12.2021
4475 Clouds 24 1022 57 10000 2.06 0 08:26 01.12.2021
4476 Clouds 23 1022 60 10000 2.06 60 07:31 01.12.2021
4477 Clouds 15 1020 100 10000 0 0 03:59 01.12.2021
4478 Clouds 15 1020 100 10000 0.51 0 03:28 01.12.2021
4479 Clouds 15 1019 100 10000 2.57 70 00:44 01.12.2021
4480 Clouds 15 1020 100 10000 1.54 300 23:33 30.11.2021
4481 Clouds 15 1020 100 10000 1.54 300 23:33 30.11.2021
4482 Thunderstorm 15 1022 100 10000 1.54 260 22:34 30.11.2021
4483 Rain 17 1023 100 10000 2.06 210 20:47 30.11.2021
4484 Rain 17 1022 100 10000 1.54 200 20:26 30.11.2021
4485 Thunderstorm 17 1022 100 10000 1.54 270 19:39 30.11.2021
4486 Thunderstorm 18 1021 94 10000 2.06 280 18:57 30.11.2021
4487 Thunderstorm 18 1021 88 10000 3.09 260 17:47 30.11.2021
4488 Thunderstorm 22 1019 68 10000 3.6 100 16:25 30.11.2021
4489 Rain 25 1017 50 10000 4.63 60 14:35 30.11.2021
4490 Rain 25 1017 50 10000 5.14 90 13:41 30.11.2021
4491 Rain 27 1018 44 10000 6.17 90 12:54 30.11.2021
4492 Clouds 27 1018 47 10000 6.69 110 12:21 30.11.2021
4493 Clouds 27 1018 51 10000 5.66 80 11:26 30.11.2021
4494 Clouds 27 1019 47 10000 3.6 140 10:36 30.11.2021
4495 Clouds 24 1020 57 10000 3.09 60 08:58 30.11.2021
4496 Clouds 24 1020 61 10000 3.09 60 08:32 30.11.2021
4497 Clouds 23 1020 60 10000 3.6 90 07:59 30.11.2021
4498 Clouds 23 1020 64 10000 1.54 150 06:38 30.11.2021
4499 Clouds 17 1018 94 10000 2.57 40 01:50 30.11.2021
4500 Clouds 17 1017 94 10000 5.66 90 01:28 30.11.2021
4501 Clouds 18 1018 94 10000 2.06 100 23:40 29.11.2021
4502 Clouds 18 1019 88 10000 2.06 70 23:19 29.11.2021
4503 Clouds 18 1020 88 10000 2.57 80 22:38 29.11.2021
4504 Rain 18 1020 88 10000 3.09 80 21:56 29.11.2021
4505 Rain 18 1020 88 10000 3.6 90 21:20 29.11.2021
4506 Rain 18 1021 88 10000 3.6 80 20:48 29.11.2021
4507 Clouds 19 1021 83 10000 4.63 100 19:59 29.11.2021
4508 Clouds 19 1021 83 10000 4.63 100 19:41 29.11.2021
4509 Clouds 20 1020 78 10000 5.14 100 18:59 29.11.2021
4510 Rain 18 1017 89 10000 2.09 91 18:41 29.11.2021
4511 Clouds 18 1016 86 10000 2.8 95 17:21 29.11.2021
4512 Clouds 18 1016 86 10000 2.8 95 16:45 29.11.2021
4513 Clouds 19 1015 79 10000 3.64 92 16:24 29.11.2021
4514 Clouds 21 1014 69 10000 4.46 88 14:46 29.11.2021
4515 Clouds 23 1013 60 10000 3.59 89 13:52 29.11.2021
4516 Clouds 23 1013 58 10000 2.97 96 12:58 29.11.2021
4517 Clouds 24 1013 53 10000 4.38 71 12:19 29.11.2021
4518 Clouds 26 1013 47 10000 2.98 66 11:22 29.11.2021
4519 Clouds 23 1021 60 10000 2.57 140 09:58 29.11.2021
4520 Clouds 19 1022 73 10000 4.12 100 07:21 29.11.2021
4521 Clouds 18 1021 77 10000 3.09 100 05:51 29.11.2021
4522 Clouds 16 1019 94 10000 2.57 50 01:22 29.11.2021
4523 Clouds 16 1019 88 10000 2.57 140 23:47 28.11.2021
4524 Clouds 17 1020 88 10000 3.6 120 23:29 28.11.2021
4525 Clouds 16 1021 94 10000 2.06 80 21:57 28.11.2021
4526 Clouds 17 1021 88 10000 3.6 80 21:38 28.11.2021
4527 Clouds 17 1021 88 10000 6.17 110 20:36 28.11.2021
4528 Clouds 17 1021 88 10000 3.09 140 19:37 28.11.2021
4529 Clouds 17 1020 88 10000 4.12 100 18:40 28.11.2021
4530 Clouds 18 1020 82 10000 3.6 130 17:57 28.11.2021
4531 Clouds 18 1020 82 10000 6.17 100 17:32 28.11.2021
4532 Clouds 19 1019 77 10000 6.69 100 16:45 28.11.2021
4533 Clouds 19 1019 77 10000 6.69 100 16:27 28.11.2021
4534 Clouds 20 1019 73 10000 7.2 90 15:45 28.11.2021
4535 Clouds 24 1018 57 10000 7.2 90 14:51 28.11.2021
4536 Clouds 24 1017 57 10000 5.66 90 13:51 28.11.2021
4537 Clouds 25 1018 53 10000 4.63 100 12:54 28.11.2021
4538 Clouds 25 1019 57 10000 3.6 130 11:21 28.11.2021
4539 Clouds 24 1020 57 10000 4.12 120 10:22 28.11.2021
4540 Clouds 25 1020 57 10000 5.66 110 09:40 28.11.2021
4541 Clouds 21 1021 68 10000 4.63 100 08:28 28.11.2021
4542 Drizzle 17 1019 100 10000 2.06 170 00:49 28.11.2021
4543 Rain 17 1020 100 10000 1.54 0 21:46 27.11.2021
4544 Rain 17 1021 100 5000 1.54 50 19:50 27.11.2021
4545 Thunderstorm 16 1019 100 2500 6.17 130 18:20 27.11.2021
4546 Thunderstorm 21 1017 73 10000 5.66 40 15:59 27.11.2021
4547 Rain 23 1016 64 10000 5.14 30 14:35 27.11.2021
4548 Rain 29 1016 39 10000 2.06 0 13:20 27.11.2021
4549 Rain 26 1017 54 10000 1.54 0 11:23 27.11.2021
4550 Rain 24 1019 61 10000 0.51 0 09:55 27.11.2021
4551 Rain 23 1020 60 10000 1.03 0 08:51 27.11.2021
4552 Clouds 21 1021 73 10000 1.54 170 06:35 27.11.2021
4553 Clouds 17 1019 94 10000 2.06 60 03:52 27.11.2021
4554 Clouds 16 1019 100 10000 2.57 130 00:19 27.11.2021
4555 Rain 16 1019 100 10000 1.54 150 22:41 26.11.2021
4556 Rain 16 1020 100 10000 1.03 0 22:19 26.11.2021
4557 Rain 16 1021 94 10000 2.06 70 21:22 26.11.2021
4558 Rain 16 1021 94 10000 1.54 0 20:40 26.11.2021
4559 Thunderstorm 16 1021 100 10000 2.57 10 19:55 26.11.2021
4560 Thunderstorm 16 1021 88 10000 5.14 30 18:45 26.11.2021
4561 Thunderstorm 19 1021 88 10000 4.12 140 17:26 26.11.2021
4562 Thunderstorm 20 1020 78 10000 6.69 120 16:45 26.11.2021
4563 Rain 25 1018 57 10000 5.14 90 14:50 26.11.2021
4564 Rain 27 1018 51 10000 4.12 90 13:34 26.11.2021
4565 Rain 26 1020 57 10000 4.12 130 10:44 26.11.2021
4566 Rain 25 1021 57 10000 4.12 150 09:49 26.11.2021
4567 Rain 22 1021 68 10000 4.12 170 08:50 26.11.2021
4568 Clouds 21 1021 73 10000 3.09 160 08:20 26.11.2021
4569 Clouds 19 1021 77 10000 3.09 140 06:30 26.11.2021
4570 Clouds 18 1020 88 10000 4.12 140 05:35 26.11.2021
4571 Clouds 16 1019 100 10000 3.6 170 03:39 26.11.2021
4572 Clouds 17 1019 94 10000 3.09 140 23:43 25.11.2021
4573 Clouds 17 1019 94 10000 3.6 310 22:25 25.11.2021
4574 Thunderstorm 17 1020 94 10000 4.63 210 20:45 25.11.2021
4575 Thunderstorm 17 1022 100 8000 2.57 180 19:22 25.11.2021
4576 Thunderstorm 17 1021 100 4000 2.57 230 18:31 25.11.2021
4577 Thunderstorm 19 1018 88 10000 2.57 360 17:28 25.11.2021
4578 Thunderstorm 19 1018 88 10000 3.6 90 16:45 25.11.2021
4579 Thunderstorm 19 1017 94 9000 4.63 130 16:00 25.11.2021
4580 Thunderstorm 22 1015 68 10000 4.63 290 14:31 25.11.2021
4581 Rain 27 1015 47 10000 5.14 30 12:57 25.11.2021
4582 Rain 28 1015 45 10000 5.14 60 11:56 25.11.2021
4583 Rain 29 1016 45 10000 4.63 120 10:43 25.11.2021
4584 Clouds 27 1017 51 10000 3.09 0 08:21 25.11.2021
4585 Clouds 17 1015 100 10000 1.03 0 02:58 25.11.2021
4586 Clouds 19 1015 88 10000 3.6 300 00:37 25.11.2021
4587 Clouds 21 1016 78 10000 5.14 280 22:29 24.11.2021
4588 Clouds 21 1017 78 10000 5.14 280 21:48 24.11.2021
4589 Clouds 21 1017 78 10000 5.66 290 21:22 24.11.2021
4590 Clouds 21 1016 78 10000 4.12 300 20:27 24.11.2021
4591 Clouds 21 1016 78 10000 1.54 310 19:36 24.11.2021
4592 Rain 22 1016 73 10000 3.09 320 18:19 24.11.2021
4593 Rain 24 1014 61 10000 5.66 300 16:21 24.11.2021
4594 Thunderstorm 27 1013 47 10000 7.72 290 14:57 24.11.2021
4595 Thunderstorm 27 1013 47 10000 7.72 290 14:21 24.11.2021
4596 Rain 29 1013 45 10000 7.2 300 13:34 24.11.2021
4597 Rain 31 1014 33 10000 5.66 310 11:26 24.11.2021
4598 Rain 32 1014 35 10000 3.6 350 10:55 24.11.2021
4599 Rain 29 1015 39 10000 2.57 340 10:35 24.11.2021
4600 Clouds 29 1016 42 10000 2.06 0 09:29 24.11.2021
4601 Clouds 25 1017 57 10000 2.57 340 07:39 24.11.2021
4602 Clouds 22 1017 78 10000 1.03 0 05:23 24.11.2021
4603 Clouds 19 1016 94 10000 3.6 300 02:44 24.11.2021
4604 Clouds 19 1016 94 10000 2.57 300 23:33 23.11.2021
4605 Clouds 19 1017 88 10000 2.57 290 22:37 23.11.2021
4606 Clouds 19 1017 94 10000 1.03 0 21:45 23.11.2021
4607 Clouds 20 1018 83 10000 3.6 280 20:22 23.11.2021
4608 Thunderstorm 20 1018 88 10000 3.6 320 19:22 23.11.2021
4609 Thunderstorm 19 1018 94 10000 5.14 20 18:33 23.11.2021
4610 Clouds 25 1017 50 10000 2.57 270 17:23 23.11.2021
4611 Clouds 26 1016 47 10000 4.12 290 16:35 23.11.2021
4612 Clouds 27 1015 44 10000 4.12 270 15:25 23.11.2021
4613 Clouds 28 1015 42 10000 2.57 240 14:44 23.11.2021
4614 Clouds 29 1016 39 10000 3.6 280 12:53 23.11.2021
4615 Clouds 28 1018 30 10000 2.06 0 10:28 23.11.2021
4616 Clouds 28 1018 30 10000 3.09 300 09:45 23.11.2021
4617 Clear 24 1020 44 10000 1.54 0 07:51 23.11.2021
4618 Clouds 17 1019 82 10000 2.57 60 04:38 23.11.2021
4619 Clouds 16 1018 82 10000 1.54 60 03:27 23.11.2021
4620 Clouds 18 1018 82 10000 4.63 100 23:26 22.11.2021
4621 Clouds 18 1019 82 10000 3.09 80 22:56 22.11.2021
4622 Clouds 19 1019 77 10000 4.12 100 22:29 22.11.2021
4623 Clouds 19 1020 83 10000 4.12 100 21:44 22.11.2021
4624 Clouds 20 1020 73 10000 3.09 70 20:56 22.11.2021
4625 Clouds 20 1020 73 10000 4.63 100 20:21 22.11.2021
4626 Clouds 21 1020 68 10000 4.63 120 19:20 22.11.2021
4627 Clouds 21 1019 64 10000 5.14 110 18:40 22.11.2021
4628 Clouds 22 1019 56 10000 5.66 100 17:46 22.11.2021
4629 Clouds 25 1017 44 10000 5.66 100 16:30 22.11.2021
4630 Clouds 28 1016 37 10000 4.63 70 14:28 22.11.2021
4631 Clouds 29 1017 35 10000 4.12 140 12:47 22.11.2021
4632 Clouds 28 1018 39 10000 2.06 0 10:45 22.11.2021
4633 Clouds 27 1019 36 10000 3.6 0 09:48 22.11.2021
4634 Clouds 25 1020 44 10000 3.09 90 08:41 22.11.2021
4635 Clouds 23 1020 50 10000 5.66 120 06:59 22.11.2021
4636 Clouds 18 1018 82 10000 4.12 120 23:39 21.11.2021
4637 Clouds 18 1018 88 10000 4.63 120 22:53 21.11.2021
4638 Clouds 18 1018 88 10000 3.6 130 22:19 21.11.2021
4639 Rain 20 1019 78 10000 2.06 70 20:42 21.11.2021
4640 Clouds 20 1019 78 10000 2.06 70 20:21 21.11.2021
4641 Clouds 22 1018 64 10000 2.57 100 18:30 21.11.2021
4642 Rain 24 1017 53 10000 7.2 110 17:39 21.11.2021
4643 Clouds 25 1016 44 10000 4.12 100 16:46 21.11.2021
4644 Clouds 27 1014 39 10000 4.63 100 14:46 21.11.2021
4645 Rain 21 1012 67 10000 2.89 240 13:49 21.11.2021
4646 Rain 29 1015 30 10000 3.09 0 12:38 21.11.2021
4647 Rain 29 1016 30 10000 2.06 0 11:57 21.11.2021
4648 Rain 28 1016 34 10000 2.57 140 11:35 21.11.2021
4649 Clouds 28 1017 34 10000 2.06 0 10:19 21.11.2021
4650 Clouds 24 1018 53 10000 3.09 40 08:56 21.11.2021
4651 Clouds 24 1018 53 10000 2.06 20 08:26 21.11.2021
4652 Clouds 22 1018 64 10000 3.09 30 07:49 21.11.2021
4653 Clouds 21 1018 64 10000 2.06 80 06:18 21.11.2021
4654 Clouds 19 1018 77 10000 4.12 120 05:26 21.11.2021
4655 Clouds 18 1017 82 10000 3.09 120 03:19 21.11.2021
4656 Clouds 18 1017 82 10000 3.09 140 02:52 21.11.2021
4657 Rain 17 1016 88 10000 3.09 110 00:59 21.11.2021
4658 Clouds 18 1016 82 10000 3.6 40 23:59 20.11.2021
4659 Clouds 18 1018 82 10000 4.12 100 21:49 20.11.2021
4660 Clouds 18 1018 82 10000 4.12 100 21:28 20.11.2021
4661 Clouds 19 1018 77 10000 5.66 110 19:22 20.11.2021
4662 Clouds 20 1018 73 10000 4.63 150 18:45 20.11.2021
4663 Rain 20 1017 73 10000 5.66 120 18:19 20.11.2021
4664 Rain 24 1015 47 10000 4.63 90 16:59 20.11.2021
4665 Clouds 28 1014 32 10000 1.54 0 14:48 20.11.2021
4666 Clouds 28 1014 32 10000 2.06 0 14:27 20.11.2021
4667 Clouds 29 1015 35 10000 2.57 0 12:23 20.11.2021
4668 Clouds 28 1016 39 10000 2.57 110 11:18 20.11.2021
4669 Clouds 25 1018 47 10000 1.54 0 09:51 20.11.2021
4670 Clouds 23 1019 57 10000 1.54 0 07:47 20.11.2021
4671 Clouds 17 1019 88 10000 1.54 90 05:28 20.11.2021
4672 Clouds 16 1019 94 10000 1.54 0 04:50 20.11.2021
4673 Clouds 15 1018 94 10000 1.54 60 03:24 20.11.2021
4674 Clouds 15 1017 94 10000 1.54 60 00:41 20.11.2021
4675 Clouds 16 1018 88 10000 2.06 90 23:43 19.11.2021
4676 Clouds 17 1019 82 10000 3.09 90 22:39 19.11.2021
4677 Clouds 18 1020 82 10000 4.63 110 20:59 19.11.2021
4678 Clouds 18 1020 82 10000 4.63 110 20:37 19.11.2021
4679 Clouds 19 1019 77 10000 4.63 90 19:56 19.11.2021
4680 Clouds 19 1019 77 10000 6.17 110 19:27 19.11.2021
4681 Clouds 19 1019 77 10000 5.14 110 18:43 19.11.2021
4682 Clouds 22 1018 56 10000 7.72 90 17:37 19.11.2021
4683 Clouds 25 1016 36 10000 6.17 80 15:58 19.11.2021
4684 Clouds 29 1016 23 10000 2.06 0 13:56 19.11.2021
4685 Clouds 27 1019 30 10000 3.09 130 10:30 19.11.2021
4686 Clouds 26 1019 32 10000 2.06 0 09:48 19.11.2021
4687 Clouds 23 1021 43 10000 3.09 170 08:26 19.11.2021
4688 Clouds 14 1021 88 7000 1.03 0 04:54 19.11.2021
4689 Clouds 11 1020 100 10000 0 0 02:40 19.11.2021
4690 Clouds 13 1020 88 10000 3.09 110 23:52 18.11.2021
4691 Clouds 14 1021 88 10000 5.14 110 22:21 18.11.2021
4692 Clouds 15 1023 82 10000 4.63 120 20:50 18.11.2021
4693 Clouds 16 1023 77 10000 4.63 130 20:32 18.11.2021
4694 Clouds 16 1022 72 10000 3.6 140 19:55 18.11.2021
4695 Clouds 16 1022 67 10000 3.6 90 19:34 18.11.2021
4696 Clouds 18 1022 59 10000 5.14 100 18:34 18.11.2021
4697 Clouds 20 1021 56 10000 7.2 100 17:51 18.11.2021
4698 Clouds 21 1020 46 10000 5.66 100 16:45 18.11.2021
4699 Clouds 23 1019 38 10000 6.69 90 15:49 18.11.2021
4700 Clouds 27 1019 26 10000 5.66 110 13:40 18.11.2021
4701 Clouds 27 1019 28 10000 5.66 130 12:34 18.11.2021
4702 Clouds 28 1020 28 10000 6.69 100 11:43 18.11.2021
4703 Clouds 27 1020 32 10000 5.14 150 11:24 18.11.2021
4704 Clouds 26 1021 29 10000 7.72 90 09:44 18.11.2021
4705 Clouds 24 1022 33 10000 6.17 100 07:35 18.11.2021
4706 Clouds 18 1022 68 8000 2.57 100 05:55 18.11.2021
4707 Clouds 16 1022 82 6000 2.06 100 05:36 18.11.2021
4708 Clouds 14 1020 100 6000 1.54 70 01:24 18.11.2021
4709 Clouds 14 1020 100 6000 1.54 70 01:24 18.11.2021
4710 Clouds 16 1020 94 10000 2.06 130 23:18 17.11.2021
4711 Clouds 17 1021 94 10000 3.6 110 22:21 17.11.2021
4712 Clouds 17 1021 94 10000 3.6 100 21:53 17.11.2021
4713 Clouds 17 1022 94 10000 3.6 100 21:34 17.11.2021
4714 Clouds 19 1021 73 10000 3.09 90 18:47 17.11.2021
4715 Clouds 22 1020 49 10000 4.12 100 17:28 17.11.2021
4716 Clouds 28 1017 28 10000 7.2 90 14:52 17.11.2021
4717 Clouds 28 1018 28 10000 4.63 80 12:42 17.11.2021
4718 Clouds 29 1018 26 10000 4.63 160 11:49 17.11.2021
4719 Clouds 30 1018 30 10000 1.54 0 10:49 17.11.2021
4720 Clouds 28 1019 39 10000 3.6 210 09:26 17.11.2021
4721 Clouds 26 1020 50 10000 1.54 0 07:45 17.11.2021
4722 Clouds 18 1020 88 8000 0 0 04:47 17.11.2021
4723 Clouds 15 1019 100 10000 1.03 330 02:37 17.11.2021
4724 Clouds 17 1019 88 10000 1.03 90 23:27 16.11.2021
4725 Clouds 18 1020 82 10000 3.6 110 21:27 16.11.2021
4726 Clouds 19 1020 77 10000 3.09 110 20:18 16.11.2021
4727 Clouds 21 1019 64 10000 4.12 70 18:54 16.11.2021
4728 Clouds 21 1019 68 10000 5.14 70 18:36 16.11.2021
4729 Clouds 22 1019 60 10000 3.6 70 17:43 16.11.2021
4730 Clouds 23 1017 53 10000 5.14 70 16:52 16.11.2021
4731 Clouds 24 1017 50 10000 4.63 80 16:18 16.11.2021
4732 Clouds 25 1017 41 10000 3.6 80 15:41 16.11.2021
4733 Clouds 29 1016 30 10000 3.6 140 12:40 16.11.2021
4734 Clouds 27 1019 39 10000 3.09 100 09:49 16.11.2021
4735 Clouds 25 1020 47 10000 4.63 100 08:50 16.11.2021
4736 Clouds 23 1020 57 10000 4.12 130 07:34 16.11.2021
4737 Clouds 17 1020 82 7000 3.6 120 04:45 16.11.2021
4738 Clouds 16 1017 94 10000 2.06 90 23:23 15.11.2021
4739 Clouds 17 1018 77 10000 4.12 60 22:40 15.11.2021
4740 Clouds 17 1019 82 10000 7.2 80 21:55 15.11.2021
4741 Clouds 17 1019 77 10000 3.09 300 21:29 15.11.2021
4742 Rain 16 1021 94 10000 5.66 310 20:26 15.11.2021
4743 Thunderstorm 16 1022 94 8000 2.06 190 18:49 15.11.2021
4744 Rain 23 1019 53 10000 2.57 160 16:56 15.11.2021
4745 Rain 26 1017 26 10000 5.66 90 15:44 15.11.2021
4746 Clouds 27 1017 26 10000 4.12 80 15:25 15.11.2021
4747 Rain 30 1017 27 10000 5.14 100 13:35 15.11.2021
4748 Clouds 30 1018 22 10000 3.09 10 12:18 15.11.2021
4749 Clouds 28 1021 32 10000 3.6 60 09:30 15.11.2021
4750 Clouds 25 1022 50 10000 2.06 0 07:59 15.11.2021
4751 Clouds 18 1022 82 10000 1.54 30 05:25 15.11.2021
4752 Clouds 18 1021 88 9000 3.09 100 00:32 15.11.2021
4753 Clouds 19 1022 83 9000 3.09 120 22:38 14.11.2021
4754 Rain 19 1023 83 10000 3.6 100 20:51 14.11.2021
4755 Rain 20 1022 78 10000 4.63 100 19:18 14.11.2021
4756 Rain 21 1022 73 10000 3.09 70 18:54 14.11.2021
4757 Rain 21 1021 68 10000 3.09 60 18:36 14.11.2021
4758 Rain 21 1021 68 10000 3.09 60 18:18 14.11.2021
4759 Rain 22 1021 53 10000 5.14 90 17:57 14.11.2021
4760 Rain 23 1020 43 10000 3.09 60 17:39 14.11.2021
4761 Clouds 23 1020 43 10000 3.09 60 17:21 14.11.2021
4762 Clouds 24 1020 41 10000 3.09 70 16:49 14.11.2021
4763 Clouds 25 1019 38 10000 4.12 60 16:21 14.11.2021
4764 Clouds 26 1019 34 10000 4.12 40 15:46 14.11.2021
4765 Clouds 27 1019 34 10000 5.14 50 15:18 14.11.2021
4766 Clouds 30 1018 25 10000 4.12 60 14:32 14.11.2021
4767 Clouds 30 1018 23 10000 1.54 0 13:59 14.11.2021
4768 Clouds 31 1018 22 10000 3.09 0 13:40 14.11.2021
4769 Clouds 31 1019 19 10000 3.09 0 12:29 14.11.2021
4770 Clouds 30 1019 27 10000 4.12 180 11:58 14.11.2021
4771 Clouds 29 1020 30 10000 2.06 0 10:45 14.11.2021
4772 Clouds 28 1021 32 10000 1.54 0 10:26 14.11.2021
4773 Clouds 26 1022 44 10000 2.57 190 08:56 14.11.2021
4774 Clouds 22 1022 64 10000 2.06 90 07:24 14.11.2021
4775 Clouds 17 1020 88 10000 2.57 110 01:24 14.11.2021
4776 Clouds 18 1021 82 10000 3.09 80 22:26 13.11.2021
4777 Clouds 18 1021 82 10000 3.09 80 21:57 13.11.2021
4778 Clouds 19 1022 77 10000 3.6 90 21:25 13.11.2021
4779 Thunderstorm 19 1023 83 10000 3.6 100 19:47 13.11.2021
4780 Clouds 21 1022 68 8000 4.12 120 18:33 13.11.2021
4781 Rain 21 1021 68 6000 4.63 90 17:56 13.11.2021
4782 Clouds 24 1019 50 8000 8.23 100 16:38 13.11.2021
4783 Clouds 27 1018 30 10000 5.14 90 15:34 13.11.2021
4784 Clouds 30 1017 25 10000 5.66 110 14:30 13.11.2021
4785 Clouds 29 1017 28 10000 4.12 0 13:32 13.11.2021
4786 Clouds 31 1018 22 10000 3.09 180 12:24 13.11.2021
4787 Clouds 30 1018 29 10000 2.57 90 11:34 13.11.2021
4788 Clouds 30 1019 27 10000 2.57 0 10:45 13.11.2021
4789 Clouds 29 1019 32 10000 2.57 0 10:20 13.11.2021
4790 Clouds 27 1020 36 10000 1.54 0 09:37 13.11.2021
4791 Clouds 26 1021 44 10000 2.06 0 08:56 13.11.2021
4792 Clouds 26 1021 47 10000 2.06 0 08:23 13.11.2021
4793 Clouds 18 1021 77 10000 3.09 70 04:48 13.11.2021
4794 Clouds 17 1021 82 10000 3.09 60 04:30 13.11.2021
4795 Clouds 16 1018 94 10000 3.09 80 01:35 13.11.2021
4796 Clouds 16 1019 94 10000 3.6 100 22:58 12.11.2021
4797 Clouds 17 1020 88 10000 3.6 80 21:45 12.11.2021
4798 Clouds 18 1020 88 10000 3.6 90 19:54 12.11.2021
4799 Clouds 19 1020 83 10000 4.12 100 19:27 12.11.2021
4800 Clouds 20 1019 73 10000 5.14 110 18:29 12.11.2021
4801 Clouds 23 1017 50 10000 6.17 110 16:34 12.11.2021
4802 Clouds 25 1017 41 10000 6.17 110 15:32 12.11.2021
4803 Clouds 29 1017 32 10000 5.14 110 11:54 12.11.2021
4804 Clouds 28 1018 37 10000 5.14 130 10:51 12.11.2021
4805 Clouds 27 1019 36 10000 3.09 140 09:37 12.11.2021
4806 Clouds 25 1020 44 10000 3.09 0 08:38 12.11.2021
4807 Clouds 16 1018 94 10000 2.06 130 02:28 12.11.2021
4808 Rain 18 1017 82 10000 2.06 60 23:41 11.11.2021
4809 Clouds 19 1018 77 10000 1.54 60 22:31 11.11.2021
4810 Rain 20 1018 73 10000 2.57 110 21:27 11.11.2021
4811 Rain 21 1018 68 10000 3.09 110 20:40 11.11.2021
4812 Clouds 23 1019 60 10000 1.54 0 18:56 11.11.2021
4813 Clouds 23 1017 57 6000 3.6 110 17:43 11.11.2021
4814 Clouds 25 1016 47 6000 5.14 120 16:43 11.11.2021
4815 Clouds 28 1015 28 10000 5.14 130 14:46 11.11.2021
4816 Clouds 30 1015 25 10000 5.14 130 14:28 11.11.2021
4817 Clouds 31 1015 23 10000 2.57 0 13:37 11.11.2021
4818 Clouds 31 1016 22 10000 5.14 150 12:48 11.11.2021
4819 Clouds 30 1017 27 10000 2.57 0 10:36 11.11.2021
4820 Clouds 28 1018 37 8000 2.57 0 09:33 11.11.2021
4821 Smoke 24 1019 53 5000 2.57 140 07:38 11.11.2021
4822 Clouds 17 1018 88 6000 3.6 110 03:58 11.11.2021
4823 Clouds 19 1019 83 8000 2.06 100 22:59 10.11.2021
4824 Rain 19 1019 83 5000 3.09 110 22:22 10.11.2021
4825 Rain 19 1019 83 5000 3.09 110 22:22 10.11.2021
4826 Rain 20 1020 83 6000 2.57 70 21:18 10.11.2021
4827 Rain 20 1020 83 6000 3.09 90 20:45 10.11.2021
4828 Clouds 21 1020 78 6000 4.12 90 19:46 10.11.2021
4829 Smoke 23 1020 64 5000 3.09 100 17:50 10.11.2021
4830 Rain 25 1018 50 6000 5.14 120 16:33 10.11.2021
4831 Clouds 28 1017 37 10000 6.69 110 14:44 10.11.2021
4832 Clouds 31 1017 33 10000 5.14 100 13:40 10.11.2021
4833 Clouds 32 1017 31 10000 3.09 110 12:44 10.11.2021
4834 Clouds 29 1020 37 10000 2.57 0 10:39 10.11.2021
4835 Clouds 28 1021 45 10000 2.06 0 08:45 10.11.2021
4836 Clouds 24 1022 65 10000 1.03 0 07:32 10.11.2021
4837 Clouds 24 1022 65 10000 1.03 0 07:32 10.11.2021
4838 Clouds 23 1022 69 10000 2.06 50 06:26 10.11.2021
4839 Clouds 20 1022 78 10000 2.57 70 05:51 10.11.2021
4840 Clouds 18 1021 94 10000 1.54 80 23:52 09.11.2021
4841 Clouds 19 1022 88 10000 3.6 100 21:47 09.11.2021
4842 Clouds 19 1022 88 10000 3.6 100 21:47 09.11.2021
4843 Clouds 20 1022 83 10000 2.57 70 20:26 09.11.2021
4844 Rain 20 1022 83 10000 4.63 100 19:20 09.11.2021
4845 Clouds 22 1021 73 6000 5.66 130 17:30 09.11.2021
4846 Clouds 29 1018 37 10000 6.69 90 15:38 09.11.2021
4847 Clouds 31 1018 23 10000 3.6 70 14:24 09.11.2021
4848 Clouds 31 1018 27 10000 2.57 180 12:50 09.11.2021
4849 Clouds 30 1019 30 10000 4.12 190 11:38 09.11.2021
4850 Clouds 30 1019 30 10000 4.12 190 11:38 09.11.2021
4851 Clouds 30 1020 25 10000 1.54 0 10:43 09.11.2021
4852 Clouds 27 1021 42 10000 2.57 300 09:24 09.11.2021
4853 Clouds 26 1021 44 10000 2.06 0 08:18 09.11.2021
4854 Clouds 20 1022 68 8000 1.03 0 05:45 09.11.2021
4855 Clouds 15 1021 94 10000 1.54 50 02:19 09.11.2021
4856 Clouds 15 1020 94 10000 1.54 0 01:39 09.11.2021
4857 Clouds 16 1017 93 10000 0.88 97 23:35 08.11.2021
4858 Clouds 16 1021 88 10000 2.06 90 22:48 08.11.2021
4859 Clouds 17 1021 88 10000 3.6 100 21:46 08.11.2021
4860 Clouds 17 1022 88 10000 4.12 90 20:38 08.11.2021
4861 Clouds 18 1022 82 10000 3.09 70 19:46 08.11.2021
4862 Clouds 20 1020 68 6000 5.14 100 17:48 08.11.2021
4863 Clouds 26 1018 47 10000 7.2 100 15:59 08.11.2021
4864 Clouds 28 1017 32 10000 5.66 90 14:57 08.11.2021
4865 Clouds 29 1017 30 10000 6.17 90 14:34 08.11.2021
4866 Clouds 29 1017 32 10000 5.14 160 13:22 08.11.2021
4867 Clouds 30 1018 27 10000 4.12 120 11:56 08.11.2021
4868 Clouds 29 1018 30 10000 3.09 0 10:50 08.11.2021
4869 Clouds 27 1019 36 10000 3.09 80 09:31 08.11.2021
4870 Clouds 26 1020 39 10000 3.09 80 08:52 08.11.2021
4871 Clouds 23 1021 53 10000 3.09 110 07:27 08.11.2021
4872 Clouds 16 1019 88 10000 3.09 90 03:38 08.11.2021
4873 Clouds 16 1019 88 10000 3.09 90 03:19 08.11.2021
4874 Rain 18 1019 88 10000 4.63 90 23:33 07.11.2021
4875 Clouds 19 1021 77 10000 4.63 100 21:31 07.11.2021
4876 Rain 19 1021 77 10000 4.63 110 20:36 07.11.2021
4877 Clouds 19 1021 77 10000 4.12 100 19:22 07.11.2021
4878 Rain 20 1020 78 10000 5.14 110 17:47 07.11.2021
4879 Rain 21 1018 68 10000 7.72 100 16:44 07.11.2021
4880 Rain 24 1018 57 10000 6.69 100 15:42 07.11.2021
4881 Clouds 27 1017 44 10000 4.63 90 14:28 07.11.2021
4882 Clouds 28 1017 45 10000 5.66 90 12:55 07.11.2021
4883 Clouds 29 1017 37 10000 2.06 0 11:42 07.11.2021
4884 Rain 25 1020 50 10000 3.09 150 09:21 07.11.2021
4885 Clouds 17 1019 82 10000 3.09 100 03:40 07.11.2021
4886 Rain 17 1018 88 10000 3.09 90 02:28 07.11.2021
4887 Clouds 18 1020 82 10000 4.12 100 22:57 06.11.2021
4888 Clouds 18 1020 82 10000 4.12 100 22:29 06.11.2021
4889 Clouds 18 1021 82 10000 5.66 110 21:27 06.11.2021
4890 Clouds 18 1021 82 10000 4.63 130 20:30 06.11.2021
4891 Rain 19 1020 77 10000 5.14 140 17:50 06.11.2021
4892 Rain 21 1018 68 10000 7.2 110 16:38 06.11.2021
4893 Rain 25 1016 47 10000 6.69 70 14:31 06.11.2021
4894 Clouds 27 1016 42 10000 4.63 70 13:37 06.11.2021
4895 Clouds 27 1018 36 10000 3.6 130 11:24 06.11.2021
4896 Clouds 26 1019 47 10000 3.6 120 09:20 06.11.2021
4897 Clouds 18 1020 82 10000 2.06 60 04:52 06.11.2021
4898 Rain 18 1019 88 10000 3.09 150 00:43 06.11.2021
4899 Rain 17 1019 94 10000 4.12 110 23:31 05.11.2021
4900 Rain 18 1020 88 10000 4.63 110 22:33 05.11.2021
4901 Rain 18 1020 88 10000 4.63 110 22:33 05.11.2021
4902 Rain 19 1021 83 8000 4.12 120 20:41 05.11.2021
4903 Rain 19 1021 88 8000 6.17 110 19:51 05.11.2021
4904 Rain 20 1020 83 6000 4.12 140 18:56 05.11.2021
4905 Rain 19 1019 73 10000 3.09 180 18:37 05.11.2021
4906 Smoke 22 1019 73 3500 5.14 140 16:49 05.11.2021
4907 Clouds 28 1016 39 10000 6.17 120 14:33 05.11.2021
4908 Clouds 28 1017 39 10000 2.06 140 12:27 05.11.2021
4909 Clouds 30 1019 35 10000 4.63 120 09:47 05.11.2021
4910 Clouds 28 1021 48 10000 3.6 170 08:31 05.11.2021
4911 Clouds 23 1021 60 8000 2.57 160 06:40 05.11.2021
4912 Mist 16 1020 100 2000 0 0 03:38 05.11.2021
4913 Clouds 16 1019 100 8000 0 0 02:21 05.11.2021
4914 Clouds 17 1019 100 10000 1.03 240 23:58 04.11.2021
4915 Clouds 18 1020 88 10000 1.03 0 22:36 04.11.2021
4916 Clouds 18 1020 88 10000 1.03 0 22:18 04.11.2021
4917 Clouds 19 1021 83 10000 1.54 70 21:27 04.11.2021
4918 Clouds 19 1021 88 10000 1.54 0 20:29 04.11.2021
4919 Rain 21 1021 68 10000 4.63 200 19:49 04.11.2021
4920 Rain 22 1021 60 10000 4.12 310 19:27 04.11.2021
4921 Rain 22 1020 64 10000 1.54 0 18:26 04.11.2021
4922 Rain 23 1019 57 10000 3.09 330 17:26 04.11.2021
4923 Clouds 27 1018 39 10000 3.09 340 15:46 04.11.2021
4924 Clouds 31 1017 23 10000 2.06 350 13:45 04.11.2021
4925 Clouds 30 1019 30 10000 2.06 0 10:35 04.11.2021
4926 Clouds 28 1021 34 10000 4.63 150 08:41 04.11.2021
4927 Clouds 25 1021 57 8000 2.06 180 07:36 04.11.2021
4928 Clouds 24 1021 65 6000 2.57 160 06:59 04.11.2021
4929 Clouds 18 1020 94 10000 1.03 0 23:18 03.11.2021
4930 Thunderstorm 18 1021 94 10000 0 0 22:22 03.11.2021
4931 Thunderstorm 18 1022 94 10000 3.09 340 21:36 03.11.2021
4932 Thunderstorm 18 1022 94 8000 2.06 10 20:39 03.11.2021
4933 Thunderstorm 18 1022 94 8000 2.06 10 20:21 03.11.2021
4934 Thunderstorm 18 1022 94 4500 3.6 100 19:28 03.11.2021
4935 Thunderstorm 20 1021 73 10000 4.63 360 18:26 03.11.2021
4936 Thunderstorm 21 1021 78 10000 2.57 40 17:41 03.11.2021
4937 Thunderstorm 22 1019 73 10000 5.66 90 16:46 03.11.2021
4938 Thunderstorm 23 1018 69 10000 6.17 100 15:49 03.11.2021
4939 Thunderstorm 24 1018 61 8000 5.66 140 15:29 03.11.2021
4940 Clouds 27 1017 36 10000 2.06 200 13:18 03.11.2021
4941 Clouds 31 1018 29 10000 2.06 0 11:34 03.11.2021
4942 Clouds 30 1019 29 10000 2.57 0 10:49 03.11.2021
4943 Clouds 28 1021 42 10000 3.09 0 09:40 03.11.2021
4944 Clouds 27 1021 42 10000 2.06 330 08:41 03.11.2021
4945 Clouds 25 1021 53 10000 2.06 0 07:40 03.11.2021
4946 Clouds 22 1021 68 9000 1.03 0 06:30 03.11.2021
4947 Clouds 15 1020 100 8000 0 0 04:22 03.11.2021
4948 Clouds 16 1019 88 10000 1.54 60 00:55 03.11.2021
4949 Clouds 17 1020 82 10000 0.51 180 22:52 02.11.2021
4950 Clouds 17 1021 88 10000 1.54 110 21:47 02.11.2021
4951 Clouds 19 1021 77 10000 2.06 150 20:35 02.11.2021
4952 Clouds 19 1021 77 10000 3.09 140 19:56 02.11.2021
4953 Clouds 19 1021 77 10000 3.09 110 19:20 02.11.2021
4954 Rain 19 1020 77 10000 3.6 90 18:27 02.11.2021
4955 Rain 20 1019 68 10000 4.63 110 17:43 02.11.2021
4956 Clouds 25 1018 41 10000 3.09 10 16:34 02.11.2021
4957 Clouds 26 1017 36 10000 2.06 360 15:48 02.11.2021
4958 Rain 27 1017 34 10000 5.66 330 14:50 02.11.2021
4959 Clouds 29 1016 30 10000 3.09 0 13:29 02.11.2021
4960 Clouds 30 1017 27 10000 3.09 0 12:46 02.11.2021
4961 Clouds 30 1017 29 10000 3.09 0 11:38 02.11.2021
4962 Clouds 30 1018 29 10000 2.57 0 10:54 02.11.2021
4963 Clouds 28 1018 34 10000 2.57 0 10:32 02.11.2021
4964 Clouds 27 1019 39 10000 2.57 0 09:23 02.11.2021
4965 Clouds 24 1020 50 10000 2.06 0 07:45 02.11.2021
4966 Clouds 15 1019 88 10000 2.57 310 04:39 02.11.2021
4967 Clouds 16 1018 77 10000 1.54 330 02:49 02.11.2021
4968 Clouds 16 1018 77 10000 1.03 10 23:32 01.11.2021
4969 Clouds 18 1019 63 10000 0.51 0 21:28 01.11.2021
4970 Clouds 19 1019 56 10000 2.57 350 20:40 01.11.2021
4971 Clouds 20 1019 52 10000 2.06 350 19:58 01.11.2021
4972 Clouds 20 1019 52 10000 2.06 350 19:58 01.11.2021
4973 Clouds 20 1019 52 10000 2.57 340 19:35 01.11.2021
4974 Rain 21 1018 49 10000 2.57 320 18:23 01.11.2021
4975 Rain 21 1017 49 10000 3.09 310 17:35 01.11.2021
4976 Clouds 23 1017 41 10000 4.63 310 16:50 01.11.2021
4977 Clouds 26 1017 34 10000 6.17 310 15:56 01.11.2021
4978 Clouds 26 1016 34 10000 5.66 320 15:27 01.11.2021
4979 Clouds 27 1016 32 10000 5.66 310 14:44 01.11.2021
4980 Clouds 27 1016 30 10000 6.17 310 14:23 01.11.2021
4981 Clouds 27 1016 28 10000 6.17 290 13:49 01.11.2021
4982 Clouds 29 1017 26 10000 5.66 320 12:33 01.11.2021
4983 Clouds 27 1018 32 10000 4.12 360 10:36 01.11.2021
4984 Clouds 27 1019 36 10000 3.09 0 09:35 01.11.2021
4985 Clouds 25 1021 47 10000 3.09 350 07:49 01.11.2021
4986 Clouds 23 1021 53 10000 3.09 0 07:29 01.11.2021
4987 Clouds 15 1019 100 10000 1.54 0 03:45 01.11.2021
4988 Clouds 15 1018 100 10000 2.57 70 00:41 01.11.2021
4989 Clouds 17 1019 88 10000 2.57 70 22:31 31.10.2021
4990 Clouds 18 1020 72 10000 0 0 20:50 31.10.2021
4991 Clouds 20 1020 49 10000 1.03 0 18:57 31.10.2021
4992 Clouds 21 1020 49 10000 4.63 310 18:37 31.10.2021
4993 Rain 22 1019 43 10000 3.6 310 17:23 31.10.2021
4994 Clouds 25 1018 38 10000 4.12 360 15:48 31.10.2021
4995 Clouds 28 1017 32 10000 2.57 320 13:56 31.10.2021
4996 Clouds 28 1018 32 10000 6.69 360 12:49 31.10.2021
4997 Clouds 28 1018 32 10000 4.63 50 11:38 31.10.2021
4998 Clouds 27 1019 34 10000 4.12 350 10:41 31.10.2021
4999 Clouds 25 1020 41 10000 3.6 0 09:20 31.10.2021
5000 Clouds 21 1021 60 10000 5.14 40 07:20 31.10.2021
5001 Clouds 15 1018 94 10000 1.54 70 00:54 31.10.2021
5002 Clouds 15 1019 94 10000 1.54 90 22:36 30.10.2021
5003 Clouds 17 1020 82 10000 3.6 100 21:34 30.10.2021
5004 Rain 17 1016 81 10000 2.48 90 20:21 30.10.2021
5005 Rain 21 1017 53 10000 2.57 30 18:36 30.10.2021
5006 Clouds 23 1017 46 10000 4.63 20 16:53 30.10.2021
5007 Clouds 24 1016 41 10000 3.09 10 14:43 30.10.2021
5008 Clouds 24 1016 44 10000 5.66 30 13:39 30.10.2021
5009 Clouds 24 1016 44 10000 5.66 30 13:20 30.10.2021
5010 Clouds 25 1017 38 10000 4.63 30 11:51 30.10.2021
5011 Clouds 25 1017 41 10000 5.66 40 11:31 30.10.2021
5012 Clouds 22 1018 49 10000 4.63 40 10:24 30.10.2021
5013 Clouds 21 1019 56 10000 4.12 40 08:48 30.10.2021
5014 Clouds 15 1018 82 10000 4.12 80 06:26 30.10.2021
5015 Clouds 14 1018 88 10000 2.06 60 05:38 30.10.2021
5016 Clouds 14 1017 88 10000 3.6 100 23:52 29.10.2021
5017 Rain 14 1018 88 10000 3.6 90 22:36 29.10.2021
5018 Rain 14 1018 88 10000 3.6 120 21:23 29.10.2021
5019 Rain 14 1018 88 10000 5.66 110 20:42 29.10.2021
5020 Rain 15 1018 82 10000 4.12 100 19:44 29.10.2021
5021 Clouds 16 1017 77 10000 5.66 100 18:26 29.10.2021
5022 Rain 17 1016 72 10000 5.14 100 16:50 29.10.2021
5023 Clouds 19 1014 68 10000 4.63 80 14:29 29.10.2021
5024 Rain 18 1017 68 10000 4.12 120 10:52 29.10.2021
5025 Rain 19 1017 64 10000 3.6 120 10:33 29.10.2021
5026 Clouds 16 1017 77 10000 3.6 120 07:23 29.10.2021
5027 Clouds 14 1016 94 10000 3.6 140 00:35 29.10.2021
5028 Drizzle 14 1017 100 10000 4.12 100 22:51 28.10.2021
5029 Clouds 15 1017 88 10000 5.66 100 21:32 28.10.2021
5030 Clouds 16 1017 88 8000 6.17 110 20:20 28.10.2021
5031 Smoke 17 1017 88 5000 6.17 110 19:23 28.10.2021
5032 Smoke 19 1016 77 5000 6.17 140 17:59 28.10.2021
5033 Rain 21 1015 68 7000 8.23 110 16:57 28.10.2021
5034 Clouds 25 1013 53 10000 4.63 180 15:20 28.10.2021
5035 Clouds 32 1013 27 10000 6.17 310 13:35 28.10.2021
5036 Clouds 30 1013 30 10000 7.2 300 12:53 28.10.2021
5037 Clouds 30 1014 33 10000 4.63 0 12:34 28.10.2021
5038 Clouds 28 1016 37 10000 2.57 0 10:48 28.10.2021
5039 Clouds 26 1017 44 10000 3.09 0 09:38 28.10.2021
5040 Clouds 24 1017 47 10000 3.6 310 08:37 28.10.2021
5041 Clouds 23 1017 50 10000 3.6 320 07:47 28.10.2021
5042 Clouds 16 1016 100 10000 3.6 310 04:19 28.10.2021
5043 Clouds 19 1019 77 10000 1.03 60 23:26 27.10.2021
5044 Clouds 19 1018 73 10000 1.54 50 22:29 27.10.2021
5045 Clouds 19 1019 73 10000 1.03 30 21:32 27.10.2021
5046 Clouds 19 1019 73 10000 1.03 0 20:48 27.10.2021
5047 Clouds 21 1019 64 10000 3.09 290 19:50 27.10.2021
5048 Clouds 21 1019 64 10000 1.54 0 18:56 27.10.2021
5049 Clouds 21 1019 64 10000 2.57 50 18:37 27.10.2021
5050 Clouds 23 1018 57 10000 3.6 340 16:26 27.10.2021
5051 Thunderstorm 25 1018 47 10000 5.14 230 15:29 27.10.2021
5052 Clouds 29 1017 28 10000 1.54 0 14:38 27.10.2021
5053 Clouds 27 1020 39 10000 2.57 0 11:19 27.10.2021
5054 Clouds 27 1021 39 10000 4.12 210 10:57 27.10.2021
5055 Clouds 24 1023 47 10000 2.06 0 09:38 27.10.2021
5056 Clouds 20 1023 56 10000 2.57 60 07:51 27.10.2021
5057 Clouds 16 1024 77 10000 1.54 140 06:36 27.10.2021
5058 Clouds 13 1024 88 10000 2.57 70 01:29 27.10.2021
5059 Clouds 14 1024 88 10000 2.06 70 00:55 27.10.2021
5060 Clouds 15 1025 82 10000 1.54 0 23:56 26.10.2021
5061 Clouds 15 1025 82 10000 4.12 110 22:55 26.10.2021
5062 Clouds 16 1025 77 10000 3.6 130 22:27 26.10.2021
5063 Clouds 16 1025 77 10000 4.12 120 21:51 26.10.2021
5064 Clouds 16 1025 82 10000 4.12 90 20:26 26.10.2021
5065 Clouds 17 1025 77 10000 6.17 100 19:25 26.10.2021
5066 Clouds 19 1024 68 9000 5.14 100 18:30 26.10.2021
5067 Clouds 24 1022 44 10000 6.17 120 15:54 26.10.2021
5068 Clouds 26 1022 39 10000 6.17 100 14:18 26.10.2021
5069 Clouds 23 1024 46 10000 6.69 100 11:31 26.10.2021
5070 Clouds 23 1025 50 10000 6.69 110 09:28 26.10.2021
5071 Clouds 19 1026 60 10000 5.66 110 07:23 26.10.2021
5072 Clouds 15 1025 82 10000 4.63 110 00:31 26.10.2021
5073 Clouds 15 1025 82 10000 4.12 110 23:48 25.10.2021
5074 Clouds 17 1026 77 10000 3.6 130 22:36 25.10.2021
5075 Clouds 17 1025 82 10000 4.12 110 21:48 25.10.2021
5076 Clouds 16 1026 88 10000 3.6 90 21:23 25.10.2021
5077 Clouds 19 1025 77 10000 5.66 100 19:44 25.10.2021
5078 Clouds 19 1025 77 10000 5.66 100 19:24 25.10.2021
5079 Clouds 19 1025 77 10000 6.69 110 18:42 25.10.2021
5080 Clouds 19 1024 77 10000 5.66 110 17:42 25.10.2021
5081 Clouds 24 1022 57 10000 8.75 110 15:24 25.10.2021
5082 Clouds 27 1022 44 10000 6.17 90 13:29 25.10.2021
5083 Clouds 27 1024 51 10000 6.17 110 11:25 25.10.2021
5084 Clouds 23 1025 60 10000 6.17 110 09:22 25.10.2021
5085 Clouds 20 1025 83 10000 4.63 100 07:26 25.10.2021
5086 Clouds 20 1025 83 10000 4.63 100 07:26 25.10.2021
5087 Clouds 17 1024 94 10000 2.06 140 05:24 25.10.2021
5088 Clouds 16 1023 100 10000 1.03 0 00:52 25.10.2021
5089 Clouds 16 1024 100 10000 1.03 80 00:34 25.10.2021
5090 Clouds 16 1024 100 10000 1.03 80 00:34 25.10.2021
5091 Rain 17 1025 100 10000 3.6 50 23:42 24.10.2021
5092 Thunderstorm 17 1025 100 10000 8.75 110 22:39 24.10.2021
5093 Thunderstorm 17 1025 100 10000 8.75 110 22:20 24.10.2021
5094 Thunderstorm 16 1026 100 10000 2.57 60 21:33 24.10.2021
5095 Thunderstorm 20 1025 78 8000 8.23 180 20:39 24.10.2021
5096 Thunderstorm 20 1024 83 10000 3.6 90 19:47 24.10.2021
5097 Rain 21 1023 73 10000 6.17 100 18:29 24.10.2021
5098 Rain 21 1023 68 10000 8.23 130 17:45 24.10.2021
5099 Clouds 27 1019 44 10000 5.66 100 15:56 24.10.2021
5100 Clouds 27 1020 42 10000 8.23 100 15:19 24.10.2021
5101 Clouds 32 1020 24 10000 2.06 0 13:19 24.10.2021
5102 Clouds 32 1021 25 10000 3.6 60 11:56 24.10.2021
5103 Clouds 30 1022 30 10000 2.57 0 11:26 24.10.2021
5104 Clouds 28 1023 37 10000 1.54 0 10:30 24.10.2021
5105 Clouds 25 1023 50 10000 1.54 0 07:59 24.10.2021
5106 Clouds 16 1021 88 10000 2.57 50 01:26 24.10.2021
5107 Clouds 18 1021 82 10000 3.09 50 23:51 23.10.2021
5108 Clouds 18 1022 82 10000 2.06 80 22:32 23.10.2021
5109 Clouds 20 1021 46 10000 2.06 50 20:39 23.10.2021
5110 Clouds 21 1019 43 10000 2.06 330 18:59 23.10.2021
5111 Clouds 22 1019 38 10000 3.09 320 18:31 23.10.2021
5112 Clouds 24 1019 31 10000 4.12 320 17:44 23.10.2021
5113 Clouds 28 1018 21 10000 7.2 310 16:38 23.10.2021
5114 Clouds 31 1018 15 10000 7.2 310 14:35 23.10.2021
5115 Clouds 27 1022 39 10000 4.63 20 09:45 23.10.2021
5116 Clouds 16 1020 100 10000 1.03 0 00:25 23.10.2021
5117 Clouds 16 1021 94 10000 2.06 70 23:22 22.10.2021
5118 Clouds 17 1021 88 10000 1.54 100 20:55 22.10.2021
5119 Rain 20 1019 78 10000 4.12 100 18:57 22.10.2021
5120 Rain 23 1018 60 10000 3.6 100 17:44 22.10.2021
5121 Clouds 29 1017 32 10000 6.17 340 15:50 22.10.2021
5122 Clouds 29 1017 30 10000 4.63 360 14:23 22.10.2021
5123 Clouds 28 1018 34 10000 4.63 340 11:33 22.10.2021
5124 Clouds 27 1019 34 10000 4.12 360 10:48 22.10.2021
5125 Clouds 26 1019 44 10000 4.63 360 09:56 22.10.2021
5126 Clouds 26 1020 44 10000 4.12 350 09:30 22.10.2021
5127 Clouds 21 1020 68 8000 1.03 0 07:25 22.10.2021
5128 Clouds 14 1018 100 10000 1.03 0 03:48 22.10.2021
5129 Clouds 15 1019 94 10000 1.54 320 00:19 22.10.2021
5130 Clouds 15 1019 94 10000 2.57 310 23:39 21.10.2021
5131 Clouds 17 1020 82 10000 2.57 290 22:21 21.10.2021
5132 Clouds 19 1019 73 10000 1.03 0 20:53 21.10.2021
5133 Clouds 19 1019 73 10000 1.03 0 20:19 21.10.2021
5134 Thunderstorm 18 1018 77 10000 2.06 310 19:30 21.10.2021
5135 Thunderstorm 18 1018 82 10000 1.03 0 18:52 21.10.2021
5136 Thunderstorm 18 1018 77 10000 2.57 350 18:19 21.10.2021
5137 Thunderstorm 20 1018 64 10000 5.14 330 17:39 21.10.2021
5138 Rain 25 1016 47 10000 4.12 350 15:54 21.10.2021
5139 Rain 23 1016 60 10000 4.12 360 15:20 21.10.2021
5140 Rain 27 1016 39 10000 6.17 300 14:38 21.10.2021
5141 Rain 26 1017 41 10000 5.66 290 13:19 21.10.2021
5142 Clouds 25 1019 50 10000 3.09 300 11:24 21.10.2021
5143 Clouds 18 1021 77 10000 3.6 30 08:55 21.10.2021
5144 Clouds 16 1021 88 10000 3.6 30 07:29 21.10.2021
5145 Clouds 14 1020 94 10000 1.03 70 03:31 21.10.2021
5146 Clouds 16 1022 82 10000 4.63 100 23:29 20.10.2021
5147 Clouds 16 1022 88 10000 4.12 100 21:52 20.10.2021
5148 Clouds 16 1022 82 10000 4.12 100 21:30 20.10.2021
5149 Clouds 16 1022 82 10000 3.6 90 20:54 20.10.2021
5150 Clouds 17 1022 77 10000 5.14 100 20:28 20.10.2021
5151 Clouds 17 1021 77 10000 4.63 100 19:51 20.10.2021
5152 Clouds 19 1021 68 10000 6.69 90 18:54 20.10.2021
5153 Clouds 21 1020 53 10000 4.63 90 17:45 20.10.2021
5154 Clouds 27 1019 34 10000 2.57 70 15:39 20.10.2021
5155 Clouds 24 1022 44 10000 2.57 0 10:43 20.10.2021
5156 Clouds 21 1024 53 10000 2.57 80 08:53 20.10.2021
5157 Clouds 15 1022 77 10000 4.12 110 03:21 20.10.2021
5158 Clouds 16 1022 82 10000 4.63 120 00:43 20.10.2021
5159 Clouds 16 1023 88 10000 3.09 90 23:59 19.10.2021
5160 Clouds 16 1024 88 10000 2.57 90 21:43 19.10.2021
5161 Clouds 16 1023 88 10000 4.12 150 20:54 19.10.2021
5162 Clouds 17 1023 82 10000 4.12 140 20:22 19.10.2021
5163 Clouds 18 1023 68 10000 3.09 140 19:41 19.10.2021
5164 Clouds 20 1022 56 10000 7.72 100 18:53 19.10.2021
5165 Clouds 20 1022 56 10000 7.72 100 18:53 19.10.2021
5166 Clouds 21 1021 43 10000 4.63 80 17:58 19.10.2021
5167 Clouds 28 1019 24 10000 4.63 130 15:39 19.10.2021
5168 Clouds 28 1019 24 10000 4.63 130 15:19 19.10.2021
5169 Clouds 28 1019 24 10000 4.63 130 14:23 19.10.2021
5170 Clouds 29 1020 25 10000 3.6 90 12:38 19.10.2021
5171 Clouds 28 1021 28 10000 2.06 0 11:32 19.10.2021
5172 Clouds 26 1022 34 10000 2.57 0 10:19 19.10.2021
5173 Clouds 23 1023 38 10000 2.06 0 08:57 19.10.2021
5174 Clouds 15 1023 82 10000 2.06 80 06:34 19.10.2021
5175 Clouds 13 1022 94 10000 2.06 60 00:24 19.10.2021
5176 Clouds 13 1022 94 10000 3.09 90 23:49 18.10.2021
5177 Clear 12 1020 97 10000 0.67 91 23:19 18.10.2021
5178 Clouds 14 1023 88 10000 2.57 100 22:51 18.10.2021
5179 Clouds 15 1023 88 10000 4.12 100 21:18 18.10.2021
5180 Clouds 15 1023 88 10000 4.12 100 20:41 18.10.2021
5181 Clouds 16 1023 82 10000 4.12 100 19:50 18.10.2021
5182 Clouds 16 1022 82 10000 4.63 100 19:29 18.10.2021
5183 Clouds 17 1022 77 10000 5.66 80 18:52 18.10.2021
5184 Clouds 24 1020 41 10000 3.6 120 15:25 18.10.2021
5185 Clouds 25 1021 41 10000 5.14 90 12:55 18.10.2021
5186 Clouds 23 1023 46 10000 5.14 110 10:36 18.10.2021
5187 Clouds 23 1023 46 10000 4.63 90 09:27 18.10.2021
5188 Clouds 10 1020 100 10000 2.06 140 02:30 18.10.2021
5189 Clouds 11 1022 94 10000 1.54 80 23:30 17.10.2021
5190 Clouds 13 1023 82 10000 4.12 80 21:52 17.10.2021
5191 Clouds 14 1023 82 10000 6.17 80 20:59 17.10.2021
5192 Clouds 15 1023 82 10000 4.63 120 20:35 17.10.2021
5193 Clouds 16 1022 77 10000 5.14 110 19:39 17.10.2021
5194 Clear 14 1019 86 10000 3.52 92 18:57 17.10.2021
5195 Clouds 19 1021 60 10000 6.69 100 17:32 17.10.2021
5196 Clouds 24 1019 36 10000 5.66 140 15:19 17.10.2021
5197 Clouds 23 1019 43 10000 7.2 110 14:24 17.10.2021
5198 Clouds 23 1020 43 10000 5.66 120 13:38 17.10.2021
5199 Clouds 25 1021 38 10000 6.69 90 11:55 17.10.2021
5200 Clouds 24 1022 47 10000 6.17 100 10:34 17.10.2021
5201 Clouds 24 1022 47 10000 6.17 100 10:34 17.10.2021
5202 Clouds 22 1023 49 10000 6.17 110 09:30 17.10.2021
5203 Clouds 18 1023 63 10000 2.06 0 07:19 17.10.2021
5204 Clouds 11 1021 94 10000 3.09 80 00:53 17.10.2021
5205 Clouds 12 1022 88 10000 3.09 90 00:22 17.10.2021
5206 Clouds 14 1022 82 10000 3.6 90 21:38 16.10.2021
5207 Clouds 14 1022 82 10000 4.12 100 20:31 16.10.2021
5208 Clouds 15 1022 77 10000 5.14 100 19:45 16.10.2021
5209 Clouds 16 1022 67 10000 4.63 90 19:22 16.10.2021
5210 Clouds 16 1021 67 10000 4.63 90 18:55 16.10.2021
5211 Clouds 17 1021 59 10000 5.14 100 18:36 16.10.2021
5212 Clouds 17 1021 59 10000 5.14 100 18:18 16.10.2021
5213 Clouds 19 1020 52 10000 6.69 110 17:23 16.10.2021
5214 Clouds 24 1018 36 10000 7.72 100 15:25 16.10.2021
5215 Clouds 24 1021 36 10000 7.2 80 11:55 16.10.2021
5216 Clouds 23 1021 38 10000 7.2 80 10:43 16.10.2021
5217 Clouds 19 1023 52 10000 7.2 120 08:20 16.10.2021
5218 Clouds 11 1021 94 10000 1.54 0 01:25 16.10.2021
5219 Clouds 11 1021 94 10000 1.54 0 01:25 16.10.2021
5220 Clouds 12 1022 88 10000 3.09 100 23:55 15.10.2021
5221 Clouds 12 1023 88 10000 2.57 90 23:20 15.10.2021
5222 Clouds 13 1023 88 10000 3.6 90 22:19 15.10.2021
5223 Clouds 14 1023 82 10000 4.63 90 21:26 15.10.2021
5224 Clouds 15 1023 82 10000 4.63 80 20:47 15.10.2021
5225 Clouds 15 1023 82 10000 5.14 90 19:31 15.10.2021
5226 Clouds 16 1022 82 10000 5.66 100 18:40 15.10.2021
5227 Clouds 21 1021 56 10000 7.2 110 16:29 15.10.2021
5228 Clouds 24 1021 50 10000 8.23 100 15:36 15.10.2021
5229 Clouds 26 1020 39 10000 5.66 130 13:29 15.10.2021
5230 Clouds 23 1023 50 10000 6.17 120 11:36 15.10.2021
5231 Clouds 21 1023 60 10000 6.69 80 10:46 15.10.2021
5232 Clouds 23 1024 50 10000 4.63 120 09:46 15.10.2021
5233 Clouds 13 1023 94 10000 2.06 130 05:32 15.10.2021
5234 Clouds 13 1023 94 10000 2.06 130 05:32 15.10.2021
5235 Clouds 14 1022 88 10000 2.06 170 01:45 15.10.2021
5236 Clouds 14 1023 88 10000 3.09 100 00:22 15.10.2021
5237 Clouds 14 1024 88 10000 4.63 100 22:52 14.10.2021
5238 Clouds 15 1024 82 10000 5.66 100 21:44 14.10.2021
5239 Clouds 16 1024 82 10000 4.63 100 20:48 14.10.2021
5240 Clouds 16 1024 82 10000 4.63 100 20:18 14.10.2021
5241 Clouds 18 1023 72 10000 7.2 110 19:33 14.10.2021
5242 Clouds 21 1021 56 10000 7.72 110 17:30 14.10.2021
5243 Clouds 23 1021 46 10000 6.69 100 16:49 14.10.2021
5244 Clouds 27 1020 28 10000 4.12 130 15:44 14.10.2021
5245 Clouds 28 1020 24 10000 4.63 120 14:41 14.10.2021
5246 Clouds 28 1021 23 10000 4.63 110 13:39 14.10.2021
5247 Clouds 28 1022 32 10000 5.66 80 11:44 14.10.2021
5248 Clouds 24 1024 50 10000 4.63 90 09:55 14.10.2021
5249 Clouds 21 1021 47 10000 2.52 106 06:55 14.10.2021
5250 Clouds 13 1020 95 10000 0.74 93 00:58 14.10.2021
5251 Clouds 13 1020 96 10000 0.91 89 00:22 14.10.2021
5252 Clouds 16 1024 88 10000 2.57 90 21:58 13.10.2021
5253 Clouds 17 1024 82 10000 4.63 110 21:32 13.10.2021
5254 Clouds 19 1023 68 10000 5.66 110 19:58 13.10.2021
5255 Clouds 19 1023 68 10000 6.69 120 18:49 13.10.2021
5256 Clouds 19 1023 68 10000 6.69 120 18:49 13.10.2021
5257 Clouds 20 1022 64 10000 6.17 100 17:55 13.10.2021
5258 Clouds 26 1020 36 10000 6.17 100 15:32 13.10.2021
5259 Clouds 27 1019 36 10000 5.66 110 14:45 13.10.2021
5260 Clouds 28 1019 32 10000 5.14 120 14:21 13.10.2021
5261 Clouds 29 1020 26 10000 3.6 110 12:22 13.10.2021
5262 Clouds 27 1021 36 10000 3.09 150 10:47 13.10.2021
5263 Clouds 21 1023 56 10000 3.09 130 08:29 13.10.2021
5264 Clouds 17 1023 72 10000 3.09 130 06:41 13.10.2021
5265 Clouds 13 1021 94 10000 3.09 120 02:26 13.10.2021
5266 Clouds 13 1021 94 10000 2.06 140 01:37 13.10.2021
5267 Clouds 14 1022 88 10000 2.57 100 23:29 12.10.2021
5268 Clouds 14 1023 88 10000 3.09 110 22:45 12.10.2021
5269 Clouds 15 1023 82 10000 4.12 120 21:30 12.10.2021
5270 Clouds 15 1023 88 10000 3.6 120 20:34 12.10.2021
5271 Clouds 16 1023 82 10000 4.63 100 19:57 12.10.2021
5272 Clouds 17 1022 77 10000 6.69 100 18:27 12.10.2021
5273 Clouds 17 1022 77 10000 6.69 100 18:27 12.10.2021
5274 Clouds 18 1022 72 10000 6.69 100 17:44 12.10.2021
5275 Clouds 22 1021 49 10000 5.14 110 16:38 12.10.2021
5276 Clouds 22 1021 49 10000 5.14 110 16:38 12.10.2021
5277 Clouds 23 1020 46 10000 5.14 110 15:46 12.10.2021
5278 Clouds 25 1020 41 10000 6.17 100 14:38 12.10.2021
5279 Clouds 25 1020 38 10000 4.12 110 13:42 12.10.2021
5280 Clouds 24 1022 47 10000 7.72 110 11:36 12.10.2021
5281 Clouds 20 1023 60 10000 5.66 160 09:41 12.10.2021
5282 Clouds 21 1023 56 10000 6.17 130 08:42 12.10.2021
5283 Clouds 16 1023 77 10000 4.12 160 06:53 12.10.2021
5284 Clouds 14 1022 82 10000 3.6 130 05:29 12.10.2021
5285 Clouds 14 1022 82 10000 3.6 140 04:31 12.10.2021
5286 Clouds 15 1022 72 10000 4.12 120 00:27 12.10.2021
5287 Clouds 15 1022 77 10000 4.63 130 23:39 11.10.2021
5288 Clouds 15 1022 77 10000 6.69 110 22:56 11.10.2021
5289 Clouds 16 1023 72 10000 6.17 110 21:43 11.10.2021
5290 Clouds 17 1022 72 10000 4.12 110 20:32 11.10.2021
5291 Clouds 17 1022 63 10000 4.63 130 19:38 11.10.2021
5292 Clouds 19 1021 52 10000 5.66 130 18:24 11.10.2021
5293 Clouds 22 1020 38 10000 6.17 120 16:49 11.10.2021
5294 Clouds 23 1019 35 10000 7.2 120 16:31 11.10.2021
5295 Clouds 24 1019 36 10000 7.72 130 15:46 11.10.2021
5296 Clouds 26 1019 32 10000 5.14 130 14:54 11.10.2021
5297 Clouds 26 1019 32 10000 6.17 120 14:22 11.10.2021
5298 Clouds 26 1019 34 10000 6.69 170 13:36 11.10.2021
5299 Clouds 25 1021 29 10000 6.69 170 11:25 11.10.2021
5300 Clouds 25 1022 29 10000 5.66 120 09:55 11.10.2021
5301 Clear 22 1022 46 10000 3.09 0 08:41 11.10.2021
5302 Clouds 10 1021 100 10000 0 0 03:47 11.10.2021
5303 Clouds 12 1022 94 10000 0.51 0 01:34 11.10.2021
5304 Clouds 12 1022 88 10000 1.03 0 00:43 11.10.2021
5305 Clouds 13 1022 88 10000 3.6 90 23:52 10.10.2021
5306 Clouds 15 1024 82 10000 3.6 90 21:51 10.10.2021
5307 Clouds 15 1024 82 10000 3.6 90 21:51 10.10.2021
5308 Clouds 15 1024 77 10000 4.12 110 21:28 10.10.2021
5309 Clouds 15 1024 77 10000 3.6 100 20:41 10.10.2021
5310 Clouds 15 1024 77 10000 4.63 100 20:20 10.10.2021
5311 Clouds 15 1023 77 10000 6.17 110 19:51 10.10.2021
5312 Clouds 16 1023 67 10000 5.14 100 19:31 10.10.2021
5313 Clouds 18 1022 55 10000 4.63 120 18:24 10.10.2021
5314 Clouds 23 1020 38 10000 6.17 120 15:54 10.10.2021
5315 Clouds 24 1020 36 10000 6.17 130 15:36 10.10.2021
5316 Clouds 24 1020 33 10000 6.17 150 13:42 10.10.2021
5317 Clear 24 1021 33 10000 5.66 160 12:44 10.10.2021
5318 Clouds 24 1021 36 10000 6.69 110 12:22 10.10.2021
5319 Clouds 23 1022 38 10000 5.14 130 10:33 10.10.2021
5320 Clouds 21 1023 43 10000 5.14 110 09:22 10.10.2021
5321 Clouds 21 1023 37 10000 4.12 110 08:51 10.10.2021
5322 Clouds 13 1022 82 10000 2.57 100 06:19 10.10.2021
5323 Clouds 11 1021 94 10000 3.09 90 02:23 10.10.2021
5324 Clouds 11 1022 94 10000 2.06 80 00:52 10.10.2021
5325 Clouds 12 1022 88 10000 3.6 110 23:52 09.10.2021
5326 Clouds 13 1023 88 10000 4.63 110 22:21 09.10.2021
5327 Clouds 13 1023 88 10000 3.6 100 21:30 09.10.2021
5328 Clouds 13 1023 88 10000 3.6 100 21:30 09.10.2021
5329 Clouds 15 1023 77 10000 4.63 110 19:53 09.10.2021
5330 Clouds 15 1023 82 10000 4.63 100 19:34 09.10.2021
5331 Clouds 15 1023 77 10000 3.09 80 18:40 09.10.2021
5332 Clouds 16 1022 72 10000 6.17 110 17:51 09.10.2021
5333 Clouds 21 1020 53 10000 3.09 120 16:19 09.10.2021
5334 Clouds 21 1020 53 10000 6.17 80 13:48 09.10.2021
5335 Clouds 21 1020 49 10000 5.14 90 13:25 09.10.2021
5336 Clouds 21 1021 53 10000 5.14 50 12:23 09.10.2021
5337 Clouds 20 1022 52 10000 6.17 100 10:43 09.10.2021
5338 Clouds 20 1022 52 10000 6.69 100 10:18 09.10.2021
5339 Clouds 16 1023 63 10000 4.12 120 08:33 09.10.2021
5340 Clouds 16 1023 67 10000 4.63 130 07:50 09.10.2021
5341 Clouds 16 1023 67 10000 4.63 130 07:50 09.10.2021
5342 Clouds 13 1022 77 10000 6.17 100 06:22 09.10.2021
5343 Clouds 11 1021 87 10000 2.06 80 04:31 09.10.2021
5344 Clouds 11 1021 87 10000 4.63 120 02:43 09.10.2021
5345 Clouds 12 1022 82 10000 4.63 120 23:58 08.10.2021
5346 Clouds 12 1022 82 10000 4.63 140 23:31 08.10.2021
5347 Clouds 12 1023 82 10000 5.14 130 22:42 08.10.2021
5348 Clouds 13 1023 82 10000 5.14 130 21:39 08.10.2021
5349 Clouds 13 1022 82 10000 5.66 130 19:44 08.10.2021
5350 Clouds 14 1021 82 10000 6.17 110 18:19 08.10.2021
5351 Clouds 16 1020 67 10000 7.2 100 16:53 08.10.2021
5352 Clouds 16 1020 67 10000 7.2 100 16:53 08.10.2021
5353 Clouds 17 1019 63 10000 7.2 100 16:24 08.10.2021
5354 Clouds 21 1019 53 10000 6.69 100 14:18 08.10.2021
5355 Clouds 20 1019 52 10000 5.14 90 13:41 08.10.2021
5356 Clouds 20 1020 52 10000 5.66 120 11:41 08.10.2021
5357 Clouds 21 1021 49 10000 6.69 110 10:42 08.10.2021
5358 Clouds 20 1021 52 10000 4.63 130 09:46 08.10.2021
5359 Clouds 14 1019 82 10000 4.63 150 00:35 08.10.2021
5360 Clouds 14 1019 82 10000 5.66 120 23:22 07.10.2021
5361 Clouds 15 1019 77 10000 5.14 130 21:46 07.10.2021
5362 Clouds 15 1019 82 10000 4.12 130 21:27 07.10.2021
5363 Clouds 15 1019 82 10000 6.69 100 20:28 07.10.2021
5364 Clouds 15 1019 82 10000 7.2 110 19:30 07.10.2021
5365 Clouds 17 1018 77 10000 6.69 130 18:24 07.10.2021
5366 Clouds 18 1017 72 9000 6.69 120 17:27 07.10.2021
5367 Rain 26 1015 24 10000 4.63 260 15:53 07.10.2021
5368 Clouds 26 1015 24 10000 5.66 260 14:24 07.10.2021
5369 Clouds 28 1015 23 10000 8.23 290 13:43 07.10.2021
5370 Clouds 28 1015 26 10000 5.14 300 12:45 07.10.2021
5371 Clouds 26 1017 32 10000 3.09 290 10:56 07.10.2021
5372 Clouds 26 1017 34 10000 5.14 320 10:20 07.10.2021
5373 Clouds 24 1018 44 10000 2.57 270 09:34 07.10.2021
5374 Clouds 24 1018 47 10000 1.54 0 08:51 07.10.2021
5375 Clouds 20 1018 64 10000 1.54 0 07:44 07.10.2021
5376 Clouds 20 1018 68 10000 1.54 130 07:20 07.10.2021
5377 Clouds 14 1017 100 10000 0 0 02:50 07.10.2021
5378 Clouds 14 1018 94 10000 2.06 80 00:29 07.10.2021
5379 Clouds 15 1019 88 10000 3.09 80 22:51 06.10.2021
5380 Clouds 15 1019 88 10000 3.6 90 22:21 06.10.2021
5381 Clouds 18 1019 72 10000 4.12 110 20:40 06.10.2021
5382 Clouds 18 1019 72 10000 4.63 100 19:55 06.10.2021
5383 Clouds 19 1018 64 10000 4.12 140 18:41 06.10.2021
5384 Clouds 22 1016 46 10000 4.12 130 16:58 06.10.2021
5385 Clouds 25 1015 38 10000 3.6 70 15:30 06.10.2021
5386 Clouds 26 1016 34 10000 2.57 0 14:28 06.10.2021
5387 Clouds 28 1016 30 10000 2.06 0 13:20 06.10.2021
5388 Clouds 26 1016 34 10000 4.63 200 12:43 06.10.2021
5389 Clouds 26 1017 34 10000 3.09 0 12:21 06.10.2021
5390 Clouds 24 1019 44 10000 2.57 0 10:21 06.10.2021
5391 Clouds 23 1020 46 10000 3.6 120 09:39 06.10.2021
5392 Clouds 22 1020 46 10000 3.6 120 08:42 06.10.2021
5393 Clouds 20 1020 56 10000 3.09 90 07:48 06.10.2021
5394 Clouds 12 1019 76 10000 3.09 90 05:26 06.10.2021
5395 Clouds 15 1020 72 10000 3.6 100 00:28 06.10.2021
5396 Clouds 15 1020 72 10000 4.63 110 23:58 05.10.2021
5397 Clouds 16 1021 72 6000 4.12 100 23:38 05.10.2021
5398 Clouds 16 1021 72 6000 4.12 100 23:20 05.10.2021
5399 Clouds 17 1021 77 10000 4.12 120 22:27 05.10.2021
5400 Clouds 17 1021 77 10000 4.12 120 22:27 05.10.2021
5401 Clouds 17 1021 72 10000 4.63 110 21:47 05.10.2021
5402 Clouds 18 1021 59 10000 4.63 130 20:41 05.10.2021
5403 Clouds 18 1021 59 10000 4.63 130 20:23 05.10.2021
5404 Clouds 18 1020 59 10000 6.17 120 19:42 05.10.2021
5405 Clouds 19 1020 52 10000 5.66 110 18:54 05.10.2021
5406 Clouds 23 1019 35 10000 5.14 110 16:38 05.10.2021
5407 Clouds 24 1018 31 10000 3.09 140 14:36 05.10.2021
5408 Clouds 25 1018 31 10000 4.12 130 13:34 05.10.2021
5409 Clouds 26 1019 32 10000 3.6 0 12:46 05.10.2021
5410 Clouds 27 1019 28 10000 4.12 140 11:59 05.10.2021
5411 Clouds 26 1020 32 10000 3.6 150 10:59 05.10.2021
5412 Clouds 23 1021 43 10000 3.09 170 09:25 05.10.2021
5413 Clouds 15 1019 88 10000 2.06 130 03:57 05.10.2021
5414 Clouds 17 1020 82 10000 2.57 90 23:53 04.10.2021
5415 Clouds 17 1021 82 10000 3.09 70 22:35 04.10.2021
5416 Clouds 19 1020 68 10000 4.63 120 19:38 04.10.2021
5417 Clouds 20 1019 60 10000 3.09 90 18:34 04.10.2021
5418 Clouds 23 1018 50 10000 5.14 110 16:24 04.10.2021
5419 Clouds 23 1018 53 10000 6.17 120 15:31 04.10.2021
5420 Clouds 24 1017 50 10000 6.69 120 14:42 04.10.2021
5421 Clouds 27 1017 32 10000 2.06 260 13:50 04.10.2021
5422 Clouds 26 1018 36 10000 2.57 190 13:24 04.10.2021
5423 Clouds 26 1020 39 10000 3.09 210 11:35 04.10.2021
5424 Clouds 25 1020 41 10000 2.06 0 10:48 04.10.2021
5425 Clouds 23 1021 46 10000 1.54 0 09:58 04.10.2021
5426 Clouds 20 1022 56 10000 1.03 0 08:39 04.10.2021
5427 Clouds 16 1022 72 10000 2.06 60 06:56 04.10.2021
5428 Clouds 15 1022 82 10000 4.12 100 00:28 04.10.2021
5429 Clouds 15 1023 82 10000 3.09 70 22:33 03.10.2021
5430 Clouds 14 1023 88 10000 2.57 90 21:38 03.10.2021
5431 Clouds 14 1023 94 10000 3.6 90 20:54 03.10.2021
5432 Clouds 15 1022 88 10000 5.66 110 19:56 03.10.2021
5433 Clouds 17 1022 72 10000 5.14 110 18:33 03.10.2021
5434 Clouds 18 1021 68 10000 5.66 110 17:43 03.10.2021
5435 Clouds 23 1020 43 10000 5.14 100 15:51 03.10.2021
5436 Clouds 23 1019 43 10000 6.17 110 14:42 03.10.2021
5437 Clouds 24 1019 41 10000 6.17 130 13:57 03.10.2021
5438 Clouds 23 1019 43 10000 6.69 100 13:20 03.10.2021
5439 Clouds 24 1020 41 10000 6.69 80 12:24 03.10.2021
5440 Clouds 24 1022 38 10000 6.17 110 10:35 03.10.2021
5441 Clouds 21 1022 46 10000 6.69 90 08:33 03.10.2021
5442 Clouds 10 1021 100 10000 1.54 80 00:26 03.10.2021
5443 Clouds 13 1023 88 10000 4.12 70 22:23 02.10.2021
5444 Clouds 13 1022 82 10000 2.57 70 20:50 02.10.2021
5445 Clouds 16 1021 67 10000 4.63 100 18:59 02.10.2021
5446 Clouds 17 1021 63 10000 4.63 90 18:28 02.10.2021
5447 Clouds 18 1020 52 10000 4.63 90 17:38 02.10.2021
5448 Clouds 21 1019 43 10000 4.12 90 16:40 02.10.2021
5449 Clouds 23 1019 38 10000 6.17 100 14:36 02.10.2021
5450 Clouds 24 1020 36 10000 6.17 100 15:38 30.09.2021
5451 Clouds 24 1020 36 10000 5.66 100 14:42 30.09.2021
5452 Clouds 25 1021 34 10000 5.14 130 12:20 30.09.2021
5453 Clouds 23 1022 41 10000 3.6 110 11:25 30.09.2021
5454 Clouds 22 1023 43 10000 3.6 120 10:26 30.09.2021
5455 Clouds 19 1024 52 10000 3.09 130 08:32 30.09.2021
5456 Clouds 18 1024 55 10000 3.09 130 07:57 30.09.2021
5457 Clouds 12 1023 82 10000 3.6 90 05:25 30.09.2021
5458 Clouds 13 1022 77 10000 4.63 80 02:33 30.09.2021
5459 Clouds 14 1023 77 10000 2.06 100 00:35 30.09.2021
5460 Clouds 13 1023 82 10000 3.6 100 22:48 29.09.2021
5461 Clouds 14 1024 77 10000 4.63 100 21:52 29.09.2021
5462 Clouds 15 1024 77 10000 5.14 90 20:38 29.09.2021
5463 Clouds 15 1024 77 10000 5.14 90 20:19 29.09.2021
5464 Clouds 15 1024 82 10000 4.63 90 19:22 29.09.2021
5465 Clouds 16 1023 72 10000 4.63 120 18:18 29.09.2021
5466 Clouds 18 1022 63 10000 7.2 100 16:55 29.09.2021
5467 Clouds 20 1021 56 10000 6.69 110 16:27 29.09.2021
5468 Clouds 22 1021 46 10000 5.66 90 15:24 29.09.2021
5469 Clouds 23 1021 43 10000 6.69 110 14:37 29.09.2021
5470 Clouds 23 1021 43 10000 6.17 100 13:33 29.09.2021
5471 Clouds 23 1022 43 10000 5.14 120 12:38 29.09.2021
5472 Clouds 22 1022 46 10000 5.66 100 11:18 29.09.2021
5473 Clouds 21 1023 46 10000 5.14 120 10:27 29.09.2021
5474 Clouds 21 1024 46 10000 5.14 90 09:40 29.09.2021
5475 Clouds 17 1024 59 10000 6.17 100 07:48 29.09.2021
5476 Clouds 15 1024 72 10000 5.66 100 06:27 29.09.2021
5477 Clouds 14 1023 82 10000 4.63 110 23:59 28.09.2021
5478 Clouds 14 1024 82 10000 4.63 110 22:25 28.09.2021
5479 Clouds 14 1024 82 10000 4.63 110 21:46 28.09.2021
5480 Clouds 14 1024 82 10000 4.12 120 20:48 28.09.2021
5481 Clouds 14 1024 82 10000 4.12 130 19:48 28.09.2021
5482 Clouds 14 1024 82 10000 4.63 120 19:25 28.09.2021
5483 Clouds 16 1023 82 10000 5.66 90 18:40 28.09.2021
5484 Clouds 18 1022 68 10000 8.23 100 16:43 28.09.2021
5485 Clouds 21 1022 56 10000 8.75 90 15:19 28.09.2021
5486 Clouds 23 1022 50 10000 8.23 100 13:25 28.09.2021
5487 Clouds 22 1022 49 10000 6.69 100 12:24 28.09.2021
5488 Clouds 22 1022 49 10000 6.69 100 12:24 28.09.2021
5489 Clouds 22 1022 53 10000 6.69 110 11:47 28.09.2021
5490 Clouds 21 1023 56 10000 5.66 100 11:25 28.09.2021
5491 Clouds 20 1024 60 10000 7.72 100 10:27 28.09.2021
5492 Clouds 21 1024 56 10000 6.69 90 09:29 28.09.2021
5493 Clouds 20 1024 60 10000 6.17 100 08:43 28.09.2021
5494 Clouds 16 1024 72 10000 3.09 140 07:55 28.09.2021
5495 Clouds 13 1024 82 10000 2.57 140 06:25 28.09.2021
5496 Clouds 12 1023 88 10000 2.57 140 01:30 28.09.2021
5497 Clouds 13 1023 82 10000 3.09 120 00:28 28.09.2021
5498 Clouds 14 1024 82 10000 5.14 110 23:48 27.09.2021
5499 Clouds 14 1024 82 10000 4.63 100 23:23 27.09.2021
5500 Clouds 14 1024 82 10000 5.14 110 22:20 27.09.2021
5501 Clouds 14 1024 82 10000 6.17 100 20:49 27.09.2021
5502 Clouds 14 1024 82 10000 5.14 120 20:23 27.09.2021
5503 Clouds 14 1023 82 10000 6.17 110 19:30 27.09.2021
5504 Clouds 15 1023 77 10000 6.17 110 18:52 27.09.2021
5505 Clouds 18 1022 55 10000 6.69 110 17:36 27.09.2021
5506 Clouds 19 1021 52 10000 6.17 110 16:51 27.09.2021
5507 Clouds 21 1021 43 10000 6.17 110 15:46 27.09.2021
5508 Clouds 23 1021 38 10000 5.14 100 15:27 27.09.2021
5509 Clouds 24 1021 36 10000 4.12 120 13:35 27.09.2021
5510 Clouds 23 1022 41 10000 4.12 110 12:20 27.09.2021
5511 Clouds 21 1023 43 10000 5.66 120 10:42 27.09.2021
5512 Clouds 20 1024 46 10000 5.66 170 09:31 27.09.2021
5513 Clouds 12 1024 76 10000 3.6 180 06:33 27.09.2021
5514 Clouds 9 1023 93 10000 2.57 170 03:30 27.09.2021
5515 Clouds 10 1024 93 10000 3.09 110 23:41 26.09.2021
5516 Clouds 12 1025 88 10000 3.6 120 21:55 26.09.2021
5517 Clouds 12 1025 88 10000 4.63 110 21:26 26.09.2021
5518 Clouds 13 1025 82 10000 6.69 110 20:24 26.09.2021
5519 Clouds 14 1025 77 10000 5.66 100 19:53 26.09.2021
5520 Clouds 15 1024 67 10000 5.14 120 18:52 26.09.2021
5521 Clouds 16 1023 63 10000 5.66 110 17:59 26.09.2021
5522 Clouds 17 1023 59 10000 6.17 100 17:36 26.09.2021
5523 Clouds 17 1023 59 10000 6.17 100 17:18 26.09.2021
5524 Clouds 20 1023 43 10000 5.14 140 16:22 26.09.2021
5525 Clouds 22 1022 38 10000 4.63 150 15:22 26.09.2021
5526 Clouds 23 1022 38 10000 4.63 150 13:59 26.09.2021
5527 Clouds 22 1023 40 10000 7.2 110 13:31 26.09.2021
5528 Clouds 23 1023 38 10000 6.69 110 12:25 26.09.2021
5529 Clouds 22 1023 40 10000 7.72 130 11:51 26.09.2021
5530 Clouds 22 1024 43 10000 7.72 120 10:38 26.09.2021
5531 Clouds 19 1025 56 10000 5.66 150 09:21 26.09.2021
5532 Clouds 16 1025 72 10000 4.12 140 07:57 26.09.2021
5533 Clouds 14 1025 88 10000 4.63 140 00:28 26.09.2021
5534 Clouds 14 1025 88 10000 4.12 140 23:40 25.09.2021
5535 Drizzle 14 1026 94 10000 4.63 130 22:38 25.09.2021
5536 Drizzle 14 1026 94 10000 4.63 130 22:18 25.09.2021
5537 Clouds 14 1026 88 10000 3.09 140 21:33 25.09.2021
5538 Clouds 14 1026 88 10000 3.09 140 21:33 25.09.2021
5539 Clouds 15 1026 82 10000 4.63 150 20:51 25.09.2021
5540 Clouds 15 1025 82 10000 3.6 150 19:32 25.09.2021
5541 Clouds 16 1025 77 10000 3.09 130 18:26 25.09.2021
5542 Clouds 19 1023 60 10000 5.14 130 16:51 25.09.2021
5543 Clouds 22 1024 53 10000 6.17 100 14:24 25.09.2021
5544 Clouds 22 1024 49 10000 6.69 120 13:46 25.09.2021
5545 Clouds 21 1024 53 10000 6.69 110 12:29 25.09.2021
5546 Clouds 20 1026 56 10000 6.69 120 10:36 25.09.2021
5547 Clouds 19 1026 56 10000 5.66 140 09:47 25.09.2021
5548 Clouds 17 1026 68 10000 4.63 150 08:38 25.09.2021
5549 Clouds 16 1026 72 10000 4.63 160 07:27 25.09.2021
5550 Clouds 13 1025 82 10000 2.57 150 00:49 25.09.2021
5551 Clouds 13 1026 88 10000 3.09 120 21:57 24.09.2021
5552 Clouds 13 1026 88 10000 3.09 100 20:50 24.09.2021
5553 Clouds 14 1026 82 10000 4.63 120 20:19 24.09.2021
5554 Clouds 15 1025 77 10000 4.63 120 18:35 24.09.2021
5555 Clouds 16 1025 67 10000 4.63 90 17:56 24.09.2021
5556 Clouds 17 1024 63 10000 5.14 90 17:37 24.09.2021
5557 Clouds 17 1024 63 10000 5.14 90 17:18 24.09.2021
5558 Clouds 21 1023 49 10000 6.69 120 14:34 24.09.2021
5559 Clouds 21 1023 49 10000 6.69 130 13:19 24.09.2021
5560 Clouds 22 1023 46 10000 6.17 120 12:41 24.09.2021
5561 Clouds 22 1024 46 10000 5.66 130 12:23 24.09.2021
5562 Clouds 20 1025 52 10000 6.17 130 10:27 24.09.2021
5563 Clouds 17 1026 59 10000 5.66 120 08:55 24.09.2021
5564 Clouds 14 1026 72 10000 4.63 130 07:39 24.09.2021
5565 Clouds 14 1026 72 10000 5.14 140 06:47 24.09.2021
5566 Clouds 11 1024 82 10000 3.09 150 04:58 24.09.2021
5567 Clouds 13 1024 72 10000 4.12 140 00:35 24.09.2021
5568 Clouds 14 1024 77 10000 5.14 120 22:30 23.09.2021
5569 Clouds 14 1024 82 10000 4.12 130 21:56 23.09.2021
5570 Clouds 15 1024 77 10000 3.09 150 20:35 23.09.2021
5571 Clouds 15 1024 77 10000 3.09 150 20:35 23.09.2021
5572 Clouds 16 1024 72 10000 4.63 140 19:49 23.09.2021
5573 Clouds 16 1023 72 10000 6.17 110 18:22 23.09.2021
5574 Clouds 22 1021 46 10000 6.69 120 15:36 23.09.2021
5575 Clouds 22 1021 43 10000 7.2 130 14:59 23.09.2021
5576 Clouds 23 1021 43 10000 6.69 110 13:48 23.09.2021
5577 Clouds 24 1021 41 10000 6.69 120 13:21 23.09.2021
5578 Clouds 24 1021 38 10000 7.2 100 12:53 23.09.2021
5579 Clouds 23 1021 43 10000 5.14 140 12:22 23.09.2021
5580 Clouds 24 1021 41 10000 6.17 110 11:40 23.09.2021
5581 Clouds 21 1022 46 10000 6.17 160 10:27 23.09.2021
5582 Clouds 22 1023 46 10000 5.66 130 09:52 23.09.2021
5583 Clouds 19 1023 60 10000 3.6 130 08:25 23.09.2021
5584 Clouds 14 1022 94 10000 1.54 140 04:27 23.09.2021
5585 Clouds 15 1023 88 10000 1.54 50 23:27 22.09.2021
5586 Clouds 15 1023 88 10000 2.06 30 22:29 22.09.2021
5587 Clouds 15 1023 88 10000 1.54 50 21:56 22.09.2021
5588 Clouds 15 1023 82 10000 2.06 60 21:34 22.09.2021
5589 Drizzle 16 1023 77 10000 1.54 0 20:54 22.09.2021
5590 Clouds 16 1023 72 10000 3.09 140 19:32 22.09.2021
5591 Clouds 17 1022 68 10000 4.12 90 18:39 22.09.2021
5592 Clouds 18 1022 63 10000 5.66 100 17:47 22.09.2021
5593 Clouds 19 1018 50 10000 4.65 100 16:37 22.09.2021
5594 Clouds 24 1020 41 10000 4.63 140 15:19 22.09.2021
5595 Clouds 25 1021 38 10000 3.6 100 13:48 22.09.2021
5596 Clouds 24 1022 36 10000 4.63 130 11:57 22.09.2021
5597 Clouds 24 1022 36 10000 5.14 180 10:45 22.09.2021
5598 Clouds 22 1024 43 10000 2.06 0 09:24 22.09.2021
5599 Clouds 19 1024 60 10000 2.06 110 08:28 22.09.2021
5600 Clouds 17 1024 68 10000 2.57 100 07:19 22.09.2021
5601 Clouds 11 1024 100 10000 2.06 80 05:56 22.09.2021
5602 Clouds 10 1024 100 10000 2.57 90 05:34 22.09.2021
5603 Clouds 11 1023 94 10000 1.54 50 03:48 22.09.2021
5604 Clouds 13 1024 88 10000 2.57 70 00:22 22.09.2021
5605 Clouds 13 1025 88 10000 2.57 80 22:54 21.09.2021
5606 Clouds 14 1025 82 10000 3.09 80 21:36 21.09.2021
5607 Clouds 13 1023 91 10000 2.25 96 20:26 21.09.2021
5608 Clouds 15 1024 77 10000 4.63 90 19:20 21.09.2021
5609 Clouds 15 1022 82 10000 3.9 103 17:35 21.09.2021
5610 Clouds 17 1023 68 10000 6.17 90 16:34 21.09.2021
5611 Clouds 19 1022 60 10000 6.69 90 15:38 21.09.2021
5612 Clouds 20 1022 56 10000 6.69 100 14:57 21.09.2021
5613 Clouds 23 1022 46 10000 4.63 90 13:56 21.09.2021
5614 Clouds 23 1022 46 10000 5.14 100 13:36 21.09.2021
5615 Clouds 21 1023 53 10000 4.12 130 11:45 21.09.2021
5616 Clouds 16 1026 67 10000 2.57 110 09:58 21.09.2021
5617 Clouds 13 1026 82 10000 3.09 130 08:27 21.09.2021
5618 Clouds 12 1025 88 10000 3.09 80 06:41 21.09.2021
5619 Clouds 12 1024 94 10000 3.09 120 23:58 20.09.2021
5620 Clouds 13 1025 88 10000 3.6 130 22:24 20.09.2021
5621 Clouds 12 1025 94 10000 3.6 110 21:37 20.09.2021
5622 Clouds 13 1025 88 10000 3.09 80 20:31 20.09.2021
5623 Clouds 13 1024 88 10000 3.09 80 19:30 20.09.2021
5624 Clouds 14 1023 82 10000 4.12 70 17:46 20.09.2021
5625 Clouds 15 1023 77 10000 4.63 90 16:43 20.09.2021
5626 Clouds 16 1022 72 10000 5.66 90 15:49 20.09.2021
5627 Clouds 16 1022 72 10000 5.66 90 15:49 20.09.2021
5628 Clouds 16 1022 72 10000 5.66 90 15:23 20.09.2021
5629 Clouds 17 1022 68 10000 5.14 100 14:24 20.09.2021
5630 Clouds 17 1023 63 10000 3.6 80 12:35 20.09.2021
5631 Clouds 16 1024 67 10000 3.6 120 11:25 20.09.2021
5632 Clouds 15 1025 72 10000 4.63 100 09:59 20.09.2021
5633 Clouds 15 1025 77 10000 4.63 100 09:36 20.09.2021
5634 Clouds 15 1025 77 10000 4.63 100 09:18 20.09.2021
5635 Clouds 13 1024 88 10000 4.63 100 07:45 20.09.2021
5636 Clouds 12 1023 88 10000 3.6 130 23:49 19.09.2021
5637 Clouds 11 1022 91 10000 2.8 102 22:26 19.09.2021
5638 Clouds 11 1022 91 10000 2.8 102 22:26 19.09.2021
5639 Clouds 12 1023 94 10000 5.14 110 21:40 19.09.2021
5640 Clouds 13 1023 88 10000 4.63 110 20:34 19.09.2021
5641 Clouds 12 1022 100 10000 5.66 110 19:31 19.09.2021
5642 Rain 13 1022 88 10000 5.66 100 18:29 19.09.2021
5643 Clouds 14 1021 82 10000 6.17 100 17:23 19.09.2021
5644 Clouds 17 1020 63 10000 5.66 80 15:55 19.09.2021
5645 Clouds 18 1020 59 10000 5.66 80 15:29 19.09.2021
5646 Clouds 20 1019 52 10000 6.17 90 14:46 19.09.2021
5647 Clouds 18 1021 59 10000 5.66 100 13:21 19.09.2021
5648 Clouds 17 1021 68 10000 5.66 110 12:50 19.09.2021
5649 Clouds 18 1021 63 10000 5.14 110 11:27 19.09.2021
5650 Clouds 17 1022 63 10000 5.14 120 10:35 19.09.2021
5651 Clouds 18 1022 59 10000 7.2 120 09:39 19.09.2021
5652 Clouds 16 1021 72 10000 5.66 120 07:31 19.09.2021
5653 Clouds 14 1020 82 10000 5.66 120 05:55 19.09.2021
5654 Clouds 16 1020 82 10000 5.66 100 23:36 18.09.2021
5655 Clouds 16 1020 88 10000 4.63 100 21:59 18.09.2021
5656 Clouds 17 1020 82 10000 6.69 110 20:48 18.09.2021
5657 Clouds 18 1020 82 10000 4.12 130 20:27 18.09.2021
5658 Clouds 18 1019 77 10000 4.63 140 19:39 18.09.2021
5659 Clouds 18 1019 77 10000 4.63 140 19:39 18.09.2021
5660 Clouds 18 1019 77 10000 4.63 140 19:20 18.09.2021
5661 Clouds 19 1018 73 10000 3.6 130 18:31 18.09.2021
5662 Clouds 22 1017 38 10000 3.09 290 17:25 18.09.2021
5663 Clouds 25 1017 31 10000 4.63 270 15:48 18.09.2021
5664 Clouds 27 1016 28 10000 5.66 240 13:46 18.09.2021
5665 Clouds 27 1017 30 10000 3.6 280 13:27 18.09.2021
5666 Clouds 27 1017 30 10000 6.17 280 12:48 18.09.2021
5667 Clouds 26 1018 32 10000 5.66 270 11:36 18.09.2021
5668 Clouds 25 1019 44 10000 2.57 0 10:31 18.09.2021
5669 Clouds 23 1020 50 10000 3.09 200 09:26 18.09.2021
5670 Clouds 21 1020 53 10000 4.12 280 08:31 18.09.2021
5671 Clouds 21 1020 53 10000 4.12 280 08:30 18.09.2021
5672 Clouds 21 1020 53 10000 4.12 280 08:30 18.09.2021
5673 Clouds 21 1020 53 10000 4.12 280 08:30 18.09.2021
5674 Clouds 14 1015 83 10000 0.72 333 00:56 18.09.2021
5675 Clouds 14 1015 83 10000 0.72 333 00:35 18.09.2021
5676 Clouds 14 1015 81 10000 0.69 352 23:44 17.09.2021
5677 Clouds 15 1015 78 10000 0.72 94 22:32 17.09.2021
5678 Clouds 19 1018 56 10000 2.57 250 21:47 17.09.2021
5679 Clouds 20 1018 56 10000 4.63 260 20:18 17.09.2021
5680 Clouds 22 1017 46 10000 3.6 270 18:45 17.09.2021
5681 Clouds 25 1016 38 10000 4.63 280 16:47 17.09.2021
5682 Clouds 26 1015 34 10000 3.6 280 15:32 17.09.2021
5683 Clouds 27 1016 34 10000 3.09 0 12:31 17.09.2021
5684 Clouds 24 1018 44 10000 2.57 0 10:25 17.09.2021
5685 Clouds 13 1020 100 8000 1.03 0 07:50 17.09.2021
5686 Fog 12 1020 100 400 1.54 0 06:29 17.09.2021
5687 Clouds 12 1020 100 10000 3.09 100 00:34 17.09.2021
5688 Clouds 13 1021 94 10000 2.06 90 22:45 16.09.2021
5689 Clouds 13 1021 88 10000 2.06 110 22:24 16.09.2021
5690 Clouds 14 1021 88 10000 3.09 90 21:36 16.09.2021
5691 Clouds 15 1021 82 10000 3.6 100 20:31 16.09.2021
5692 Clouds 17 1020 68 10000 3.6 120 18:52 16.09.2021
5693 Clouds 18 1020 63 10000 4.12 90 18:19 16.09.2021
5694 Clouds 19 1019 60 10000 6.17 90 17:19 16.09.2021
5695 Clouds 26 1018 34 10000 2.06 0 14:51 16.09.2021
5696 Clouds 26 1018 34 10000 2.06 160 13:40 16.09.2021
5697 Clouds 26 1019 34 10000 3.09 170 12:46 16.09.2021
5698 Clouds 24 1020 44 10000 3.09 170 11:50 16.09.2021
5699 Clouds 24 1021 41 10000 3.6 0 10:56 16.09.2021
5700 Clouds 23 1021 43 10000 2.06 0 10:23 16.09.2021
5701 Clouds 21 1022 49 10000 3.6 180 09:31 16.09.2021
5702 Clouds 18 1023 59 10000 2.57 140 07:52 16.09.2021
5703 Clouds 16 1023 67 10000 2.06 110 06:57 16.09.2021
5704 Clouds 14 1022 82 10000 2.06 70 06:38 16.09.2021
5705 Clouds 12 1021 94 10000 2.57 70 03:22 16.09.2021
5706 Clouds 12 1022 88 10000 2.06 70 00:53 16.09.2021
5707 Clouds 14 1023 82 10000 4.12 90 23:26 15.09.2021
5708 Clouds 15 1023 82 10000 4.63 100 22:28 15.09.2021
5709 Clouds 15 1023 82 10000 5.14 110 21:31 15.09.2021
5710 Clouds 15 1023 82 10000 5.14 110 20:42 15.09.2021
5711 Clouds 15 1023 82 10000 4.63 100 19:33 15.09.2021
5712 Clouds 16 1022 77 10000 5.66 100 18:41 15.09.2021
5713 Clouds 18 1021 59 10000 7.2 110 17:39 15.09.2021
5714 Clouds 22 1020 46 10000 5.66 80 16:29 15.09.2021
5715 Clouds 24 1020 36 10000 3.6 150 14:59 15.09.2021
5716 Clouds 25 1020 34 10000 2.57 130 14:40 15.09.2021
5717 Clouds 25 1020 34 10000 3.6 110 13:45 15.09.2021
5718 Clouds 25 1020 31 10000 3.09 130 13:26 15.09.2021
5719 Clouds 24 1021 33 10000 3.6 110 12:29 15.09.2021
5720 Clouds 24 1022 33 10000 3.6 170 11:50 15.09.2021
5721 Clouds 24 1023 33 10000 3.6 0 10:57 15.09.2021
5722 Clouds 22 1024 40 10000 4.12 130 09:59 15.09.2021
5723 Clouds 19 1024 52 10000 2.57 120 08:46 15.09.2021
5724 Clouds 14 1025 77 10000 2.57 120 07:25 15.09.2021
5725 Clouds 10 1023 100 10000 1.54 70 00:41 15.09.2021
5726 Clouds 11 1025 94 10000 1.54 90 22:22 14.09.2021
5727 Clouds 12 1025 94 10000 3.09 90 21:19 14.09.2021
5728 Clouds 14 1024 82 10000 3.6 110 19:58 14.09.2021
5729 Clouds 14 1024 82 10000 5.66 110 18:40 14.09.2021
5730 Clouds 16 1023 72 10000 5.66 100 17:29 14.09.2021
5731 Clouds 22 1022 46 10000 5.66 90 15:58 14.09.2021
5732 Clouds 22 1022 43 10000 5.14 110 14:32 14.09.2021
5733 Clouds 22 1023 46 10000 6.17 110 13:26 14.09.2021
5734 Clouds 22 1024 46 10000 6.17 120 10:57 14.09.2021
5735 Clouds 20 1025 52 10000 3.6 150 09:51 14.09.2021
5736 Clouds 19 1025 56 10000 4.12 120 09:18 14.09.2021
5737 Clouds 14 1025 77 10000 2.57 150 07:25 14.09.2021
5738 Clouds 11 1025 94 10000 3.09 130 00:53 14.09.2021
5739 Clouds 12 1026 88 10000 4.63 100 22:58 13.09.2021
5740 Clouds 12 1026 94 10000 4.63 110 22:26 13.09.2021
5741 Clouds 13 1026 82 10000 6.17 110 21:53 13.09.2021
5742 Clouds 13 1026 88 10000 4.63 110 20:58 13.09.2021
5743 Clouds 14 1026 82 10000 5.66 110 19:29 13.09.2021
5744 Clouds 14 1025 82 10000 6.69 120 18:43 13.09.2021
5745 Clouds 16 1024 72 10000 5.66 130 16:58 13.09.2021
5746 Clouds 18 1024 63 10000 5.66 110 15:39 13.09.2021
5747 Clouds 21 1023 49 10000 5.14 120 13:36 13.09.2021
5748 Clouds 21 1025 49 10000 5.14 120 11:20 13.09.2021
5749 Clouds 18 1026 63 10000 5.14 110 09:42 13.09.2021
5750 Clouds 13 1026 88 10000 3.09 130 07:28 13.09.2021
5751 Clouds 12 1026 94 10000 2.06 150 23:44 12.09.2021
5752 Clouds 12 1027 88 10000 3.09 160 22:26 12.09.2021
5753 Clouds 13 1027 82 10000 3.6 120 21:37 12.09.2021
5754 Clouds 12 1027 82 10000 3.09 140 20:34 12.09.2021
5755 Clouds 12 1027 88 10000 3.09 130 19:54 12.09.2021
5756 Clouds 12 1027 82 10000 3.09 130 19:20 12.09.2021
5757 Clouds 13 1026 77 10000 4.63 140 18:29 12.09.2021
5758 Clouds 15 1025 72 10000 6.69 120 16:33 12.09.2021
5759 Clouds 18 1024 55 10000 7.72 130 14:56 12.09.2021
5760 Clouds 18 1024 55 10000 7.72 130 14:56 12.09.2021
5761 Clouds 20 1024 52 10000 8.23 120 13:49 12.09.2021
5762 Clouds 15 1026 77 10000 6.17 160 11:31 12.09.2021
5763 Clouds 16 1027 63 10000 8.23 120 09:35 12.09.2021
5764 Clouds 15 1027 67 10000 5.14 140 08:38 12.09.2021
5765 Rain 12 1025 94 8000 4.12 150 02:22 12.09.2021
5766 Clouds 13 1027 72 10000 5.66 160 23:28 11.09.2021
5767 Clouds 13 1027 77 10000 5.14 160 21:50 11.09.2021
5768 Clouds 13 1027 77 10000 4.12 150 20:31 11.09.2021
5769 Clouds 14 1027 72 10000 5.14 160 19:21 11.09.2021
5770 Clouds 15 1026 67 10000 6.69 150 17:34 11.09.2021
5771 Clouds 17 1026 59 10000 6.17 150 15:48 11.09.2021
5772 Clouds 18 1026 59 10000 6.69 140 13:33 11.09.2021
5773 Clouds 19 1026 56 10000 7.72 150 12:48 11.09.2021
5774 Clouds 17 1027 63 10000 7.2 170 11:18 11.09.2021
5775 Clouds 17 1028 68 10000 6.69 150 09:35 11.09.2021
5776 Clouds 15 1028 77 10000 7.2 180 07:44 11.09.2021
5777 Clouds 15 1027 72 10000 4.63 140 06:47 11.09.2021
5778 Clouds 12 1028 82 10000 4.12 130 22:48 10.09.2021
5779 Clouds 12 1028 82 10000 4.12 130 22:48 10.09.2021
5780 Clouds 13 1028 82 10000 3.6 130 22:22 10.09.2021
5781 Clouds 13 1029 77 10000 3.6 140 21:46 10.09.2021
5782 Clouds 14 1028 77 10000 5.66 110 19:41 10.09.2021
5783 Clouds 15 1027 72 10000 4.63 130 18:20 10.09.2021
5784 Clouds 18 1026 55 10000 6.69 140 16:40 10.09.2021
5785 Clouds 21 1025 43 10000 6.17 140 13:54 10.09.2021
5786 Clouds 22 1026 40 10000 6.17 130 11:46 10.09.2021
5787 Clouds 17 1027 59 10000 5.66 140 08:29 10.09.2021
5788 Clouds 15 1027 72 10000 5.66 130 07:45 10.09.2021
5789 Clouds 11 1025 94 10000 1.54 70 00:42 10.09.2021
5790 Clouds 13 1026 88 10000 2.06 70 22:18 09.09.2021
5791 Clouds 15 1025 88 10000 4.12 100 21:28 09.09.2021
5792 Clouds 14 1025 82 10000 4.63 100 20:42 09.09.2021
5793 Clouds 16 1024 72 10000 5.66 90 18:55 09.09.2021
5794 Clouds 18 1023 59 10000 4.63 100 17:54 09.09.2021
5795 Clouds 22 1022 43 10000 6.17 120 16:40 09.09.2021
5796 Clouds 24 1022 38 10000 3.6 120 15:26 09.09.2021
5797 Clouds 25 1022 31 10000 2.57 0 12:34 09.09.2021
5798 Clouds 24 1023 31 10000 2.57 0 11:33 09.09.2021
5799 Clouds 20 1024 46 10000 2.57 120 09:39 09.09.2021
5800 Clouds 14 1024 77 10000 1.03 0 07:57 09.09.2021
5801 Fog 9 1023 100 500 1.03 0 06:20 09.09.2021
5802 Clouds 9 1023 100 10000 2.06 90 00:43 09.09.2021
5803 Clouds 12 1025 88 10000 2.57 120 21:50 08.09.2021
5804 Clouds 12 1025 88 10000 3.09 110 20:57 08.09.2021
5805 Clouds 13 1024 77 10000 3.09 100 19:47 08.09.2021
5806 Clouds 15 1024 67 10000 5.66 100 18:49 08.09.2021
5807 Clouds 15 1023 67 10000 5.14 90 18:25 08.09.2021
5808 Clouds 16 1023 63 10000 5.66 100 17:40 08.09.2021
5809 Clouds 21 1022 46 10000 4.63 100 15:49 08.09.2021
5810 Clouds 23 1022 38 10000 4.12 120 13:46 08.09.2021
5811 Clouds 23 1022 38 10000 3.6 110 12:41 08.09.2021
5812 Clouds 23 1023 38 10000 4.63 100 12:23 08.09.2021
5813 Clouds 23 1024 38 10000 4.12 180 11:26 08.09.2021
5814 Clouds 21 1024 43 10000 3.09 120 10:31 08.09.2021
5815 Clouds 20 1025 46 10000 4.12 120 09:57 08.09.2021
5816 Clouds 15 1025 67 10000 3.09 120 07:47 08.09.2021
5817 Clouds 13 1025 72 10000 3.09 120 07:19 08.09.2021
5818 Clouds 13 1025 77 10000 3.6 130 23:32 07.09.2021
5819 Clouds 13 1026 77 10000 5.14 130 22:19 07.09.2021
5820 Clouds 13 1026 82 10000 5.66 120 20:45 07.09.2021
5821 Clouds 14 1025 77 10000 5.66 130 19:27 07.09.2021
5822 Clouds 14 1024 82 10000 6.17 100 18:37 07.09.2021
5823 Clouds 16 1024 67 10000 6.17 100 17:38 07.09.2021
5824 Clouds 20 1023 52 10000 5.66 90 15:57 07.09.2021
5825 Clouds 21 1023 49 10000 5.14 120 14:54 07.09.2021
5826 Clouds 22 1023 46 10000 6.17 100 13:52 07.09.2021
5827 Clouds 21 1024 53 10000 4.63 150 12:20 07.09.2021
5828 Clouds 19 1025 60 10000 4.63 150 10:59 07.09.2021
5829 Clouds 18 1026 59 10000 4.63 150 10:18 07.09.2021
5830 Clouds 14 1026 77 10000 4.12 150 07:47 07.09.2021
5831 Clouds 13 1025 82 10000 2.57 170 06:20 07.09.2021
5832 Clouds 11 1025 87 10000 3.09 100 02:39 07.09.2021
5833 Clouds 12 1025 82 10000 4.63 110 01:57 07.09.2021
5834 Clouds 11 1026 87 10000 2.57 140 23:49 06.09.2021
5835 Clouds 11 1026 94 10000 2.06 120 23:30 06.09.2021
5836 Clouds 11 1027 87 10000 2.06 140 22:51 06.09.2021
5837 Clouds 11 1027 87 10000 2.06 150 22:21 06.09.2021
5838 Clouds 12 1026 88 10000 4.63 110 20:35 06.09.2021
5839 Clouds 13 1026 77 10000 3.09 140 19:19 06.09.2021
5840 Clouds 13 1025 77 10000 4.63 110 18:35 06.09.2021
5841 Clouds 14 1025 72 10000 5.14 110 17:50 06.09.2021
5842 Clouds 19 1024 45 10000 5.14 100 16:20 06.09.2021
5843 Clouds 19 1024 42 10000 8.23 110 14:59 06.09.2021
5844 Clouds 19 1024 42 10000 6.17 90 12:50 06.09.2021
5845 Clouds 18 1025 45 10000 6.69 120 11:52 06.09.2021
5846 Clouds 18 1026 48 10000 5.66 110 10:27 06.09.2021
5847 Clouds 14 1026 72 10000 4.12 150 07:39 06.09.2021
5848 Clouds 11 1024 87 10000 2.57 160 03:34 06.09.2021
5849 Clouds 12 1026 94 10000 3.09 140 23:22 05.09.2021
5850 Clouds 12 1026 88 10000 3.09 100 22:32 05.09.2021
5851 Clouds 13 1027 82 10000 3.09 130 21:55 05.09.2021
5852 Clouds 14 1027 77 10000 4.12 150 21:19 05.09.2021
5853 Clouds 14 1026 72 10000 4.12 140 19:30 05.09.2021
5854 Clouds 14 1025 72 10000 3.09 130 17:51 05.09.2021
5855 Clouds 18 1024 55 10000 5.14 140 15:42 05.09.2021
5856 Clouds 18 1024 59 10000 6.17 130 14:56 05.09.2021
5857 Clouds 19 1025 56 10000 9.26 120 12:43 05.09.2021
5858 Clouds 17 1025 59 10000 6.69 140 11:22 05.09.2021
5859 Clouds 16 1026 67 10000 6.17 160 10:36 05.09.2021
5860 Clouds 16 1026 67 10000 5.66 150 09:32 05.09.2021
5861 Clouds 14 1026 77 10000 3.09 180 08:26 05.09.2021
5862 Clouds 9 1025 87 10000 3.09 170 03:21 05.09.2021
5863 Clouds 11 1026 82 10000 5.14 160 00:34 05.09.2021
5864 Clouds 11 1026 87 10000 4.63 170 23:52 04.09.2021
5865 Clouds 12 1026 82 10000 3.09 150 22:55 04.09.2021
5866 Clouds 12 1026 82 10000 3.6 160 22:34 04.09.2021
5867 Clouds 13 1026 82 10000 3.6 140 19:58 04.09.2021
5868 Clouds 13 1026 77 10000 3.09 140 19:32 04.09.2021
5869 Clouds 17 1024 59 10000 4.63 110 16:47 04.09.2021
5870 Clouds 20 1024 49 10000 7.2 100 14:28 04.09.2021
5871 Clouds 19 1025 52 10000 7.72 120 11:22 04.09.2021
5872 Clouds 15 1026 72 10000 5.66 170 09:39 04.09.2021
5873 Clouds 14 1026 72 10000 4.63 150 07:28 04.09.2021
5874 Clouds 12 1025 88 10000 2.06 150 00:30 04.09.2021
5875 Clouds 11 1025 87 10000 2.06 100 23:32 03.09.2021
5876 Clouds 11 1025 87 10000 2.06 100 23:32 03.09.2021
5877 Clouds 11 1026 87 10000 2.57 140 22:45 03.09.2021
5878 Clouds 12 1026 88 10000 3.09 120 21:36 03.09.2021
5879 Clouds 12 1026 88 10000 4.12 120 20:52 03.09.2021
5880 Clear 13 1025 82 10000 4.12 100 19:56 03.09.2021
5881 Clear 14 1025 77 10000 4.63 100 19:29 03.09.2021
5882 Clouds 15 1024 59 10000 5.14 110 17:57 03.09.2021
5883 Clouds 19 1023 42 10000 6.17 140 16:40 03.09.2021
5884 Clouds 21 1022 37 10000 5.66 120 15:20 03.09.2021
5885 Clouds 22 1022 35 10000 6.69 110 12:59 03.09.2021
5886 Clouds 19 1024 40 10000 6.17 140 10:32 03.09.2021
5887 Clouds 18 1025 48 10000 6.17 140 09:19 03.09.2021
5888 Clouds 18 1025 48 10000 6.17 140 09:19 03.09.2021
5889 Clouds 15 1025 63 10000 5.66 150 07:47 03.09.2021
5890 Clouds 10 1023 82 10000 3.09 160 05:30 03.09.2021
5891 Clouds 12 1025 88 10000 2.57 150 23:21 02.09.2021
5892 Clear 10 1024 96 10000 2.25 124 21:38 02.09.2021
5893 Clear 11 1024 93 10000 2.6 122 20:18 02.09.2021
5894 Clear 14 1022 73 10000 3.88 108 17:33 02.09.2021
5895 Clear 19 1020 40 10000 5.02 109 15:54 02.09.2021
5896 Clear 23 1018 27 10000 5.86 109 13:59 02.09.2021
5897 Clear 24 1018 25 10000 5.94 107 12:55 02.09.2021
5898 Clear 24 1018 25 10000 6.08 105 11:35 02.09.2021
5899 Clear 22 1020 27 10000 6.28 104 09:47 02.09.2021
5900 Clear 19 1022 31 10000 5.1 112 08:20 02.09.2021
5901 Clear 16 1023 41 10000 3.39 125 07:18 02.09.2021
5902 Clear 9 1022 83 10000 1.88 138 02:57 02.09.2021
5903 Clear 9 1022 83 10000 1.88 138 02:33 02.09.2021
5904 Clouds 10 1023 100 10000 1.54 0 01:29 02.09.2021
5905 Clouds 11 1024 100 10000 1.54 80 23:40 01.09.2021
5906 Clouds 11 1024 100 10000 2.57 70 22:41 01.09.2021
5907 Clouds 13 1025 94 10000 3.6 110 21:40 01.09.2021
5908 Clouds 14 1025 82 10000 3.09 110 20:39 01.09.2021
5909 Clouds 16 1024 72 10000 3.6 140 18:53 01.09.2021
5910 Clouds 20 1022 60 10000 5.66 100 17:40 01.09.2021
5911 Clouds 20 1022 52 10000 7.72 100 16:47 01.09.2021
5912 Clouds 24 1022 38 10000 7.2 120 15:29 01.09.2021
5913 Clouds 26 1022 28 10000 5.66 110 12:23 01.09.2021
5914 Clouds 26 1023 32 10000 5.14 110 11:44 01.09.2021
5915 Clear 22 1024 46 10000 2.57 120 08:48 01.09.2021
5916 Clouds 18 1024 68 10000 2.57 130 07:52 01.09.2021
5917 Clouds 12 1022 100 10000 1.54 60 03:27 01.09.2021
5918 Clouds 14 1024 100 10000 2.06 70 22:41 31.08.2021
5919 Clouds 14 1024 94 10000 2.57 80 21:27 31.08.2021
5920 Clouds 16 1023 88 10000 3.09 90 19:46 31.08.2021
5921 Clouds 17 1022 82 10000 3.09 90 18:29 31.08.2021
5922 Clouds 19 1021 73 10000 5.14 90 17:36 31.08.2021
5923 Clouds 20 1021 68 10000 5.66 100 16:53 31.08.2021
5924 Clouds 22 1021 56 10000 7.2 90 16:24 31.08.2021
5925 Clouds 22 1021 56 10000 7.2 90 16:24 31.08.2021
5926 Clouds 24 1021 53 10000 4.12 90 13:20 31.08.2021
5927 Clouds 21 1022 60 10000 3.6 110 11:28 31.08.2021
5928 Clouds 21 1022 60 10000 3.6 130 10:52 31.08.2021
5929 Clouds 19 1023 68 10000 4.63 120 09:44 31.08.2021
5930 Clouds 19 1022 68 10000 4.63 140 08:38 31.08.2021
5931 Clouds 14 1021 94 10000 2.57 90 05:59 31.08.2021
5932 Clouds 15 1020 88 10000 3.6 110 02:39 31.08.2021
5933 Clouds 16 1021 82 10000 3.6 70 23:35 30.08.2021
5934 Clouds 16 1021 88 10000 3.09 100 21:43 30.08.2021
5935 Clouds 17 1021 82 10000 3.6 60 20:49 30.08.2021
5936 Clouds 16 1021 88 10000 3.6 90 20:19 30.08.2021
5937 Rain 16 1020 88 10000 3.6 90 19:29 30.08.2021
5938 Rain 16 1020 88 10000 3.6 90 19:29 30.08.2021
5939 Rain 17 1019 82 10000 4.63 90 18:30 30.08.2021
5940 Rain 18 1019 77 10000 4.12 100 17:44 30.08.2021
5941 Rain 20 1019 68 10000 6.17 90 16:20 30.08.2021
5942 Clouds 23 1018 53 10000 6.17 80 15:23 30.08.2021
5943 Rain 24 1018 50 10000 5.66 130 13:28 30.08.2021
5944 Rain 24 1019 50 10000 6.17 80 12:24 30.08.2021
5945 Clouds 20 1021 68 10000 3.6 110 08:27 30.08.2021
5946 Clouds 15 1021 94 10000 3.09 170 22:26 29.08.2021
5947 Clouds 16 1020 88 10000 3.6 160 21:32 29.08.2021
5948 Clouds 16 1020 88 10000 3.6 160 21:32 29.08.2021
5949 Clouds 16 1020 88 10000 3.6 160 19:33 29.08.2021
5950 Clouds 16 1020 88 10000 3.09 170 18:47 29.08.2021
5951 Clouds 17 1020 82 10000 3.6 130 17:41 29.08.2021
5952 Clouds 20 1018 64 10000 5.66 130 15:30 29.08.2021
5953 Clouds 23 1018 50 10000 6.17 110 14:18 29.08.2021
5954 Clouds 22 1018 56 10000 5.66 190 13:28 29.08.2021
5955 Clouds 21 1019 56 10000 5.14 150 12:31 29.08.2021
5956 Clouds 22 1019 56 10000 6.69 110 11:41 29.08.2021
5957 Clouds 21 1020 60 10000 6.17 140 10:49 29.08.2021
5958 Clouds 19 1020 68 10000 5.66 140 10:30 29.08.2021
5959 Clouds 18 1021 72 10000 6.17 140 09:44 29.08.2021
5960 Clouds 13 1020 100 10000 2.57 170 06:38 29.08.2021
5961 Clouds 14 1021 82 10000 4.12 170 23:33 28.08.2021
5962 Clouds 14 1022 77 10000 5.66 160 20:52 28.08.2021
5963 Clouds 15 1022 77 10000 4.63 150 19:43 28.08.2021
5964 Clouds 15 1021 72 10000 4.12 160 18:27 28.08.2021
5965 Clouds 15 1021 72 10000 5.14 160 17:47 28.08.2021
5966 Clouds 15 1021 77 10000 6.17 160 16:57 28.08.2021
5967 Clouds 17 1021 63 10000 6.17 150 15:27 28.08.2021
5968 Clouds 19 1020 56 10000 8.23 130 13:59 28.08.2021
5969 Clouds 19 1020 56 10000 8.23 130 13:41 28.08.2021
5970 Clouds 19 1021 56 10000 6.69 150 12:35 28.08.2021
5971 Clouds 18 1022 59 10000 6.69 130 11:40 28.08.2021
5972 Clouds 17 1023 63 10000 7.2 140 10:18 28.08.2021
5973 Clouds 14 1023 72 10000 3.6 170 07:57 28.08.2021
5974 Clouds 10 1022 82 10000 4.12 180 02:36 28.08.2021
5975 Clouds 11 1025 82 10000 3.09 150 21:45 27.08.2021
5976 Clouds 12 1025 76 10000 5.66 140 20:53 27.08.2021
5977 Clouds 12 1024 82 10000 4.12 140 19:43 27.08.2021
5978 Clouds 14 1023 72 10000 4.12 140 18:39 27.08.2021
5979 Clouds 14 1023 67 10000 4.12 140 17:54 27.08.2021
5980 Clouds 16 1023 59 10000 5.14 140 16:41 27.08.2021
5981 Clouds 19 1022 45 10000 6.17 170 14:49 27.08.2021
5982 Clouds 20 1022 43 10000 6.69 150 14:31 27.08.2021
5983 Clouds 20 1023 43 10000 6.17 160 12:27 27.08.2021
5984 Clouds 19 1023 45 10000 8.75 170 10:58 27.08.2021
5985 Clouds 18 1024 52 10000 8.75 170 10:36 27.08.2021
5986 Clouds 17 1024 52 10000 7.2 150 08:57 27.08.2021
5987 Clouds 16 1025 63 10000 7.2 140 08:35 27.08.2021
5988 Clouds 11 1023 87 10000 3.6 130 05:37 27.08.2021
5989 Clouds 13 1023 82 10000 3.09 130 00:47 27.08.2021
5990 Clouds 13 1023 82 10000 3.09 140 00:28 27.08.2021
5991 Clouds 13 1024 82 10000 3.6 140 22:26 26.08.2021
5992 Clouds 13 1023 82 10000 3.09 140 21:47 26.08.2021
5993 Clouds 14 1023 82 10000 4.12 110 19:33 26.08.2021
5994 Clouds 16 1022 67 10000 4.63 130 17:52 26.08.2021
5995 Clouds 17 1021 63 10000 5.66 120 17:25 26.08.2021
5996 Clouds 19 1021 52 10000 5.14 130 16:27 26.08.2021
5997 Clouds 22 1020 43 10000 5.66 150 14:21 26.08.2021
5998 Clouds 22 1021 43 10000 5.66 150 13:20 26.08.2021
5999 Clouds 21 1022 49 10000 5.14 180 12:33 26.08.2021
6000 Clouds 20 1022 52 10000 5.14 160 11:37 26.08.2021
6001 Clouds 15 1024 72 10000 6.69 150 08:36 26.08.2021
6002 Clouds 13 1024 88 10000 4.63 180 07:54 26.08.2021
6003 Clouds 12 1023 94 10000 1.54 70 23:25 25.08.2021
6004 Clouds 13 1023 94 10000 2.57 60 22:37 25.08.2021
6005 Clouds 13 1023 94 10000 2.57 60 22:18 25.08.2021
6006 Clouds 14 1023 88 10000 2.06 60 20:57 25.08.2021
6007 Clouds 14 1023 88 10000 2.57 60 20:29 25.08.2021
6008 Clouds 16 1022 77 10000 2.57 80 18:46 25.08.2021
6009 Clouds 18 1021 63 10000 4.12 90 17:52 25.08.2021
6010 Clouds 24 1020 44 10000 6.17 110 15:51 25.08.2021
6011 Clouds 25 1020 38 10000 4.12 140 15:26 25.08.2021
6012 Clouds 25 1020 38 10000 4.63 170 14:45 25.08.2021
6013 Clouds 26 1020 36 10000 3.6 0 13:31 25.08.2021
6014 Clouds 23 1022 46 10000 2.57 0 11:36 25.08.2021
6015 Clouds 23 1023 43 10000 2.57 0 10:56 25.08.2021
6016 Clouds 21 1023 53 10000 1.54 0 09:59 25.08.2021
6017 Clouds 20 1024 56 10000 2.06 80 09:30 25.08.2021
6018 Clouds 18 1024 63 10000 2.06 100 08:33 25.08.2021
6019 Clouds 12 1023 88 10000 1.54 0 05:55 25.08.2021
6020 Clouds 11 1023 94 10000 2.06 120 00:54 25.08.2021
6021 Clouds 12 1024 94 10000 1.54 140 22:51 24.08.2021
6022 Clouds 13 1023 88 10000 4.63 90 20:53 24.08.2021
6023 Clouds 14 1023 77 10000 4.12 100 19:53 24.08.2021
6024 Clouds 15 1022 72 10000 2.57 90 18:51 24.08.2021
6025 Clouds 16 1022 67 10000 3.6 70 17:52 24.08.2021
6026 Clouds 17 1021 63 10000 4.63 80 17:20 24.08.2021
6027 Clouds 23 1021 38 10000 3.6 110 14:38 24.08.2021
6028 Clouds 23 1021 43 10000 4.63 100 13:29 24.08.2021
6029 Clouds 23 1021 43 10000 4.63 100 13:29 24.08.2021
6030 Clouds 23 1022 41 10000 3.6 130 12:36 24.08.2021
6031 Clouds 23 1023 43 10000 3.09 0 11:19 24.08.2021
6032 Clouds 21 1024 46 10000 3.6 130 10:35 24.08.2021
6033 Clouds 19 1024 52 10000 3.09 130 09:19 24.08.2021
6034 Clouds 16 1024 63 10000 3.6 120 07:28 24.08.2021
6035 Clouds 13 1023 77 10000 3.09 90 05:30 24.08.2021
6036 Clouds 14 1023 72 10000 3.09 140 00:59 24.08.2021
6037 Clouds 13 1024 77 10000 4.12 90 23:26 23.08.2021
6038 Clouds 14 1024 82 10000 3.6 90 22:41 23.08.2021
6039 Clouds 13 1023 88 10000 4.63 100 20:50 23.08.2021
6040 Clouds 15 1023 72 10000 5.14 110 19:27 23.08.2021
6041 Clouds 20 1021 43 10000 4.12 90 16:42 23.08.2021
6042 Clouds 24 1020 25 10000 5.14 100 15:24 23.08.2021
6043 Clouds 25 1020 21 10000 4.63 110 13:47 23.08.2021
6044 Clouds 25 1021 25 10000 3.6 180 12:29 23.08.2021
6045 Clouds 24 1022 27 10000 2.57 0 10:44 23.08.2021
6046 Clouds 21 1023 28 10000 1.54 0 09:51 23.08.2021
6047 Mist 12 1024 94 4000 1.03 0 08:34 23.08.2021
6048 Fog 10 1024 100 700 0 0 06:51 23.08.2021
6049 Fog 10 1023 100 450 1.03 0 06:33 23.08.2021
6050 Clouds 9 1023 100 10000 2.57 110 00:55 23.08.2021
6051 Clouds 11 1024 94 10000 2.57 80 22:46 22.08.2021
6052 Clouds 11 1024 94 10000 2.57 120 22:28 22.08.2021
6053 Clouds 12 1023 76 10000 2.06 70 20:23 22.08.2021
6054 Clouds 13 1023 72 10000 3.09 90 19:46 22.08.2021
6055 Clouds 18 1022 48 10000 5.14 90 17:26 22.08.2021
6056 Clouds 23 1021 33 10000 4.63 100 15:32 22.08.2021
6057 Clouds 23 1021 33 10000 4.12 110 14:43 22.08.2021
6058 Clouds 24 1021 29 10000 5.14 160 13:21 22.08.2021
6059 Clouds 24 1022 29 10000 4.63 110 12:55 22.08.2021
6060 Clouds 24 1022 27 10000 5.66 100 12:26 22.08.2021
6061 Clouds 24 1023 27 10000 5.14 110 11:42 22.08.2021
6062 Clouds 21 1024 40 10000 3.6 130 10:31 22.08.2021
6063 Clouds 16 1025 67 10000 4.12 150 08:19 22.08.2021
6064 Clouds 9 1024 100 10000 2.06 70 04:57 22.08.2021
6065 Clouds 9 1024 100 10000 2.06 70 04:57 22.08.2021
6066 Clouds 13 1024 94 10000 4.12 110 23:58 21.08.2021
6067 Clouds 14 1025 88 10000 3.6 120 22:34 21.08.2021
6068 Clouds 15 1024 82 10000 3.6 100 20:35 21.08.2021
6069 Clouds 17 1023 72 10000 6.17 110 18:46 21.08.2021
6070 Clouds 18 1022 68 10000 5.14 90 17:59 21.08.2021
6071 Clouds 21 1021 49 10000 6.69 110 16:54 21.08.2021
6072 Clouds 22 1021 46 10000 5.66 120 16:28 21.08.2021
6073 Clouds 24 1021 38 10000 7.2 110 15:36 21.08.2021
6074 Clouds 25 1020 36 10000 5.66 120 14:47 21.08.2021
6075 Clouds 26 1021 32 10000 5.14 150 13:31 21.08.2021
6076 Clouds 26 1022 28 10000 5.66 150 12:34 21.08.2021
6077 Clouds 22 1024 43 10000 4.12 130 09:29 21.08.2021
6078 Fog 13 1023 100 800 1.03 70 05:41 21.08.2021
6079 Rain 16 1023 88 10000 2.06 80 22:56 20.08.2021
6080 Rain 17 1023 88 10000 2.57 90 21:41 20.08.2021
6081 Rain 20 1021 64 10000 4.63 100 17:47 20.08.2021
6082 Clouds 25 1020 47 10000 5.14 100 15:57 20.08.2021
6083 Clouds 27 1020 36 10000 2.57 0 13:36 20.08.2021
6084 Clouds 24 1022 50 10000 2.06 170 11:38 20.08.2021
6085 Clouds 22 1022 56 10000 2.06 0 10:43 20.08.2021
6086 Clouds 20 1023 64 10000 2.57 160 09:40 20.08.2021
6087 Clouds 18 1023 72 10000 2.57 150 08:41 20.08.2021
6088 Clouds 15 1023 88 10000 2.06 60 06:59 20.08.2021
6089 Clouds 14 1021 94 10000 1.03 0 04:22 20.08.2021
6090 Clouds 14 1022 100 10000 1.03 0 00:19 20.08.2021
6091 Clouds 14 1022 100 10000 1.03 0 00:19 20.08.2021
6092 Clouds 13 1023 100 10000 1.54 60 22:57 19.08.2021
6093 Clouds 14 1023 94 10000 2.06 70 22:31 19.08.2021
6094 Clouds 15 1022 88 10000 2.57 100 20:31 19.08.2021
6095 Clouds 15 1021 82 10000 2.57 80 19:35 19.08.2021
6096 Clouds 19 1020 64 10000 3.09 50 17:19 19.08.2021
6097 Clouds 23 1020 50 10000 5.66 70 15:53 19.08.2021
6098 Clouds 26 1020 39 10000 2.57 0 13:29 19.08.2021
6099 Clouds 25 1021 41 10000 4.12 100 12:33 19.08.2021
6100 Clouds 23 1022 43 10000 4.12 100 11:23 19.08.2021
6101 Clouds 22 1023 49 10000 3.6 80 10:20 19.08.2021
6102 Clouds 21 1023 53 10000 3.6 80 09:44 19.08.2021
6103 Clouds 20 1024 56 10000 2.57 70 09:18 19.08.2021
6104 Clouds 14 1024 77 10000 2.06 160 06:51 19.08.2021
6105 Clouds 10 1023 100 10000 0.51 0 02:22 19.08.2021
6106 Clouds 9 1023 100 10000 1.54 110 01:42 19.08.2021
6107 Clouds 10 1025 93 10000 2.06 80 22:55 18.08.2021
6108 Clouds 11 1025 94 10000 2.06 140 21:39 18.08.2021
6109 Clouds 11 1025 87 10000 2.06 80 20:27 18.08.2021
6110 Clouds 12 1024 88 10000 4.63 90 19:31 18.08.2021
6111 Clouds 12 1024 88 10000 3.6 100 18:46 18.08.2021
6112 Clouds 14 1023 72 10000 4.63 90 17:29 18.08.2021
6113 Clouds 18 1022 55 10000 5.14 90 15:46 18.08.2021
6114 Clouds 19 1022 49 10000 5.14 90 15:23 18.08.2021
6115 Clouds 20 1022 46 10000 6.17 100 13:29 18.08.2021
6116 Clouds 19 1023 49 10000 5.66 80 12:41 18.08.2021
6117 Clouds 19 1023 49 10000 5.14 90 12:23 18.08.2021
6118 Clouds 13 1026 77 10000 4.12 140 09:25 18.08.2021
6119 Clouds 10 1025 93 8000 2.57 150 05:50 18.08.2021
6120 Clouds 11 1025 82 10000 3.6 150 00:41 18.08.2021
6121 Clouds 12 1027 76 10000 3.09 170 22:28 17.08.2021
6122 Clouds 12 1027 82 10000 3.6 150 21:22 17.08.2021
6123 Clouds 13 1027 72 10000 2.57 150 20:43 17.08.2021
6124 Clouds 13 1027 77 10000 3.09 150 18:56 17.08.2021
6125 Clouds 14 1026 72 10000 4.12 140 17:27 17.08.2021
6126 Clouds 15 1025 59 10000 4.63 140 16:31 17.08.2021
6127 Clouds 16 1025 59 10000 4.63 150 15:35 17.08.2021
6128 Clouds 19 1025 49 10000 7.2 120 13:26 17.08.2021
6129 Clouds 17 1026 55 10000 7.72 120 11:25 17.08.2021
6130 Clouds 14 1028 58 10000 6.17 140 09:20 17.08.2021
6131 Clouds 12 1028 76 10000 4.63 150 07:37 17.08.2021
6132 Clouds 11 1027 76 10000 3.09 160 23:28 16.08.2021
6133 Clouds 11 1027 76 10000 3.09 160 22:54 16.08.2021
6134 Clouds 10 1027 87 10000 3.09 160 22:35 16.08.2021
6135 Clouds 10 1027 82 10000 2.57 150 21:51 16.08.2021
6136 Clouds 10 1027 82 10000 2.57 130 20:53 16.08.2021
6137 Clouds 11 1027 82 10000 3.09 140 19:43 16.08.2021
6138 Clouds 11 1027 82 10000 3.09 140 19:22 16.08.2021
6139 Clouds 12 1026 71 10000 5.14 110 17:55 16.08.2021
6140 Clouds 14 1025 58 10000 6.17 120 16:57 16.08.2021
6141 Clouds 17 1024 48 10000 6.69 120 15:28 16.08.2021
6142 Clouds 18 1024 45 10000 6.69 120 14:27 16.08.2021
6143 Clouds 19 1024 49 10000 6.69 130 13:21 16.08.2021
6144 Clouds 19 1025 49 10000 5.66 130 12:28 16.08.2021
6145 Clouds 18 1026 48 10000 5.66 130 09:43 16.08.2021
6146 Clouds 15 1027 59 10000 4.63 160 08:43 16.08.2021
6147 Clouds 11 1027 76 10000 3.6 150 07:30 16.08.2021
6148 Clouds 7 1026 93 10000 2.57 120 05:58 16.08.2021
6149 Clouds 9 1025 87 10000 2.57 130 01:22 16.08.2021
6150 Clouds 9 1026 93 10000 3.09 100 21:34 15.08.2021
6151 Clouds 10 1025 87 10000 3.6 100 19:41 15.08.2021
6152 Clouds 11 1025 76 10000 3.6 90 18:41 15.08.2021
6153 Clouds 12 1025 71 10000 5.14 110 17:49 15.08.2021
6154 Clouds 15 1024 59 10000 5.66 120 16:43 15.08.2021
6155 Clouds 17 1024 52 10000 4.63 120 15:35 15.08.2021
6156 Clouds 19 1023 49 10000 4.63 100 14:36 15.08.2021
6157 Clouds 19 1023 49 10000 5.14 100 13:34 15.08.2021
6158 Clouds 15 1025 59 10000 4.12 150 10:41 15.08.2021
6159 Clouds 12 1025 76 10000 5.14 140 06:55 15.08.2021
6160 Clouds 13 1025 82 10000 3.6 150 01:22 15.08.2021
6161 Clouds 13 1025 82 10000 3.6 140 00:32 15.08.2021
6162 Clouds 13 1026 88 10000 3.6 140 21:26 14.08.2021
6163 Clouds 13 1026 88 10000 3.09 140 20:21 14.08.2021
6164 Clouds 14 1026 77 10000 3.6 130 19:31 14.08.2021
6165 Clouds 15 1025 67 10000 4.63 160 17:35 14.08.2021
6166 Clouds 16 1025 67 10000 5.66 150 16:39 14.08.2021
6167 Clouds 18 1024 59 10000 5.66 130 15:34 14.08.2021
6168 Clouds 20 1024 56 10000 6.17 160 13:32 14.08.2021
6169 Clouds 20 1026 52 10000 7.72 160 10:56 14.08.2021
6170 Clouds 17 1027 63 10000 6.17 160 08:53 14.08.2021
6171 Clouds 16 1026 77 10000 3.09 160 00:21 14.08.2021
6172 Clouds 16 1026 77 10000 2.57 160 23:49 13.08.2021
6173 Clouds 16 1026 82 10000 2.57 170 21:50 13.08.2021
6174 Clouds 16 1026 82 10000 2.57 120 19:29 13.08.2021
6175 Clouds 18 1026 72 10000 3.6 130 18:45 13.08.2021
6176 Clouds 22 1024 46 10000 2.57 110 16:51 13.08.2021
6177 Clouds 24 1023 31 10000 1.03 0 15:41 13.08.2021
6178 Clouds 23 1025 41 10000 2.06 0 11:21 13.08.2021
6179 Clouds 21 1026 53 8000 2.06 0 10:39 13.08.2021
6180 Mist 13 1026 100 2000 1.03 0 08:39 13.08.2021
6181 Fog 13 1026 100 500 1.54 0 07:48 13.08.2021
6182 Fog 11 1025 100 150 0.51 0 06:31 13.08.2021
6183 Clouds 12 1024 100 10000 1.03 0 00:18 13.08.2021
6184 Clouds 13 1024 94 10000 2.06 110 21:43 12.08.2021
6185 Clouds 14 1024 94 10000 2.57 80 20:26 12.08.2021
6186 Clouds 15 1024 88 10000 1.54 0 19:49 12.08.2021
6187 Clouds 18 1023 63 10000 2.57 80 17:56 12.08.2021
6188 Clouds 21 1022 40 10000 3.09 20 16:50 12.08.2021
6189 Clouds 25 1022 29 10000 4.63 320 15:35 12.08.2021
6190 Clouds 25 1022 29 10000 3.09 360 13:46 12.08.2021
6191 Clouds 24 1023 33 10000 1.54 0 11:34 12.08.2021
6192 Clouds 16 1026 59 10000 1.54 150 08:53 12.08.2021
6193 Clouds 12 1026 82 10000 0.51 0 07:18 12.08.2021
6194 Clouds 10 1024 93 10000 2.57 90 23:20 11.08.2021
6195 Clouds 11 1025 87 10000 2.57 130 21:37 11.08.2021
6196 Clouds 13 1024 77 10000 4.12 120 18:48 11.08.2021
6197 Clouds 13 1023 82 10000 3.09 80 18:24 11.08.2021
6198 Clouds 19 1022 52 10000 5.14 80 15:21 11.08.2021
6199 Clouds 19 1022 49 10000 3.6 130 14:37 11.08.2021
6200 Clouds 18 1023 55 10000 4.12 160 12:37 11.08.2021
6201 Clouds 18 1023 55 10000 4.12 140 11:57 11.08.2021
6202 Clouds 16 1024 67 10000 5.66 120 11:39 11.08.2021
6203 Clouds 16 1024 67 10000 5.66 120 11:18 11.08.2021
6204 Clouds 17 1024 55 10000 4.12 150 08:50 11.08.2021
6205 Clouds 13 1022 82 10000 3.09 140 02:40 11.08.2021
6206 Clouds 12 1024 88 10000 0.51 0 22:33 10.08.2021
6207 Clouds 12 1024 88 10000 1.54 90 21:38 10.08.2021
6208 Clouds 12 1024 88 10000 2.06 90 20:49 10.08.2021
6209 Clouds 14 1023 82 10000 3.09 130 19:25 10.08.2021
6210 Clouds 21 1021 40 10000 0.51 0 16:51 10.08.2021
6211 Clouds 23 1020 33 10000 1.54 0 15:22 10.08.2021
6212 Clouds 23 1020 35 10000 1.03 0 14:39 10.08.2021
6213 Clouds 20 1022 46 10000 2.06 180 10:47 10.08.2021
6214 Mist 11 1024 100 1400 1.54 0 08:18 10.08.2021
6215 Fog 10 1022 100 400 2.06 110 04:59 10.08.2021
6216 Clouds 10 1022 93 10000 1.03 90 00:37 10.08.2021
6217 Clouds 11 1023 87 10000 1.54 50 23:24 09.08.2021
6218 Clouds 12 1023 88 10000 0.51 80 21:52 09.08.2021
6219 Clouds 13 1023 82 10000 4.12 100 20:35 09.08.2021
6220 Clouds 15 1021 63 10000 3.09 60 17:57 09.08.2021
6221 Clouds 22 1021 31 10000 3.09 200 15:35 09.08.2021
6222 Clouds 22 1021 31 10000 3.09 200 15:35 09.08.2021
6223 Clouds 22 1021 31 10000 3.09 220 14:36 09.08.2021
6224 Clouds 23 1021 31 10000 2.57 0 13:29 09.08.2021
6225 Clouds 22 1022 33 10000 3.6 0 11:47 09.08.2021
6226 Clouds 17 1024 55 10000 2.57 170 09:21 09.08.2021
6227 Clouds 12 1024 82 8000 2.57 190 07:52 09.08.2021
6228 Clouds 13 1023 72 10000 2.57 130 21:31 08.08.2021
6229 Clouds 13 1023 72 10000 2.06 130 20:24 08.08.2021
6230 Clouds 18 1021 48 10000 4.63 70 16:59 08.08.2021
6231 Clouds 22 1020 28 10000 1.03 0 15:43 08.08.2021
6232 Clouds 22 1020 28 10000 1.54 0 14:29 08.08.2021
6233 Clouds 22 1021 28 10000 3.09 190 12:19 08.08.2021
6234 Clouds 20 1023 40 10000 2.57 150 10:34 08.08.2021
6235 Fog 10 1023 100 1500 1.03 0 06:41 08.08.2021
6236 Clouds 12 1022 88 10000 2.06 50 00:44 08.08.2021
6237 Clouds 12 1023 88 10000 2.06 50 00:24 08.08.2021
6238 Clouds 12 1023 88 10000 2.06 90 21:43 07.08.2021
6239 Clouds 13 1023 82 10000 3.09 90 20:59 07.08.2021
6240 Clouds 15 1022 72 10000 5.14 110 18:18 07.08.2021
6241 Clouds 17 1021 59 10000 5.66 90 16:50 07.08.2021
6242 Clouds 22 1020 33 10000 2.06 230 15:28 07.08.2021
6243 Clouds 23 1021 33 10000 1.54 0 13:33 07.08.2021
6244 Clouds 19 1024 49 10000 2.06 0 10:27 07.08.2021
6245 Clouds 8 1024 100 10000 1.03 70 06:31 07.08.2021
6246 Clouds 8 1024 100 10000 1.54 80 01:51 07.08.2021
6247 Clouds 10 1025 93 10000 3.09 110 21:51 06.08.2021
6248 Clouds 11 1025 94 10000 2.57 130 20:34 06.08.2021
6249 Clouds 12 1025 88 10000 2.57 140 19:56 06.08.2021
6250 Clouds 13 1024 72 10000 4.12 100 18:32 06.08.2021
6251 Clouds 13 1024 72 10000 4.12 100 18:32 06.08.2021
6252 Clouds 13 1024 72 10000 4.12 100 18:32 06.08.2021
6253 Clouds 13 1024 72 10000 4.12 100 18:32 06.08.2021
6254 Clouds 19 1023 42 10000 5.66 110 15:48 06.08.2021
6255 Clouds 19 1025 42 10000 4.63 170 10:51 06.08.2021
6256 Clouds 17 1026 52 10000 3.09 160 09:56 06.08.2021
6257 Clouds 12 1027 71 10000 2.06 130 07:32 06.08.2021
6258 Clouds 10 1027 93 10000 2.06 120 23:33 05.08.2021
6259 Clouds 9 1028 93 10000 2.57 120 21:32 05.08.2021
6260 Clouds 10 1028 87 10000 2.06 140 20:43 05.08.2021
6261 Clouds 11 1028 82 10000 4.63 110 19:24 05.08.2021
6262 Clouds 16 1026 63 10000 6.69 110 16:25 05.08.2021
6263 Clouds 18 1025 52 10000 3.09 120 14:19 05.08.2021
6264 Clouds 16 1028 63 10000 4.12 160 10:56 05.08.2021
6265 Clouds 14 1029 77 10000 4.12 140 08:33 05.08.2021
6266 Rain 11 1028 94 10000 3.09 170 04:34 05.08.2021
6267 Drizzle 12 1029 94 10000 2.57 150 23:19 04.08.2021
6268 Rain 12 1029 94 10000 2.06 140 21:43 04.08.2021
6269 Clouds 12 1029 94 10000 2.57 140 21:18 04.08.2021
6270 Clouds 14 1028 82 10000 3.6 140 17:25 04.08.2021
6271 Clouds 16 1027 67 10000 5.66 110 15:36 04.08.2021
6272 Clouds 17 1027 63 10000 5.14 130 14:41 04.08.2021
6273 Clouds 16 1029 67 10000 5.66 130 09:51 04.08.2021
6274 Clouds 12 1028 82 10000 2.57 140 23:32 03.08.2021
6275 Clouds 14 1028 77 10000 2.57 150 20:33 03.08.2021
6276 Clouds 15 1027 72 10000 4.12 130 18:59 03.08.2021
6277 Clouds 16 1026 63 10000 6.17 110 17:38 03.08.2021
6278 Clouds 21 1024 40 10000 5.66 120 14:58 03.08.2021
6279 Clouds 22 1025 28 10000 4.63 200 11:44 03.08.2021
6280 Clouds 20 1025 46 10000 4.12 170 10:39 03.08.2021
6281 Clouds 9 1025 100 10000 0 0 23:46 02.08.2021
6282 Clouds 14 1023 77 10000 1.54 60 17:28 02.08.2021
6283 Clouds 18 1023 55 10000 2.06 50 15:46 02.08.2021
6284 Clouds 20 1024 52 10000 3.6 130 12:54 02.08.2021
6285 Clouds 20 1025 52 10000 2.57 140 11:58 02.08.2021
6286 Clouds 17 1026 63 10000 2.57 160 10:58 02.08.2021
6287 Clouds 15 1027 67 10000 2.57 90 09:45 02.08.2021
6288 Clouds 11 1027 87 10000 2.57 150 20:29 01.08.2021
6289 Clouds 13 1027 77 10000 5.14 120 18:18 01.08.2021
6290 Clouds 20 1025 46 10000 6.69 120 12:55 01.08.2021
6291 Clouds 18 1027 55 10000 6.69 130 11:35 01.08.2021
6292 Clouds 7 1027 93 10000 1.54 160 04:53 01.08.2021
6293 Clouds 7 1027 93 10000 1.54 130 03:46 01.08.2021
6294 Clouds 11 1029 82 10000 4.12 130 22:41 31.07.2021
6295 Clouds 12 1029 82 10000 4.12 130 19:47 31.07.2021
6296 Clouds 16 1027 55 10000 7.2 110 16:38 31.07.2021
6297 Clouds 18 1027 48 10000 6.69 130 15:27 31.07.2021
6298 Clouds 18 1028 52 10000 5.66 170 10:59 31.07.2021
6299 Clouds 8 1029 93 10000 2.57 160 05:49 31.07.2021
6300 Clouds 12 1030 76 10000 4.12 150 22:31 30.07.2021
6301 Clouds 12 1029 88 10000 4.12 130 20:24 30.07.2021
6302 Clouds 16 1027 72 10000 5.14 140 15:56 30.07.2021
6303 Clouds 12 1028 94 10000 3.6 130 19:57 29.07.2021
6304 Clouds 14 1027 77 10000 4.63 150 08:43 29.07.2021
6305 Rain 10 1024 93 10000 2.57 160 04:51 29.07.2021
6306 Clouds 9 1025 93 10000 2.06 130 22:48 28.07.2021
6307 Clouds 13 1024 58 10000 3.6 150 17:53 28.07.2021
6308 Clouds 14 1024 58 10000 3.6 140 17:18 28.07.2021
6309 Clear 16 1025 51 10000 3.6 150 09:44 28.07.2021
6310 Clouds 11 1024 82 10000 2.57 140 23:56 27.07.2021
6311 Clouds 12 1025 82 10000 3.6 150 21:34 27.07.2021
6312 Clouds 17 1022 55 10000 4.12 160 14:54 27.07.2021
6313 Clouds 20 1022 40 10000 2.06 0 14:31 27.07.2021
6314 Clouds 18 1025 48 10000 3.09 170 10:20 27.07.2021
6315 Clouds 9 1024 87 10000 2.57 130 02:58 27.07.2021
6316 Clouds 15 1024 63 10000 5.14 150 15:34 26.07.2021
6317 Clouds 15 1026 63 10000 6.69 180 10:38 26.07.2021
6318 Clouds 11 1026 82 10000 5.66 170 20:58 25.07.2021
6319 Clouds 11 1026 82 10000 4.12 170 20:24 25.07.2021
6320 Clouds 13 1025 72 10000 6.69 160 17:22 25.07.2021
6321 Clouds 18 1024 55 10000 7.72 150 13:33 25.07.2021
6322 Clouds 14 1026 72 10000 7.2 160 08:21 25.07.2021
6323 Clouds 12 1024 82 10000 4.63 170 04:56 25.07.2021
6324 Clouds 13 1025 82 10000 2.57 120 20:22 24.07.2021
6325 Clouds 12 1025 82 10000 2.06 150 19:35 24.07.2021
6326 Clouds 15 1025 63 10000 4.63 170 08:59 24.07.2021
6327 Clouds 15 1023 63 10000 4.12 80 17:34 23.07.2021
6328 Clouds 21 1022 33 10000 3.09 120 14:35 23.07.2021
6329 Clouds 12 1025 88 10000 1.54 200 07:56 23.07.2021
6330 Clouds 7 1027 93 10000 0.51 0 22:49 22.07.2021
6331 Clouds 20 1025 43 10000 5.14 110 14:53 22.07.2021
6332 Clouds 20 1025 43 10000 5.14 110 14:53 22.07.2021
6333 Clouds 18 1027 59 10000 4.63 120 11:18 22.07.2021
6334 Clouds 13 1028 72 10000 4.63 170 08:24 22.07.2021
6335 Clouds 11 1029 87 10000 2.57 150 22:33 21.07.2021
6336 Clouds 11 1029 87 10000 2.57 150 22:33 21.07.2021
6337 Clouds 11 1029 87 10000 3.09 140 21:32 21.07.2021
6338 Clouds 15 1028 59 10000 4.12 130 17:28 21.07.2021
6339 Clouds 19 1030 52 10000 6.17 130 09:56 21.07.2021
6340 Clouds 16 1030 67 10000 4.63 140 09:19 21.07.2021
6341 Clouds 13 1028 82 10000 5.14 160 00:41 21.07.2021
6342 Clouds 14 1029 82 10000 3.09 120 20:28 20.07.2021
6343 Clouds 16 1027 67 10000 4.63 140 16:33 20.07.2021
6344 Clouds 17 1027 68 10000 5.14 130 15:26 20.07.2021
6345 Clouds 17 1028 63 10000 6.69 110 11:19 20.07.2021
6346 Clouds 13 1028 88 10000 3.09 150 07:35 20.07.2021
6347 Clouds 13 1026 94 10000 2.57 150 02:55 20.07.2021
6348 Clouds 15 1025 77 10000 5.14 170 17:44 19.07.2021
6349 Clouds 19 1024 56 10000 6.69 120 12:38 19.07.2021
6350 Clouds 14 1025 82 10000 5.14 100 20:44 18.07.2021
6351 Clouds 20 1023 49 10000 5.14 100 15:20 18.07.2021
6352 Clouds 18 1024 55 10000 3.09 0 10:19 18.07.2021
6353 Clouds 13 1025 82 10000 4.12 140 22:28 17.07.2021
6354 Clouds 13 1025 82 10000 3.09 120 21:55 17.07.2021
6355 Clouds 13 1025 82 10000 3.09 110 21:37 17.07.2021
6356 Clouds 19 1023 42 10000 5.66 120 12:34 17.07.2021
6357 Clouds 19 1024 37 10000 5.14 140 11:29 17.07.2021
6358 Clouds 12 1024 76 10000 5.14 170 04:47 17.07.2021
6359 Clouds 19 1023 49 10000 6.17 110 14:24 16.07.2021
6360 Clouds 17 1026 52 10000 4.12 130 09:45 16.07.2021
6361 Clouds 12 1025 82 10000 2.57 150 06:59 16.07.2021
6362 Clouds 18 1023 48 10000 5.14 160 14:39 15.07.2021
6363 Clouds 19 1023 42 10000 6.69 120 13:48 15.07.2021
6364 Clouds 13 1025 82 10000 4.63 150 07:58 15.07.2021
6365 Clouds 11 1026 94 10000 2.06 160 22:30 14.07.2021
6366 Clouds 16 1024 59 10000 5.14 90 16:48 14.07.2021
6367 Clouds 20 1025 49 10000 3.6 110 11:34 14.07.2021
6368 Clouds 9 1026 93 10000 1.54 150 23:30 13.07.2021
6369 Clouds 9 1026 93 10000 1.54 150 23:30 13.07.2021
6370 Clouds 11 1026 87 10000 4.12 90 19:59 13.07.2021
6371 Clouds 11 1025 87 10000 4.12 100 19:40 13.07.2021
6372 Clouds 11 1025 87 10000 4.12 100 19:20 13.07.2021
6373 Clouds 12 1025 82 10000 4.63 110 18:43 13.07.2021
6374 Clouds 12 1025 82 10000 4.63 110 18:23 13.07.2021
6375 Clouds 18 1024 52 10000 5.66 120 14:32 13.07.2021
6376 Clouds 17 1026 55 10000 7.2 110 09:27 13.07.2021
6377 Clouds 10 1027 93 10000 2.06 130 21:45 12.07.2021
6378 Clouds 13 1025 88 10000 5.66 100 17:28 12.07.2021
6379 Clouds 20 1025 49 10000 6.69 120 14:37 12.07.2021
6380 Clouds 11 1027 87 10000 2.57 170 23:22 11.07.2021
6381 Clouds 12 1027 88 10000 3.09 150 20:49 11.07.2021
6382 Clouds 20 1025 43 10000 7.2 120 14:24 11.07.2021
6383 Clouds 13 1027 82 10000 4.12 160 23:57 10.07.2021
6384 Clouds 16 1025 67 10000 5.66 140 16:54 10.07.2021
6385 Clouds 14 1027 82 10000 3.6 160 07:50 10.07.2021
6386 Clouds 13 1025 94 10000 3.09 160 02:18 10.07.2021
6387 Clouds 14 1027 82 10000 3.6 140 18:29 09.07.2021
6388 Clouds 18 1026 63 10000 5.66 120 14:50 09.07.2021
6389 Clouds 18 1027 59 10000 5.66 130 12:24 09.07.2021
6390 Clouds 12 1027 82 10000 4.12 170 23:52 08.07.2021
6391 Clouds 12 1027 82 10000 4.63 150 22:48 08.07.2021
6392 Clouds 13 1027 82 10000 4.12 140 18:57 08.07.2021
6393 Clouds 14 1026 77 10000 3.6 140 17:43 08.07.2021
6394 Clouds 19 1025 52 10000 6.17 130 13:32 08.07.2021
6395 Clouds 18 1025 55 10000 6.17 140 12:44 08.07.2021
6396 Clouds 18 1026 55 10000 5.14 150 11:32 08.07.2021
6397 Clouds 18 1027 55 10000 5.14 150 09:55 08.07.2021
6398 Clouds 12 1025 88 10000 3.09 170 04:47 08.07.2021
6399 Clouds 10 1025 93 10000 2.57 130 01:43 08.07.2021
6400 Clouds 10 1026 100 10000 2.57 140 22:56 07.07.2021
6401 Clouds 9 1026 93 10000 1.03 190 22:19 07.07.2021
6402 Clouds 10 1026 93 10000 1.03 0 21:41 07.07.2021
6403 Clouds 11 1026 87 10000 1.54 180 21:22 07.07.2021
6404 Clouds 12 1026 82 10000 3.09 130 19:57 07.07.2021
6405 Clouds 12 1026 82 10000 2.57 130 19:28 07.07.2021
6406 Clouds 15 1024 77 10000 5.14 100 17:36 07.07.2021
6407 Clouds 18 1023 63 10000 5.14 110 15:30 07.07.2021
6408 Rain 20 1023 52 10000 4.12 130 12:25 07.07.2021
6409 Clouds 14 1025 82 10000 2.06 90 07:56 07.07.2021
6410 Clouds 12 1024 94 10000 2.57 100 06:43 07.07.2021
6411 Clouds 12 1023 94 10000 1.54 80 05:42 07.07.2021
6412 Clouds 12 1024 82 10000 4.12 100 21:29 06.07.2021
6413 Clouds 13 1024 82 10000 3.6 100 19:29 06.07.2021
6414 Clouds 14 1024 77 10000 4.12 100 18:47 06.07.2021
6415 Clouds 14 1023 77 10000 4.63 80 18:27 06.07.2021
6416 Clouds 20 1022 52 10000 4.12 90 13:45 06.07.2021
6417 Clouds 19 1024 56 10000 2.06 150 10:57 06.07.2021
6418 Clouds 17 1024 59 8000 1.54 170 09:41 06.07.2021
6419 Mist 12 1025 82 5000 1.03 0 08:32 06.07.2021
6420 Mist 9 1024 100 1300 2.06 160 06:30 06.07.2021
6421 Fog 9 1024 100 800 2.06 140 06:30 06.07.2021
6422 Clouds 8 1024 100 10000 0 0 00:59 06.07.2021
6423 Clouds 10 1025 100 10000 1.03 70 22:36 05.07.2021
6424 Clouds 12 1024 82 10000 2.06 80 18:35 05.07.2021
6425 Clouds 20 1023 49 10000 4.63 110 14:29 05.07.2021
6426 Clouds 20 1023 49 10000 4.63 110 14:29 05.07.2021
6427 Clouds 10 1026 100 6000 0.51 0 06:39 05.07.2021
6428 Mist 9 1025 100 2100 0 0 05:44 05.07.2021
6429 Fog 9 1025 100 450 1.54 90 04:40 05.07.2021
6430 Clouds 10 1025 93 10000 2.06 300 23:18 04.07.2021
6431 Clouds 14 1025 77 10000 4.63 80 18:51 04.07.2021
6432 Clouds 19 1024 52 10000 5.14 90 16:31 04.07.2021
6433 Clouds 21 1024 40 10000 1.54 0 11:50 04.07.2021
6434 Clouds 15 1027 67 10000 3.09 180 09:24 04.07.2021
6435 Clouds 10 1026 93 10000 2.06 150 23:32 03.07.2021
6436 Clouds 11 1026 94 10000 3.09 130 22:39 03.07.2021
6437 Clouds 19 1024 60 10000 5.66 100 14:39 03.07.2021
6438 Clouds 20 1024 56 10000 5.14 150 12:38 03.07.2021
6439 Clouds 16 1026 77 10000 5.14 180 09:29 03.07.2021
6440 Clouds 15 1025 77 10000 3.6 170 08:46 03.07.2021
6441 Clouds 11 1025 94 10000 2.06 130 05:43 03.07.2021
6442 Clouds 20 1023 56 10000 6.17 130 12:52 02.07.2021
6443 Clouds 15 1026 67 10000 3.09 170 07:41 02.07.2021
6444 Clouds 13 1025 82 10000 2.06 150 04:49 02.07.2021
6445 Clouds 13 1026 88 10000 2.57 140 22:38 01.07.2021
6446 Clouds 12 1026 88 10000 3.09 110 21:53 01.07.2021
6447 Clouds 11 1026 94 10000 3.09 110 21:20 01.07.2021
6448 Clouds 12 1025 88 10000 3.6 70 19:21 01.07.2021
6449 Clouds 12 1025 82 10000 3.09 60 18:59 01.07.2021
6450 Clouds 13 1025 77 10000 2.57 70 17:52 01.07.2021
6451 Clouds 14 1025 77 10000 3.6 80 17:18 01.07.2021
6452 Clouds 20 1024 52 10000 4.63 120 15:26 01.07.2021
6453 Clouds 22 1023 53 10000 5.14 120 14:23 01.07.2021
6454 Clouds 18 1025 59 10000 4.12 120 10:56 01.07.2021
6455 Clouds 10 1026 100 10000 0 0 06:56 01.07.2021
6456 Clouds 9 1026 100 10000 1.54 90 23:23 30.06.2021
6457 Clouds 10 1026 93 10000 2.57 60 22:20 30.06.2021
6458 Clouds 10 1027 93 10000 1.54 80 21:22 30.06.2021
6459 Clouds 10 1027 93 10000 2.57 80 20:28 30.06.2021
6460 Clouds 11 1026 87 10000 3.09 80 19:19 30.06.2021
6461 Clouds 21 1024 49 10000 5.14 120 14:26 30.06.2021
6462 Clouds 22 1024 46 10000 5.14 110 13:23 30.06.2021
6463 Clouds 15 1027 67 10000 3.6 130 08:19 30.06.2021
6464 Clouds 13 1026 88 10000 2.57 140 21:40 29.06.2021
6465 Clouds 14 1025 82 10000 4.12 100 18:36 29.06.2021
6466 Clouds 14 1025 82 10000 4.12 100 18:36 29.06.2021
6467 Clouds 15 1025 72 10000 3.6 90 17:43 29.06.2021
6468 Clouds 18 1024 59 10000 5.14 90 16:36 29.06.2021
6469 Clouds 20 1024 52 10000 4.63 110 15:49 29.06.2021
6470 Clouds 23 1023 38 10000 2.57 0 13:31 29.06.2021
6471 Clouds 23 1024 41 10000 2.06 0 12:43 29.06.2021
6472 Clouds 9 1025 100 10000 1.54 170 00:41 29.06.2021
6473 Clouds 10 1026 82 10000 0 0 21:47 28.06.2021
6474 Clouds 12 1025 82 10000 4.12 90 19:48 28.06.2021
6475 Clouds 15 1024 59 10000 4.12 100 17:29 28.06.2021
6476 Clouds 22 1023 33 10000 2.57 80 15:22 28.06.2021
6477 Clouds 21 1023 35 10000 2.06 0 12:58 28.06.2021
6478 Clouds 11 1026 94 10000 0 0 07:50 28.06.2021
6479 Clouds 9 1025 93 10000 2.57 60 23:45 27.06.2021
6480 Clouds 10 1025 93 10000 2.06 100 21:33 27.06.2021
6481 Clouds 13 1024 77 10000 3.09 130 19:40 27.06.2021
6482 Clouds 16 1023 59 10000 4.63 100 16:51 27.06.2021
6483 Clouds 21 1022 37 10000 3.09 140 13:31 27.06.2021
6484 Clouds 11 1024 87 10000 2.57 60 07:38 27.06.2021
6485 Clouds 10 1023 93 10000 1.03 220 22:58 26.06.2021
6486 Clouds 11 1023 94 10000 2.06 90 20:59 26.06.2021
6487 Clouds 11 1023 94 10000 2.06 90 20:40 26.06.2021
6488 Clouds 12 1022 82 10000 3.09 90 19:25 26.06.2021
6489 Clouds 21 1020 37 10000 1.54 150 15:22 26.06.2021
6490 Clouds 18 1021 55 10000 1.03 0 12:28 26.06.2021
6491 Clouds 11 1023 94 10000 1.54 0 08:54 26.06.2021
6492 Clouds 10 1021 100 10000 1.54 60 04:35 26.06.2021
6493 Clouds 10 1023 100 10000 3.09 70 20:40 25.06.2021
6494 Clouds 11 1023 87 10000 2.57 40 19:37 25.06.2021
6495 Clouds 12 1022 82 10000 2.57 60 17:48 25.06.2021
6496 Clouds 15 1022 67 10000 3.09 70 16:49 25.06.2021
6497 Clouds 19 1021 49 10000 2.57 50 14:58 25.06.2021
6498 Clouds 17 1024 59 10000 4.12 80 11:19 25.06.2021
6499 Clouds 10 1025 100 10000 2.57 120 08:22 25.06.2021
6500 Clouds 10 1025 100 10000 2.57 150 07:20 25.06.2021
6501 Mist 5 1023 100 3500 0.51 0 03:46 25.06.2021
6502 Clouds 10 1026 87 10000 2.06 120 21:49 24.06.2021
6503 Clouds 11 1025 87 10000 2.06 150 20:59 24.06.2021
6504 Clouds 11 1025 93 10000 2.06 90 20:39 24.06.2021
6505 Clouds 11 1025 82 10000 3.6 90 18:43 24.06.2021
6506 Clouds 18 1023 52 10000 5.14 110 15:29 24.06.2021
6507 Clouds 20 1023 43 10000 5.14 140 14:55 24.06.2021
6508 Clouds 21 1023 43 10000 4.63 100 14:25 24.06.2021
6509 Clear 19 1025 42 10000 4.12 100 10:57 24.06.2021
6510 Clouds 16 1027 48 10000 2.06 170 09:27 24.06.2021
6511 Clouds 12 1027 76 10000 2.06 170 08:22 24.06.2021
6512 Clouds 8 1024 93 10000 1.54 150 02:32 24.06.2021
6513 Clouds 7 1026 100 10000 0 0 22:36 23.06.2021
6514 Clouds 8 1026 93 10000 2.06 70 21:43 23.06.2021
6515 Clouds 10 1026 87 10000 2.06 100 20:37 23.06.2021
6516 Clouds 10 1025 87 10000 1.54 80 18:34 23.06.2021
6517 Clouds 11 1025 82 10000 2.57 80 17:31 23.06.2021
6518 Clouds 17 1024 52 10000 5.14 100 15:34 23.06.2021
6519 Clouds 17 1024 59 10000 5.14 110 12:51 23.06.2021
6520 Clouds 16 1025 59 10000 3.6 110 11:55 23.06.2021
6521 Clouds 14 1026 72 10000 4.12 140 09:55 23.06.2021
6522 Clouds 13 1026 77 10000 4.63 150 08:45 23.06.2021
6523 Clouds 11 1026 87 10000 4.12 160 07:51 23.06.2021
6524 Clouds 10 1026 93 10000 1.03 0 06:43 23.06.2021
6525 Clouds 10 1024 87 10000 2.57 170 02:29 23.06.2021
6526 Clouds 10 1024 87 10000 2.57 170 02:29 23.06.2021
6527 Clouds 10 1025 87 10000 3.6 160 00:43 23.06.2021
6528 Clouds 10 1025 93 10000 2.06 190 23:55 22.06.2021
6529 Clouds 10 1025 93 10000 1.54 170 22:44 22.06.2021
6530 Clouds 9 1026 93 10000 2.06 110 21:56 22.06.2021
6531 Clouds 9 1026 93 10000 2.06 140 20:58 22.06.2021
6532 Clouds 10 1026 87 10000 2.57 110 19:32 22.06.2021
6533 Clouds 10 1025 87 10000 3.09 100 18:53 22.06.2021
6534 Clouds 10 1025 93 10000 3.6 90 18:19 22.06.2021
6535 Clouds 12 1025 82 10000 3.6 80 17:21 22.06.2021
6536 Clouds 16 1024 55 10000 4.12 120 15:48 22.06.2021
6537 Clouds 18 1024 48 10000 5.14 110 14:34 22.06.2021
6538 Clouds 18 1024 45 10000 4.12 150 13:43 22.06.2021
6539 Clouds 18 1024 42 10000 5.14 120 12:31 22.06.2021
6540 Clouds 17 1026 39 10000 5.66 140 10:57 22.06.2021
6541 Clouds 15 1027 59 10000 5.66 140 09:18 22.06.2021
6542 Clouds 10 1026 82 10000 2.06 140 04:43 22.06.2021
6543 Clouds 10 1027 76 10000 4.63 170 00:37 22.06.2021
6544 Clouds 9 1027 93 10000 3.09 100 22:59 21.06.2021
6545 Clouds 9 1028 93 10000 4.12 100 21:38 21.06.2021
6546 Clouds 9 1028 93 10000 3.09 100 20:52 21.06.2021
6547 Clouds 10 1028 87 10000 3.09 130 19:56 21.06.2021
6548 Clouds 11 1027 82 10000 3.09 140 19:29 21.06.2021
6549 Clouds 11 1027 82 10000 3.6 120 18:20 21.06.2021
6550 Clouds 13 1026 67 10000 3.6 130 16:53 21.06.2021
6551 Clouds 15 1026 59 10000 4.63 130 16:27 21.06.2021
6552 Clouds 16 1026 51 10000 5.14 160 15:56 21.06.2021
6553 Clouds 18 1025 45 10000 6.69 150 14:28 21.06.2021
6554 Clouds 18 1026 48 10000 7.2 130 13:37 21.06.2021
6555 Clouds 16 1026 55 10000 5.14 150 12:55 21.06.2021
6556 Clouds 17 1026 48 10000 6.69 140 12:31 21.06.2021
6557 Clouds 15 1028 77 10000 6.69 120 10:42 21.06.2021
6558 Clouds 14 1028 77 10000 6.17 140 10:18 21.06.2021
6559 Rain 13 1028 88 10000 5.14 150 08:30 21.06.2021
6560 Clouds 13 1028 88 10000 3.09 160 07:55 21.06.2021
6561 Clouds 10 1027 87 10000 3.09 160 01:20 21.06.2021
6562 Clouds 11 1028 87 10000 4.12 120 23:38 20.06.2021
6563 Clouds 11 1028 94 10000 4.12 140 22:59 20.06.2021
6564 Drizzle 11 1028 94 10000 4.12 150 22:31 20.06.2021
6565 Drizzle 12 1028 88 10000 5.66 120 21:35 20.06.2021
6566 Clouds 13 1028 88 10000 4.12 140 19:57 20.06.2021
6567 Clouds 13 1028 88 10000 5.14 140 19:33 20.06.2021
6568 Rain 14 1028 82 10000 5.14 150 18:35 20.06.2021
6569 Clouds 14 1027 82 10000 4.63 150 17:25 20.06.2021
6570 Clouds 15 1027 77 10000 5.14 120 16:35 20.06.2021
6571 Clouds 17 1026 63 10000 5.14 140 15:35 20.06.2021
6572 Clouds 17 1026 59 10000 6.69 130 14:55 20.06.2021
6573 Clouds 19 1026 52 10000 7.2 120 13:53 20.06.2021
6574 Clouds 19 1026 49 10000 6.17 140 13:19 20.06.2021
6575 Clouds 18 1026 55 10000 6.69 170 11:47 20.06.2021
6576 Clouds 18 1027 55 10000 5.66 160 10:52 20.06.2021
6577 Clouds 17 1028 55 10000 5.66 160 09:48 20.06.2021
6578 Clouds 14 1029 63 10000 5.14 170 08:36 20.06.2021
6579 Clouds 10 1028 93 10000 1.03 0 00:31 20.06.2021
6580 Clouds 10 1028 93 10000 1.54 0 23:23 19.06.2021
6581 Clouds 10 1029 93 10000 3.09 130 22:20 19.06.2021
6582 Clouds 11 1029 87 10000 3.09 130 21:43 19.06.2021
6583 Clouds 13 1028 72 10000 3.6 150 18:56 19.06.2021
6584 Clouds 13 1028 72 10000 4.12 150 18:31 19.06.2021
6585 Clouds 14 1027 63 10000 5.14 130 17:28 19.06.2021
6586 Clouds 15 1027 59 10000 5.14 130 16:58 19.06.2021
6587 Clouds 17 1026 55 10000 5.66 130 15:45 19.06.2021
6588 Clouds 21 1025 43 10000 5.66 130 13:45 19.06.2021
6589 Clouds 21 1025 43 10000 4.63 180 12:40 19.06.2021
6590 Clouds 20 1026 49 10000 2.57 160 10:49 19.06.2021
6591 Clouds 20 1026 49 10000 2.57 160 10:49 19.06.2021
6592 Clouds 20 1026 49 10000 2.57 160 10:49 19.06.2021
6593 Clouds 20 1026 49 10000 2.57 160 10:49 19.06.2021
6594 Clouds 20 1026 49 10000 2.57 160 10:49 19.06.2021
6595 Clouds 20 1026 49 10000 2.57 160 10:49 19.06.2021
6596 Clear 19 1027 52 10000 3.6 130 10:27 19.06.2021
6597 Clear 18 1027 55 10000 3.6 170 09:59 19.06.2021
6598 Clear 15 1028 72 10000 3.09 160 08:26 19.06.2021
6599 Clouds 11 1027 100 10000 1.54 70 06:55 19.06.2021
6600 Clouds 8 1026 100 8000 2.06 80 04:23 19.06.2021
6601 Clouds 10 1026 100 8000 1.03 0 00:23 19.06.2021
6602 Clouds 10 1026 100 10000 1.54 220 23:49 18.06.2021
6603 Clouds 11 1027 94 10000 1.54 190 22:55 18.06.2021
6604 Clouds 11 1027 94 10000 1.54 160 22:35 18.06.2021
6605 Clouds 11 1027 100 10000 1.54 170 21:50 18.06.2021
6606 Clouds 12 1027 94 10000 2.06 140 21:26 18.06.2021
6607 Clouds 12 1026 94 10000 4.12 110 20:24 18.06.2021
6608 Clouds 13 1026 82 10000 2.57 60 18:46 18.06.2021
6609 Clouds 15 1025 72 10000 3.6 90 17:51 18.06.2021
6610 Clouds 19 1024 52 10000 2.06 90 16:39 18.06.2021
6611 Clouds 21 1024 43 10000 2.06 150 15:46 18.06.2021
6612 Clouds 24 1024 33 10000 1.03 0 14:41 18.06.2021
6613 Clouds 23 1024 35 10000 1.03 0 13:44 18.06.202